<?xml version="1.0" encoding="UTF-8" standalone="no" ?>
<gpx xmlns="http://www.topografix.com/GPX/1/1" xmlns:xsi="http://www.w3.org/2001/XMLSchema-instance" xsi:schemaLocation="http://www.topografix.com/GPX/1/1 http://www.topografix.com/GPX/1/1/gpx.xsd" version="1.1" creator="VisuGPX - https://www.visugpx.com">
  <metadata>
    <name>Journée du 16-03-12 à Avoriaz</name>
    <desc><![CDATA[Journée du 16-03-12 à Avoriaz]]></desc>
  </metadata>
  <trk>
    <name><![CDATA[ACTIVE LOG]]></name>
    <trkseg>
      <trkpt lat="46.21001" lon="6.7719">
        <ele>1449.3247070312</ele>
        <time>2012-03-16T08:51:30Z</time>
      </trkpt>
      <trkpt lat="46.20996" lon="6.772">
        <ele>1453.6508789062</ele>
        <time>2012-03-16T08:51:32Z</time>
      </trkpt>
      <trkpt lat="46.20994" lon="6.77206">
        <ele>1453.6508789062</ele>
        <time>2012-03-16T08:51:33Z</time>
      </trkpt>
      <trkpt lat="46.20985" lon="6.77236">
        <ele>1457.9768066406</ele>
        <time>2012-03-16T08:51:38Z</time>
      </trkpt>
      <trkpt lat="46.20983" lon="6.77242">
        <ele>1457.49609375</ele>
        <time>2012-03-16T08:51:39Z</time>
      </trkpt>
      <trkpt lat="46.20979" lon="6.77265">
        <ele>1461.3413085938</ele>
        <time>2012-03-16T08:51:43Z</time>
      </trkpt>
      <trkpt lat="46.20974" lon="6.77283">
        <ele>1465.6672363281</ele>
        <time>2012-03-16T08:51:46Z</time>
      </trkpt>
      <trkpt lat="46.20972" lon="6.77289">
        <ele>1465.6672363281</ele>
        <time>2012-03-16T08:51:47Z</time>
      </trkpt>
      <trkpt lat="46.20967" lon="6.773">
        <ele>1468.5512695312</ele>
        <time>2012-03-16T08:51:49Z</time>
      </trkpt>
      <trkpt lat="46.20966" lon="6.77305">
        <ele>1468.5512695312</ele>
        <time>2012-03-16T08:51:50Z</time>
      </trkpt>
      <trkpt lat="46.20957" lon="6.77332">
        <ele>1471.9157714844</ele>
        <time>2012-03-16T08:51:55Z</time>
      </trkpt>
      <trkpt lat="46.20949" lon="6.77355">
        <ele>1475.2802734375</ele>
        <time>2012-03-16T08:51:59Z</time>
      </trkpt>
      <trkpt lat="46.20943" lon="6.77372">
        <ele>1478.6450195312</ele>
        <time>2012-03-16T08:52:02Z</time>
      </trkpt>
      <trkpt lat="46.20941" lon="6.77378">
        <ele>1479.1254882812</ele>
        <time>2012-03-16T08:52:03Z</time>
      </trkpt>
      <trkpt lat="46.20931" lon="6.77406">
        <ele>1482.490234375</ele>
        <time>2012-03-16T08:52:08Z</time>
      </trkpt>
      <trkpt lat="46.20925" lon="6.77422">
        <ele>1485.8549804688</ele>
        <time>2012-03-16T08:52:11Z</time>
      </trkpt>
      <trkpt lat="46.20919" lon="6.77439">
        <ele>1490.1809082031</ele>
        <time>2012-03-16T08:52:14Z</time>
      </trkpt>
      <trkpt lat="46.20917" lon="6.77445">
        <ele>1490.1809082031</ele>
        <time>2012-03-16T08:52:15Z</time>
      </trkpt>
      <trkpt lat="46.20904" lon="6.77484">
        <ele>1493.5454101562</ele>
        <time>2012-03-16T08:52:22Z</time>
      </trkpt>
      <trkpt lat="46.209" lon="6.77496">
        <ele>1497.8713378906</ele>
        <time>2012-03-16T08:52:24Z</time>
      </trkpt>
      <trkpt lat="46.20895" lon="6.77513">
        <ele>1501.2360839844</ele>
        <time>2012-03-16T08:52:27Z</time>
      </trkpt>
      <trkpt lat="46.20891" lon="6.77524">
        <ele>1503.1586914062</ele>
        <time>2012-03-16T08:52:29Z</time>
      </trkpt>
      <trkpt lat="46.20868" lon="6.77595">
        <ele>1506.0424804688</ele>
        <time>2012-03-16T08:52:41Z</time>
      </trkpt>
      <trkpt lat="46.2086" lon="6.77618">
        <ele>1505.0812988281</ele>
        <time>2012-03-16T08:52:45Z</time>
      </trkpt>
      <trkpt lat="46.20835" lon="6.77706">
        <ele>1504.6005859375</ele>
        <time>2012-03-16T08:53:00Z</time>
      </trkpt>
      <trkpt lat="46.20823" lon="6.77741">
        <ele>1506.5231933594</ele>
        <time>2012-03-16T08:53:06Z</time>
      </trkpt>
      <trkpt lat="46.20812" lon="6.7777">
        <ele>1503.6394042969</ele>
        <time>2012-03-16T08:53:11Z</time>
      </trkpt>
      <trkpt lat="46.20809" lon="6.77776">
        <ele>1503.6394042969</ele>
        <time>2012-03-16T08:53:12Z</time>
      </trkpt>
      <trkpt lat="46.20799" lon="6.77798">
        <ele>1503.6394042969</ele>
        <time>2012-03-16T08:53:17Z</time>
      </trkpt>
      <trkpt lat="46.20789" lon="6.77804">
        <ele>1504.1201171875</ele>
        <time>2012-03-16T08:53:31Z</time>
      </trkpt>
      <trkpt lat="46.20789" lon="6.77805">
        <ele>1503.6394042969</ele>
        <time>2012-03-16T08:53:32Z</time>
      </trkpt>
      <trkpt lat="46.20782" lon="6.77821">
        <ele>1504.6005859375</ele>
        <time>2012-03-16T08:53:45Z</time>
      </trkpt>
      <trkpt lat="46.20782" lon="6.77834">
        <ele>1503.6394042969</ele>
        <time>2012-03-16T08:54:00Z</time>
      </trkpt>
      <trkpt lat="46.20781" lon="6.77839">
        <ele>1503.1586914062</ele>
        <time>2012-03-16T08:54:15Z</time>
      </trkpt>
      <trkpt lat="46.20781" lon="6.7784">
        <ele>1502.6779785156</ele>
        <time>2012-03-16T08:54:26Z</time>
      </trkpt>
      <trkpt lat="46.20769" lon="6.77848">
        <ele>1501.2360839844</ele>
        <time>2012-03-16T08:54:35Z</time>
      </trkpt>
      <trkpt lat="46.20762" lon="6.77838">
        <ele>1500.7553710938</ele>
        <time>2012-03-16T08:54:38Z</time>
      </trkpt>
      <trkpt lat="46.20739" lon="6.77786">
        <ele>1497.390625</ele>
        <time>2012-03-16T08:54:46Z</time>
      </trkpt>
      <trkpt lat="46.20736" lon="6.77777">
        <ele>1497.390625</ele>
        <time>2012-03-16T08:54:47Z</time>
      </trkpt>
      <trkpt lat="46.20736" lon="6.7774">
        <ele>1497.390625</ele>
        <time>2012-03-16T08:54:51Z</time>
      </trkpt>
      <trkpt lat="46.20751" lon="6.77698">
        <ele>1495.4680175781</ele>
        <time>2012-03-16T08:54:57Z</time>
      </trkpt>
      <trkpt lat="46.20749" lon="6.77685">
        <ele>1494.0261230469</ele>
        <time>2012-03-16T08:55:03Z</time>
      </trkpt>
      <trkpt lat="46.20743" lon="6.77682">
        <ele>1494.5065917969</ele>
        <time>2012-03-16T08:55:11Z</time>
      </trkpt>
      <trkpt lat="46.20732" lon="6.77678">
        <ele>1494.0261230469</ele>
        <time>2012-03-16T08:55:31Z</time>
      </trkpt>
      <trkpt lat="46.20718" lon="6.77678">
        <ele>1493.5454101562</ele>
        <time>2012-03-16T08:55:44Z</time>
      </trkpt>
      <trkpt lat="46.20692" lon="6.77668">
        <ele>1493.5454101562</ele>
        <time>2012-03-16T08:55:51Z</time>
      </trkpt>
      <trkpt lat="46.20681" lon="6.77663">
        <ele>1495.9487304688</ele>
        <time>2012-03-16T08:55:54Z</time>
      </trkpt>
      <trkpt lat="46.20671" lon="6.77659">
        <ele>1499.3132324219</ele>
        <time>2012-03-16T08:55:57Z</time>
      </trkpt>
      <trkpt lat="46.2066" lon="6.77655">
        <ele>1503.1586914062</ele>
        <time>2012-03-16T08:56:00Z</time>
      </trkpt>
      <trkpt lat="46.20653" lon="6.77652">
        <ele>1507.00390625</ele>
        <time>2012-03-16T08:56:02Z</time>
      </trkpt>
      <trkpt lat="46.20639" lon="6.77647">
        <ele>1510.8491210938</ele>
        <time>2012-03-16T08:56:06Z</time>
      </trkpt>
      <trkpt lat="46.20636" lon="6.77645">
        <ele>1510.8491210938</ele>
        <time>2012-03-16T08:56:07Z</time>
      </trkpt>
      <trkpt lat="46.20633" lon="6.77644">
        <ele>1513.7329101562</ele>
        <time>2012-03-16T08:56:08Z</time>
      </trkpt>
      <trkpt lat="46.20629" lon="6.77643">
        <ele>1513.7329101562</ele>
        <time>2012-03-16T08:56:09Z</time>
      </trkpt>
      <trkpt lat="46.20625" lon="6.77641">
        <ele>1518.0590820312</ele>
        <time>2012-03-16T08:56:10Z</time>
      </trkpt>
      <trkpt lat="46.20622" lon="6.7764">
        <ele>1518.0590820312</ele>
        <time>2012-03-16T08:56:11Z</time>
      </trkpt>
      <trkpt lat="46.20615" lon="6.77638">
        <ele>1521.4235839844</ele>
        <time>2012-03-16T08:56:13Z</time>
      </trkpt>
      <trkpt lat="46.20608" lon="6.77635">
        <ele>1521.904296875</ele>
        <time>2012-03-16T08:56:15Z</time>
      </trkpt>
      <trkpt lat="46.20597" lon="6.77631">
        <ele>1525.2687988281</ele>
        <time>2012-03-16T08:56:18Z</time>
      </trkpt>
      <trkpt lat="46.2059" lon="6.77628">
        <ele>1525.7495117188</ele>
        <time>2012-03-16T08:56:20Z</time>
      </trkpt>
      <trkpt lat="46.20579" lon="6.77624">
        <ele>1529.1140136719</ele>
        <time>2012-03-16T08:56:23Z</time>
      </trkpt>
      <trkpt lat="46.20576" lon="6.77623">
        <ele>1528.6335449219</ele>
        <time>2012-03-16T08:56:24Z</time>
      </trkpt>
      <trkpt lat="46.20558" lon="6.77617">
        <ele>1532.4790039062</ele>
        <time>2012-03-16T08:56:29Z</time>
      </trkpt>
      <trkpt lat="46.20554" lon="6.77616">
        <ele>1532.4790039062</ele>
        <time>2012-03-16T08:56:30Z</time>
      </trkpt>
      <trkpt lat="46.20544" lon="6.77612">
        <ele>1536.32421875</ele>
        <time>2012-03-16T08:56:33Z</time>
      </trkpt>
      <trkpt lat="46.20533" lon="6.77608">
        <ele>1539.2080078125</ele>
        <time>2012-03-16T08:56:36Z</time>
      </trkpt>
      <trkpt lat="46.20523" lon="6.77604">
        <ele>1543.5339355469</ele>
        <time>2012-03-16T08:56:39Z</time>
      </trkpt>
      <trkpt lat="46.20516" lon="6.77602">
        <ele>1546.8984375</ele>
        <time>2012-03-16T08:56:41Z</time>
      </trkpt>
      <trkpt lat="46.20513" lon="6.77601">
        <ele>1546.41796875</ele>
        <time>2012-03-16T08:56:42Z</time>
      </trkpt>
      <trkpt lat="46.20499" lon="6.77596">
        <ele>1550.2634277344</ele>
        <time>2012-03-16T08:56:46Z</time>
      </trkpt>
      <trkpt lat="46.20488" lon="6.77592">
        <ele>1552.1857910156</ele>
        <time>2012-03-16T08:56:49Z</time>
      </trkpt>
      <trkpt lat="46.20481" lon="6.7759">
        <ele>1553.1472167969</ele>
        <time>2012-03-16T08:56:51Z</time>
      </trkpt>
      <trkpt lat="46.20467" lon="6.77584">
        <ele>1556.9924316406</ele>
        <time>2012-03-16T08:56:55Z</time>
      </trkpt>
      <trkpt lat="46.20456" lon="6.77581">
        <ele>1560.8376464844</ele>
        <time>2012-03-16T08:56:58Z</time>
      </trkpt>
      <trkpt lat="46.20449" lon="6.77579">
        <ele>1565.1638183594</ele>
        <time>2012-03-16T08:57:00Z</time>
      </trkpt>
      <trkpt lat="46.20446" lon="6.77577">
        <ele>1565.64453125</ele>
        <time>2012-03-16T08:57:01Z</time>
      </trkpt>
      <trkpt lat="46.20432" lon="6.77574">
        <ele>1569.4897460938</ele>
        <time>2012-03-16T08:57:05Z</time>
      </trkpt>
      <trkpt lat="46.20423" lon="6.77571">
        <ele>1575.2573242188</ele>
        <time>2012-03-16T08:57:08Z</time>
      </trkpt>
      <trkpt lat="46.20416" lon="6.77568">
        <ele>1578.6220703125</ele>
        <time>2012-03-16T08:57:10Z</time>
      </trkpt>
      <trkpt lat="46.20406" lon="6.77564">
        <ele>1582.4675292969</ele>
        <time>2012-03-16T08:57:13Z</time>
      </trkpt>
      <trkpt lat="46.20403" lon="6.77563">
        <ele>1585.83203125</ele>
        <time>2012-03-16T08:57:14Z</time>
      </trkpt>
      <trkpt lat="46.20389" lon="6.77557">
        <ele>1590.6384277344</ele>
        <time>2012-03-16T08:57:18Z</time>
      </trkpt>
      <trkpt lat="46.20382" lon="6.77555">
        <ele>1594.0031738281</ele>
        <time>2012-03-16T08:57:20Z</time>
      </trkpt>
      <trkpt lat="46.20372" lon="6.77551">
        <ele>1598.3291015625</ele>
        <time>2012-03-16T08:57:23Z</time>
      </trkpt>
      <trkpt lat="46.20366" lon="6.77549">
        <ele>1601.6938476562</ele>
        <time>2012-03-16T08:57:25Z</time>
      </trkpt>
      <trkpt lat="46.20359" lon="6.77546">
        <ele>1605.0583496094</ele>
        <time>2012-03-16T08:57:27Z</time>
      </trkpt>
      <trkpt lat="46.20349" lon="6.77543">
        <ele>1609.3842773438</ele>
        <time>2012-03-16T08:57:30Z</time>
      </trkpt>
      <trkpt lat="46.20339" lon="6.77539">
        <ele>1612.7490234375</ele>
        <time>2012-03-16T08:57:33Z</time>
      </trkpt>
      <trkpt lat="46.20329" lon="6.77536">
        <ele>1617.0749511719</ele>
        <time>2012-03-16T08:57:36Z</time>
      </trkpt>
      <trkpt lat="46.20322" lon="6.77533">
        <ele>1621.8813476562</ele>
        <time>2012-03-16T08:57:38Z</time>
      </trkpt>
      <trkpt lat="46.20315" lon="6.77531">
        <ele>1625.7265625</ele>
        <time>2012-03-16T08:57:40Z</time>
      </trkpt>
      <trkpt lat="46.20305" lon="6.77527">
        <ele>1630.5334472656</ele>
        <time>2012-03-16T08:57:43Z</time>
      </trkpt>
      <trkpt lat="46.20299" lon="6.77525">
        <ele>1633.8979492188</ele>
        <time>2012-03-16T08:57:45Z</time>
      </trkpt>
      <trkpt lat="46.20292" lon="6.77523">
        <ele>1637.2624511719</ele>
        <time>2012-03-16T08:57:47Z</time>
      </trkpt>
      <trkpt lat="46.20286" lon="6.77521">
        <ele>1641.1076660156</ele>
        <time>2012-03-16T08:57:49Z</time>
      </trkpt>
      <trkpt lat="46.20279" lon="6.77518">
        <ele>1644.4724121094</ele>
        <time>2012-03-16T08:57:51Z</time>
      </trkpt>
      <trkpt lat="46.20273" lon="6.77516">
        <ele>1647.8371582031</ele>
        <time>2012-03-16T08:57:53Z</time>
      </trkpt>
      <trkpt lat="46.20266" lon="6.77514">
        <ele>1651.2016601562</ele>
        <time>2012-03-16T08:57:55Z</time>
      </trkpt>
      <trkpt lat="46.20256" lon="6.77511">
        <ele>1655.046875</ele>
        <time>2012-03-16T08:57:58Z</time>
      </trkpt>
      <trkpt lat="46.20245" lon="6.77507">
        <ele>1657.4501953125</ele>
        <time>2012-03-16T08:58:01Z</time>
      </trkpt>
      <trkpt lat="46.20235" lon="6.77502">
        <ele>1660.8149414062</ele>
        <time>2012-03-16T08:58:04Z</time>
      </trkpt>
      <trkpt lat="46.20221" lon="6.77498">
        <ele>1664.1794433594</ele>
        <time>2012-03-16T08:58:08Z</time>
      </trkpt>
      <trkpt lat="46.2021" lon="6.77494">
        <ele>1667.5439453125</ele>
        <time>2012-03-16T08:58:11Z</time>
      </trkpt>
      <trkpt lat="46.202" lon="6.7749">
        <ele>1670.9086914062</ele>
        <time>2012-03-16T08:58:14Z</time>
      </trkpt>
      <trkpt lat="46.2019" lon="6.77486">
        <ele>1674.2731933594</ele>
        <time>2012-03-16T08:58:17Z</time>
      </trkpt>
      <trkpt lat="46.20176" lon="6.77481">
        <ele>1679.560546875</ele>
        <time>2012-03-16T08:58:21Z</time>
      </trkpt>
      <trkpt lat="46.20162" lon="6.77477">
        <ele>1682.9250488281</ele>
        <time>2012-03-16T08:58:25Z</time>
      </trkpt>
      <trkpt lat="46.20155" lon="6.77475">
        <ele>1684.8479003906</ele>
        <time>2012-03-16T08:58:27Z</time>
      </trkpt>
      <trkpt lat="46.2014" lon="6.7747">
        <ele>1688.2124023438</ele>
        <time>2012-03-16T08:58:31Z</time>
      </trkpt>
      <trkpt lat="46.20133" lon="6.77467">
        <ele>1691.5769042969</ele>
        <time>2012-03-16T08:58:33Z</time>
      </trkpt>
      <trkpt lat="46.20123" lon="6.77464">
        <ele>1693.98046875</ele>
        <time>2012-03-16T08:58:36Z</time>
      </trkpt>
      <trkpt lat="46.20116" lon="6.77461">
        <ele>1695.9030761719</ele>
        <time>2012-03-16T08:58:38Z</time>
      </trkpt>
      <trkpt lat="46.20105" lon="6.77457">
        <ele>1697.3449707031</ele>
        <time>2012-03-16T08:58:41Z</time>
      </trkpt>
      <trkpt lat="46.20098" lon="6.77455">
        <ele>1699.7482910156</ele>
        <time>2012-03-16T08:58:43Z</time>
      </trkpt>
      <trkpt lat="46.20091" lon="6.77453">
        <ele>1703.5935058594</ele>
        <time>2012-03-16T08:58:45Z</time>
      </trkpt>
      <trkpt lat="46.20081" lon="6.77449">
        <ele>1707.4387207031</ele>
        <time>2012-03-16T08:58:48Z</time>
      </trkpt>
      <trkpt lat="46.20074" lon="6.77446">
        <ele>1710.8034667969</ele>
        <time>2012-03-16T08:58:50Z</time>
      </trkpt>
      <trkpt lat="46.2006" lon="6.77442">
        <ele>1714.6486816406</ele>
        <time>2012-03-16T08:58:54Z</time>
      </trkpt>
      <trkpt lat="46.20053" lon="6.77439">
        <ele>1718.0131835938</ele>
        <time>2012-03-16T08:58:56Z</time>
      </trkpt>
      <trkpt lat="46.20035" lon="6.77433">
        <ele>1722.8198242188</ele>
        <time>2012-03-16T08:59:01Z</time>
      </trkpt>
      <trkpt lat="46.20014" lon="6.77426">
        <ele>1727.1459960938</ele>
        <time>2012-03-16T08:59:07Z</time>
      </trkpt>
      <trkpt lat="46.20003" lon="6.77422">
        <ele>1730.0297851562</ele>
        <time>2012-03-16T08:59:10Z</time>
      </trkpt>
      <trkpt lat="46.19996" lon="6.77419">
        <ele>1733.3942871094</ele>
        <time>2012-03-16T08:59:12Z</time>
      </trkpt>
      <trkpt lat="46.19993" lon="6.77418">
        <ele>1733.3942871094</ele>
        <time>2012-03-16T08:59:13Z</time>
      </trkpt>
      <trkpt lat="46.19978" lon="6.77413">
        <ele>1736.7587890625</ele>
        <time>2012-03-16T08:59:17Z</time>
      </trkpt>
      <trkpt lat="46.19968" lon="6.77409">
        <ele>1740.1237792969</ele>
        <time>2012-03-16T08:59:20Z</time>
      </trkpt>
      <trkpt lat="46.19961" lon="6.77407">
        <ele>1741.5656738281</ele>
        <time>2012-03-16T08:59:22Z</time>
      </trkpt>
      <trkpt lat="46.19954" lon="6.77404">
        <ele>1743.48828125</ele>
        <time>2012-03-16T08:59:24Z</time>
      </trkpt>
      <trkpt lat="46.19936" lon="6.77398">
        <ele>1749.7368164062</ele>
        <time>2012-03-16T08:59:29Z</time>
      </trkpt>
      <trkpt lat="46.19922" lon="6.77393">
        <ele>1753.1013183594</ele>
        <time>2012-03-16T08:59:33Z</time>
      </trkpt>
      <trkpt lat="46.19912" lon="6.7739">
        <ele>1755.9851074219</ele>
        <time>2012-03-16T08:59:36Z</time>
      </trkpt>
      <trkpt lat="46.19898" lon="6.77385">
        <ele>1762.2338867188</ele>
        <time>2012-03-16T08:59:40Z</time>
      </trkpt>
      <trkpt lat="46.19891" lon="6.77382">
        <ele>1765.1179199219</ele>
        <time>2012-03-16T08:59:42Z</time>
      </trkpt>
      <trkpt lat="46.1988" lon="6.77378">
        <ele>1768.9631347656</ele>
        <time>2012-03-16T08:59:45Z</time>
      </trkpt>
      <trkpt lat="46.19869" lon="6.77374">
        <ele>1772.80859375</ele>
        <time>2012-03-16T08:59:48Z</time>
      </trkpt>
      <trkpt lat="46.19862" lon="6.77372">
        <ele>1773.7697753906</ele>
        <time>2012-03-16T08:59:50Z</time>
      </trkpt>
      <trkpt lat="46.19852" lon="6.77368">
        <ele>1776.6538085938</ele>
        <time>2012-03-16T08:59:53Z</time>
      </trkpt>
      <trkpt lat="46.19844" lon="6.77365">
        <ele>1780.4990234375</ele>
        <time>2012-03-16T08:59:55Z</time>
      </trkpt>
      <trkpt lat="46.19837" lon="6.77362">
        <ele>1783.8635253906</ele>
        <time>2012-03-16T08:59:57Z</time>
      </trkpt>
      <trkpt lat="46.19831" lon="6.7736">
        <ele>1787.2280273438</ele>
        <time>2012-03-16T08:59:59Z</time>
      </trkpt>
      <trkpt lat="46.19828" lon="6.77359">
        <ele>1787.2280273438</ele>
        <time>2012-03-16T09:00:00Z</time>
      </trkpt>
      <trkpt lat="46.19821" lon="6.77356">
        <ele>1792.99609375</ele>
        <time>2012-03-16T09:00:02Z</time>
      </trkpt>
      <trkpt lat="46.19812" lon="6.77353">
        <ele>1796.8413085938</ele>
        <time>2012-03-16T09:00:05Z</time>
      </trkpt>
      <trkpt lat="46.19802" lon="6.77349">
        <ele>1800.2060546875</ele>
        <time>2012-03-16T09:00:08Z</time>
      </trkpt>
      <trkpt lat="46.19795" lon="6.77347">
        <ele>1805.0126953125</ele>
        <time>2012-03-16T09:00:10Z</time>
      </trkpt>
      <trkpt lat="46.19789" lon="6.77345">
        <ele>1809.8190917969</ele>
        <time>2012-03-16T09:00:12Z</time>
      </trkpt>
      <trkpt lat="46.19782" lon="6.77343">
        <ele>1813.6643066406</ele>
        <time>2012-03-16T09:00:14Z</time>
      </trkpt>
      <trkpt lat="46.19776" lon="6.7734">
        <ele>1818.4709472656</ele>
        <time>2012-03-16T09:00:16Z</time>
      </trkpt>
      <trkpt lat="46.1977" lon="6.77339">
        <ele>1822.7971191406</ele>
        <time>2012-03-16T09:00:18Z</time>
      </trkpt>
      <trkpt lat="46.19764" lon="6.77337">
        <ele>1826.6423339844</ele>
        <time>2012-03-16T09:00:20Z</time>
      </trkpt>
      <trkpt lat="46.19761" lon="6.77336">
        <ele>1830.0068359375</ele>
        <time>2012-03-16T09:00:21Z</time>
      </trkpt>
      <trkpt lat="46.19755" lon="6.77333">
        <ele>1833.8520507812</ele>
        <time>2012-03-16T09:00:23Z</time>
      </trkpt>
      <trkpt lat="46.19749" lon="6.77332">
        <ele>1838.1782226562</ele>
        <time>2012-03-16T09:00:25Z</time>
      </trkpt>
      <trkpt lat="46.19743" lon="6.77329">
        <ele>1842.5041503906</ele>
        <time>2012-03-16T09:00:27Z</time>
      </trkpt>
      <trkpt lat="46.19737" lon="6.77327">
        <ele>1849.7138671875</ele>
        <time>2012-03-16T09:00:29Z</time>
      </trkpt>
      <trkpt lat="46.19732" lon="6.77325">
        <ele>1854.5205078125</ele>
        <time>2012-03-16T09:00:31Z</time>
      </trkpt>
      <trkpt lat="46.19726" lon="6.77323">
        <ele>1859.3271484375</ele>
        <time>2012-03-16T09:00:33Z</time>
      </trkpt>
      <trkpt lat="46.1972" lon="6.77321">
        <ele>1862.6916503906</ele>
        <time>2012-03-16T09:00:35Z</time>
      </trkpt>
      <trkpt lat="46.19713" lon="6.77319">
        <ele>1866.0561523438</ele>
        <time>2012-03-16T09:00:37Z</time>
      </trkpt>
      <trkpt lat="46.19688" lon="6.77314">
        <ele>1868.4597167969</ele>
        <time>2012-03-16T09:00:44Z</time>
      </trkpt>
      <trkpt lat="46.19683" lon="6.77312">
        <ele>1867.9787597656</ele>
        <time>2012-03-16T09:00:46Z</time>
      </trkpt>
      <trkpt lat="46.19669" lon="6.77296">
        <ele>1866.0561523438</ele>
        <time>2012-03-16T09:01:00Z</time>
      </trkpt>
      <trkpt lat="46.19653" lon="6.77287">
        <ele>1865.0949707031</ele>
        <time>2012-03-16T09:01:15Z</time>
      </trkpt>
      <trkpt lat="46.19648" lon="6.77282">
        <ele>1864.1335449219</ele>
        <time>2012-03-16T09:01:32Z</time>
      </trkpt>
      <trkpt lat="46.19647" lon="6.77282">
        <ele>1862.6916503906</ele>
        <time>2012-03-16T09:02:03Z</time>
      </trkpt>
      <trkpt lat="46.19631" lon="6.77288">
        <ele>1860.7690429688</ele>
        <time>2012-03-16T09:02:09Z</time>
      </trkpt>
      <trkpt lat="46.196" lon="6.77294">
        <ele>1859.3271484375</ele>
        <time>2012-03-16T09:02:15Z</time>
      </trkpt>
      <trkpt lat="46.19574" lon="6.77294">
        <ele>1857.8852539062</ele>
        <time>2012-03-16T09:02:19Z</time>
      </trkpt>
      <trkpt lat="46.19552" lon="6.77298">
        <ele>1851.6364746094</ele>
        <time>2012-03-16T09:02:22Z</time>
      </trkpt>
      <trkpt lat="46.19544" lon="6.773">
        <ele>1852.1171875</ele>
        <time>2012-03-16T09:02:23Z</time>
      </trkpt>
      <trkpt lat="46.19536" lon="6.77303">
        <ele>1851.1557617188</ele>
        <time>2012-03-16T09:02:24Z</time>
      </trkpt>
      <trkpt lat="46.19518" lon="6.77302">
        <ele>1846.3493652344</ele>
        <time>2012-03-16T09:02:26Z</time>
      </trkpt>
      <trkpt lat="46.19509" lon="6.773">
        <ele>1842.9846191406</ele>
        <time>2012-03-16T09:02:27Z</time>
      </trkpt>
      <trkpt lat="46.1949" lon="6.773">
        <ele>1839.1394042969</ele>
        <time>2012-03-16T09:02:29Z</time>
      </trkpt>
      <trkpt lat="46.19463" lon="6.77293">
        <ele>1835.7746582031</ele>
        <time>2012-03-16T09:02:32Z</time>
      </trkpt>
      <trkpt lat="46.19431" lon="6.77304">
        <ele>1831.4487304688</ele>
        <time>2012-03-16T09:02:36Z</time>
      </trkpt>
      <trkpt lat="46.19423" lon="6.77302">
        <ele>1831.4487304688</ele>
        <time>2012-03-16T09:02:37Z</time>
      </trkpt>
      <trkpt lat="46.19408" lon="6.77293">
        <ele>1827.603515625</ele>
        <time>2012-03-16T09:02:39Z</time>
      </trkpt>
      <trkpt lat="46.19384" lon="6.77289">
        <ele>1826.6423339844</ele>
        <time>2012-03-16T09:02:42Z</time>
      </trkpt>
      <trkpt lat="46.19364" lon="6.77284">
        <ele>1825.2001953125</ele>
        <time>2012-03-16T09:02:45Z</time>
      </trkpt>
      <trkpt lat="46.19346" lon="6.77282">
        <ele>1824.7197265625</ele>
        <time>2012-03-16T09:02:48Z</time>
      </trkpt>
      <trkpt lat="46.19336" lon="6.77282">
        <ele>1825.6809082031</ele>
        <time>2012-03-16T09:02:50Z</time>
      </trkpt>
      <trkpt lat="46.19276" lon="6.77308">
        <ele>1821.8356933594</ele>
        <time>2012-03-16T09:03:00Z</time>
      </trkpt>
      <trkpt lat="46.19263" lon="6.77316">
        <ele>1817.990234375</ele>
        <time>2012-03-16T09:03:02Z</time>
      </trkpt>
      <trkpt lat="46.19232" lon="6.77322">
        <ele>1815.1064453125</ele>
        <time>2012-03-16T09:03:06Z</time>
      </trkpt>
      <trkpt lat="46.19205" lon="6.77325">
        <ele>1797.802734375</ele>
        <time>2012-03-16T09:03:09Z</time>
      </trkpt>
      <trkpt lat="46.19196" lon="6.77328">
        <ele>1813.6643066406</ele>
        <time>2012-03-16T09:03:10Z</time>
      </trkpt>
      <trkpt lat="46.1918" lon="6.77333">
        <ele>1814.6257324219</ele>
        <time>2012-03-16T09:03:12Z</time>
      </trkpt>
      <trkpt lat="46.19172" lon="6.77336">
        <ele>1809.8190917969</ele>
        <time>2012-03-16T09:03:13Z</time>
      </trkpt>
      <trkpt lat="46.19155" lon="6.7734">
        <ele>1806.4545898438</ele>
        <time>2012-03-16T09:03:15Z</time>
      </trkpt>
      <trkpt lat="46.19123" lon="6.77351">
        <ele>1801.6479492188</ele>
        <time>2012-03-16T09:03:19Z</time>
      </trkpt>
      <trkpt lat="46.19062" lon="6.77386">
        <ele>1800.2060546875</ele>
        <time>2012-03-16T09:03:30Z</time>
      </trkpt>
      <trkpt lat="46.1905" lon="6.77394">
        <ele>1799.7253417969</ele>
        <time>2012-03-16T09:03:33Z</time>
      </trkpt>
      <trkpt lat="46.19022" lon="6.77404">
        <ele>1797.802734375</ele>
        <time>2012-03-16T09:03:40Z</time>
      </trkpt>
      <trkpt lat="46.18981" lon="6.77421">
        <ele>1792.515625</ele>
        <time>2012-03-16T09:03:46Z</time>
      </trkpt>
      <trkpt lat="46.18963" lon="6.77426">
        <ele>1788.1896972656</ele>
        <time>2012-03-16T09:03:48Z</time>
      </trkpt>
      <trkpt lat="46.18939" lon="6.77435">
        <ele>1782.9020996094</ele>
        <time>2012-03-16T09:03:51Z</time>
      </trkpt>
      <trkpt lat="46.18923" lon="6.77435">
        <ele>1780.0183105469</ele>
        <time>2012-03-16T09:03:53Z</time>
      </trkpt>
      <trkpt lat="46.18907" lon="6.7744">
        <ele>1775.6923828125</ele>
        <time>2012-03-16T09:03:55Z</time>
      </trkpt>
      <trkpt lat="46.18892" lon="6.77445">
        <ele>1774.7312011719</ele>
        <time>2012-03-16T09:03:57Z</time>
      </trkpt>
      <trkpt lat="46.18864" lon="6.77466">
        <ele>1770.8857421875</ele>
        <time>2012-03-16T09:04:01Z</time>
      </trkpt>
      <trkpt lat="46.18849" lon="6.77474">
        <ele>1768.9631347656</ele>
        <time>2012-03-16T09:04:03Z</time>
      </trkpt>
      <trkpt lat="46.18835" lon="6.77485">
        <ele>1768.0017089844</ele>
        <time>2012-03-16T09:04:05Z</time>
      </trkpt>
      <trkpt lat="46.18829" lon="6.77491">
        <ele>1768.0017089844</ele>
        <time>2012-03-16T09:04:06Z</time>
      </trkpt>
      <trkpt lat="46.18805" lon="6.77502">
        <ele>1766.0791015625</ele>
        <time>2012-03-16T09:04:10Z</time>
      </trkpt>
      <trkpt lat="46.18791" lon="6.77518">
        <ele>1765.5986328125</ele>
        <time>2012-03-16T09:04:14Z</time>
      </trkpt>
      <trkpt lat="46.18771" lon="6.77558">
        <ele>1762.7145996094</ele>
        <time>2012-03-16T09:04:20Z</time>
      </trkpt>
      <trkpt lat="46.18764" lon="6.77577">
        <ele>1758.8693847656</ele>
        <time>2012-03-16T09:04:22Z</time>
      </trkpt>
      <trkpt lat="46.1876" lon="6.77597">
        <ele>1757.908203125</ele>
        <time>2012-03-16T09:04:24Z</time>
      </trkpt>
      <trkpt lat="46.18758" lon="6.77607">
        <ele>1757.4274902344</ele>
        <time>2012-03-16T09:04:25Z</time>
      </trkpt>
      <trkpt lat="46.18751" lon="6.77675">
        <ele>1756.9467773438</ele>
        <time>2012-03-16T09:04:32Z</time>
      </trkpt>
      <trkpt lat="46.18753" lon="6.77704">
        <ele>1755.5046386719</ele>
        <time>2012-03-16T09:04:35Z</time>
      </trkpt>
      <trkpt lat="46.18754" lon="6.77749">
        <ele>1751.1787109375</ele>
        <time>2012-03-16T09:04:39Z</time>
      </trkpt>
      <trkpt lat="46.18757" lon="6.77776">
        <ele>1746.3723144531</ele>
        <time>2012-03-16T09:04:41Z</time>
      </trkpt>
      <trkpt lat="46.18761" lon="6.77807">
        <ele>1743.48828125</ele>
        <time>2012-03-16T09:04:43Z</time>
      </trkpt>
      <trkpt lat="46.18764" lon="6.77841">
        <ele>1739.162109375</ele>
        <time>2012-03-16T09:04:45Z</time>
      </trkpt>
      <trkpt lat="46.18767" lon="6.77871">
        <ele>1739.162109375</ele>
        <time>2012-03-16T09:04:47Z</time>
      </trkpt>
      <trkpt lat="46.18766" lon="6.779">
        <ele>1734.3557128906</ele>
        <time>2012-03-16T09:04:50Z</time>
      </trkpt>
      <trkpt lat="46.18764" lon="6.77905">
        <ele>1734.3557128906</ele>
        <time>2012-03-16T09:04:53Z</time>
      </trkpt>
      <trkpt lat="46.18761" lon="6.77908">
        <ele>1734.3557128906</ele>
        <time>2012-03-16T09:05:04Z</time>
      </trkpt>
      <trkpt lat="46.18764" lon="6.77916">
        <ele>1734.3557128906</ele>
        <time>2012-03-16T09:05:09Z</time>
      </trkpt>
      <trkpt lat="46.1876" lon="6.77946">
        <ele>1733.875</ele>
        <time>2012-03-16T09:05:24Z</time>
      </trkpt>
      <trkpt lat="46.18757" lon="6.77944">
        <ele>1733.875</ele>
        <time>2012-03-16T09:05:57Z</time>
      </trkpt>
      <trkpt lat="46.18749" lon="6.77943">
        <ele>1734.8364257812</ele>
        <time>2012-03-16T09:06:44Z</time>
      </trkpt>
      <trkpt lat="46.18745" lon="6.77945">
        <ele>1734.3557128906</ele>
        <time>2012-03-16T09:07:23Z</time>
      </trkpt>
      <trkpt lat="46.18741" lon="6.77944">
        <ele>1735.3168945312</ele>
        <time>2012-03-16T09:07:52Z</time>
      </trkpt>
      <trkpt lat="46.18734" lon="6.77938">
        <ele>1734.8364257812</ele>
        <time>2012-03-16T09:08:14Z</time>
      </trkpt>
      <trkpt lat="46.18726" lon="6.77941">
        <ele>1734.8364257812</ele>
        <time>2012-03-16T09:08:42Z</time>
      </trkpt>
      <trkpt lat="46.18707" lon="6.77941">
        <ele>1733.875</ele>
        <time>2012-03-16T09:08:55Z</time>
      </trkpt>
      <trkpt lat="46.18694" lon="6.77941">
        <ele>1737.2395019531</ele>
        <time>2012-03-16T09:08:58Z</time>
      </trkpt>
      <trkpt lat="46.18681" lon="6.7794">
        <ele>1742.0463867188</ele>
        <time>2012-03-16T09:09:01Z</time>
      </trkpt>
      <trkpt lat="46.18673" lon="6.7794">
        <ele>1747.8142089844</ele>
        <time>2012-03-16T09:09:03Z</time>
      </trkpt>
      <trkpt lat="46.18668" lon="6.7794">
        <ele>1747.8142089844</ele>
        <time>2012-03-16T09:09:04Z</time>
      </trkpt>
      <trkpt lat="46.1866" lon="6.77939">
        <ele>1753.1013183594</ele>
        <time>2012-03-16T09:09:06Z</time>
      </trkpt>
      <trkpt lat="46.18656" lon="6.77939">
        <ele>1755.9851074219</ele>
        <time>2012-03-16T09:09:07Z</time>
      </trkpt>
      <trkpt lat="46.18647" lon="6.77938">
        <ele>1760.3112792969</ele>
        <time>2012-03-16T09:09:09Z</time>
      </trkpt>
      <trkpt lat="46.18626" lon="6.77936">
        <ele>1766.0791015625</ele>
        <time>2012-03-16T09:09:14Z</time>
      </trkpt>
      <trkpt lat="46.18622" lon="6.77936">
        <ele>1771.3662109375</ele>
        <time>2012-03-16T09:09:15Z</time>
      </trkpt>
      <trkpt lat="46.18613" lon="6.77936">
        <ele>1775.2116699219</ele>
        <time>2012-03-16T09:09:17Z</time>
      </trkpt>
      <trkpt lat="46.18605" lon="6.77935">
        <ele>1778.5764160156</ele>
        <time>2012-03-16T09:09:19Z</time>
      </trkpt>
      <trkpt lat="46.18601" lon="6.77935">
        <ele>1779.0568847656</ele>
        <time>2012-03-16T09:09:20Z</time>
      </trkpt>
      <trkpt lat="46.18593" lon="6.77934">
        <ele>1782.4216308594</ele>
        <time>2012-03-16T09:09:22Z</time>
      </trkpt>
      <trkpt lat="46.18589" lon="6.77934">
        <ele>1786.2668457031</ele>
        <time>2012-03-16T09:09:23Z</time>
      </trkpt>
      <trkpt lat="46.18581" lon="6.77934">
        <ele>1791.0734863281</ele>
        <time>2012-03-16T09:09:25Z</time>
      </trkpt>
      <trkpt lat="46.18573" lon="6.77933">
        <ele>1794.4379882812</ele>
        <time>2012-03-16T09:09:27Z</time>
      </trkpt>
      <trkpt lat="46.18569" lon="6.77933">
        <ele>1799.2446289062</ele>
        <time>2012-03-16T09:09:28Z</time>
      </trkpt>
      <trkpt lat="46.18561" lon="6.77932">
        <ele>1802.6091308594</ele>
        <time>2012-03-16T09:09:30Z</time>
      </trkpt>
      <trkpt lat="46.18548" lon="6.77931">
        <ele>1806.4545898438</ele>
        <time>2012-03-16T09:09:33Z</time>
      </trkpt>
      <trkpt lat="46.1854" lon="6.7793">
        <ele>1810.2998046875</ele>
        <time>2012-03-16T09:09:35Z</time>
      </trkpt>
      <trkpt lat="46.18531" lon="6.7793">
        <ele>1815.5871582031</ele>
        <time>2012-03-16T09:09:37Z</time>
      </trkpt>
      <trkpt lat="46.18523" lon="6.77929">
        <ele>1821.3549804688</ele>
        <time>2012-03-16T09:09:39Z</time>
      </trkpt>
      <trkpt lat="46.18514" lon="6.77929">
        <ele>1826.1616210938</ele>
        <time>2012-03-16T09:09:41Z</time>
      </trkpt>
      <trkpt lat="46.18506" lon="6.77928">
        <ele>1829.0454101562</ele>
        <time>2012-03-16T09:09:43Z</time>
      </trkpt>
      <trkpt lat="46.18502" lon="6.77927">
        <ele>1828.5649414062</ele>
        <time>2012-03-16T09:09:44Z</time>
      </trkpt>
      <trkpt lat="46.18494" lon="6.77927">
        <ele>1835.2939453125</ele>
        <time>2012-03-16T09:09:46Z</time>
      </trkpt>
      <trkpt lat="46.18486" lon="6.77926">
        <ele>1839.1394042969</ele>
        <time>2012-03-16T09:09:48Z</time>
      </trkpt>
      <trkpt lat="46.18478" lon="6.77926">
        <ele>1842.5041503906</ele>
        <time>2012-03-16T09:09:50Z</time>
      </trkpt>
      <trkpt lat="46.18466" lon="6.77925">
        <ele>1847.310546875</ele>
        <time>2012-03-16T09:09:53Z</time>
      </trkpt>
      <trkpt lat="46.18458" lon="6.77924">
        <ele>1853.0786132812</ele>
        <time>2012-03-16T09:09:55Z</time>
      </trkpt>
      <trkpt lat="46.18451" lon="6.77924">
        <ele>1857.8852539062</ele>
        <time>2012-03-16T09:09:57Z</time>
      </trkpt>
      <trkpt lat="46.18447" lon="6.77924">
        <ele>1862.2109375</ele>
        <time>2012-03-16T09:09:58Z</time>
      </trkpt>
      <trkpt lat="46.18438" lon="6.77923">
        <ele>1865.5756835938</ele>
        <time>2012-03-16T09:10:00Z</time>
      </trkpt>
      <trkpt lat="46.18425" lon="6.77922">
        <ele>1871.3435058594</ele>
        <time>2012-03-16T09:10:03Z</time>
      </trkpt>
      <trkpt lat="46.18421" lon="6.77921">
        <ele>1871.3435058594</ele>
        <time>2012-03-16T09:10:04Z</time>
      </trkpt>
      <trkpt lat="46.18417" lon="6.77921">
        <ele>1875.1887207031</ele>
        <time>2012-03-16T09:10:05Z</time>
      </trkpt>
      <trkpt lat="46.18404" lon="6.7792">
        <ele>1878.5534667969</ele>
        <time>2012-03-16T09:10:08Z</time>
      </trkpt>
      <trkpt lat="46.18396" lon="6.77919">
        <ele>1883.3598632812</ele>
        <time>2012-03-16T09:10:10Z</time>
      </trkpt>
      <trkpt lat="46.18388" lon="6.77919">
        <ele>1887.6860351562</ele>
        <time>2012-03-16T09:10:12Z</time>
      </trkpt>
      <trkpt lat="46.18375" lon="6.77917">
        <ele>1892.9731445312</ele>
        <time>2012-03-16T09:10:15Z</time>
      </trkpt>
      <trkpt lat="46.18367" lon="6.77917">
        <ele>1896.818359375</ele>
        <time>2012-03-16T09:10:17Z</time>
      </trkpt>
      <trkpt lat="46.18354" lon="6.77916">
        <ele>1900.1833496094</ele>
        <time>2012-03-16T09:10:20Z</time>
      </trkpt>
      <trkpt lat="46.1835" lon="6.77915">
        <ele>1900.6638183594</ele>
        <time>2012-03-16T09:10:21Z</time>
      </trkpt>
      <trkpt lat="46.18337" lon="6.77914">
        <ele>1904.5090332031</ele>
        <time>2012-03-16T09:10:24Z</time>
      </trkpt>
      <trkpt lat="46.18324" lon="6.77913">
        <ele>1910.2768554688</ele>
        <time>2012-03-16T09:10:27Z</time>
      </trkpt>
      <trkpt lat="46.18315" lon="6.77912">
        <ele>1910.7575683594</ele>
        <time>2012-03-16T09:10:29Z</time>
      </trkpt>
      <trkpt lat="46.18288" lon="6.7791">
        <ele>1914.1220703125</ele>
        <time>2012-03-16T09:10:35Z</time>
      </trkpt>
      <trkpt lat="46.18261" lon="6.77908">
        <ele>1911.23828125</ele>
        <time>2012-03-16T09:10:41Z</time>
      </trkpt>
      <trkpt lat="46.18248" lon="6.77906">
        <ele>1908.3542480469</ele>
        <time>2012-03-16T09:10:44Z</time>
      </trkpt>
      <trkpt lat="46.18244" lon="6.77906">
        <ele>1904.9897460938</ele>
        <time>2012-03-16T09:10:45Z</time>
      </trkpt>
      <trkpt lat="46.18231" lon="6.77905">
        <ele>1901.6252441406</ele>
        <time>2012-03-16T09:10:48Z</time>
      </trkpt>
      <trkpt lat="46.18227" lon="6.77905">
        <ele>1901.14453125</ele>
        <time>2012-03-16T09:10:49Z</time>
      </trkpt>
      <trkpt lat="46.18168" lon="6.77899">
        <ele>1901.6252441406</ele>
        <time>2012-03-16T09:11:03Z</time>
      </trkpt>
      <trkpt lat="46.18154" lon="6.77897">
        <ele>1904.5090332031</ele>
        <time>2012-03-16T09:11:08Z</time>
      </trkpt>
      <trkpt lat="46.18122" lon="6.77895">
        <ele>1907.8737792969</ele>
        <time>2012-03-16T09:11:17Z</time>
      </trkpt>
      <trkpt lat="46.18109" lon="6.77894">
        <ele>1910.7575683594</ele>
        <time>2012-03-16T09:11:20Z</time>
      </trkpt>
      <trkpt lat="46.18092" lon="6.77892">
        <ele>1914.1220703125</ele>
        <time>2012-03-16T09:11:24Z</time>
      </trkpt>
      <trkpt lat="46.18083" lon="6.77891">
        <ele>1915.5642089844</ele>
        <time>2012-03-16T09:11:26Z</time>
      </trkpt>
      <trkpt lat="46.18065" lon="6.7789">
        <ele>1918.9289550781</ele>
        <time>2012-03-16T09:11:30Z</time>
      </trkpt>
      <trkpt lat="46.18043" lon="6.77888">
        <ele>1921.8127441406</ele>
        <time>2012-03-16T09:11:35Z</time>
      </trkpt>
      <trkpt lat="46.18034" lon="6.77888">
        <ele>1926.138671875</ele>
        <time>2012-03-16T09:11:37Z</time>
      </trkpt>
      <trkpt lat="46.18022" lon="6.77887">
        <ele>1929.5031738281</ele>
        <time>2012-03-16T09:11:40Z</time>
      </trkpt>
      <trkpt lat="46.18013" lon="6.77886">
        <ele>1932.8679199219</ele>
        <time>2012-03-16T09:11:42Z</time>
      </trkpt>
      <trkpt lat="46.18004" lon="6.77886">
        <ele>1937.1938476562</ele>
        <time>2012-03-16T09:11:44Z</time>
      </trkpt>
      <trkpt lat="46.17986" lon="6.77884">
        <ele>1941.0390625</ele>
        <time>2012-03-16T09:11:48Z</time>
      </trkpt>
      <trkpt lat="46.17982" lon="6.77884">
        <ele>1941.0390625</ele>
        <time>2012-03-16T09:11:49Z</time>
      </trkpt>
      <trkpt lat="46.17969" lon="6.77882">
        <ele>1944.4035644531</ele>
        <time>2012-03-16T09:11:52Z</time>
      </trkpt>
      <trkpt lat="46.17955" lon="6.77881">
        <ele>1948.7297363281</ele>
        <time>2012-03-16T09:11:55Z</time>
      </trkpt>
      <trkpt lat="46.17938" lon="6.7788">
        <ele>1953.0556640625</ele>
        <time>2012-03-16T09:11:59Z</time>
      </trkpt>
      <trkpt lat="46.17925" lon="6.77879">
        <ele>1957.8623046875</ele>
        <time>2012-03-16T09:12:02Z</time>
      </trkpt>
      <trkpt lat="46.17921" lon="6.77878">
        <ele>1961.2268066406</ele>
        <time>2012-03-16T09:12:03Z</time>
      </trkpt>
      <trkpt lat="46.17904" lon="6.77877">
        <ele>1965.5529785156</ele>
        <time>2012-03-16T09:12:07Z</time>
      </trkpt>
      <trkpt lat="46.17895" lon="6.77876">
        <ele>1968.9174804688</ele>
        <time>2012-03-16T09:12:09Z</time>
      </trkpt>
      <trkpt lat="46.17883" lon="6.77876">
        <ele>1972.7626953125</ele>
        <time>2012-03-16T09:12:12Z</time>
      </trkpt>
      <trkpt lat="46.17875" lon="6.77875">
        <ele>1976.1271972656</ele>
        <time>2012-03-16T09:12:14Z</time>
      </trkpt>
      <trkpt lat="46.17866" lon="6.77875">
        <ele>1979.4916992188</ele>
        <time>2012-03-16T09:12:16Z</time>
      </trkpt>
      <trkpt lat="46.17848" lon="6.77873">
        <ele>1982.3759765625</ele>
        <time>2012-03-16T09:12:20Z</time>
      </trkpt>
      <trkpt lat="46.17839" lon="6.77872">
        <ele>1983.3371582031</ele>
        <time>2012-03-16T09:12:22Z</time>
      </trkpt>
      <trkpt lat="46.17826" lon="6.77871">
        <ele>1988.6245117188</ele>
        <time>2012-03-16T09:12:25Z</time>
      </trkpt>
      <trkpt lat="46.17818" lon="6.7787">
        <ele>1992.9501953125</ele>
        <time>2012-03-16T09:12:27Z</time>
      </trkpt>
      <trkpt lat="46.17805" lon="6.77869">
        <ele>1996.3151855469</ele>
        <time>2012-03-16T09:12:30Z</time>
      </trkpt>
      <trkpt lat="46.17796" lon="6.77868">
        <ele>2000.1604003906</ele>
        <time>2012-03-16T09:12:32Z</time>
      </trkpt>
      <trkpt lat="46.17788" lon="6.77868">
        <ele>2003.5249023438</ele>
        <time>2012-03-16T09:12:34Z</time>
      </trkpt>
      <trkpt lat="46.17776" lon="6.77867">
        <ele>2007.3701171875</ele>
        <time>2012-03-16T09:12:37Z</time>
      </trkpt>
      <trkpt lat="46.17767" lon="6.77866">
        <ele>2012.1767578125</ele>
        <time>2012-03-16T09:12:39Z</time>
      </trkpt>
      <trkpt lat="46.17759" lon="6.77866">
        <ele>2015.0607910156</ele>
        <time>2012-03-16T09:12:41Z</time>
      </trkpt>
      <trkpt lat="46.17754" lon="6.77865">
        <ele>2015.0607910156</ele>
        <time>2012-03-16T09:12:42Z</time>
      </trkpt>
      <trkpt lat="46.17741" lon="6.77864">
        <ele>2018.9060058594</ele>
        <time>2012-03-16T09:12:45Z</time>
      </trkpt>
      <trkpt lat="46.17737" lon="6.77864">
        <ele>2019.38671875</ele>
        <time>2012-03-16T09:12:46Z</time>
      </trkpt>
      <trkpt lat="46.17715" lon="6.77862">
        <ele>2022.7512207031</ele>
        <time>2012-03-16T09:12:51Z</time>
      </trkpt>
      <trkpt lat="46.17697" lon="6.7786">
        <ele>2026.5964355469</ele>
        <time>2012-03-16T09:12:55Z</time>
      </trkpt>
      <trkpt lat="46.17689" lon="6.7786">
        <ele>2030.4418945312</ele>
        <time>2012-03-16T09:12:57Z</time>
      </trkpt>
      <trkpt lat="46.17676" lon="6.77859">
        <ele>2034.287109375</ele>
        <time>2012-03-16T09:13:00Z</time>
      </trkpt>
      <trkpt lat="46.17668" lon="6.77858">
        <ele>2037.1708984375</ele>
        <time>2012-03-16T09:13:02Z</time>
      </trkpt>
      <trkpt lat="46.17659" lon="6.77858">
        <ele>2041.0161132812</ele>
        <time>2012-03-16T09:13:04Z</time>
      </trkpt>
      <trkpt lat="46.17655" lon="6.77857">
        <ele>2041.0161132812</ele>
        <time>2012-03-16T09:13:05Z</time>
      </trkpt>
      <trkpt lat="46.17642" lon="6.77856">
        <ele>2047.2648925781</ele>
        <time>2012-03-16T09:13:08Z</time>
      </trkpt>
      <trkpt lat="46.17629" lon="6.77855">
        <ele>2049.1875</ele>
        <time>2012-03-16T09:13:11Z</time>
      </trkpt>
      <trkpt lat="46.17616" lon="6.77855">
        <ele>2052.5520019531</ele>
        <time>2012-03-16T09:13:14Z</time>
      </trkpt>
      <trkpt lat="46.17607" lon="6.77854">
        <ele>2053.994140625</ele>
        <time>2012-03-16T09:13:16Z</time>
      </trkpt>
      <trkpt lat="46.17599" lon="6.77853">
        <ele>2057.3586425781</ele>
        <time>2012-03-16T09:13:18Z</time>
      </trkpt>
      <trkpt lat="46.17585" lon="6.77852">
        <ele>2060.2426757812</ele>
        <time>2012-03-16T09:13:21Z</time>
      </trkpt>
      <trkpt lat="46.17576" lon="6.77851">
        <ele>2064.087890625</ele>
        <time>2012-03-16T09:13:23Z</time>
      </trkpt>
      <trkpt lat="46.17564" lon="6.77851">
        <ele>2068.89453125</ele>
        <time>2012-03-16T09:13:26Z</time>
      </trkpt>
      <trkpt lat="46.17551" lon="6.7785">
        <ele>2072.7397460938</ele>
        <time>2012-03-16T09:13:29Z</time>
      </trkpt>
      <trkpt lat="46.17538" lon="6.77848">
        <ele>2076.1044921875</ele>
        <time>2012-03-16T09:13:32Z</time>
      </trkpt>
      <trkpt lat="46.17526" lon="6.77846">
        <ele>2080.9111328125</ele>
        <time>2012-03-16T09:13:35Z</time>
      </trkpt>
      <trkpt lat="46.17518" lon="6.77845">
        <ele>2087.6401367188</ele>
        <time>2012-03-16T09:13:37Z</time>
      </trkpt>
      <trkpt lat="46.17509" lon="6.77845">
        <ele>2091.4853515625</ele>
        <time>2012-03-16T09:13:39Z</time>
      </trkpt>
      <trkpt lat="46.17501" lon="6.77844">
        <ele>2097.2534179688</ele>
        <time>2012-03-16T09:13:41Z</time>
      </trkpt>
      <trkpt lat="46.17493" lon="6.77843">
        <ele>2100.1374511719</ele>
        <time>2012-03-16T09:13:43Z</time>
      </trkpt>
      <trkpt lat="46.17485" lon="6.77842">
        <ele>2105.9050292969</ele>
        <time>2012-03-16T09:13:45Z</time>
      </trkpt>
      <trkpt lat="46.17477" lon="6.77841">
        <ele>2110.2312011719</ele>
        <time>2012-03-16T09:13:47Z</time>
      </trkpt>
      <trkpt lat="46.17465" lon="6.77839">
        <ele>2115.0378417969</ele>
        <time>2012-03-16T09:13:50Z</time>
      </trkpt>
      <trkpt lat="46.17457" lon="6.77837">
        <ele>2118.40234375</ele>
        <time>2012-03-16T09:13:52Z</time>
      </trkpt>
      <trkpt lat="46.17448" lon="6.77837">
        <ele>2122.2475585938</ele>
        <time>2012-03-16T09:13:54Z</time>
      </trkpt>
      <trkpt lat="46.17439" lon="6.77836">
        <ele>2127.5349121094</ele>
        <time>2012-03-16T09:13:56Z</time>
      </trkpt>
      <trkpt lat="46.1743" lon="6.77835">
        <ele>2131.3801269531</ele>
        <time>2012-03-16T09:13:58Z</time>
      </trkpt>
      <trkpt lat="46.17418" lon="6.77834">
        <ele>2135.7060546875</ele>
        <time>2012-03-16T09:14:01Z</time>
      </trkpt>
      <trkpt lat="46.1741" lon="6.77833">
        <ele>2140.0322265625</ele>
        <time>2012-03-16T09:14:03Z</time>
      </trkpt>
      <trkpt lat="46.17402" lon="6.77832">
        <ele>2144.8386230469</ele>
        <time>2012-03-16T09:14:05Z</time>
      </trkpt>
      <trkpt lat="46.17391" lon="6.77832">
        <ele>2144.8386230469</ele>
        <time>2012-03-16T09:14:08Z</time>
      </trkpt>
      <trkpt lat="46.17387" lon="6.77833">
        <ele>2153.9711914062</ele>
        <time>2012-03-16T09:14:09Z</time>
      </trkpt>
      <trkpt lat="46.17378" lon="6.77831">
        <ele>2158.2971191406</ele>
        <time>2012-03-16T09:14:11Z</time>
      </trkpt>
      <trkpt lat="46.17374" lon="6.77831">
        <ele>2158.2971191406</ele>
        <time>2012-03-16T09:14:12Z</time>
      </trkpt>
      <trkpt lat="46.1737" lon="6.77831">
        <ele>2162.623046875</ele>
        <time>2012-03-16T09:14:13Z</time>
      </trkpt>
      <trkpt lat="46.17362" lon="6.77831">
        <ele>2169.8327636719</ele>
        <time>2012-03-16T09:14:15Z</time>
      </trkpt>
      <trkpt lat="46.17354" lon="6.7783">
        <ele>2173.6782226562</ele>
        <time>2012-03-16T09:14:17Z</time>
      </trkpt>
      <trkpt lat="46.17343" lon="6.77829">
        <ele>2177.5234375</ele>
        <time>2012-03-16T09:14:20Z</time>
      </trkpt>
      <trkpt lat="46.17335" lon="6.77828">
        <ele>2181.3686523438</ele>
        <time>2012-03-16T09:14:22Z</time>
      </trkpt>
      <trkpt lat="46.17331" lon="6.77827">
        <ele>2181.3686523438</ele>
        <time>2012-03-16T09:14:23Z</time>
      </trkpt>
      <trkpt lat="46.17327" lon="6.77827">
        <ele>2184.7333984375</ele>
        <time>2012-03-16T09:14:24Z</time>
      </trkpt>
      <trkpt lat="46.17324" lon="6.77827">
        <ele>2188.0981445312</ele>
        <time>2012-03-16T09:14:25Z</time>
      </trkpt>
      <trkpt lat="46.17275" lon="6.77825">
        <ele>2190.5012207031</ele>
        <time>2012-03-16T09:14:37Z</time>
      </trkpt>
      <trkpt lat="46.17274" lon="6.77824">
        <ele>2190.0207519531</ele>
        <time>2012-03-16T09:14:38Z</time>
      </trkpt>
      <trkpt lat="46.17265" lon="6.77819">
        <ele>2190.5012207031</ele>
        <time>2012-03-16T09:14:42Z</time>
      </trkpt>
      <trkpt lat="46.17261" lon="6.77816">
        <ele>2186.6557617188</ele>
        <time>2012-03-16T09:14:44Z</time>
      </trkpt>
      <trkpt lat="46.17259" lon="6.77814">
        <ele>2189.5400390625</ele>
        <time>2012-03-16T09:14:45Z</time>
      </trkpt>
      <trkpt lat="46.17252" lon="6.77811">
        <ele>2189.0593261719</ele>
        <time>2012-03-16T09:14:58Z</time>
      </trkpt>
      <trkpt lat="46.17252" lon="6.77811">
        <ele>2187.6171875</ele>
        <time>2012-03-16T09:15:00Z</time>
      </trkpt>
      <trkpt lat="46.17253" lon="6.77809">
        <ele>2188.5788574219</ele>
        <time>2012-03-16T09:15:31Z</time>
      </trkpt>
      <trkpt lat="46.17255" lon="6.77806">
        <ele>2187.6171875</ele>
        <time>2012-03-16T09:15:55Z</time>
      </trkpt>
      <trkpt lat="46.1725" lon="6.77806">
        <ele>2188.0981445312</ele>
        <time>2012-03-16T09:16:16Z</time>
      </trkpt>
      <trkpt lat="46.17249" lon="6.77805">
        <ele>2188.5788574219</ele>
        <time>2012-03-16T09:16:17Z</time>
      </trkpt>
      <trkpt lat="46.17244" lon="6.77777">
        <ele>2189.0593261719</ele>
        <time>2012-03-16T09:16:32Z</time>
      </trkpt>
      <trkpt lat="46.17249" lon="6.77725">
        <ele>2186.6557617188</ele>
        <time>2012-03-16T09:16:49Z</time>
      </trkpt>
      <trkpt lat="46.17251" lon="6.77713">
        <ele>2184.7333984375</ele>
        <time>2012-03-16T09:16:51Z</time>
      </trkpt>
      <trkpt lat="46.17252" lon="6.77699">
        <ele>2183.2912597656</ele>
        <time>2012-03-16T09:16:53Z</time>
      </trkpt>
      <trkpt lat="46.17255" lon="6.7767">
        <ele>2177.5234375</ele>
        <time>2012-03-16T09:16:56Z</time>
      </trkpt>
      <trkpt lat="46.17261" lon="6.77643">
        <ele>2172.7170410156</ele>
        <time>2012-03-16T09:16:58Z</time>
      </trkpt>
      <trkpt lat="46.17264" lon="6.7761">
        <ele>2165.0263671875</ele>
        <time>2012-03-16T09:17:00Z</time>
      </trkpt>
      <trkpt lat="46.17265" lon="6.77577">
        <ele>2163.5842285156</ele>
        <time>2012-03-16T09:17:02Z</time>
      </trkpt>
      <trkpt lat="46.17276" lon="6.77508">
        <ele>2154.9323730469</ele>
        <time>2012-03-16T09:17:07Z</time>
      </trkpt>
      <trkpt lat="46.17287" lon="6.77487">
        <ele>2149.6452636719</ele>
        <time>2012-03-16T09:17:09Z</time>
      </trkpt>
      <trkpt lat="46.17296" lon="6.77468">
        <ele>2147.2419433594</ele>
        <time>2012-03-16T09:17:11Z</time>
      </trkpt>
      <trkpt lat="46.17301" lon="6.77451">
        <ele>2142.435546875</ele>
        <time>2012-03-16T09:17:13Z</time>
      </trkpt>
      <trkpt lat="46.17301" lon="6.77442">
        <ele>2141.9548339844</ele>
        <time>2012-03-16T09:17:14Z</time>
      </trkpt>
      <trkpt lat="46.17305" lon="6.77427">
        <ele>2138.5900878906</ele>
        <time>2012-03-16T09:17:17Z</time>
      </trkpt>
      <trkpt lat="46.17307" lon="6.77428">
        <ele>2139.0705566406</ele>
        <time>2012-03-16T09:17:18Z</time>
      </trkpt>
      <trkpt lat="46.1731" lon="6.77432">
        <ele>2138.5900878906</ele>
        <time>2012-03-16T09:17:28Z</time>
      </trkpt>
      <trkpt lat="46.17313" lon="6.77432">
        <ele>2139.0705566406</ele>
        <time>2012-03-16T09:17:35Z</time>
      </trkpt>
      <trkpt lat="46.1732" lon="6.77419">
        <ele>2136.1867675781</ele>
        <time>2012-03-16T09:17:40Z</time>
      </trkpt>
      <trkpt lat="46.17323" lon="6.77409">
        <ele>2132.8220214844</ele>
        <time>2012-03-16T09:17:42Z</time>
      </trkpt>
      <trkpt lat="46.17327" lon="6.77391">
        <ele>2128.015625</ele>
        <time>2012-03-16T09:17:45Z</time>
      </trkpt>
      <trkpt lat="46.17332" lon="6.7738">
        <ele>2124.1704101562</ele>
        <time>2012-03-16T09:17:47Z</time>
      </trkpt>
      <trkpt lat="46.17335" lon="6.77364">
        <ele>2120.3249511719</ele>
        <time>2012-03-16T09:17:49Z</time>
      </trkpt>
      <trkpt lat="46.17343" lon="6.77348">
        <ele>2116.9604492188</ele>
        <time>2012-03-16T09:17:52Z</time>
      </trkpt>
      <trkpt lat="46.17347" lon="6.7733">
        <ele>2114.0764160156</ele>
        <time>2012-03-16T09:17:56Z</time>
      </trkpt>
      <trkpt lat="46.17354" lon="6.77315">
        <ele>2107.3471679688</ele>
        <time>2012-03-16T09:18:00Z</time>
      </trkpt>
      <trkpt lat="46.17354" lon="6.77311">
        <ele>2107.3471679688</ele>
        <time>2012-03-16T09:18:01Z</time>
      </trkpt>
      <trkpt lat="46.17354" lon="6.77304">
        <ele>2105.9050292969</ele>
        <time>2012-03-16T09:18:03Z</time>
      </trkpt>
      <trkpt lat="46.17356" lon="6.77285">
        <ele>2099.6567382812</ele>
        <time>2012-03-16T09:18:06Z</time>
      </trkpt>
      <trkpt lat="46.17361" lon="6.77272">
        <ele>2096.2922363281</ele>
        <time>2012-03-16T09:18:09Z</time>
      </trkpt>
      <trkpt lat="46.17368" lon="6.7726">
        <ele>2091.0046386719</ele>
        <time>2012-03-16T09:18:11Z</time>
      </trkpt>
      <trkpt lat="46.1737" lon="6.77244">
        <ele>2087.1594238281</ele>
        <time>2012-03-16T09:18:13Z</time>
      </trkpt>
      <trkpt lat="46.1738" lon="6.77233">
        <ele>2082.3530273438</ele>
        <time>2012-03-16T09:18:15Z</time>
      </trkpt>
      <trkpt lat="46.17388" lon="6.77219">
        <ele>2078.0270996094</ele>
        <time>2012-03-16T09:18:17Z</time>
      </trkpt>
      <trkpt lat="46.17389" lon="6.77211">
        <ele>2077.5463867188</ele>
        <time>2012-03-16T09:18:18Z</time>
      </trkpt>
      <trkpt lat="46.174" lon="6.77182">
        <ele>2070.3364257812</ele>
        <time>2012-03-16T09:18:22Z</time>
      </trkpt>
      <trkpt lat="46.17408" lon="6.77179">
        <ele>2065.5300292969</ele>
        <time>2012-03-16T09:18:23Z</time>
      </trkpt>
      <trkpt lat="46.1742" lon="6.77167">
        <ele>2059.76171875</ele>
        <time>2012-03-16T09:18:25Z</time>
      </trkpt>
      <trkpt lat="46.17422" lon="6.77158">
        <ele>2058.8005371094</ele>
        <time>2012-03-16T09:18:26Z</time>
      </trkpt>
      <trkpt lat="46.17431" lon="6.77129">
        <ele>2049.1875</ele>
        <time>2012-03-16T09:18:29Z</time>
      </trkpt>
      <trkpt lat="46.17444" lon="6.77111">
        <ele>2043.4194335938</ele>
        <time>2012-03-16T09:18:31Z</time>
      </trkpt>
      <trkpt lat="46.17453" lon="6.77105">
        <ele>2037.6516113281</ele>
        <time>2012-03-16T09:18:32Z</time>
      </trkpt>
      <trkpt lat="46.17461" lon="6.77093">
        <ele>2031.8837890625</ele>
        <time>2012-03-16T09:18:33Z</time>
      </trkpt>
      <trkpt lat="46.1747" lon="6.77082">
        <ele>2028.9997558594</ele>
        <time>2012-03-16T09:18:34Z</time>
      </trkpt>
      <trkpt lat="46.17482" lon="6.77073">
        <ele>2025.6350097656</ele>
        <time>2012-03-16T09:18:35Z</time>
      </trkpt>
      <trkpt lat="46.17496" lon="6.77069">
        <ele>2020.3479003906</ele>
        <time>2012-03-16T09:18:36Z</time>
      </trkpt>
      <trkpt lat="46.1751" lon="6.77063">
        <ele>2017.4638671875</ele>
        <time>2012-03-16T09:18:37Z</time>
      </trkpt>
      <trkpt lat="46.1752" lon="6.77051">
        <ele>2010.7346191406</ele>
        <time>2012-03-16T09:18:38Z</time>
      </trkpt>
      <trkpt lat="46.17528" lon="6.77035">
        <ele>2004.966796875</ele>
        <time>2012-03-16T09:18:39Z</time>
      </trkpt>
      <trkpt lat="46.17538" lon="6.7702">
        <ele>1999.1989746094</ele>
        <time>2012-03-16T09:18:40Z</time>
      </trkpt>
      <trkpt lat="46.17548" lon="6.77008">
        <ele>1994.3920898438</ele>
        <time>2012-03-16T09:18:41Z</time>
      </trkpt>
      <trkpt lat="46.1756" lon="6.76997">
        <ele>1986.7016601562</ele>
        <time>2012-03-16T09:18:42Z</time>
      </trkpt>
      <trkpt lat="46.17584" lon="6.76979">
        <ele>1977.5690917969</ele>
        <time>2012-03-16T09:18:44Z</time>
      </trkpt>
      <trkpt lat="46.17596" lon="6.76969">
        <ele>1972.7626953125</ele>
        <time>2012-03-16T09:18:45Z</time>
      </trkpt>
      <trkpt lat="46.17632" lon="6.76936">
        <ele>1955.458984375</ele>
        <time>2012-03-16T09:18:48Z</time>
      </trkpt>
      <trkpt lat="46.17644" lon="6.76925">
        <ele>1950.65234375</ele>
        <time>2012-03-16T09:18:49Z</time>
      </trkpt>
      <trkpt lat="46.1767" lon="6.76917">
        <ele>1942.4812011719</ele>
        <time>2012-03-16T09:18:51Z</time>
      </trkpt>
      <trkpt lat="46.1768" lon="6.7692">
        <ele>1933.8293457031</ele>
        <time>2012-03-16T09:18:52Z</time>
      </trkpt>
      <trkpt lat="46.17695" lon="6.76924">
        <ele>1933.3486328125</ele>
        <time>2012-03-16T09:18:57Z</time>
      </trkpt>
      <trkpt lat="46.17692" lon="6.76939">
        <ele>1931.9064941406</ele>
        <time>2012-03-16T09:19:05Z</time>
      </trkpt>
      <trkpt lat="46.17693" lon="6.76939">
        <ele>1933.3486328125</ele>
        <time>2012-03-16T09:19:10Z</time>
      </trkpt>
      <trkpt lat="46.17695" lon="6.76938">
        <ele>1931.9064941406</ele>
        <time>2012-03-16T09:19:12Z</time>
      </trkpt>
      <trkpt lat="46.17702" lon="6.76927">
        <ele>1927.1000976562</ele>
        <time>2012-03-16T09:19:15Z</time>
      </trkpt>
      <trkpt lat="46.17705" lon="6.76918">
        <ele>1926.6193847656</ele>
        <time>2012-03-16T09:19:17Z</time>
      </trkpt>
      <trkpt lat="46.17715" lon="6.76914">
        <ele>1922.7741699219</ele>
        <time>2012-03-16T09:19:19Z</time>
      </trkpt>
      <trkpt lat="46.17736" lon="6.76921">
        <ele>1918.4482421875</ele>
        <time>2012-03-16T09:19:22Z</time>
      </trkpt>
      <trkpt lat="46.17742" lon="6.76939">
        <ele>1915.0834960938</ele>
        <time>2012-03-16T09:19:24Z</time>
      </trkpt>
      <trkpt lat="46.17746" lon="6.76947">
        <ele>1911.23828125</ele>
        <time>2012-03-16T09:19:25Z</time>
      </trkpt>
      <trkpt lat="46.17745" lon="6.76964">
        <ele>1906.9123535156</ele>
        <time>2012-03-16T09:19:27Z</time>
      </trkpt>
      <trkpt lat="46.17737" lon="6.76987">
        <ele>1904.0285644531</ele>
        <time>2012-03-16T09:19:29Z</time>
      </trkpt>
      <trkpt lat="46.17725" lon="6.77024">
        <ele>1894.8957519531</ele>
        <time>2012-03-16T09:19:32Z</time>
      </trkpt>
      <trkpt lat="46.1772" lon="6.77038">
        <ele>1892.4926757812</ele>
        <time>2012-03-16T09:19:33Z</time>
      </trkpt>
      <trkpt lat="46.17696" lon="6.77064">
        <ele>1885.7634277344</ele>
        <time>2012-03-16T09:19:36Z</time>
      </trkpt>
      <trkpt lat="46.17688" lon="6.77081">
        <ele>1884.3215332031</ele>
        <time>2012-03-16T09:19:38Z</time>
      </trkpt>
      <trkpt lat="46.17694" lon="6.77088">
        <ele>1877.1115722656</ele>
        <time>2012-03-16T09:19:40Z</time>
      </trkpt>
      <trkpt lat="46.17701" lon="6.77091">
        <ele>1872.7856445312</ele>
        <time>2012-03-16T09:19:41Z</time>
      </trkpt>
      <trkpt lat="46.17722" lon="6.77105">
        <ele>1863.1723632812</ele>
        <time>2012-03-16T09:19:43Z</time>
      </trkpt>
      <trkpt lat="46.17746" lon="6.77114">
        <ele>1855.0012207031</ele>
        <time>2012-03-16T09:19:45Z</time>
      </trkpt>
      <trkpt lat="46.17758" lon="6.77113">
        <ele>1851.1557617188</ele>
        <time>2012-03-16T09:19:46Z</time>
      </trkpt>
      <trkpt lat="46.17771" lon="6.7711">
        <ele>1848.7524414062</ele>
        <time>2012-03-16T09:19:47Z</time>
      </trkpt>
      <trkpt lat="46.178" lon="6.77107">
        <ele>1836.7360839844</ele>
        <time>2012-03-16T09:19:49Z</time>
      </trkpt>
      <trkpt lat="46.17833" lon="6.77098">
        <ele>1829.0454101562</ele>
        <time>2012-03-16T09:19:51Z</time>
      </trkpt>
      <trkpt lat="46.17849" lon="6.7709">
        <ele>1824.7197265625</ele>
        <time>2012-03-16T09:19:52Z</time>
      </trkpt>
      <trkpt lat="46.17865" lon="6.77081">
        <ele>1816.5483398438</ele>
        <time>2012-03-16T09:19:53Z</time>
      </trkpt>
      <trkpt lat="46.17879" lon="6.77072">
        <ele>1812.2224121094</ele>
        <time>2012-03-16T09:19:54Z</time>
      </trkpt>
      <trkpt lat="46.17894" lon="6.77062">
        <ele>1807.8967285156</ele>
        <time>2012-03-16T09:19:55Z</time>
      </trkpt>
      <trkpt lat="46.17908" lon="6.77052">
        <ele>1805.4934082031</ele>
        <time>2012-03-16T09:19:56Z</time>
      </trkpt>
      <trkpt lat="46.17935" lon="6.77035">
        <ele>1793.4768066406</ele>
        <time>2012-03-16T09:19:58Z</time>
      </trkpt>
      <trkpt lat="46.17945" lon="6.77021">
        <ele>1789.1508789062</ele>
        <time>2012-03-16T09:19:59Z</time>
      </trkpt>
      <trkpt lat="46.17964" lon="6.76988">
        <ele>1781.9409179688</ele>
        <time>2012-03-16T09:20:01Z</time>
      </trkpt>
      <trkpt lat="46.17969" lon="6.76967">
        <ele>1782.4216308594</ele>
        <time>2012-03-16T09:20:02Z</time>
      </trkpt>
      <trkpt lat="46.17987" lon="6.76939">
        <ele>1768.9631347656</ele>
        <time>2012-03-16T09:20:04Z</time>
      </trkpt>
      <trkpt lat="46.18001" lon="6.7691">
        <ele>1765.5986328125</ele>
        <time>2012-03-16T09:20:06Z</time>
      </trkpt>
      <trkpt lat="46.1801" lon="6.769">
        <ele>1760.3112792969</ele>
        <time>2012-03-16T09:20:07Z</time>
      </trkpt>
      <trkpt lat="46.18021" lon="6.76891">
        <ele>1756.9467773438</ele>
        <time>2012-03-16T09:20:08Z</time>
      </trkpt>
      <trkpt lat="46.18037" lon="6.76854">
        <ele>1753.1013183594</ele>
        <time>2012-03-16T09:20:11Z</time>
      </trkpt>
      <trkpt lat="46.18041" lon="6.76844">
        <ele>1749.7368164062</ele>
        <time>2012-03-16T09:20:12Z</time>
      </trkpt>
      <trkpt lat="46.18046" lon="6.76842">
        <ele>1745.4108886719</ele>
        <time>2012-03-16T09:20:13Z</time>
      </trkpt>
      <trkpt lat="46.1807" lon="6.76838">
        <ele>1742.0463867188</ele>
        <time>2012-03-16T09:20:16Z</time>
      </trkpt>
      <trkpt lat="46.18081" lon="6.76834">
        <ele>1738.2009277344</ele>
        <time>2012-03-16T09:20:17Z</time>
      </trkpt>
      <trkpt lat="46.18093" lon="6.76835">
        <ele>1734.3557128906</ele>
        <time>2012-03-16T09:20:18Z</time>
      </trkpt>
      <trkpt lat="46.18105" lon="6.76841">
        <ele>1730.5104980469</ele>
        <time>2012-03-16T09:20:19Z</time>
      </trkpt>
      <trkpt lat="46.18141" lon="6.76858">
        <ele>1718.4938964844</ele>
        <time>2012-03-16T09:20:22Z</time>
      </trkpt>
      <trkpt lat="46.18154" lon="6.76863">
        <ele>1713.2067871094</ele>
        <time>2012-03-16T09:20:23Z</time>
      </trkpt>
      <trkpt lat="46.18166" lon="6.76869">
        <ele>1709.3615722656</ele>
        <time>2012-03-16T09:20:24Z</time>
      </trkpt>
      <trkpt lat="46.18187" lon="6.76882">
        <ele>1706.9580078125</ele>
        <time>2012-03-16T09:20:26Z</time>
      </trkpt>
      <trkpt lat="46.18205" lon="6.76898">
        <ele>1696.8642578125</ele>
        <time>2012-03-16T09:20:28Z</time>
      </trkpt>
      <trkpt lat="46.18223" lon="6.76928">
        <ele>1688.6931152344</ele>
        <time>2012-03-16T09:20:31Z</time>
      </trkpt>
      <trkpt lat="46.18231" lon="6.76934">
        <ele>1685.8090820312</ele>
        <time>2012-03-16T09:20:32Z</time>
      </trkpt>
      <trkpt lat="46.1824" lon="6.76935">
        <ele>1681.9638671875</ele>
        <time>2012-03-16T09:20:33Z</time>
      </trkpt>
      <trkpt lat="46.18261" lon="6.76936">
        <ele>1674.2731933594</ele>
        <time>2012-03-16T09:20:35Z</time>
      </trkpt>
      <trkpt lat="46.18272" lon="6.76937">
        <ele>1670.4279785156</ele>
        <time>2012-03-16T09:20:36Z</time>
      </trkpt>
      <trkpt lat="46.18283" lon="6.76937">
        <ele>1667.0634765625</ele>
        <time>2012-03-16T09:20:37Z</time>
      </trkpt>
      <trkpt lat="46.18295" lon="6.76937">
        <ele>1662.7375488281</ele>
        <time>2012-03-16T09:20:38Z</time>
      </trkpt>
      <trkpt lat="46.18308" lon="6.76938">
        <ele>1659.3728027344</ele>
        <time>2012-03-16T09:20:39Z</time>
      </trkpt>
      <trkpt lat="46.1832" lon="6.76941">
        <ele>1655.5275878906</ele>
        <time>2012-03-16T09:20:40Z</time>
      </trkpt>
      <trkpt lat="46.18332" lon="6.76942">
        <ele>1650.2404785156</ele>
        <time>2012-03-16T09:20:41Z</time>
      </trkpt>
      <trkpt lat="46.18353" lon="6.76929">
        <ele>1644.4724121094</ele>
        <time>2012-03-16T09:20:43Z</time>
      </trkpt>
      <trkpt lat="46.18356" lon="6.76921">
        <ele>1642.5498046875</ele>
        <time>2012-03-16T09:20:44Z</time>
      </trkpt>
      <trkpt lat="46.18362" lon="6.76911">
        <ele>1639.6657714844</ele>
        <time>2012-03-16T09:20:48Z</time>
      </trkpt>
      <trkpt lat="46.1836" lon="6.76915">
        <ele>1639.6657714844</ele>
        <time>2012-03-16T09:21:09Z</time>
      </trkpt>
      <trkpt lat="46.1836" lon="6.76917">
        <ele>1638.2238769531</ele>
        <time>2012-03-16T09:21:34Z</time>
      </trkpt>
      <trkpt lat="46.1836" lon="6.7692">
        <ele>1638.7045898438</ele>
        <time>2012-03-16T09:21:58Z</time>
      </trkpt>
      <trkpt lat="46.1838" lon="6.76932">
        <ele>1635.33984375</ele>
        <time>2012-03-16T09:22:03Z</time>
      </trkpt>
      <trkpt lat="46.18389" lon="6.76933">
        <ele>1629.0913085938</ele>
        <time>2012-03-16T09:22:04Z</time>
      </trkpt>
      <trkpt lat="46.184" lon="6.76931">
        <ele>1625.2458496094</ele>
        <time>2012-03-16T09:22:05Z</time>
      </trkpt>
      <trkpt lat="46.18422" lon="6.76923">
        <ele>1618.9975585938</ele>
        <time>2012-03-16T09:22:07Z</time>
      </trkpt>
      <trkpt lat="46.1846" lon="6.76929">
        <ele>1607.4616699219</ele>
        <time>2012-03-16T09:22:10Z</time>
      </trkpt>
      <trkpt lat="46.18473" lon="6.76934">
        <ele>1602.6550292969</ele>
        <time>2012-03-16T09:22:11Z</time>
      </trkpt>
      <trkpt lat="46.18486" lon="6.76939">
        <ele>1598.8098144531</ele>
        <time>2012-03-16T09:22:12Z</time>
      </trkpt>
      <trkpt lat="46.18504" lon="6.76935">
        <ele>1590.1579589844</ele>
        <time>2012-03-16T09:22:14Z</time>
      </trkpt>
      <trkpt lat="46.18517" lon="6.76929">
        <ele>1587.2739257812</ele>
        <time>2012-03-16T09:22:15Z</time>
      </trkpt>
      <trkpt lat="46.18529" lon="6.76923">
        <ele>1581.0256347656</ele>
        <time>2012-03-16T09:22:16Z</time>
      </trkpt>
      <trkpt lat="46.18555" lon="6.76879">
        <ele>1572.3735351562</ele>
        <time>2012-03-16T09:22:19Z</time>
      </trkpt>
      <trkpt lat="46.18561" lon="6.7686">
        <ele>1567.0864257812</ele>
        <time>2012-03-16T09:22:20Z</time>
      </trkpt>
      <trkpt lat="46.18564" lon="6.76838">
        <ele>1563.7214355469</ele>
        <time>2012-03-16T09:22:21Z</time>
      </trkpt>
      <trkpt lat="46.18562" lon="6.76801">
        <ele>1560.3569335938</ele>
        <time>2012-03-16T09:22:23Z</time>
      </trkpt>
      <trkpt lat="46.18556" lon="6.76784">
        <ele>1559.8762207031</ele>
        <time>2012-03-16T09:22:24Z</time>
      </trkpt>
      <trkpt lat="46.18553" lon="6.76766">
        <ele>1557.4731445312</ele>
        <time>2012-03-16T09:22:25Z</time>
      </trkpt>
      <trkpt lat="46.1855" lon="6.76732">
        <ele>1552.1857910156</ele>
        <time>2012-03-16T09:22:27Z</time>
      </trkpt>
      <trkpt lat="46.18547" lon="6.767">
        <ele>1550.7438964844</ele>
        <time>2012-03-16T09:22:29Z</time>
      </trkpt>
      <trkpt lat="46.18547" lon="6.76689">
        <ele>1549.7827148438</ele>
        <time>2012-03-16T09:22:30Z</time>
      </trkpt>
      <trkpt lat="46.18556" lon="6.76662">
        <ele>1545.4565429688</ele>
        <time>2012-03-16T09:22:33Z</time>
      </trkpt>
      <trkpt lat="46.18562" lon="6.76639">
        <ele>1542.0920410156</ele>
        <time>2012-03-16T09:22:35Z</time>
      </trkpt>
      <trkpt lat="46.18566" lon="6.76617">
        <ele>1541.1306152344</ele>
        <time>2012-03-16T09:22:37Z</time>
      </trkpt>
      <trkpt lat="46.18592" lon="6.76609">
        <ele>1535.3627929688</ele>
        <time>2012-03-16T09:22:41Z</time>
      </trkpt>
      <trkpt lat="46.18597" lon="6.76624">
        <ele>1530.5561523438</ele>
        <time>2012-03-16T09:22:42Z</time>
      </trkpt>
      <trkpt lat="46.18607" lon="6.76654">
        <ele>1523.8269042969</ele>
        <time>2012-03-16T09:22:44Z</time>
      </trkpt>
      <trkpt lat="46.1861" lon="6.76666">
        <ele>1519.9816894531</ele>
        <time>2012-03-16T09:22:45Z</time>
      </trkpt>
      <trkpt lat="46.18635" lon="6.76687">
        <ele>1512.291015625</ele>
        <time>2012-03-16T09:22:49Z</time>
      </trkpt>
      <trkpt lat="46.18645" lon="6.76685">
        <ele>1507.4846191406</ele>
        <time>2012-03-16T09:22:50Z</time>
      </trkpt>
      <trkpt lat="46.18658" lon="6.76677">
        <ele>1503.1586914062</ele>
        <time>2012-03-16T09:22:51Z</time>
      </trkpt>
      <trkpt lat="46.18685" lon="6.76653">
        <ele>1498.3518066406</ele>
        <time>2012-03-16T09:22:53Z</time>
      </trkpt>
      <trkpt lat="46.18703" lon="6.76631">
        <ele>1500.2749023438</ele>
        <time>2012-03-16T09:22:56Z</time>
      </trkpt>
      <trkpt lat="46.18692" lon="6.76626">
        <ele>1500.7553710938</ele>
        <time>2012-03-16T09:23:08Z</time>
      </trkpt>
      <trkpt lat="46.18684" lon="6.76624">
        <ele>1500.2749023438</ele>
        <time>2012-03-16T09:23:26Z</time>
      </trkpt>
      <trkpt lat="46.1868" lon="6.76626">
        <ele>1499.3132324219</ele>
        <time>2012-03-16T09:23:46Z</time>
      </trkpt>
      <trkpt lat="46.18677" lon="6.76629">
        <ele>1499.7939453125</ele>
        <time>2012-03-16T09:24:04Z</time>
      </trkpt>
      <trkpt lat="46.18671" lon="6.76624">
        <ele>1496.4294433594</ele>
        <time>2012-03-16T09:24:16Z</time>
      </trkpt>
      <trkpt lat="46.18669" lon="6.76625">
        <ele>1498.3518066406</ele>
        <time>2012-03-16T09:24:18Z</time>
      </trkpt>
      <trkpt lat="46.18654" lon="6.76639">
        <ele>1496.9099121094</ele>
        <time>2012-03-16T09:24:24Z</time>
      </trkpt>
      <trkpt lat="46.18647" lon="6.76645">
        <ele>1500.2749023438</ele>
        <time>2012-03-16T09:24:26Z</time>
      </trkpt>
      <trkpt lat="46.18637" lon="6.76654">
        <ele>1505.5620117188</ele>
        <time>2012-03-16T09:24:29Z</time>
      </trkpt>
      <trkpt lat="46.1863" lon="6.76659">
        <ele>1510.3684082031</ele>
        <time>2012-03-16T09:24:31Z</time>
      </trkpt>
      <trkpt lat="46.18624" lon="6.76664">
        <ele>1513.2524414062</ele>
        <time>2012-03-16T09:24:33Z</time>
      </trkpt>
      <trkpt lat="46.18621" lon="6.76666">
        <ele>1516.6171875</ele>
        <time>2012-03-16T09:24:34Z</time>
      </trkpt>
      <trkpt lat="46.18615" lon="6.7667">
        <ele>1520.4624023438</ele>
        <time>2012-03-16T09:24:36Z</time>
      </trkpt>
      <trkpt lat="46.18605" lon="6.76678">
        <ele>1525.7495117188</ele>
        <time>2012-03-16T09:24:39Z</time>
      </trkpt>
      <trkpt lat="46.18597" lon="6.76682">
        <ele>1530.0754394531</ele>
        <time>2012-03-16T09:24:41Z</time>
      </trkpt>
      <trkpt lat="46.18593" lon="6.76685">
        <ele>1529.1140136719</ele>
        <time>2012-03-16T09:24:42Z</time>
      </trkpt>
      <trkpt lat="46.1859" lon="6.76687">
        <ele>1532.4790039062</ele>
        <time>2012-03-16T09:24:43Z</time>
      </trkpt>
      <trkpt lat="46.18584" lon="6.76692">
        <ele>1537.7661132812</ele>
        <time>2012-03-16T09:24:45Z</time>
      </trkpt>
      <trkpt lat="46.18577" lon="6.76697">
        <ele>1540.6499023438</ele>
        <time>2012-03-16T09:24:47Z</time>
      </trkpt>
      <trkpt lat="46.18571" lon="6.76702">
        <ele>1542.0920410156</ele>
        <time>2012-03-16T09:24:49Z</time>
      </trkpt>
      <trkpt lat="46.18564" lon="6.76707">
        <ele>1546.8984375</ele>
        <time>2012-03-16T09:24:51Z</time>
      </trkpt>
      <trkpt lat="46.18561" lon="6.76709">
        <ele>1551.224609375</ele>
        <time>2012-03-16T09:24:52Z</time>
      </trkpt>
      <trkpt lat="46.18555" lon="6.76714">
        <ele>1556.0310058594</ele>
        <time>2012-03-16T09:24:54Z</time>
      </trkpt>
      <trkpt lat="46.18539" lon="6.76725">
        <ele>1560.8376464844</ele>
        <time>2012-03-16T09:24:58Z</time>
      </trkpt>
      <trkpt lat="46.18532" lon="6.7673">
        <ele>1565.1638183594</ele>
        <time>2012-03-16T09:25:00Z</time>
      </trkpt>
      <trkpt lat="46.1852" lon="6.76739">
        <ele>1568.5283203125</ele>
        <time>2012-03-16T09:25:03Z</time>
      </trkpt>
      <trkpt lat="46.18513" lon="6.76744">
        <ele>1573.3349609375</ele>
        <time>2012-03-16T09:25:05Z</time>
      </trkpt>
      <trkpt lat="46.18505" lon="6.76749">
        <ele>1577.6606445312</ele>
        <time>2012-03-16T09:25:07Z</time>
      </trkpt>
      <trkpt lat="46.18494" lon="6.76757">
        <ele>1582.4675292969</ele>
        <time>2012-03-16T09:25:10Z</time>
      </trkpt>
      <trkpt lat="46.18487" lon="6.76762">
        <ele>1585.83203125</ele>
        <time>2012-03-16T09:25:12Z</time>
      </trkpt>
      <trkpt lat="46.18484" lon="6.76765">
        <ele>1589.1965332031</ele>
        <time>2012-03-16T09:25:13Z</time>
      </trkpt>
      <trkpt lat="46.18477" lon="6.76769">
        <ele>1592.5612792969</ele>
        <time>2012-03-16T09:25:15Z</time>
      </trkpt>
      <trkpt lat="46.18474" lon="6.76772">
        <ele>1597.3679199219</ele>
        <time>2012-03-16T09:25:16Z</time>
      </trkpt>
      <trkpt lat="46.18467" lon="6.76776">
        <ele>1601.2131347656</ele>
        <time>2012-03-16T09:25:18Z</time>
      </trkpt>
      <trkpt lat="46.18464" lon="6.76779">
        <ele>1604.5776367188</ele>
        <time>2012-03-16T09:25:19Z</time>
      </trkpt>
      <trkpt lat="46.18456" lon="6.76784">
        <ele>1607.9423828125</ele>
        <time>2012-03-16T09:25:21Z</time>
      </trkpt>
      <trkpt lat="46.18449" lon="6.76789">
        <ele>1612.2683105469</ele>
        <time>2012-03-16T09:25:23Z</time>
      </trkpt>
      <trkpt lat="46.18446" lon="6.76791">
        <ele>1615.6330566406</ele>
        <time>2012-03-16T09:25:24Z</time>
      </trkpt>
      <trkpt lat="46.18439" lon="6.76796">
        <ele>1621.4006347656</ele>
        <time>2012-03-16T09:25:26Z</time>
      </trkpt>
      <trkpt lat="46.18432" lon="6.76801">
        <ele>1625.2458496094</ele>
        <time>2012-03-16T09:25:28Z</time>
      </trkpt>
      <trkpt lat="46.18421" lon="6.7681">
        <ele>1629.5720214844</ele>
        <time>2012-03-16T09:25:31Z</time>
      </trkpt>
      <trkpt lat="46.1841" lon="6.76819">
        <ele>1633.4172363281</ele>
        <time>2012-03-16T09:25:34Z</time>
      </trkpt>
      <trkpt lat="46.18402" lon="6.76824">
        <ele>1638.2238769531</ele>
        <time>2012-03-16T09:25:36Z</time>
      </trkpt>
      <trkpt lat="46.18391" lon="6.76833">
        <ele>1643.0302734375</ele>
        <time>2012-03-16T09:25:39Z</time>
      </trkpt>
      <trkpt lat="46.18387" lon="6.76836">
        <ele>1645.9145507812</ele>
        <time>2012-03-16T09:25:40Z</time>
      </trkpt>
      <trkpt lat="46.18379" lon="6.76841">
        <ele>1649.759765625</ele>
        <time>2012-03-16T09:25:42Z</time>
      </trkpt>
      <trkpt lat="46.18368" lon="6.7685">
        <ele>1653.6049804688</ele>
        <time>2012-03-16T09:25:45Z</time>
      </trkpt>
      <trkpt lat="46.18356" lon="6.76858">
        <ele>1656.9694824219</ele>
        <time>2012-03-16T09:25:48Z</time>
      </trkpt>
      <trkpt lat="46.18344" lon="6.76866">
        <ele>1660.8149414062</ele>
        <time>2012-03-16T09:25:51Z</time>
      </trkpt>
      <trkpt lat="46.18332" lon="6.76874">
        <ele>1665.1408691406</ele>
        <time>2012-03-16T09:25:54Z</time>
      </trkpt>
      <trkpt lat="46.1832" lon="6.76883">
        <ele>1668.5053710938</ele>
        <time>2012-03-16T09:25:57Z</time>
      </trkpt>
      <trkpt lat="46.18316" lon="6.76886">
        <ele>1668.5053710938</ele>
        <time>2012-03-16T09:25:58Z</time>
      </trkpt>
      <trkpt lat="46.183" lon="6.76897">
        <ele>1671.8698730469</ele>
        <time>2012-03-16T09:26:02Z</time>
      </trkpt>
      <trkpt lat="46.18292" lon="6.76903">
        <ele>1674.75390625</ele>
        <time>2012-03-16T09:26:04Z</time>
      </trkpt>
      <trkpt lat="46.18276" lon="6.76914">
        <ele>1679.560546875</ele>
        <time>2012-03-16T09:26:08Z</time>
      </trkpt>
      <trkpt lat="46.18264" lon="6.76923">
        <ele>1682.9250488281</ele>
        <time>2012-03-16T09:26:11Z</time>
      </trkpt>
      <trkpt lat="46.18252" lon="6.76931">
        <ele>1687.2509765625</ele>
        <time>2012-03-16T09:26:14Z</time>
      </trkpt>
      <trkpt lat="46.18244" lon="6.76936">
        <ele>1690.6154785156</ele>
        <time>2012-03-16T09:26:16Z</time>
      </trkpt>
      <trkpt lat="46.18233" lon="6.76945">
        <ele>1695.4223632812</ele>
        <time>2012-03-16T09:26:19Z</time>
      </trkpt>
      <trkpt lat="46.18229" lon="6.76948">
        <ele>1695.4223632812</ele>
        <time>2012-03-16T09:26:20Z</time>
      </trkpt>
      <trkpt lat="46.18221" lon="6.76953">
        <ele>1700.2290039062</ele>
        <time>2012-03-16T09:26:22Z</time>
      </trkpt>
      <trkpt lat="46.1821" lon="6.76961">
        <ele>1703.5935058594</ele>
        <time>2012-03-16T09:26:25Z</time>
      </trkpt>
      <trkpt lat="46.18203" lon="6.76967">
        <ele>1709.3615722656</ele>
        <time>2012-03-16T09:26:27Z</time>
      </trkpt>
      <trkpt lat="46.18195" lon="6.76972">
        <ele>1712.7260742188</ele>
        <time>2012-03-16T09:26:29Z</time>
      </trkpt>
      <trkpt lat="46.18184" lon="6.7698">
        <ele>1717.0520019531</ele>
        <time>2012-03-16T09:26:32Z</time>
      </trkpt>
      <trkpt lat="46.18176" lon="6.76985">
        <ele>1721.8583984375</ele>
        <time>2012-03-16T09:26:34Z</time>
      </trkpt>
      <trkpt lat="46.18169" lon="6.76991">
        <ele>1725.2231445312</ele>
        <time>2012-03-16T09:26:36Z</time>
      </trkpt>
      <trkpt lat="46.18161" lon="6.76996">
        <ele>1728.587890625</ele>
        <time>2012-03-16T09:26:38Z</time>
      </trkpt>
      <trkpt lat="46.18154" lon="6.77001">
        <ele>1734.3557128906</ele>
        <time>2012-03-16T09:26:40Z</time>
      </trkpt>
      <trkpt lat="46.18147" lon="6.77006">
        <ele>1738.2009277344</ele>
        <time>2012-03-16T09:26:42Z</time>
      </trkpt>
      <trkpt lat="46.1814" lon="6.77011">
        <ele>1741.5656738281</ele>
        <time>2012-03-16T09:26:44Z</time>
      </trkpt>
      <trkpt lat="46.18133" lon="6.77016">
        <ele>1745.8916015625</ele>
        <time>2012-03-16T09:26:46Z</time>
      </trkpt>
      <trkpt lat="46.18125" lon="6.77021">
        <ele>1749.7368164062</ele>
        <time>2012-03-16T09:26:48Z</time>
      </trkpt>
      <trkpt lat="46.18118" lon="6.77026">
        <ele>1753.1013183594</ele>
        <time>2012-03-16T09:26:50Z</time>
      </trkpt>
      <trkpt lat="46.18115" lon="6.77029">
        <ele>1756.4660644531</ele>
        <time>2012-03-16T09:26:51Z</time>
      </trkpt>
      <trkpt lat="46.18111" lon="6.77032">
        <ele>1759.8305664062</ele>
        <time>2012-03-16T09:26:52Z</time>
      </trkpt>
      <trkpt lat="46.18101" lon="6.7704">
        <ele>1763.1953125</ele>
        <time>2012-03-16T09:26:55Z</time>
      </trkpt>
      <trkpt lat="46.18089" lon="6.77048">
        <ele>1767.0405273438</ele>
        <time>2012-03-16T09:26:58Z</time>
      </trkpt>
      <trkpt lat="46.18073" lon="6.7706">
        <ele>1770.8857421875</ele>
        <time>2012-03-16T09:27:02Z</time>
      </trkpt>
      <trkpt lat="46.18061" lon="6.77068">
        <ele>1772.3278808594</ele>
        <time>2012-03-16T09:27:05Z</time>
      </trkpt>
      <trkpt lat="46.18045" lon="6.77079">
        <ele>1776.1730957031</ele>
        <time>2012-03-16T09:27:09Z</time>
      </trkpt>
      <trkpt lat="46.18038" lon="6.77085">
        <ele>1781.4602050781</ele>
        <time>2012-03-16T09:27:11Z</time>
      </trkpt>
      <trkpt lat="46.18022" lon="6.77096">
        <ele>1786.2668457031</ele>
        <time>2012-03-16T09:27:15Z</time>
      </trkpt>
      <trkpt lat="46.18014" lon="6.77101">
        <ele>1790.5927734375</ele>
        <time>2012-03-16T09:27:17Z</time>
      </trkpt>
      <trkpt lat="46.1801" lon="6.77104">
        <ele>1790.5927734375</ele>
        <time>2012-03-16T09:27:18Z</time>
      </trkpt>
      <trkpt lat="46.17995" lon="6.77114">
        <ele>1795.3994140625</ele>
        <time>2012-03-16T09:27:22Z</time>
      </trkpt>
      <trkpt lat="46.17987" lon="6.7712">
        <ele>1799.7253417969</ele>
        <time>2012-03-16T09:27:24Z</time>
      </trkpt>
      <trkpt lat="46.1798" lon="6.77125">
        <ele>1804.0515136719</ele>
        <time>2012-03-16T09:27:26Z</time>
      </trkpt>
      <trkpt lat="46.17969" lon="6.77133">
        <ele>1808.8579101562</ele>
        <time>2012-03-16T09:27:29Z</time>
      </trkpt>
      <trkpt lat="46.17953" lon="6.77144">
        <ele>1812.2224121094</ele>
        <time>2012-03-16T09:27:33Z</time>
      </trkpt>
      <trkpt lat="46.17937" lon="6.77156">
        <ele>1815.5871582031</ele>
        <time>2012-03-16T09:27:37Z</time>
      </trkpt>
      <trkpt lat="46.17933" lon="6.77159">
        <ele>1816.0676269531</ele>
        <time>2012-03-16T09:27:38Z</time>
      </trkpt>
      <trkpt lat="46.17921" lon="6.77167">
        <ele>1819.9128417969</ele>
        <time>2012-03-16T09:27:41Z</time>
      </trkpt>
      <trkpt lat="46.17913" lon="6.77173">
        <ele>1823.7583007812</ele>
        <time>2012-03-16T09:27:43Z</time>
      </trkpt>
      <trkpt lat="46.17906" lon="6.77178">
        <ele>1827.603515625</ele>
        <time>2012-03-16T09:27:45Z</time>
      </trkpt>
      <trkpt lat="46.17894" lon="6.77186">
        <ele>1831.9294433594</ele>
        <time>2012-03-16T09:27:48Z</time>
      </trkpt>
      <trkpt lat="46.17887" lon="6.77192">
        <ele>1834.8134765625</ele>
        <time>2012-03-16T09:27:50Z</time>
      </trkpt>
      <trkpt lat="46.17879" lon="6.77197">
        <ele>1838.6589355469</ele>
        <time>2012-03-16T09:27:52Z</time>
      </trkpt>
      <trkpt lat="46.17868" lon="6.77205">
        <ele>1842.0234375</ele>
        <time>2012-03-16T09:27:55Z</time>
      </trkpt>
      <trkpt lat="46.1786" lon="6.77211">
        <ele>1845.8686523438</ele>
        <time>2012-03-16T09:27:57Z</time>
      </trkpt>
      <trkpt lat="46.17849" lon="6.77219">
        <ele>1850.1945800781</ele>
        <time>2012-03-16T09:28:00Z</time>
      </trkpt>
      <trkpt lat="46.17842" lon="6.77224">
        <ele>1854.0400390625</ele>
        <time>2012-03-16T09:28:02Z</time>
      </trkpt>
      <trkpt lat="46.17834" lon="6.77229">
        <ele>1857.4045410156</ele>
        <time>2012-03-16T09:28:04Z</time>
      </trkpt>
      <trkpt lat="46.17823" lon="6.77237">
        <ele>1861.73046875</ele>
        <time>2012-03-16T09:28:07Z</time>
      </trkpt>
      <trkpt lat="46.17815" lon="6.77243">
        <ele>1865.0949707031</ele>
        <time>2012-03-16T09:28:09Z</time>
      </trkpt>
      <trkpt lat="46.17804" lon="6.77251">
        <ele>1868.4597167969</ele>
        <time>2012-03-16T09:28:12Z</time>
      </trkpt>
      <trkpt lat="46.178" lon="6.77253">
        <ele>1872.3049316406</ele>
        <time>2012-03-16T09:28:13Z</time>
      </trkpt>
      <trkpt lat="46.17789" lon="6.77261">
        <ele>1877.1115722656</ele>
        <time>2012-03-16T09:28:16Z</time>
      </trkpt>
      <trkpt lat="46.17777" lon="6.7727">
        <ele>1881.4372558594</ele>
        <time>2012-03-16T09:28:19Z</time>
      </trkpt>
      <trkpt lat="46.17766" lon="6.77278">
        <ele>1885.2827148438</ele>
        <time>2012-03-16T09:28:22Z</time>
      </trkpt>
      <trkpt lat="46.17762" lon="6.7728">
        <ele>1888.6474609375</ele>
        <time>2012-03-16T09:28:23Z</time>
      </trkpt>
      <trkpt lat="46.17758" lon="6.77283">
        <ele>1888.6474609375</ele>
        <time>2012-03-16T09:28:24Z</time>
      </trkpt>
      <trkpt lat="46.17751" lon="6.77288">
        <ele>1892.0119628906</ele>
        <time>2012-03-16T09:28:26Z</time>
      </trkpt>
      <trkpt lat="46.17743" lon="6.77294">
        <ele>1896.818359375</ele>
        <time>2012-03-16T09:28:28Z</time>
      </trkpt>
      <trkpt lat="46.17731" lon="6.77302">
        <ele>1900.6638183594</ele>
        <time>2012-03-16T09:28:31Z</time>
      </trkpt>
      <trkpt lat="46.17727" lon="6.77305">
        <ele>1899.7023925781</ele>
        <time>2012-03-16T09:28:32Z</time>
      </trkpt>
      <trkpt lat="46.1772" lon="6.7731">
        <ele>1903.5478515625</ele>
        <time>2012-03-16T09:28:34Z</time>
      </trkpt>
      <trkpt lat="46.17708" lon="6.77318">
        <ele>1907.8737792969</ele>
        <time>2012-03-16T09:28:37Z</time>
      </trkpt>
      <trkpt lat="46.17704" lon="6.77321">
        <ele>1907.8737792969</ele>
        <time>2012-03-16T09:28:38Z</time>
      </trkpt>
      <trkpt lat="46.17692" lon="6.77329">
        <ele>1911.7189941406</ele>
        <time>2012-03-16T09:28:41Z</time>
      </trkpt>
      <trkpt lat="46.17681" lon="6.77337">
        <ele>1915.0834960938</ele>
        <time>2012-03-16T09:28:44Z</time>
      </trkpt>
      <trkpt lat="46.17673" lon="6.77343">
        <ele>1919.8901367188</ele>
        <time>2012-03-16T09:28:46Z</time>
      </trkpt>
      <trkpt lat="46.17666" lon="6.77348">
        <ele>1923.2548828125</ele>
        <time>2012-03-16T09:28:48Z</time>
      </trkpt>
      <trkpt lat="46.17655" lon="6.77357">
        <ele>1927.5805664062</ele>
        <time>2012-03-16T09:28:51Z</time>
      </trkpt>
      <trkpt lat="46.17647" lon="6.77362">
        <ele>1932.3874511719</ele>
        <time>2012-03-16T09:28:53Z</time>
      </trkpt>
      <trkpt lat="46.17636" lon="6.7737">
        <ele>1936.2326660156</ele>
        <time>2012-03-16T09:28:56Z</time>
      </trkpt>
      <trkpt lat="46.17632" lon="6.77372">
        <ele>1939.1164550781</ele>
        <time>2012-03-16T09:28:57Z</time>
      </trkpt>
      <trkpt lat="46.17621" lon="6.7738">
        <ele>1943.9230957031</ele>
        <time>2012-03-16T09:29:00Z</time>
      </trkpt>
      <trkpt lat="46.17614" lon="6.77385">
        <ele>1948.7297363281</ele>
        <time>2012-03-16T09:29:02Z</time>
      </trkpt>
      <trkpt lat="46.17607" lon="6.77391">
        <ele>1953.0556640625</ele>
        <time>2012-03-16T09:29:04Z</time>
      </trkpt>
      <trkpt lat="46.176" lon="6.77396">
        <ele>1958.3427734375</ele>
        <time>2012-03-16T09:29:06Z</time>
      </trkpt>
      <trkpt lat="46.17589" lon="6.77403">
        <ele>1963.6298828125</ele>
        <time>2012-03-16T09:29:09Z</time>
      </trkpt>
      <trkpt lat="46.17578" lon="6.77411">
        <ele>1963.6298828125</ele>
        <time>2012-03-16T09:29:12Z</time>
      </trkpt>
      <trkpt lat="46.17574" lon="6.77414">
        <ele>1972.7626953125</ele>
        <time>2012-03-16T09:29:13Z</time>
      </trkpt>
      <trkpt lat="46.17567" lon="6.77419">
        <ele>1977.0886230469</ele>
        <time>2012-03-16T09:29:15Z</time>
      </trkpt>
      <trkpt lat="46.17564" lon="6.77421">
        <ele>1977.0886230469</ele>
        <time>2012-03-16T09:29:16Z</time>
      </trkpt>
      <trkpt lat="46.1756" lon="6.77424">
        <ele>1983.3371582031</ele>
        <time>2012-03-16T09:29:17Z</time>
      </trkpt>
      <trkpt lat="46.17556" lon="6.77426">
        <ele>1986.2211914062</ele>
        <time>2012-03-16T09:29:18Z</time>
      </trkpt>
      <trkpt lat="46.17549" lon="6.77431">
        <ele>1991.5083007812</ele>
        <time>2012-03-16T09:29:20Z</time>
      </trkpt>
      <trkpt lat="46.17542" lon="6.77436">
        <ele>1994.8728027344</ele>
        <time>2012-03-16T09:29:22Z</time>
      </trkpt>
      <trkpt lat="46.17536" lon="6.77441">
        <ele>2001.1215820312</ele>
        <time>2012-03-16T09:29:24Z</time>
      </trkpt>
      <trkpt lat="46.17529" lon="6.77446">
        <ele>2005.9279785156</ele>
        <time>2012-03-16T09:29:26Z</time>
      </trkpt>
      <trkpt lat="46.17522" lon="6.7745">
        <ele>2012.1767578125</ele>
        <time>2012-03-16T09:29:28Z</time>
      </trkpt>
      <trkpt lat="46.17515" lon="6.77455">
        <ele>2016.0219726562</ele>
        <time>2012-03-16T09:29:30Z</time>
      </trkpt>
      <trkpt lat="46.17509" lon="6.7746">
        <ele>2022.7512207031</ele>
        <time>2012-03-16T09:29:32Z</time>
      </trkpt>
      <trkpt lat="46.17502" lon="6.77464">
        <ele>2027.5576171875</ele>
        <time>2012-03-16T09:29:34Z</time>
      </trkpt>
      <trkpt lat="46.17495" lon="6.77469">
        <ele>2031.8837890625</ele>
        <time>2012-03-16T09:29:36Z</time>
      </trkpt>
      <trkpt lat="46.17489" lon="6.77474">
        <ele>2036.2097167969</ele>
        <time>2012-03-16T09:29:38Z</time>
      </trkpt>
      <trkpt lat="46.17482" lon="6.77478">
        <ele>2041.9775390625</ele>
        <time>2012-03-16T09:29:40Z</time>
      </trkpt>
      <trkpt lat="46.17479" lon="6.7748">
        <ele>2048.2260742188</ele>
        <time>2012-03-16T09:29:41Z</time>
      </trkpt>
      <trkpt lat="46.17475" lon="6.77483">
        <ele>2051.1101074219</ele>
        <time>2012-03-16T09:29:42Z</time>
      </trkpt>
      <trkpt lat="46.17469" lon="6.77487">
        <ele>2056.8779296875</ele>
        <time>2012-03-16T09:29:44Z</time>
      </trkpt>
      <trkpt lat="46.17466" lon="6.77489">
        <ele>2060.2426757812</ele>
        <time>2012-03-16T09:29:45Z</time>
      </trkpt>
      <trkpt lat="46.17459" lon="6.77494">
        <ele>2065.0493164062</ele>
        <time>2012-03-16T09:29:47Z</time>
      </trkpt>
      <trkpt lat="46.17453" lon="6.77498">
        <ele>2070.8171386719</ele>
        <time>2012-03-16T09:29:49Z</time>
      </trkpt>
      <trkpt lat="46.1745" lon="6.775">
        <ele>2074.6623535156</ele>
        <time>2012-03-16T09:29:50Z</time>
      </trkpt>
      <trkpt lat="46.17447" lon="6.77503">
        <ele>2078.0270996094</ele>
        <time>2012-03-16T09:29:51Z</time>
      </trkpt>
      <trkpt lat="46.17444" lon="6.77505">
        <ele>2081.3916015625</ele>
        <time>2012-03-16T09:29:52Z</time>
      </trkpt>
      <trkpt lat="46.17437" lon="6.7751">
        <ele>2084.2756347656</ele>
        <time>2012-03-16T09:29:54Z</time>
      </trkpt>
      <trkpt lat="46.1743" lon="6.77515">
        <ele>2087.6401367188</ele>
        <time>2012-03-16T09:29:56Z</time>
      </trkpt>
      <trkpt lat="46.17423" lon="6.7752">
        <ele>2091.4853515625</ele>
        <time>2012-03-16T09:29:58Z</time>
      </trkpt>
      <trkpt lat="46.1742" lon="6.77522">
        <ele>2094.8500976562</ele>
        <time>2012-03-16T09:29:59Z</time>
      </trkpt>
      <trkpt lat="46.17418" lon="6.77523">
        <ele>2091.9660644531</ele>
        <time>2012-03-16T09:30:00Z</time>
      </trkpt>
      <trkpt lat="46.17415" lon="6.77525">
        <ele>2100.6179199219</ele>
        <time>2012-03-16T09:30:02Z</time>
      </trkpt>
      <trkpt lat="46.17414" lon="6.77526">
        <ele>2097.2534179688</ele>
        <time>2012-03-16T09:30:04Z</time>
      </trkpt>
      <trkpt lat="46.17413" lon="6.77527">
        <ele>2103.501953125</ele>
        <time>2012-03-16T09:30:05Z</time>
      </trkpt>
      <trkpt lat="46.17415" lon="6.77526">
        <ele>2103.0212402344</ele>
        <time>2012-03-16T09:30:26Z</time>
      </trkpt>
      <trkpt lat="46.17408" lon="6.77531">
        <ele>2106.8664550781</ele>
        <time>2012-03-16T09:31:05Z</time>
      </trkpt>
      <trkpt lat="46.17404" lon="6.77534">
        <ele>2109.7504882812</ele>
        <time>2012-03-16T09:31:09Z</time>
      </trkpt>
      <trkpt lat="46.174" lon="6.77537">
        <ele>2113.115234375</ele>
        <time>2012-03-16T09:31:13Z</time>
      </trkpt>
      <trkpt lat="46.17397" lon="6.77539">
        <ele>2115.9990234375</ele>
        <time>2012-03-16T09:31:16Z</time>
      </trkpt>
      <trkpt lat="46.17395" lon="6.7754">
        <ele>2119.3637695312</ele>
        <time>2012-03-16T09:31:17Z</time>
      </trkpt>
      <trkpt lat="46.17388" lon="6.77545">
        <ele>2121.7668457031</ele>
        <time>2012-03-16T09:31:21Z</time>
      </trkpt>
      <trkpt lat="46.17384" lon="6.77549">
        <ele>2123.208984375</ele>
        <time>2012-03-16T09:31:23Z</time>
      </trkpt>
      <trkpt lat="46.17379" lon="6.77552">
        <ele>2124.6511230469</ele>
        <time>2012-03-16T09:31:25Z</time>
      </trkpt>
      <trkpt lat="46.17371" lon="6.77558">
        <ele>2128.4963378906</ele>
        <time>2012-03-16T09:31:28Z</time>
      </trkpt>
      <trkpt lat="46.17361" lon="6.77565">
        <ele>2131.8608398438</ele>
        <time>2012-03-16T09:31:31Z</time>
      </trkpt>
      <trkpt lat="46.17354" lon="6.7757">
        <ele>2136.1867675781</ele>
        <time>2012-03-16T09:31:33Z</time>
      </trkpt>
      <trkpt lat="46.17344" lon="6.77577">
        <ele>2140.5126953125</ele>
        <time>2012-03-16T09:31:36Z</time>
      </trkpt>
      <trkpt lat="46.17332" lon="6.77586">
        <ele>2144.8386230469</ele>
        <time>2012-03-16T09:31:39Z</time>
      </trkpt>
      <trkpt lat="46.17325" lon="6.77591">
        <ele>2148.6838378906</ele>
        <time>2012-03-16T09:31:41Z</time>
      </trkpt>
      <trkpt lat="46.17314" lon="6.77599">
        <ele>2153.009765625</ele>
        <time>2012-03-16T09:31:44Z</time>
      </trkpt>
      <trkpt lat="46.17306" lon="6.77604">
        <ele>2156.8552246094</ele>
        <time>2012-03-16T09:31:46Z</time>
      </trkpt>
      <trkpt lat="46.17299" lon="6.77609">
        <ele>2162.1423339844</ele>
        <time>2012-03-16T09:31:48Z</time>
      </trkpt>
      <trkpt lat="46.17288" lon="6.77617">
        <ele>2166.4682617188</ele>
        <time>2012-03-16T09:31:51Z</time>
      </trkpt>
      <trkpt lat="46.1728" lon="6.77623">
        <ele>2170.3134765625</ele>
        <time>2012-03-16T09:31:53Z</time>
      </trkpt>
      <trkpt lat="46.17268" lon="6.77631">
        <ele>2173.1977539062</ele>
        <time>2012-03-16T09:31:56Z</time>
      </trkpt>
      <trkpt lat="46.17264" lon="6.77634">
        <ele>2176.5622558594</ele>
        <time>2012-03-16T09:31:57Z</time>
      </trkpt>
      <trkpt lat="46.17256" lon="6.77639">
        <ele>2179.9267578125</ele>
        <time>2012-03-16T09:31:59Z</time>
      </trkpt>
      <trkpt lat="46.17249" lon="6.77645">
        <ele>2182.810546875</ele>
        <time>2012-03-16T09:32:01Z</time>
      </trkpt>
      <trkpt lat="46.17233" lon="6.77656">
        <ele>2188.0981445312</ele>
        <time>2012-03-16T09:32:05Z</time>
      </trkpt>
      <trkpt lat="46.17229" lon="6.77658">
        <ele>2189.0593261719</ele>
        <time>2012-03-16T09:32:06Z</time>
      </trkpt>
      <trkpt lat="46.17206" lon="6.77677">
        <ele>2191.4626464844</ele>
        <time>2012-03-16T09:32:16Z</time>
      </trkpt>
      <trkpt lat="46.17206" lon="6.77687">
        <ele>2191.943359375</ele>
        <time>2012-03-16T09:32:30Z</time>
      </trkpt>
      <trkpt lat="46.17208" lon="6.77699">
        <ele>2190.9819335938</ele>
        <time>2012-03-16T09:32:46Z</time>
      </trkpt>
      <trkpt lat="46.17209" lon="6.77704">
        <ele>2191.943359375</ele>
        <time>2012-03-16T09:32:49Z</time>
      </trkpt>
      <trkpt lat="46.17217" lon="6.77744">
        <ele>2190.9819335938</ele>
        <time>2012-03-16T09:33:01Z</time>
      </trkpt>
      <trkpt lat="46.17225" lon="6.7779">
        <ele>2189.5400390625</ele>
        <time>2012-03-16T09:33:14Z</time>
      </trkpt>
      <trkpt lat="46.17228" lon="6.77804">
        <ele>2188.0981445312</ele>
        <time>2012-03-16T09:33:18Z</time>
      </trkpt>
      <trkpt lat="46.17215" lon="6.77855">
        <ele>2184.7333984375</ele>
        <time>2012-03-16T09:33:31Z</time>
      </trkpt>
      <trkpt lat="46.17207" lon="6.77873">
        <ele>2184.2526855469</ele>
        <time>2012-03-16T09:33:35Z</time>
      </trkpt>
      <trkpt lat="46.17203" lon="6.77886">
        <ele>2183.2912597656</ele>
        <time>2012-03-16T09:33:37Z</time>
      </trkpt>
      <trkpt lat="46.17199" lon="6.77914">
        <ele>2179.4460449219</ele>
        <time>2012-03-16T09:33:40Z</time>
      </trkpt>
      <trkpt lat="46.17198" lon="6.77938">
        <ele>2175.6008300781</ele>
        <time>2012-03-16T09:33:42Z</time>
      </trkpt>
      <trkpt lat="46.17201" lon="6.77965">
        <ele>2171.7553710938</ele>
        <time>2012-03-16T09:33:44Z</time>
      </trkpt>
      <trkpt lat="46.17227" lon="6.78003">
        <ele>2168.3908691406</ele>
        <time>2012-03-16T09:33:49Z</time>
      </trkpt>
      <trkpt lat="46.17231" lon="6.7801">
        <ele>2165.0263671875</ele>
        <time>2012-03-16T09:33:50Z</time>
      </trkpt>
      <trkpt lat="46.17245" lon="6.78041">
        <ele>2155.8935546875</ele>
        <time>2012-03-16T09:33:53Z</time>
      </trkpt>
      <trkpt lat="46.17248" lon="6.78053">
        <ele>2156.8552246094</ele>
        <time>2012-03-16T09:33:54Z</time>
      </trkpt>
      <trkpt lat="46.17255" lon="6.78075">
        <ele>2155.8935546875</ele>
        <time>2012-03-16T09:33:56Z</time>
      </trkpt>
      <trkpt lat="46.17275" lon="6.78128">
        <ele>2153.009765625</ele>
        <time>2012-03-16T09:34:01Z</time>
      </trkpt>
      <trkpt lat="46.17284" lon="6.78168">
        <ele>2148.6838378906</ele>
        <time>2012-03-16T09:34:05Z</time>
      </trkpt>
      <trkpt lat="46.17287" lon="6.7819">
        <ele>2148.203125</ele>
        <time>2012-03-16T09:34:07Z</time>
      </trkpt>
      <trkpt lat="46.17307" lon="6.78235">
        <ele>2143.3967285156</ele>
        <time>2012-03-16T09:34:11Z</time>
      </trkpt>
      <trkpt lat="46.17313" lon="6.78261">
        <ele>2137.1479492188</ele>
        <time>2012-03-16T09:34:13Z</time>
      </trkpt>
      <trkpt lat="46.17322" lon="6.78307">
        <ele>2127.0544433594</ele>
        <time>2012-03-16T09:34:16Z</time>
      </trkpt>
      <trkpt lat="46.17327" lon="6.7832">
        <ele>2123.689453125</ele>
        <time>2012-03-16T09:34:17Z</time>
      </trkpt>
      <trkpt lat="46.17332" lon="6.78334">
        <ele>2121.2861328125</ele>
        <time>2012-03-16T09:34:18Z</time>
      </trkpt>
      <trkpt lat="46.17349" lon="6.78375">
        <ele>2113.595703125</ele>
        <time>2012-03-16T09:34:21Z</time>
      </trkpt>
      <trkpt lat="46.17356" lon="6.78385">
        <ele>2109.7504882812</ele>
        <time>2012-03-16T09:34:22Z</time>
      </trkpt>
      <trkpt lat="46.17371" lon="6.78395">
        <ele>2105.4245605469</ele>
        <time>2012-03-16T09:34:24Z</time>
      </trkpt>
      <trkpt lat="46.17387" lon="6.78403">
        <ele>2100.1374511719</ele>
        <time>2012-03-16T09:34:26Z</time>
      </trkpt>
      <trkpt lat="46.17395" lon="6.78403">
        <ele>2096.2922363281</ele>
        <time>2012-03-16T09:34:27Z</time>
      </trkpt>
      <trkpt lat="46.17404" lon="6.78396">
        <ele>2092.4470214844</ele>
        <time>2012-03-16T09:34:28Z</time>
      </trkpt>
      <trkpt lat="46.17413" lon="6.78388">
        <ele>2086.6787109375</ele>
        <time>2012-03-16T09:34:29Z</time>
      </trkpt>
      <trkpt lat="46.17448" lon="6.78343">
        <ele>2076.5852050781</ele>
        <time>2012-03-16T09:34:33Z</time>
      </trkpt>
      <trkpt lat="46.17457" lon="6.78329">
        <ele>2074.181640625</ele>
        <time>2012-03-16T09:34:34Z</time>
      </trkpt>
      <trkpt lat="46.1748" lon="6.78315">
        <ele>2064.087890625</ele>
        <time>2012-03-16T09:34:36Z</time>
      </trkpt>
      <trkpt lat="46.17494" lon="6.78315">
        <ele>2058.8005371094</ele>
        <time>2012-03-16T09:34:37Z</time>
      </trkpt>
      <trkpt lat="46.17519" lon="6.78325">
        <ele>2055.4360351562</ele>
        <time>2012-03-16T09:34:39Z</time>
      </trkpt>
      <trkpt lat="46.17531" lon="6.78334">
        <ele>2055.4360351562</ele>
        <time>2012-03-16T09:34:40Z</time>
      </trkpt>
      <trkpt lat="46.17583" lon="6.78347">
        <ele>2043.4194335938</ele>
        <time>2012-03-16T09:34:44Z</time>
      </trkpt>
      <trkpt lat="46.17598" lon="6.78347">
        <ele>2041.0161132812</ele>
        <time>2012-03-16T09:34:45Z</time>
      </trkpt>
      <trkpt lat="46.17673" lon="6.78342">
        <ele>2028.5192871094</ele>
        <time>2012-03-16T09:34:50Z</time>
      </trkpt>
      <trkpt lat="46.177" lon="6.78342">
        <ele>2025.154296875</ele>
        <time>2012-03-16T09:34:52Z</time>
      </trkpt>
      <trkpt lat="46.17712" lon="6.78342">
        <ele>2020.8286132812</ele>
        <time>2012-03-16T09:34:53Z</time>
      </trkpt>
      <trkpt lat="46.17736" lon="6.78345">
        <ele>2015.0607910156</ele>
        <time>2012-03-16T09:34:58Z</time>
      </trkpt>
      <trkpt lat="46.17738" lon="6.78344">
        <ele>2015.0607910156</ele>
        <time>2012-03-16T09:34:59Z</time>
      </trkpt>
      <trkpt lat="46.17743" lon="6.78339">
        <ele>2014.0993652344</ele>
        <time>2012-03-16T09:35:01Z</time>
      </trkpt>
      <trkpt lat="46.17761" lon="6.78316">
        <ele>2010.7346191406</ele>
        <time>2012-03-16T09:35:07Z</time>
      </trkpt>
      <trkpt lat="46.17766" lon="6.78298">
        <ele>2007.8508300781</ele>
        <time>2012-03-16T09:35:09Z</time>
      </trkpt>
      <trkpt lat="46.17767" lon="6.78264">
        <ele>2006.4086914062</ele>
        <time>2012-03-16T09:35:18Z</time>
      </trkpt>
      <trkpt lat="46.17767" lon="6.78264">
        <ele>2006.8894042969</ele>
        <time>2012-03-16T09:35:27Z</time>
      </trkpt>
      <trkpt lat="46.17772" lon="6.78254">
        <ele>2005.4475097656</ele>
        <time>2012-03-16T09:35:31Z</time>
      </trkpt>
      <trkpt lat="46.17788" lon="6.78254">
        <ele>2000.6408691406</ele>
        <time>2012-03-16T09:35:35Z</time>
      </trkpt>
      <trkpt lat="46.17807" lon="6.78259">
        <ele>1994.3920898438</ele>
        <time>2012-03-16T09:35:37Z</time>
      </trkpt>
      <trkpt lat="46.17818" lon="6.78235">
        <ele>1991.9890136719</ele>
        <time>2012-03-16T09:35:39Z</time>
      </trkpt>
      <trkpt lat="46.17825" lon="6.78212">
        <ele>1988.1437988281</ele>
        <time>2012-03-16T09:35:41Z</time>
      </trkpt>
      <trkpt lat="46.1785" lon="6.78209">
        <ele>1982.3759765625</ele>
        <time>2012-03-16T09:35:44Z</time>
      </trkpt>
      <trkpt lat="46.17869" lon="6.78202">
        <ele>1977.0886230469</ele>
        <time>2012-03-16T09:35:46Z</time>
      </trkpt>
      <trkpt lat="46.17899" lon="6.78188">
        <ele>1968.9174804688</ele>
        <time>2012-03-16T09:35:49Z</time>
      </trkpt>
      <trkpt lat="46.17926" lon="6.78193">
        <ele>1968.4367675781</ele>
        <time>2012-03-16T09:35:52Z</time>
      </trkpt>
      <trkpt lat="46.17938" lon="6.78189">
        <ele>1968.4367675781</ele>
        <time>2012-03-16T09:35:58Z</time>
      </trkpt>
      <trkpt lat="46.17935" lon="6.78191">
        <ele>1967.9560546875</ele>
        <time>2012-03-16T09:36:32Z</time>
      </trkpt>
      <trkpt lat="46.17938" lon="6.7819">
        <ele>1967.4753417969</ele>
        <time>2012-03-16T09:36:44Z</time>
      </trkpt>
      <trkpt lat="46.17954" lon="6.78164">
        <ele>1963.1494140625</ele>
        <time>2012-03-16T09:36:48Z</time>
      </trkpt>
      <trkpt lat="46.17977" lon="6.78118">
        <ele>1952.5749511719</ele>
        <time>2012-03-16T09:36:52Z</time>
      </trkpt>
      <trkpt lat="46.17982" lon="6.78104">
        <ele>1946.8068847656</ele>
        <time>2012-03-16T09:36:53Z</time>
      </trkpt>
      <trkpt lat="46.17991" lon="6.78079">
        <ele>1948.2490234375</ele>
        <time>2012-03-16T09:36:55Z</time>
      </trkpt>
      <trkpt lat="46.18007" lon="6.78049">
        <ele>1938.1552734375</ele>
        <time>2012-03-16T09:36:58Z</time>
      </trkpt>
      <trkpt lat="46.18017" lon="6.78023">
        <ele>1934.7907714844</ele>
        <time>2012-03-16T09:37:00Z</time>
      </trkpt>
      <trkpt lat="46.1802" lon="6.78008">
        <ele>1929.0224609375</ele>
        <time>2012-03-16T09:37:01Z</time>
      </trkpt>
      <trkpt lat="46.18022" lon="6.77995">
        <ele>1928.5419921875</ele>
        <time>2012-03-16T09:37:02Z</time>
      </trkpt>
      <trkpt lat="46.18022" lon="6.77954">
        <ele>1929.0224609375</ele>
        <time>2012-03-16T09:37:09Z</time>
      </trkpt>
      <trkpt lat="46.18017" lon="6.77951">
        <ele>1929.9838867188</ele>
        <time>2012-03-16T09:37:22Z</time>
      </trkpt>
      <trkpt lat="46.18008" lon="6.77947">
        <ele>1929.0224609375</ele>
        <time>2012-03-16T09:37:36Z</time>
      </trkpt>
      <trkpt lat="46.17996" lon="6.77946">
        <ele>1930.4645996094</ele>
        <time>2012-03-16T09:37:39Z</time>
      </trkpt>
      <trkpt lat="46.17988" lon="6.77944">
        <ele>1934.3100585938</ele>
        <time>2012-03-16T09:37:42Z</time>
      </trkpt>
      <trkpt lat="46.17973" lon="6.77941">
        <ele>1938.6359863281</ele>
        <time>2012-03-16T09:37:47Z</time>
      </trkpt>
      <trkpt lat="46.17961" lon="6.77938">
        <ele>1942.4812011719</ele>
        <time>2012-03-16T09:37:51Z</time>
      </trkpt>
      <trkpt lat="46.17954" lon="6.77937">
        <ele>1944.4035644531</ele>
        <time>2012-03-16T09:37:53Z</time>
      </trkpt>
      <trkpt lat="46.17948" lon="6.77936">
        <ele>1947.2875976562</ele>
        <time>2012-03-16T09:37:55Z</time>
      </trkpt>
      <trkpt lat="46.17933" lon="6.77933">
        <ele>1952.5749511719</ele>
        <time>2012-03-16T09:38:00Z</time>
      </trkpt>
      <trkpt lat="46.17923" lon="6.77931">
        <ele>1955.939453125</ele>
        <time>2012-03-16T09:38:03Z</time>
      </trkpt>
      <trkpt lat="46.1792" lon="6.77931">
        <ele>1956.4201660156</ele>
        <time>2012-03-16T09:38:04Z</time>
      </trkpt>
      <trkpt lat="46.17914" lon="6.77929">
        <ele>1959.3041992188</ele>
        <time>2012-03-16T09:38:06Z</time>
      </trkpt>
      <trkpt lat="46.17908" lon="6.77928">
        <ele>1963.1494140625</ele>
        <time>2012-03-16T09:38:08Z</time>
      </trkpt>
      <trkpt lat="46.17901" lon="6.77927">
        <ele>1966.5141601562</ele>
        <time>2012-03-16T09:38:10Z</time>
      </trkpt>
      <trkpt lat="46.17886" lon="6.77924">
        <ele>1970.8400878906</ele>
        <time>2012-03-16T09:38:15Z</time>
      </trkpt>
      <trkpt lat="46.1788" lon="6.77923">
        <ele>1973.7238769531</ele>
        <time>2012-03-16T09:38:17Z</time>
      </trkpt>
      <trkpt lat="46.17874" lon="6.77922">
        <ele>1975.646484375</ele>
        <time>2012-03-16T09:38:19Z</time>
      </trkpt>
      <trkpt lat="46.17865" lon="6.7792">
        <ele>1979.0109863281</ele>
        <time>2012-03-16T09:38:22Z</time>
      </trkpt>
      <trkpt lat="46.17856" lon="6.77918">
        <ele>1982.3759765625</ele>
        <time>2012-03-16T09:38:25Z</time>
      </trkpt>
      <trkpt lat="46.17849" lon="6.77917">
        <ele>1985.7404785156</ele>
        <time>2012-03-16T09:38:27Z</time>
      </trkpt>
      <trkpt lat="46.1784" lon="6.77914">
        <ele>1988.6245117188</ele>
        <time>2012-03-16T09:38:30Z</time>
      </trkpt>
      <trkpt lat="46.17828" lon="6.77913">
        <ele>1991.9890136719</ele>
        <time>2012-03-16T09:38:34Z</time>
      </trkpt>
      <trkpt lat="46.17818" lon="6.7791">
        <ele>1996.3151855469</ele>
        <time>2012-03-16T09:38:37Z</time>
      </trkpt>
      <trkpt lat="46.17809" lon="6.77908">
        <ele>1997.7570800781</ele>
        <time>2012-03-16T09:38:40Z</time>
      </trkpt>
      <trkpt lat="46.17793" lon="6.77906">
        <ele>2000.6408691406</ele>
        <time>2012-03-16T09:38:45Z</time>
      </trkpt>
      <trkpt lat="46.17784" lon="6.77912">
        <ele>2004.4860839844</ele>
        <time>2012-03-16T09:38:48Z</time>
      </trkpt>
      <trkpt lat="46.17782" lon="6.77914">
        <ele>2004.966796875</ele>
        <time>2012-03-16T09:38:49Z</time>
      </trkpt>
      <trkpt lat="46.17776" lon="6.77918">
        <ele>2008.8120117188</ele>
        <time>2012-03-16T09:38:51Z</time>
      </trkpt>
      <trkpt lat="46.1777" lon="6.77921">
        <ele>2012.1767578125</ele>
        <time>2012-03-16T09:38:53Z</time>
      </trkpt>
      <trkpt lat="46.17768" lon="6.77922">
        <ele>2012.1767578125</ele>
        <time>2012-03-16T09:38:54Z</time>
      </trkpt>
      <trkpt lat="46.17762" lon="6.77926">
        <ele>2016.0219726562</ele>
        <time>2012-03-16T09:38:56Z</time>
      </trkpt>
      <trkpt lat="46.17757" lon="6.7793">
        <ele>2017.4638671875</ele>
        <time>2012-03-16T09:38:58Z</time>
      </trkpt>
      <trkpt lat="46.17751" lon="6.77933">
        <ele>2020.8286132812</ele>
        <time>2012-03-16T09:39:00Z</time>
      </trkpt>
      <trkpt lat="46.17745" lon="6.77936">
        <ele>2024.1931152344</ele>
        <time>2012-03-16T09:39:02Z</time>
      </trkpt>
      <trkpt lat="46.17731" lon="6.77945">
        <ele>2026.5964355469</ele>
        <time>2012-03-16T09:39:07Z</time>
      </trkpt>
      <trkpt lat="46.17722" lon="6.77949">
        <ele>2030.9226074219</ele>
        <time>2012-03-16T09:39:10Z</time>
      </trkpt>
      <trkpt lat="46.17714" lon="6.77955">
        <ele>2034.287109375</ele>
        <time>2012-03-16T09:39:13Z</time>
      </trkpt>
      <trkpt lat="46.17706" lon="6.7796">
        <ele>2037.6516113281</ele>
        <time>2012-03-16T09:39:16Z</time>
      </trkpt>
      <trkpt lat="46.17703" lon="6.77961">
        <ele>2041.0161132812</ele>
        <time>2012-03-16T09:39:17Z</time>
      </trkpt>
      <trkpt lat="46.17688" lon="6.7797">
        <ele>2044.8615722656</ele>
        <time>2012-03-16T09:39:22Z</time>
      </trkpt>
      <trkpt lat="46.17685" lon="6.77972">
        <ele>2044.8615722656</ele>
        <time>2012-03-16T09:39:23Z</time>
      </trkpt>
      <trkpt lat="46.1768" lon="6.77975">
        <ele>2047.7456054688</ele>
        <time>2012-03-16T09:39:25Z</time>
      </trkpt>
      <trkpt lat="46.17671" lon="6.77981">
        <ele>2051.1101074219</ele>
        <time>2012-03-16T09:39:28Z</time>
      </trkpt>
      <trkpt lat="46.17662" lon="6.77986">
        <ele>2053.994140625</ele>
        <time>2012-03-16T09:39:31Z</time>
      </trkpt>
      <trkpt lat="46.17651" lon="6.77993">
        <ele>2058.3198242188</ele>
        <time>2012-03-16T09:39:35Z</time>
      </trkpt>
      <trkpt lat="46.17639" lon="6.78">
        <ele>2062.1652832031</ele>
        <time>2012-03-16T09:39:39Z</time>
      </trkpt>
      <trkpt lat="46.17631" lon="6.78005">
        <ele>2066.0104980469</ele>
        <time>2012-03-16T09:39:42Z</time>
      </trkpt>
      <trkpt lat="46.17622" lon="6.7801">
        <ele>2070.8171386719</ele>
        <time>2012-03-16T09:39:45Z</time>
      </trkpt>
      <trkpt lat="46.1762" lon="6.78012">
        <ele>2071.2976074219</ele>
        <time>2012-03-16T09:39:46Z</time>
      </trkpt>
      <trkpt lat="46.17614" lon="6.78015">
        <ele>2074.6623535156</ele>
        <time>2012-03-16T09:39:48Z</time>
      </trkpt>
      <trkpt lat="46.17609" lon="6.78018">
        <ele>2076.5852050781</ele>
        <time>2012-03-16T09:39:50Z</time>
      </trkpt>
      <trkpt lat="46.17599" lon="6.78023">
        <ele>2078.5078125</ele>
        <time>2012-03-16T09:39:53Z</time>
      </trkpt>
      <trkpt lat="46.17587" lon="6.78027">
        <ele>2079.9497070312</ele>
        <time>2012-03-16T09:39:57Z</time>
      </trkpt>
      <trkpt lat="46.17572" lon="6.78034">
        <ele>2083.3142089844</ele>
        <time>2012-03-16T09:40:02Z</time>
      </trkpt>
      <trkpt lat="46.17563" lon="6.78038">
        <ele>2086.6787109375</ele>
        <time>2012-03-16T09:40:05Z</time>
      </trkpt>
      <trkpt lat="46.1756" lon="6.78039">
        <ele>2086.1982421875</ele>
        <time>2012-03-16T09:40:06Z</time>
      </trkpt>
      <trkpt lat="46.17554" lon="6.78041">
        <ele>2090.5239257812</ele>
        <time>2012-03-16T09:40:08Z</time>
      </trkpt>
      <trkpt lat="46.17547" lon="6.78043">
        <ele>2091.4853515625</ele>
        <time>2012-03-16T09:40:10Z</time>
      </trkpt>
      <trkpt lat="46.17541" lon="6.78045">
        <ele>2095.3308105469</ele>
        <time>2012-03-16T09:40:12Z</time>
      </trkpt>
      <trkpt lat="46.17538" lon="6.78047">
        <ele>2095.3308105469</ele>
        <time>2012-03-16T09:40:13Z</time>
      </trkpt>
      <trkpt lat="46.17528" lon="6.7805">
        <ele>2097.7341308594</ele>
        <time>2012-03-16T09:40:16Z</time>
      </trkpt>
      <trkpt lat="46.17476" lon="6.78068">
        <ele>2099.6567382812</ele>
        <time>2012-03-16T09:40:32Z</time>
      </trkpt>
      <trkpt lat="46.17462" lon="6.78073">
        <ele>2103.0212402344</ele>
        <time>2012-03-16T09:40:37Z</time>
      </trkpt>
      <trkpt lat="46.17453" lon="6.78077">
        <ele>2106.8664550781</ele>
        <time>2012-03-16T09:40:40Z</time>
      </trkpt>
      <trkpt lat="46.17444" lon="6.7808">
        <ele>2112.6345214844</ele>
        <time>2012-03-16T09:40:43Z</time>
      </trkpt>
      <trkpt lat="46.17441" lon="6.78081">
        <ele>2112.1538085938</ele>
        <time>2012-03-16T09:40:44Z</time>
      </trkpt>
      <trkpt lat="46.17432" lon="6.78084">
        <ele>2115.9990234375</ele>
        <time>2012-03-16T09:40:47Z</time>
      </trkpt>
      <trkpt lat="46.17421" lon="6.78088">
        <ele>2119.3637695312</ele>
        <time>2012-03-16T09:40:51Z</time>
      </trkpt>
      <trkpt lat="46.17415" lon="6.7809">
        <ele>2122.7282714844</ele>
        <time>2012-03-16T09:40:53Z</time>
      </trkpt>
      <trkpt lat="46.17409" lon="6.78092">
        <ele>2126.0930175781</ele>
        <time>2012-03-16T09:40:55Z</time>
      </trkpt>
      <trkpt lat="46.17403" lon="6.78094">
        <ele>2129.4575195312</ele>
        <time>2012-03-16T09:40:57Z</time>
      </trkpt>
      <trkpt lat="46.17397" lon="6.78096">
        <ele>2132.8220214844</ele>
        <time>2012-03-16T09:40:59Z</time>
      </trkpt>
      <trkpt lat="46.17388" lon="6.78099">
        <ele>2137.1479492188</ele>
        <time>2012-03-16T09:41:02Z</time>
      </trkpt>
      <trkpt lat="46.17385" lon="6.781">
        <ele>2137.1479492188</ele>
        <time>2012-03-16T09:41:03Z</time>
      </trkpt>
      <trkpt lat="46.17376" lon="6.78103">
        <ele>2140.0322265625</ele>
        <time>2012-03-16T09:41:06Z</time>
      </trkpt>
      <trkpt lat="46.17367" lon="6.78106">
        <ele>2142.916015625</ele>
        <time>2012-03-16T09:41:09Z</time>
      </trkpt>
      <trkpt lat="46.17358" lon="6.78109">
        <ele>2144.3579101562</ele>
        <time>2012-03-16T09:41:12Z</time>
      </trkpt>
      <trkpt lat="46.17352" lon="6.78111">
        <ele>2148.203125</ele>
        <time>2012-03-16T09:41:14Z</time>
      </trkpt>
      <trkpt lat="46.17345" lon="6.78113">
        <ele>2150.6064453125</ele>
        <time>2012-03-16T09:41:16Z</time>
      </trkpt>
      <trkpt lat="46.1732" lon="6.78122">
        <ele>2151.5678710938</ele>
        <time>2012-03-16T09:41:24Z</time>
      </trkpt>
      <trkpt lat="46.17303" lon="6.78145">
        <ele>2152.5290527344</ele>
        <time>2012-03-16T09:41:32Z</time>
      </trkpt>
      <trkpt lat="46.17304" lon="6.78148">
        <ele>2151.5678710938</ele>
        <time>2012-03-16T09:41:33Z</time>
      </trkpt>
      <trkpt lat="46.17309" lon="6.78153">
        <ele>2153.4904785156</ele>
        <time>2012-03-16T09:41:38Z</time>
      </trkpt>
      <trkpt lat="46.17315" lon="6.78158">
        <ele>2153.009765625</ele>
        <time>2012-03-16T09:41:55Z</time>
      </trkpt>
      <trkpt lat="46.17322" lon="6.78167">
        <ele>2150.6064453125</ele>
        <time>2012-03-16T09:42:01Z</time>
      </trkpt>
      <trkpt lat="46.17333" lon="6.78168">
        <ele>2147.72265625</ele>
        <time>2012-03-16T09:42:05Z</time>
      </trkpt>
      <trkpt lat="46.17341" lon="6.78168">
        <ele>2145.8000488281</ele>
        <time>2012-03-16T09:42:09Z</time>
      </trkpt>
      <trkpt lat="46.17346" lon="6.78169">
        <ele>2144.3579101562</ele>
        <time>2012-03-16T09:42:12Z</time>
      </trkpt>
      <trkpt lat="46.17351" lon="6.78171">
        <ele>2142.916015625</ele>
        <time>2012-03-16T09:42:13Z</time>
      </trkpt>
      <trkpt lat="46.17374" lon="6.78171">
        <ele>2138.109375</ele>
        <time>2012-03-16T09:42:16Z</time>
      </trkpt>
      <trkpt lat="46.17404" lon="6.78169">
        <ele>2131.8608398438</ele>
        <time>2012-03-16T09:42:19Z</time>
      </trkpt>
      <trkpt lat="46.17416" lon="6.78161">
        <ele>2128.015625</ele>
        <time>2012-03-16T09:42:20Z</time>
      </trkpt>
      <trkpt lat="46.17432" lon="6.7814">
        <ele>2122.7282714844</ele>
        <time>2012-03-16T09:42:22Z</time>
      </trkpt>
      <trkpt lat="46.17439" lon="6.78129">
        <ele>2119.3637695312</ele>
        <time>2012-03-16T09:42:23Z</time>
      </trkpt>
      <trkpt lat="46.17448" lon="6.78121">
        <ele>2116.4797363281</ele>
        <time>2012-03-16T09:42:24Z</time>
      </trkpt>
      <trkpt lat="46.17459" lon="6.78119">
        <ele>2113.115234375</ele>
        <time>2012-03-16T09:42:25Z</time>
      </trkpt>
      <trkpt lat="46.17471" lon="6.78121">
        <ele>2107.8278808594</ele>
        <time>2012-03-16T09:42:26Z</time>
      </trkpt>
      <trkpt lat="46.17483" lon="6.78123">
        <ele>2103.9826660156</ele>
        <time>2012-03-16T09:42:27Z</time>
      </trkpt>
      <trkpt lat="46.17495" lon="6.78127">
        <ele>2102.5405273438</ele>
        <time>2012-03-16T09:42:28Z</time>
      </trkpt>
      <trkpt lat="46.17513" lon="6.78135">
        <ele>2105.9050292969</ele>
        <time>2012-03-16T09:42:30Z</time>
      </trkpt>
      <trkpt lat="46.17549" lon="6.78126">
        <ele>2101.0986328125</ele>
        <time>2012-03-16T09:42:36Z</time>
      </trkpt>
      <trkpt lat="46.17557" lon="6.78118">
        <ele>2098.6953125</ele>
        <time>2012-03-16T09:42:39Z</time>
      </trkpt>
      <trkpt lat="46.17562" lon="6.78125">
        <ele>2094.3693847656</ele>
        <time>2012-03-16T09:42:42Z</time>
      </trkpt>
      <trkpt lat="46.17558" lon="6.7814">
        <ele>2093.408203125</ele>
        <time>2012-03-16T09:42:44Z</time>
      </trkpt>
      <trkpt lat="46.17552" lon="6.78152">
        <ele>2094.8500976562</ele>
        <time>2012-03-16T09:42:50Z</time>
      </trkpt>
      <trkpt lat="46.17551" lon="6.78157">
        <ele>2091.0046386719</ele>
        <time>2012-03-16T09:42:55Z</time>
      </trkpt>
      <trkpt lat="46.17551" lon="6.78168">
        <ele>2087.6401367188</ele>
        <time>2012-03-16T09:42:58Z</time>
      </trkpt>
      <trkpt lat="46.1755" lon="6.78176">
        <ele>2086.1982421875</ele>
        <time>2012-03-16T09:43:04Z</time>
      </trkpt>
      <trkpt lat="46.17548" lon="6.78184">
        <ele>2082.3530273438</ele>
        <time>2012-03-16T09:43:26Z</time>
      </trkpt>
      <trkpt lat="46.17537" lon="6.78207">
        <ele>2075.6235351562</ele>
        <time>2012-03-16T09:43:29Z</time>
      </trkpt>
      <trkpt lat="46.17538" lon="6.78213">
        <ele>2075.1428222656</ele>
        <time>2012-03-16T09:43:33Z</time>
      </trkpt>
      <trkpt lat="46.17537" lon="6.78214">
        <ele>2074.6623535156</ele>
        <time>2012-03-16T09:43:41Z</time>
      </trkpt>
      <trkpt lat="46.17545" lon="6.78231">
        <ele>2070.8171386719</ele>
        <time>2012-03-16T09:43:44Z</time>
      </trkpt>
      <trkpt lat="46.17557" lon="6.78258">
        <ele>2072.2590332031</ele>
        <time>2012-03-16T09:43:47Z</time>
      </trkpt>
      <trkpt lat="46.17558" lon="6.78259">
        <ele>2072.2590332031</ele>
        <time>2012-03-16T09:43:48Z</time>
      </trkpt>
      <trkpt lat="46.17559" lon="6.78264">
        <ele>2071.2976074219</ele>
        <time>2012-03-16T09:43:52Z</time>
      </trkpt>
      <trkpt lat="46.17575" lon="6.78257">
        <ele>2066.4912109375</ele>
        <time>2012-03-16T09:43:55Z</time>
      </trkpt>
      <trkpt lat="46.17587" lon="6.78247">
        <ele>2061.6848144531</ele>
        <time>2012-03-16T09:43:57Z</time>
      </trkpt>
      <trkpt lat="46.17603" lon="6.78258">
        <ele>2058.3198242188</ele>
        <time>2012-03-16T09:44:00Z</time>
      </trkpt>
      <trkpt lat="46.17609" lon="6.78256">
        <ele>2058.3198242188</ele>
        <time>2012-03-16T09:44:01Z</time>
      </trkpt>
      <trkpt lat="46.1762" lon="6.78258">
        <ele>2055.4360351562</ele>
        <time>2012-03-16T09:44:03Z</time>
      </trkpt>
      <trkpt lat="46.1763" lon="6.78244">
        <ele>2050.6293945312</ele>
        <time>2012-03-16T09:44:05Z</time>
      </trkpt>
      <trkpt lat="46.17646" lon="6.7826">
        <ele>2047.2648925781</ele>
        <time>2012-03-16T09:44:08Z</time>
      </trkpt>
      <trkpt lat="46.17652" lon="6.78268">
        <ele>2042.9387207031</ele>
        <time>2012-03-16T09:44:09Z</time>
      </trkpt>
      <trkpt lat="46.17666" lon="6.78262">
        <ele>2041.4968261719</ele>
        <time>2012-03-16T09:44:11Z</time>
      </trkpt>
      <trkpt lat="46.17674" lon="6.78239">
        <ele>2038.1323242188</ele>
        <time>2012-03-16T09:44:13Z</time>
      </trkpt>
      <trkpt lat="46.17693" lon="6.7823">
        <ele>2030.4418945312</ele>
        <time>2012-03-16T09:44:15Z</time>
      </trkpt>
      <trkpt lat="46.17704" lon="6.78236">
        <ele>2026.5964355469</ele>
        <time>2012-03-16T09:44:16Z</time>
      </trkpt>
      <trkpt lat="46.17719" lon="6.78261">
        <ele>2025.154296875</ele>
        <time>2012-03-16T09:44:18Z</time>
      </trkpt>
      <trkpt lat="46.17742" lon="6.78276">
        <ele>2022.2705078125</ele>
        <time>2012-03-16T09:44:22Z</time>
      </trkpt>
      <trkpt lat="46.17735" lon="6.78236">
        <ele>2020.3479003906</ele>
        <time>2012-03-16T09:44:26Z</time>
      </trkpt>
      <trkpt lat="46.17749" lon="6.78226">
        <ele>2013.1381835938</ele>
        <time>2012-03-16T09:44:28Z</time>
      </trkpt>
      <trkpt lat="46.17756" lon="6.7823">
        <ele>2008.3312988281</ele>
        <time>2012-03-16T09:44:29Z</time>
      </trkpt>
      <trkpt lat="46.17775" lon="6.78244">
        <ele>2004.966796875</ele>
        <time>2012-03-16T09:44:31Z</time>
      </trkpt>
      <trkpt lat="46.17801" lon="6.78255">
        <ele>1997.7570800781</ele>
        <time>2012-03-16T09:44:33Z</time>
      </trkpt>
      <trkpt lat="46.17818" lon="6.78235">
        <ele>1993.9116210938</ele>
        <time>2012-03-16T09:44:35Z</time>
      </trkpt>
      <trkpt lat="46.1782" lon="6.78222">
        <ele>1993.9116210938</ele>
        <time>2012-03-16T09:44:36Z</time>
      </trkpt>
      <trkpt lat="46.17824" lon="6.7821">
        <ele>1990.06640625</ele>
        <time>2012-03-16T09:44:37Z</time>
      </trkpt>
      <trkpt lat="46.17831" lon="6.78209">
        <ele>1986.7016601562</ele>
        <time>2012-03-16T09:44:38Z</time>
      </trkpt>
      <trkpt lat="46.17834" lon="6.78209">
        <ele>1986.2211914062</ele>
        <time>2012-03-16T09:44:39Z</time>
      </trkpt>
      <trkpt lat="46.17874" lon="6.78199">
        <ele>1975.1657714844</ele>
        <time>2012-03-16T09:44:43Z</time>
      </trkpt>
      <trkpt lat="46.17885" lon="6.78197">
        <ele>1971.8012695312</ele>
        <time>2012-03-16T09:44:44Z</time>
      </trkpt>
      <trkpt lat="46.17899" lon="6.78194">
        <ele>1967.4753417969</ele>
        <time>2012-03-16T09:44:45Z</time>
      </trkpt>
      <trkpt lat="46.17937" lon="6.7819">
        <ele>1968.4367675781</ele>
        <time>2012-03-16T09:44:49Z</time>
      </trkpt>
      <trkpt lat="46.17937" lon="6.7819">
        <ele>1968.9174804688</ele>
        <time>2012-03-16T09:44:55Z</time>
      </trkpt>
      <trkpt lat="46.17935" lon="6.78192">
        <ele>1968.4367675781</ele>
        <time>2012-03-16T09:45:33Z</time>
      </trkpt>
      <trkpt lat="46.17937" lon="6.78191">
        <ele>1968.4367675781</ele>
        <time>2012-03-16T09:45:58Z</time>
      </trkpt>
      <trkpt lat="46.17943" lon="6.78184">
        <ele>1965.5529785156</ele>
        <time>2012-03-16T09:46:01Z</time>
      </trkpt>
      <trkpt lat="46.17953" lon="6.78167">
        <ele>1961.7075195312</ele>
        <time>2012-03-16T09:46:04Z</time>
      </trkpt>
      <trkpt lat="46.17957" lon="6.7816">
        <ele>1960.74609375</ele>
        <time>2012-03-16T09:46:05Z</time>
      </trkpt>
      <trkpt lat="46.17966" lon="6.78129">
        <ele>1957.3815917969</ele>
        <time>2012-03-16T09:46:11Z</time>
      </trkpt>
      <trkpt lat="46.17977" lon="6.78112">
        <ele>1953.0556640625</ele>
        <time>2012-03-16T09:46:14Z</time>
      </trkpt>
      <trkpt lat="46.17987" lon="6.78089">
        <ele>1948.7297363281</ele>
        <time>2012-03-16T09:46:16Z</time>
      </trkpt>
      <trkpt lat="46.17995" lon="6.78069">
        <ele>1949.6911621094</ele>
        <time>2012-03-16T09:46:18Z</time>
      </trkpt>
      <trkpt lat="46.18008" lon="6.7805">
        <ele>1944.8842773438</ele>
        <time>2012-03-16T09:46:20Z</time>
      </trkpt>
      <trkpt lat="46.18016" lon="6.78039">
        <ele>1939.1164550781</ele>
        <time>2012-03-16T09:46:21Z</time>
      </trkpt>
      <trkpt lat="46.18027" lon="6.78">
        <ele>1932.8679199219</ele>
        <time>2012-03-16T09:46:24Z</time>
      </trkpt>
      <trkpt lat="46.18027" lon="6.77987">
        <ele>1931.42578125</ele>
        <time>2012-03-16T09:46:25Z</time>
      </trkpt>
      <trkpt lat="46.18028" lon="6.77966">
        <ele>1931.9064941406</ele>
        <time>2012-03-16T09:46:27Z</time>
      </trkpt>
      <trkpt lat="46.18029" lon="6.77952">
        <ele>1932.8679199219</ele>
        <time>2012-03-16T09:46:29Z</time>
      </trkpt>
      <trkpt lat="46.18026" lon="6.7795">
        <ele>1932.3874511719</ele>
        <time>2012-03-16T09:46:37Z</time>
      </trkpt>
      <trkpt lat="46.18022" lon="6.77951">
        <ele>1932.3874511719</ele>
        <time>2012-03-16T09:46:54Z</time>
      </trkpt>
      <trkpt lat="46.18019" lon="6.77951">
        <ele>1932.8679199219</ele>
        <time>2012-03-16T09:47:16Z</time>
      </trkpt>
      <trkpt lat="46.18015" lon="6.7795">
        <ele>1932.8679199219</ele>
        <time>2012-03-16T09:48:00Z</time>
      </trkpt>
      <trkpt lat="46.18012" lon="6.77949">
        <ele>1932.8679199219</ele>
        <time>2012-03-16T09:48:22Z</time>
      </trkpt>
      <trkpt lat="46.18008" lon="6.77946">
        <ele>1933.3486328125</ele>
        <time>2012-03-16T09:48:37Z</time>
      </trkpt>
      <trkpt lat="46.17991" lon="6.77944">
        <ele>1935.2712402344</ele>
        <time>2012-03-16T09:48:43Z</time>
      </trkpt>
      <trkpt lat="46.17979" lon="6.77942">
        <ele>1938.6359863281</ele>
        <time>2012-03-16T09:48:47Z</time>
      </trkpt>
      <trkpt lat="46.17969" lon="6.7794">
        <ele>1941.0390625</ele>
        <time>2012-03-16T09:48:50Z</time>
      </trkpt>
      <trkpt lat="46.17959" lon="6.77938">
        <ele>1944.8842773438</ele>
        <time>2012-03-16T09:48:53Z</time>
      </trkpt>
      <trkpt lat="46.1795" lon="6.77937">
        <ele>1948.7297363281</ele>
        <time>2012-03-16T09:48:56Z</time>
      </trkpt>
      <trkpt lat="46.17941" lon="6.77935">
        <ele>1953.0556640625</ele>
        <time>2012-03-16T09:48:59Z</time>
      </trkpt>
      <trkpt lat="46.17935" lon="6.77934">
        <ele>1955.458984375</ele>
        <time>2012-03-16T09:49:01Z</time>
      </trkpt>
      <trkpt lat="46.17922" lon="6.77931">
        <ele>1958.8234863281</ele>
        <time>2012-03-16T09:49:05Z</time>
      </trkpt>
      <trkpt lat="46.1791" lon="6.77929">
        <ele>1963.1494140625</ele>
        <time>2012-03-16T09:49:09Z</time>
      </trkpt>
      <trkpt lat="46.17901" lon="6.77928">
        <ele>1966.9948730469</ele>
        <time>2012-03-16T09:49:12Z</time>
      </trkpt>
      <trkpt lat="46.17892" lon="6.77926">
        <ele>1970.8400878906</ele>
        <time>2012-03-16T09:49:15Z</time>
      </trkpt>
      <trkpt lat="46.17883" lon="6.77924">
        <ele>1976.1271972656</ele>
        <time>2012-03-16T09:49:18Z</time>
      </trkpt>
      <trkpt lat="46.17876" lon="6.77923">
        <ele>1978.0498046875</ele>
        <time>2012-03-16T09:49:20Z</time>
      </trkpt>
      <trkpt lat="46.17861" lon="6.7792">
        <ele>1982.3759765625</ele>
        <time>2012-03-16T09:49:25Z</time>
      </trkpt>
      <trkpt lat="46.17855" lon="6.77919">
        <ele>1986.2211914062</ele>
        <time>2012-03-16T09:49:27Z</time>
      </trkpt>
      <trkpt lat="46.17849" lon="6.77917">
        <ele>1987.6630859375</ele>
        <time>2012-03-16T09:49:29Z</time>
      </trkpt>
      <trkpt lat="46.17839" lon="6.77915">
        <ele>1991.5083007812</ele>
        <time>2012-03-16T09:49:32Z</time>
      </trkpt>
      <trkpt lat="46.17827" lon="6.77912">
        <ele>1994.8728027344</ele>
        <time>2012-03-16T09:49:36Z</time>
      </trkpt>
      <trkpt lat="46.17818" lon="6.7791">
        <ele>1998.7182617188</ele>
        <time>2012-03-16T09:49:39Z</time>
      </trkpt>
      <trkpt lat="46.17811" lon="6.77909">
        <ele>1999.6796875</ele>
        <time>2012-03-16T09:49:41Z</time>
      </trkpt>
      <trkpt lat="46.17792" lon="6.77907">
        <ele>2002.5634765625</ele>
        <time>2012-03-16T09:49:47Z</time>
      </trkpt>
      <trkpt lat="46.17784" lon="6.77913">
        <ele>2007.3701171875</ele>
        <time>2012-03-16T09:49:50Z</time>
      </trkpt>
      <trkpt lat="46.17776" lon="6.77918">
        <ele>2010.7346191406</ele>
        <time>2012-03-16T09:49:53Z</time>
      </trkpt>
      <trkpt lat="46.1777" lon="6.77921">
        <ele>2014.0993652344</ele>
        <time>2012-03-16T09:49:55Z</time>
      </trkpt>
      <trkpt lat="46.17756" lon="6.7793">
        <ele>2017.4638671875</ele>
        <time>2012-03-16T09:50:00Z</time>
      </trkpt>
      <trkpt lat="46.17748" lon="6.77934">
        <ele>2020.8286132812</ele>
        <time>2012-03-16T09:50:03Z</time>
      </trkpt>
      <trkpt lat="46.17739" lon="6.7794">
        <ele>2027.5576171875</ele>
        <time>2012-03-16T09:50:06Z</time>
      </trkpt>
      <trkpt lat="46.17733" lon="6.77943">
        <ele>2028.5192871094</ele>
        <time>2012-03-16T09:50:08Z</time>
      </trkpt>
      <trkpt lat="46.17728" lon="6.77946">
        <ele>2032.3645019531</ele>
        <time>2012-03-16T09:50:10Z</time>
      </trkpt>
      <trkpt lat="46.17725" lon="6.77948">
        <ele>2032.8449707031</ele>
        <time>2012-03-16T09:50:11Z</time>
      </trkpt>
      <trkpt lat="46.17716" lon="6.77953">
        <ele>2035.7290039062</ele>
        <time>2012-03-16T09:50:14Z</time>
      </trkpt>
      <trkpt lat="46.17711" lon="6.77956">
        <ele>2039.57421875</ele>
        <time>2012-03-16T09:50:16Z</time>
      </trkpt>
      <trkpt lat="46.17708" lon="6.77959">
        <ele>2038.6130371094</ele>
        <time>2012-03-16T09:50:17Z</time>
      </trkpt>
      <trkpt lat="46.17703" lon="6.77962">
        <ele>2042.4582519531</ele>
        <time>2012-03-16T09:50:19Z</time>
      </trkpt>
      <trkpt lat="46.17688" lon="6.77971">
        <ele>2045.8229980469</ele>
        <time>2012-03-16T09:50:24Z</time>
      </trkpt>
      <trkpt lat="46.17682" lon="6.77975">
        <ele>2049.6682128906</ele>
        <time>2012-03-16T09:50:26Z</time>
      </trkpt>
      <trkpt lat="46.17679" lon="6.77976">
        <ele>2049.1875</ele>
        <time>2012-03-16T09:50:27Z</time>
      </trkpt>
      <trkpt lat="46.17667" lon="6.77983">
        <ele>2053.0327148438</ele>
        <time>2012-03-16T09:50:31Z</time>
      </trkpt>
      <trkpt lat="46.17659" lon="6.77988">
        <ele>2055.4360351562</ele>
        <time>2012-03-16T09:50:34Z</time>
      </trkpt>
      <trkpt lat="46.1765" lon="6.77993">
        <ele>2060.2426757812</ele>
        <time>2012-03-16T09:50:37Z</time>
      </trkpt>
      <trkpt lat="46.17642" lon="6.77998">
        <ele>2063.6071777344</ele>
        <time>2012-03-16T09:50:40Z</time>
      </trkpt>
      <trkpt lat="46.17631" lon="6.78004">
        <ele>2067.4523925781</ele>
        <time>2012-03-16T09:50:44Z</time>
      </trkpt>
      <trkpt lat="46.1762" lon="6.78011">
        <ele>2070.3364257812</ele>
        <time>2012-03-16T09:50:48Z</time>
      </trkpt>
      <trkpt lat="46.17612" lon="6.78016">
        <ele>2073.7009277344</ele>
        <time>2012-03-16T09:50:51Z</time>
      </trkpt>
      <trkpt lat="46.17603" lon="6.78021">
        <ele>2077.5463867188</ele>
        <time>2012-03-16T09:50:54Z</time>
      </trkpt>
      <trkpt lat="46.17591" lon="6.78026">
        <ele>2080.9111328125</ele>
        <time>2012-03-16T09:50:58Z</time>
      </trkpt>
      <trkpt lat="46.17585" lon="6.78027">
        <ele>2084.7563476562</ele>
        <time>2012-03-16T09:51:00Z</time>
      </trkpt>
      <trkpt lat="46.17569" lon="6.78034">
        <ele>2088.6015625</ele>
        <time>2012-03-16T09:51:05Z</time>
      </trkpt>
      <trkpt lat="46.17566" lon="6.78035">
        <ele>2088.6015625</ele>
        <time>2012-03-16T09:51:06Z</time>
      </trkpt>
      <trkpt lat="46.17551" lon="6.7804">
        <ele>2092.9274902344</ele>
        <time>2012-03-16T09:51:11Z</time>
      </trkpt>
      <trkpt lat="46.17541" lon="6.78044">
        <ele>2095.8115234375</ele>
        <time>2012-03-16T09:51:14Z</time>
      </trkpt>
      <trkpt lat="46.17532" lon="6.78048">
        <ele>2099.1760253906</ele>
        <time>2012-03-16T09:51:17Z</time>
      </trkpt>
      <trkpt lat="46.17525" lon="6.7805">
        <ele>2100.6179199219</ele>
        <time>2012-03-16T09:51:19Z</time>
      </trkpt>
      <trkpt lat="46.1749" lon="6.78062">
        <ele>2103.9826660156</ele>
        <time>2012-03-16T09:51:30Z</time>
      </trkpt>
      <trkpt lat="46.17487" lon="6.78063">
        <ele>2103.501953125</ele>
        <time>2012-03-16T09:51:31Z</time>
      </trkpt>
      <trkpt lat="46.17462" lon="6.78073">
        <ele>2104.9438476562</ele>
        <time>2012-03-16T09:51:39Z</time>
      </trkpt>
      <trkpt lat="46.17451" lon="6.78077">
        <ele>2108.7893066406</ele>
        <time>2012-03-16T09:51:43Z</time>
      </trkpt>
      <trkpt lat="46.17445" lon="6.7808">
        <ele>2112.6345214844</ele>
        <time>2012-03-16T09:51:45Z</time>
      </trkpt>
      <trkpt lat="46.17439" lon="6.78082">
        <ele>2113.115234375</ele>
        <time>2012-03-16T09:51:47Z</time>
      </trkpt>
      <trkpt lat="46.17433" lon="6.78083">
        <ele>2116.9604492188</ele>
        <time>2012-03-16T09:51:49Z</time>
      </trkpt>
      <trkpt lat="46.17424" lon="6.78087">
        <ele>2120.8056640625</ele>
        <time>2012-03-16T09:51:52Z</time>
      </trkpt>
      <trkpt lat="46.17415" lon="6.7809">
        <ele>2125.1315917969</ele>
        <time>2012-03-16T09:51:55Z</time>
      </trkpt>
      <trkpt lat="46.17407" lon="6.78093">
        <ele>2128.4963378906</ele>
        <time>2012-03-16T09:51:58Z</time>
      </trkpt>
      <trkpt lat="46.17401" lon="6.78095">
        <ele>2129.4575195312</ele>
        <time>2012-03-16T09:52:00Z</time>
      </trkpt>
      <trkpt lat="46.17389" lon="6.78098">
        <ele>2133.7834472656</ele>
        <time>2012-03-16T09:52:04Z</time>
      </trkpt>
      <trkpt lat="46.17383" lon="6.78101">
        <ele>2139.5512695312</ele>
        <time>2012-03-16T09:52:06Z</time>
      </trkpt>
      <trkpt lat="46.17377" lon="6.78103">
        <ele>2140.0322265625</ele>
        <time>2012-03-16T09:52:08Z</time>
      </trkpt>
      <trkpt lat="46.17368" lon="6.78106">
        <ele>2145.3193359375</ele>
        <time>2012-03-16T09:52:11Z</time>
      </trkpt>
      <trkpt lat="46.17355" lon="6.7811">
        <ele>2149.6452636719</ele>
        <time>2012-03-16T09:52:15Z</time>
      </trkpt>
      <trkpt lat="46.17352" lon="6.78111">
        <ele>2153.009765625</ele>
        <time>2012-03-16T09:52:16Z</time>
      </trkpt>
      <trkpt lat="46.17346" lon="6.78112">
        <ele>2153.9711914062</ele>
        <time>2012-03-16T09:52:18Z</time>
      </trkpt>
      <trkpt lat="46.17309" lon="6.78124">
        <ele>2153.9711914062</ele>
        <time>2012-03-16T09:52:29Z</time>
      </trkpt>
      <trkpt lat="46.17294" lon="6.78147">
        <ele>2154.4516601562</ele>
        <time>2012-03-16T09:52:38Z</time>
      </trkpt>
      <trkpt lat="46.17296" lon="6.78145">
        <ele>2154.9323730469</ele>
        <time>2012-03-16T09:52:53Z</time>
      </trkpt>
      <trkpt lat="46.17291" lon="6.7811">
        <ele>2154.4516601562</ele>
        <time>2012-03-16T09:53:09Z</time>
      </trkpt>
      <trkpt lat="46.17288" lon="6.78085">
        <ele>2153.9711914062</ele>
        <time>2012-03-16T09:53:15Z</time>
      </trkpt>
      <trkpt lat="46.17287" lon="6.78066">
        <ele>2152.5290527344</ele>
        <time>2012-03-16T09:53:18Z</time>
      </trkpt>
      <trkpt lat="46.17287" lon="6.78058">
        <ele>2153.4904785156</ele>
        <time>2012-03-16T09:53:19Z</time>
      </trkpt>
      <trkpt lat="46.17288" lon="6.7802">
        <ele>2149.6452636719</ele>
        <time>2012-03-16T09:53:25Z</time>
      </trkpt>
      <trkpt lat="46.17291" lon="6.77971">
        <ele>2146.7612304688</ele>
        <time>2012-03-16T09:53:34Z</time>
      </trkpt>
      <trkpt lat="46.1729" lon="6.77966">
        <ele>2147.2419433594</ele>
        <time>2012-03-16T09:53:42Z</time>
      </trkpt>
      <trkpt lat="46.17291" lon="6.77965">
        <ele>2146.7612304688</ele>
        <time>2012-03-16T09:54:03Z</time>
      </trkpt>
      <trkpt lat="46.17308" lon="6.77953">
        <ele>2141.9548339844</ele>
        <time>2012-03-16T09:54:07Z</time>
      </trkpt>
      <trkpt lat="46.17317" lon="6.77946">
        <ele>2138.109375</ele>
        <time>2012-03-16T09:54:08Z</time>
      </trkpt>
      <trkpt lat="46.17327" lon="6.77939">
        <ele>2134.2641601562</ele>
        <time>2012-03-16T09:54:09Z</time>
      </trkpt>
      <trkpt lat="46.17339" lon="6.77931">
        <ele>2129.9382324219</ele>
        <time>2012-03-16T09:54:10Z</time>
      </trkpt>
      <trkpt lat="46.17366" lon="6.77917">
        <ele>2125.6123046875</ele>
        <time>2012-03-16T09:54:12Z</time>
      </trkpt>
      <trkpt lat="46.17396" lon="6.77905">
        <ele>2119.8442382812</ele>
        <time>2012-03-16T09:54:14Z</time>
      </trkpt>
      <trkpt lat="46.17411" lon="6.77899">
        <ele>2114.5571289062</ele>
        <time>2012-03-16T09:54:15Z</time>
      </trkpt>
      <trkpt lat="46.17428" lon="6.77893">
        <ele>2110.2312011719</ele>
        <time>2012-03-16T09:54:16Z</time>
      </trkpt>
      <trkpt lat="46.17446" lon="6.77886">
        <ele>2105.4245605469</ele>
        <time>2012-03-16T09:54:17Z</time>
      </trkpt>
      <trkpt lat="46.17464" lon="6.77879">
        <ele>2102.0598144531</ele>
        <time>2012-03-16T09:54:18Z</time>
      </trkpt>
      <trkpt lat="46.17482" lon="6.77873">
        <ele>2097.2534179688</ele>
        <time>2012-03-16T09:54:19Z</time>
      </trkpt>
      <trkpt lat="46.17501" lon="6.77867">
        <ele>2092.4470214844</ele>
        <time>2012-03-16T09:54:20Z</time>
      </trkpt>
      <trkpt lat="46.1752" lon="6.77859">
        <ele>2086.1982421875</ele>
        <time>2012-03-16T09:54:21Z</time>
      </trkpt>
      <trkpt lat="46.1754" lon="6.77851">
        <ele>2078.5078125</ele>
        <time>2012-03-16T09:54:22Z</time>
      </trkpt>
      <trkpt lat="46.17559" lon="6.77843">
        <ele>2073.7009277344</ele>
        <time>2012-03-16T09:54:23Z</time>
      </trkpt>
      <trkpt lat="46.1758" lon="6.77835">
        <ele>2067.9331054688</ele>
        <time>2012-03-16T09:54:24Z</time>
      </trkpt>
      <trkpt lat="46.17602" lon="6.77827">
        <ele>2062.1652832031</ele>
        <time>2012-03-16T09:54:25Z</time>
      </trkpt>
      <trkpt lat="46.17625" lon="6.77819">
        <ele>2053.0327148438</ele>
        <time>2012-03-16T09:54:26Z</time>
      </trkpt>
      <trkpt lat="46.17648" lon="6.77808">
        <ele>2043.4194335938</ele>
        <time>2012-03-16T09:54:27Z</time>
      </trkpt>
      <trkpt lat="46.17671" lon="6.77797">
        <ele>2034.287109375</ele>
        <time>2012-03-16T09:54:28Z</time>
      </trkpt>
      <trkpt lat="46.17695" lon="6.77786">
        <ele>2030.9226074219</ele>
        <time>2012-03-16T09:54:29Z</time>
      </trkpt>
      <trkpt lat="46.17717" lon="6.77777">
        <ele>2022.7512207031</ele>
        <time>2012-03-16T09:54:30Z</time>
      </trkpt>
      <trkpt lat="46.1774" lon="6.77768">
        <ele>2008.3312988281</ele>
        <time>2012-03-16T09:54:31Z</time>
      </trkpt>
      <trkpt lat="46.17784" lon="6.77755">
        <ele>1997.2763671875</ele>
        <time>2012-03-16T09:54:33Z</time>
      </trkpt>
      <trkpt lat="46.17807" lon="6.77749">
        <ele>1986.2211914062</ele>
        <time>2012-03-16T09:54:34Z</time>
      </trkpt>
      <trkpt lat="46.17854" lon="6.77735">
        <ele>1977.5690917969</ele>
        <time>2012-03-16T09:54:36Z</time>
      </trkpt>
      <trkpt lat="46.17879" lon="6.77727">
        <ele>1971.8012695312</ele>
        <time>2012-03-16T09:54:37Z</time>
      </trkpt>
      <trkpt lat="46.17903" lon="6.77719">
        <ele>1960.2653808594</ele>
        <time>2012-03-16T09:54:38Z</time>
      </trkpt>
      <trkpt lat="46.17952" lon="6.77703">
        <ele>1952.0942382812</ele>
        <time>2012-03-16T09:54:40Z</time>
      </trkpt>
      <trkpt lat="46.17974" lon="6.77699">
        <ele>1944.4035644531</ele>
        <time>2012-03-16T09:54:41Z</time>
      </trkpt>
      <trkpt lat="46.17994" lon="6.77701">
        <ele>1940.0778808594</ele>
        <time>2012-03-16T09:54:42Z</time>
      </trkpt>
      <trkpt lat="46.18045" lon="6.77716">
        <ele>1937.1938476562</ele>
        <time>2012-03-16T09:54:45Z</time>
      </trkpt>
      <trkpt lat="46.18057" lon="6.77712">
        <ele>1936.2326660156</ele>
        <time>2012-03-16T09:54:47Z</time>
      </trkpt>
      <trkpt lat="46.18056" lon="6.77708">
        <ele>1934.7907714844</ele>
        <time>2012-03-16T09:54:51Z</time>
      </trkpt>
      <trkpt lat="46.1805" lon="6.7771">
        <ele>1934.3100585938</ele>
        <time>2012-03-16T09:55:09Z</time>
      </trkpt>
      <trkpt lat="46.18049" lon="6.77712">
        <ele>1935.2712402344</ele>
        <time>2012-03-16T09:55:41Z</time>
      </trkpt>
      <trkpt lat="46.18048" lon="6.77712">
        <ele>1934.3100585938</ele>
        <time>2012-03-16T09:56:17Z</time>
      </trkpt>
      <trkpt lat="46.18048" lon="6.77713">
        <ele>1935.2712402344</ele>
        <time>2012-03-16T09:56:42Z</time>
      </trkpt>
      <trkpt lat="46.18047" lon="6.77717">
        <ele>1933.8293457031</ele>
        <time>2012-03-16T09:57:14Z</time>
      </trkpt>
      <trkpt lat="46.18048" lon="6.77719">
        <ele>1934.3100585938</ele>
        <time>2012-03-16T09:57:21Z</time>
      </trkpt>
      <trkpt lat="46.1806" lon="6.77742">
        <ele>1929.5031738281</ele>
        <time>2012-03-16T09:57:27Z</time>
      </trkpt>
      <trkpt lat="46.18068" lon="6.77771">
        <ele>1924.2160644531</ele>
        <time>2012-03-16T09:57:30Z</time>
      </trkpt>
      <trkpt lat="46.1807" lon="6.77782">
        <ele>1922.2934570312</ele>
        <time>2012-03-16T09:57:31Z</time>
      </trkpt>
      <trkpt lat="46.18095" lon="6.77823">
        <ele>1914.6027832031</ele>
        <time>2012-03-16T09:57:35Z</time>
      </trkpt>
      <trkpt lat="46.18109" lon="6.77843">
        <ele>1910.7575683594</ele>
        <time>2012-03-16T09:57:37Z</time>
      </trkpt>
      <trkpt lat="46.18127" lon="6.77859">
        <ele>1906.9123535156</ele>
        <time>2012-03-16T09:57:39Z</time>
      </trkpt>
      <trkpt lat="46.18148" lon="6.77869">
        <ele>1901.14453125</ele>
        <time>2012-03-16T09:57:41Z</time>
      </trkpt>
      <trkpt lat="46.18168" lon="6.77854">
        <ele>1890.5698242188</ele>
        <time>2012-03-16T09:57:43Z</time>
      </trkpt>
      <trkpt lat="46.18178" lon="6.77844">
        <ele>1888.1667480469</ele>
        <time>2012-03-16T09:57:44Z</time>
      </trkpt>
      <trkpt lat="46.18201" lon="6.77833">
        <ele>1881.91796875</ele>
        <time>2012-03-16T09:57:46Z</time>
      </trkpt>
      <trkpt lat="46.1823" lon="6.77816">
        <ele>1874.2275390625</ele>
        <time>2012-03-16T09:57:49Z</time>
      </trkpt>
      <trkpt lat="46.18234" lon="6.77812">
        <ele>1870.3823242188</ele>
        <time>2012-03-16T09:57:50Z</time>
      </trkpt>
      <trkpt lat="46.18242" lon="6.7781">
        <ele>1867.498046875</ele>
        <time>2012-03-16T09:57:51Z</time>
      </trkpt>
      <trkpt lat="46.18264" lon="6.77803">
        <ele>1862.6916503906</ele>
        <time>2012-03-16T09:57:53Z</time>
      </trkpt>
      <trkpt lat="46.18286" lon="6.77788">
        <ele>1856.4431152344</ele>
        <time>2012-03-16T09:57:55Z</time>
      </trkpt>
      <trkpt lat="46.1832" lon="6.77759">
        <ele>1850.1945800781</ele>
        <time>2012-03-16T09:57:58Z</time>
      </trkpt>
      <trkpt lat="46.18343" lon="6.77743">
        <ele>1846.3493652344</ele>
        <time>2012-03-16T09:58:00Z</time>
      </trkpt>
      <trkpt lat="46.18387" lon="6.77709">
        <ele>1842.9846191406</ele>
        <time>2012-03-16T09:58:04Z</time>
      </trkpt>
      <trkpt lat="46.18408" lon="6.77694">
        <ele>1840.1008300781</ele>
        <time>2012-03-16T09:58:06Z</time>
      </trkpt>
      <trkpt lat="46.18443" lon="6.77688">
        <ele>1832.41015625</ele>
        <time>2012-03-16T09:58:09Z</time>
      </trkpt>
      <trkpt lat="46.18455" lon="6.7769">
        <ele>1830.9682617188</ele>
        <time>2012-03-16T09:58:10Z</time>
      </trkpt>
      <trkpt lat="46.18501" lon="6.77729">
        <ele>1829.5261230469</ele>
        <time>2012-03-16T09:58:16Z</time>
      </trkpt>
      <trkpt lat="46.18514" lon="6.7775">
        <ele>1825.6809082031</ele>
        <time>2012-03-16T09:58:19Z</time>
      </trkpt>
      <trkpt lat="46.18533" lon="6.77783">
        <ele>1820.3937988281</ele>
        <time>2012-03-16T09:58:23Z</time>
      </trkpt>
      <trkpt lat="46.18539" lon="6.77801">
        <ele>1818.4709472656</ele>
        <time>2012-03-16T09:58:25Z</time>
      </trkpt>
      <trkpt lat="46.1854" lon="6.77809">
        <ele>1817.990234375</ele>
        <time>2012-03-16T09:58:26Z</time>
      </trkpt>
      <trkpt lat="46.18542" lon="6.77822">
        <ele>1817.0290527344</ele>
        <time>2012-03-16T09:58:28Z</time>
      </trkpt>
      <trkpt lat="46.18551" lon="6.77845">
        <ele>1808.3771972656</ele>
        <time>2012-03-16T09:58:31Z</time>
      </trkpt>
      <trkpt lat="46.18556" lon="6.77855">
        <ele>1805.4934082031</ele>
        <time>2012-03-16T09:58:32Z</time>
      </trkpt>
      <trkpt lat="46.18571" lon="6.77872">
        <ele>1798.7639160156</ele>
        <time>2012-03-16T09:58:34Z</time>
      </trkpt>
      <trkpt lat="46.18603" lon="6.77873">
        <ele>1788.6704101562</ele>
        <time>2012-03-16T09:58:37Z</time>
      </trkpt>
      <trkpt lat="46.18613" lon="6.77875">
        <ele>1785.7861328125</ele>
        <time>2012-03-16T09:58:38Z</time>
      </trkpt>
      <trkpt lat="46.18624" lon="6.77872">
        <ele>1781.4602050781</ele>
        <time>2012-03-16T09:58:39Z</time>
      </trkpt>
      <trkpt lat="46.18632" lon="6.77872">
        <ele>1778.095703125</ele>
        <time>2012-03-16T09:58:40Z</time>
      </trkpt>
      <trkpt lat="46.18672" lon="6.77867">
        <ele>1760.3112792969</ele>
        <time>2012-03-16T09:58:43Z</time>
      </trkpt>
      <trkpt lat="46.18688" lon="6.77866">
        <ele>1752.1398925781</ele>
        <time>2012-03-16T09:58:44Z</time>
      </trkpt>
      <trkpt lat="46.18718" lon="6.77869">
        <ele>1745.4108886719</ele>
        <time>2012-03-16T09:58:46Z</time>
      </trkpt>
      <trkpt lat="46.18745" lon="6.77869">
        <ele>1743.0075683594</ele>
        <time>2012-03-16T09:58:48Z</time>
      </trkpt>
      <trkpt lat="46.18752" lon="6.7787">
        <ele>1743.0075683594</ele>
        <time>2012-03-16T09:58:49Z</time>
      </trkpt>
      <trkpt lat="46.18767" lon="6.77896">
        <ele>1742.0463867188</ele>
        <time>2012-03-16T09:58:56Z</time>
      </trkpt>
      <trkpt lat="46.18762" lon="6.77902">
        <ele>1741.5656738281</ele>
        <time>2012-03-16T09:58:59Z</time>
      </trkpt>
      <trkpt lat="46.18747" lon="6.77905">
        <ele>1741.5656738281</ele>
        <time>2012-03-16T09:59:15Z</time>
      </trkpt>
      <trkpt lat="46.18739" lon="6.77905">
        <ele>1741.0849609375</ele>
        <time>2012-03-16T09:59:33Z</time>
      </trkpt>
      <trkpt lat="46.18731" lon="6.77907">
        <ele>1740.1237792969</ele>
        <time>2012-03-16T09:59:46Z</time>
      </trkpt>
      <trkpt lat="46.18723" lon="6.7791">
        <ele>1740.1237792969</ele>
        <time>2012-03-16T09:59:50Z</time>
      </trkpt>
      <trkpt lat="46.187" lon="6.77911">
        <ele>1744.4494628906</ele>
        <time>2012-03-16T09:59:56Z</time>
      </trkpt>
      <trkpt lat="46.18681" lon="6.77913">
        <ele>1750.2175292969</ele>
        <time>2012-03-16T10:00:01Z</time>
      </trkpt>
      <trkpt lat="46.18677" lon="6.77914">
        <ele>1755.5046386719</ele>
        <time>2012-03-16T10:00:02Z</time>
      </trkpt>
      <trkpt lat="46.1867" lon="6.77914">
        <ele>1759.8305664062</ele>
        <time>2012-03-16T10:00:04Z</time>
      </trkpt>
      <trkpt lat="46.18666" lon="6.77915">
        <ele>1759.3500976562</ele>
        <time>2012-03-16T10:00:05Z</time>
      </trkpt>
      <trkpt lat="46.18659" lon="6.77916">
        <ele>1763.1953125</ele>
        <time>2012-03-16T10:00:07Z</time>
      </trkpt>
      <trkpt lat="46.18652" lon="6.77917">
        <ele>1769.4438476562</ele>
        <time>2012-03-16T10:00:09Z</time>
      </trkpt>
      <trkpt lat="46.18649" lon="6.77918">
        <ele>1772.80859375</ele>
        <time>2012-03-16T10:00:10Z</time>
      </trkpt>
      <trkpt lat="46.18638" lon="6.7792">
        <ele>1776.1730957031</ele>
        <time>2012-03-16T10:00:13Z</time>
      </trkpt>
      <trkpt lat="46.18626" lon="6.77921">
        <ele>1780.0183105469</ele>
        <time>2012-03-16T10:00:16Z</time>
      </trkpt>
      <trkpt lat="46.18611" lon="6.77923">
        <ele>1784.3442382812</ele>
        <time>2012-03-16T10:00:21Z</time>
      </trkpt>
      <trkpt lat="46.18594" lon="6.77925">
        <ele>1787.2280273438</ele>
        <time>2012-03-16T10:00:28Z</time>
      </trkpt>
      <trkpt lat="46.18592" lon="6.77925">
        <ele>1787.2280273438</ele>
        <time>2012-03-16T10:00:29Z</time>
      </trkpt>
      <trkpt lat="46.1858" lon="6.77926">
        <ele>1792.0349121094</ele>
        <time>2012-03-16T10:00:33Z</time>
      </trkpt>
      <trkpt lat="46.18573" lon="6.77927">
        <ele>1794.9187011719</ele>
        <time>2012-03-16T10:00:35Z</time>
      </trkpt>
      <trkpt lat="46.18565" lon="6.77928">
        <ele>1798.283203125</ele>
        <time>2012-03-16T10:00:37Z</time>
      </trkpt>
      <trkpt lat="46.18554" lon="6.7793">
        <ele>1802.1284179688</ele>
        <time>2012-03-16T10:00:40Z</time>
      </trkpt>
      <trkpt lat="46.18546" lon="6.77931">
        <ele>1805.9738769531</ele>
        <time>2012-03-16T10:00:42Z</time>
      </trkpt>
      <trkpt lat="46.18539" lon="6.77932">
        <ele>1809.3386230469</ele>
        <time>2012-03-16T10:00:44Z</time>
      </trkpt>
      <trkpt lat="46.18527" lon="6.77934">
        <ele>1813.1838378906</ele>
        <time>2012-03-16T10:00:47Z</time>
      </trkpt>
      <trkpt lat="46.1852" lon="6.77934">
        <ele>1817.5095214844</ele>
        <time>2012-03-16T10:00:49Z</time>
      </trkpt>
      <trkpt lat="46.18513" lon="6.77935">
        <ele>1820.3937988281</ele>
        <time>2012-03-16T10:00:51Z</time>
      </trkpt>
      <trkpt lat="46.18502" lon="6.77936">
        <ele>1824.7197265625</ele>
        <time>2012-03-16T10:00:54Z</time>
      </trkpt>
      <trkpt lat="46.18495" lon="6.77937">
        <ele>1829.5261230469</ele>
        <time>2012-03-16T10:00:56Z</time>
      </trkpt>
      <trkpt lat="46.18488" lon="6.77938">
        <ele>1833.8520507812</ele>
        <time>2012-03-16T10:00:58Z</time>
      </trkpt>
      <trkpt lat="46.18481" lon="6.77939">
        <ele>1837.6975097656</ele>
        <time>2012-03-16T10:01:00Z</time>
      </trkpt>
      <trkpt lat="46.18474" lon="6.7794">
        <ele>1843.4653320312</ele>
        <time>2012-03-16T10:01:02Z</time>
      </trkpt>
      <trkpt lat="46.18467" lon="6.77941">
        <ele>1847.7912597656</ele>
        <time>2012-03-16T10:01:04Z</time>
      </trkpt>
      <trkpt lat="46.1846" lon="6.77943">
        <ele>1852.5979003906</ele>
        <time>2012-03-16T10:01:06Z</time>
      </trkpt>
      <trkpt lat="46.18453" lon="6.77944">
        <ele>1855.9624023438</ele>
        <time>2012-03-16T10:01:08Z</time>
      </trkpt>
      <trkpt lat="46.1845" lon="6.77944">
        <ele>1859.3271484375</ele>
        <time>2012-03-16T10:01:09Z</time>
      </trkpt>
      <trkpt lat="46.18446" lon="6.77945">
        <ele>1858.8464355469</ele>
        <time>2012-03-16T10:01:10Z</time>
      </trkpt>
      <trkpt lat="46.18439" lon="6.77946">
        <ele>1863.1723632812</ele>
        <time>2012-03-16T10:01:12Z</time>
      </trkpt>
      <trkpt lat="46.18432" lon="6.77947">
        <ele>1868.9404296875</ele>
        <time>2012-03-16T10:01:14Z</time>
      </trkpt>
      <trkpt lat="46.18422" lon="6.77949">
        <ele>1873.7468261719</ele>
        <time>2012-03-16T10:01:17Z</time>
      </trkpt>
      <trkpt lat="46.18415" lon="6.7795">
        <ele>1879.0339355469</ele>
        <time>2012-03-16T10:01:19Z</time>
      </trkpt>
      <trkpt lat="46.18408" lon="6.77951">
        <ele>1882.3986816406</ele>
        <time>2012-03-16T10:01:21Z</time>
      </trkpt>
      <trkpt lat="46.18401" lon="6.77952">
        <ele>1887.2053222656</ele>
        <time>2012-03-16T10:01:23Z</time>
      </trkpt>
      <trkpt lat="46.18398" lon="6.77953">
        <ele>1891.53125</ele>
        <time>2012-03-16T10:01:24Z</time>
      </trkpt>
      <trkpt lat="46.1839" lon="6.77954">
        <ele>1892.4926757812</ele>
        <time>2012-03-16T10:01:26Z</time>
      </trkpt>
      <trkpt lat="46.18379" lon="6.77955">
        <ele>1897.2990722656</ele>
        <time>2012-03-16T10:01:29Z</time>
      </trkpt>
      <trkpt lat="46.18364" lon="6.77957">
        <ele>1901.14453125</ele>
        <time>2012-03-16T10:01:33Z</time>
      </trkpt>
      <trkpt lat="46.18357" lon="6.77958">
        <ele>1902.5864257812</ele>
        <time>2012-03-16T10:01:35Z</time>
      </trkpt>
      <trkpt lat="46.18349" lon="6.77959">
        <ele>1906.431640625</ele>
        <time>2012-03-16T10:01:37Z</time>
      </trkpt>
      <trkpt lat="46.18341" lon="6.77959">
        <ele>1909.3156738281</ele>
        <time>2012-03-16T10:01:39Z</time>
      </trkpt>
      <trkpt lat="46.18337" lon="6.7796">
        <ele>1909.7961425781</ele>
        <time>2012-03-16T10:01:40Z</time>
      </trkpt>
      <trkpt lat="46.18326" lon="6.77961">
        <ele>1914.6027832031</ele>
        <time>2012-03-16T10:01:43Z</time>
      </trkpt>
      <trkpt lat="46.18318" lon="6.77962">
        <ele>1918.4482421875</ele>
        <time>2012-03-16T10:01:45Z</time>
      </trkpt>
      <trkpt lat="46.18307" lon="6.77964">
        <ele>1921.8127441406</ele>
        <time>2012-03-16T10:01:48Z</time>
      </trkpt>
      <trkpt lat="46.18299" lon="6.77964">
        <ele>1923.7353515625</ele>
        <time>2012-03-16T10:01:50Z</time>
      </trkpt>
      <trkpt lat="46.18271" lon="6.77968">
        <ele>1927.1000976562</ele>
        <time>2012-03-16T10:01:57Z</time>
      </trkpt>
      <trkpt lat="46.18228" lon="6.77973">
        <ele>1927.5805664062</ele>
        <time>2012-03-16T10:02:08Z</time>
      </trkpt>
      <trkpt lat="46.18168" lon="6.77981">
        <ele>1927.1000976562</ele>
        <time>2012-03-16T10:02:23Z</time>
      </trkpt>
      <trkpt lat="46.18121" lon="6.77987">
        <ele>1929.5031738281</ele>
        <time>2012-03-16T10:02:35Z</time>
      </trkpt>
      <trkpt lat="46.18097" lon="6.7799">
        <ele>1932.3874511719</ele>
        <time>2012-03-16T10:02:41Z</time>
      </trkpt>
      <trkpt lat="46.1805" lon="6.77995">
        <ele>1934.7907714844</ele>
        <time>2012-03-16T10:02:54Z</time>
      </trkpt>
      <trkpt lat="46.18035" lon="6.77987">
        <ele>1934.7907714844</ele>
        <time>2012-03-16T10:03:06Z</time>
      </trkpt>
      <trkpt lat="46.18033" lon="6.77981">
        <ele>1935.2712402344</ele>
        <time>2012-03-16T10:03:15Z</time>
      </trkpt>
      <trkpt lat="46.18027" lon="6.77961">
        <ele>1935.2712402344</ele>
        <time>2012-03-16T10:03:34Z</time>
      </trkpt>
      <trkpt lat="46.18024" lon="6.77955">
        <ele>1934.7907714844</ele>
        <time>2012-03-16T10:03:56Z</time>
      </trkpt>
      <trkpt lat="46.18024" lon="6.77954">
        <ele>1935.2712402344</ele>
        <time>2012-03-16T10:04:11Z</time>
      </trkpt>
      <trkpt lat="46.18023" lon="6.77955">
        <ele>1935.751953125</ele>
        <time>2012-03-16T10:04:28Z</time>
      </trkpt>
      <trkpt lat="46.18023" lon="6.77956">
        <ele>1933.8293457031</ele>
        <time>2012-03-16T10:04:36Z</time>
      </trkpt>
      <trkpt lat="46.18023" lon="6.77956">
        <ele>1937.1938476562</ele>
        <time>2012-03-16T10:04:37Z</time>
      </trkpt>
      <trkpt lat="46.18023" lon="6.77956">
        <ele>1937.1938476562</ele>
        <time>2012-03-16T10:04:38Z</time>
      </trkpt>
      <trkpt lat="46.18023" lon="6.77956">
        <ele>1935.751953125</ele>
        <time>2012-03-16T10:04:40Z</time>
      </trkpt>
      <trkpt lat="46.18019" lon="6.77955">
        <ele>1936.7131347656</ele>
        <time>2012-03-16T10:05:07Z</time>
      </trkpt>
      <trkpt lat="46.18019" lon="6.77955">
        <ele>1936.7131347656</ele>
        <time>2012-03-16T10:05:08Z</time>
      </trkpt>
      <trkpt lat="46.18006" lon="6.77955">
        <ele>1935.2712402344</ele>
        <time>2012-03-16T10:05:25Z</time>
      </trkpt>
      <trkpt lat="46.17988" lon="6.7795">
        <ele>1936.2326660156</ele>
        <time>2012-03-16T10:05:33Z</time>
      </trkpt>
      <trkpt lat="46.17973" lon="6.77948">
        <ele>1939.5971679688</ele>
        <time>2012-03-16T10:05:38Z</time>
      </trkpt>
      <trkpt lat="46.17963" lon="6.77947">
        <ele>1943.4423828125</ele>
        <time>2012-03-16T10:05:41Z</time>
      </trkpt>
      <trkpt lat="46.1795" lon="6.77944">
        <ele>1947.2875976562</ele>
        <time>2012-03-16T10:05:45Z</time>
      </trkpt>
      <trkpt lat="46.17944" lon="6.77943">
        <ele>1950.171875</ele>
        <time>2012-03-16T10:05:47Z</time>
      </trkpt>
      <trkpt lat="46.17934" lon="6.77942">
        <ele>1953.5363769531</ele>
        <time>2012-03-16T10:05:50Z</time>
      </trkpt>
      <trkpt lat="46.17925" lon="6.7794">
        <ele>1957.3815917969</ele>
        <time>2012-03-16T10:05:53Z</time>
      </trkpt>
      <trkpt lat="46.17921" lon="6.77939">
        <ele>1957.3815917969</ele>
        <time>2012-03-16T10:05:54Z</time>
      </trkpt>
      <trkpt lat="46.17912" lon="6.77938">
        <ele>1960.74609375</ele>
        <time>2012-03-16T10:05:57Z</time>
      </trkpt>
      <trkpt lat="46.17906" lon="6.77936">
        <ele>1964.1108398438</ele>
        <time>2012-03-16T10:05:59Z</time>
      </trkpt>
      <trkpt lat="46.17896" lon="6.77934">
        <ele>1967.9560546875</ele>
        <time>2012-03-16T10:06:02Z</time>
      </trkpt>
      <trkpt lat="46.17884" lon="6.77932">
        <ele>1972.2819824219</ele>
        <time>2012-03-16T10:06:06Z</time>
      </trkpt>
      <trkpt lat="46.1788" lon="6.77932">
        <ele>1975.646484375</ele>
        <time>2012-03-16T10:06:07Z</time>
      </trkpt>
      <trkpt lat="46.17871" lon="6.7793">
        <ele>1979.4916992188</ele>
        <time>2012-03-16T10:06:10Z</time>
      </trkpt>
      <trkpt lat="46.17861" lon="6.77928">
        <ele>1982.8564453125</ele>
        <time>2012-03-16T10:06:13Z</time>
      </trkpt>
      <trkpt lat="46.17855" lon="6.77926">
        <ele>1986.2211914062</ele>
        <time>2012-03-16T10:06:15Z</time>
      </trkpt>
      <trkpt lat="46.17846" lon="6.77924">
        <ele>1990.546875</ele>
        <time>2012-03-16T10:06:18Z</time>
      </trkpt>
      <trkpt lat="46.17836" lon="6.77921">
        <ele>1993.4309082031</ele>
        <time>2012-03-16T10:06:21Z</time>
      </trkpt>
      <trkpt lat="46.17813" lon="6.77917">
        <ele>1997.2763671875</ele>
        <time>2012-03-16T10:06:28Z</time>
      </trkpt>
      <trkpt lat="46.1781" lon="6.77916">
        <ele>1996.7956542969</ele>
        <time>2012-03-16T10:06:29Z</time>
      </trkpt>
      <trkpt lat="46.17797" lon="6.77914">
        <ele>2000.1604003906</ele>
        <time>2012-03-16T10:06:33Z</time>
      </trkpt>
      <trkpt lat="46.17788" lon="6.77918">
        <ele>2004.966796875</ele>
        <time>2012-03-16T10:06:36Z</time>
      </trkpt>
      <trkpt lat="46.17779" lon="6.77924">
        <ele>2009.7731933594</ele>
        <time>2012-03-16T10:06:39Z</time>
      </trkpt>
      <trkpt lat="46.17767" lon="6.77931">
        <ele>2013.1381835938</ele>
        <time>2012-03-16T10:06:43Z</time>
      </trkpt>
      <trkpt lat="46.17759" lon="6.77936">
        <ele>2016.9833984375</ele>
        <time>2012-03-16T10:06:46Z</time>
      </trkpt>
      <trkpt lat="46.17753" lon="6.77939">
        <ele>2020.8286132812</ele>
        <time>2012-03-16T10:06:48Z</time>
      </trkpt>
      <trkpt lat="46.17747" lon="6.77943">
        <ele>2022.2705078125</ele>
        <time>2012-03-16T10:06:50Z</time>
      </trkpt>
      <trkpt lat="46.17738" lon="6.77949">
        <ele>2027.0771484375</ele>
        <time>2012-03-16T10:06:53Z</time>
      </trkpt>
      <trkpt lat="46.17735" lon="6.7795">
        <ele>2027.0771484375</ele>
        <time>2012-03-16T10:06:54Z</time>
      </trkpt>
      <trkpt lat="46.17729" lon="6.77954">
        <ele>2030.9226074219</ele>
        <time>2012-03-16T10:06:56Z</time>
      </trkpt>
      <trkpt lat="46.1772" lon="6.77959">
        <ele>2034.287109375</ele>
        <time>2012-03-16T10:06:59Z</time>
      </trkpt>
      <trkpt lat="46.17712" lon="6.77964">
        <ele>2038.6130371094</ele>
        <time>2012-03-16T10:07:02Z</time>
      </trkpt>
      <trkpt lat="46.17703" lon="6.77969">
        <ele>2042.4582519531</ele>
        <time>2012-03-16T10:07:05Z</time>
      </trkpt>
      <trkpt lat="46.17691" lon="6.77977">
        <ele>2044.8615722656</ele>
        <time>2012-03-16T10:07:09Z</time>
      </trkpt>
      <trkpt lat="46.17676" lon="6.77986">
        <ele>2048.2260742188</ele>
        <time>2012-03-16T10:07:14Z</time>
      </trkpt>
      <trkpt lat="46.17664" lon="6.77993">
        <ele>2051.5908203125</ele>
        <time>2012-03-16T10:07:18Z</time>
      </trkpt>
      <trkpt lat="46.17655" lon="6.77998">
        <ele>2056.3972167969</ele>
        <time>2012-03-16T10:07:21Z</time>
      </trkpt>
      <trkpt lat="46.17649" lon="6.78002">
        <ele>2056.3972167969</ele>
        <time>2012-03-16T10:07:23Z</time>
      </trkpt>
      <trkpt lat="46.17646" lon="6.78003">
        <ele>2062.1652832031</ele>
        <time>2012-03-16T10:07:24Z</time>
      </trkpt>
      <trkpt lat="46.17643" lon="6.78005">
        <ele>2062.1652832031</ele>
        <time>2012-03-16T10:07:25Z</time>
      </trkpt>
      <trkpt lat="46.17637" lon="6.78009">
        <ele>2065.5300292969</ele>
        <time>2012-03-16T10:07:27Z</time>
      </trkpt>
      <trkpt lat="46.17629" lon="6.78014">
        <ele>2067.9331054688</ele>
        <time>2012-03-16T10:07:30Z</time>
      </trkpt>
      <trkpt lat="46.17623" lon="6.78017">
        <ele>2071.7783203125</ele>
        <time>2012-03-16T10:07:32Z</time>
      </trkpt>
      <trkpt lat="46.17614" lon="6.78023">
        <ele>2075.6235351562</ele>
        <time>2012-03-16T10:07:35Z</time>
      </trkpt>
      <trkpt lat="46.17608" lon="6.78026">
        <ele>2078.98828125</ele>
        <time>2012-03-16T10:07:37Z</time>
      </trkpt>
      <trkpt lat="46.17598" lon="6.78031">
        <ele>2081.3916015625</ele>
        <time>2012-03-16T10:07:40Z</time>
      </trkpt>
      <trkpt lat="46.17583" lon="6.78037">
        <ele>2084.2756347656</ele>
        <time>2012-03-16T10:07:45Z</time>
      </trkpt>
      <trkpt lat="46.1757" lon="6.78042">
        <ele>2087.1594238281</ele>
        <time>2012-03-16T10:07:49Z</time>
      </trkpt>
      <trkpt lat="46.17561" lon="6.78046">
        <ele>2091.0046386719</ele>
        <time>2012-03-16T10:07:52Z</time>
      </trkpt>
      <trkpt lat="46.17557" lon="6.78047">
        <ele>2091.4853515625</ele>
        <time>2012-03-16T10:07:53Z</time>
      </trkpt>
      <trkpt lat="46.17551" lon="6.7805">
        <ele>2092.4470214844</ele>
        <time>2012-03-16T10:07:55Z</time>
      </trkpt>
      <trkpt lat="46.17544" lon="6.78052">
        <ele>2096.2922363281</ele>
        <time>2012-03-16T10:07:57Z</time>
      </trkpt>
      <trkpt lat="46.17531" lon="6.78057">
        <ele>2099.6567382812</ele>
        <time>2012-03-16T10:08:01Z</time>
      </trkpt>
      <trkpt lat="46.17528" lon="6.78058">
        <ele>2099.6567382812</ele>
        <time>2012-03-16T10:08:02Z</time>
      </trkpt>
      <trkpt lat="46.17522" lon="6.7806">
        <ele>2101.0986328125</ele>
        <time>2012-03-16T10:08:04Z</time>
      </trkpt>
      <trkpt lat="46.1747" lon="6.78078">
        <ele>2103.9826660156</ele>
        <time>2012-03-16T10:08:20Z</time>
      </trkpt>
      <trkpt lat="46.17457" lon="6.78083">
        <ele>2106.3857421875</ele>
        <time>2012-03-16T10:08:24Z</time>
      </trkpt>
      <trkpt lat="46.17448" lon="6.78086">
        <ele>2109.7504882812</ele>
        <time>2012-03-16T10:08:27Z</time>
      </trkpt>
      <trkpt lat="46.17445" lon="6.78088">
        <ele>2109.7504882812</ele>
        <time>2012-03-16T10:08:28Z</time>
      </trkpt>
      <trkpt lat="46.17435" lon="6.78091">
        <ele>2113.595703125</ele>
        <time>2012-03-16T10:08:31Z</time>
      </trkpt>
      <trkpt lat="46.1743" lon="6.78093">
        <ele>2118.40234375</ele>
        <time>2012-03-16T10:08:33Z</time>
      </trkpt>
      <trkpt lat="46.17424" lon="6.78096">
        <ele>2121.7668457031</ele>
        <time>2012-03-16T10:08:35Z</time>
      </trkpt>
      <trkpt lat="46.17414" lon="6.78098">
        <ele>2124.6511230469</ele>
        <time>2012-03-16T10:08:38Z</time>
      </trkpt>
      <trkpt lat="46.17405" lon="6.78102">
        <ele>2129.9382324219</ele>
        <time>2012-03-16T10:08:41Z</time>
      </trkpt>
      <trkpt lat="46.17393" lon="6.78106">
        <ele>2132.8220214844</ele>
        <time>2012-03-16T10:08:45Z</time>
      </trkpt>
      <trkpt lat="46.17387" lon="6.78109">
        <ele>2136.1867675781</ele>
        <time>2012-03-16T10:08:47Z</time>
      </trkpt>
      <trkpt lat="46.17381" lon="6.7811">
        <ele>2140.0322265625</ele>
        <time>2012-03-16T10:08:49Z</time>
      </trkpt>
      <trkpt lat="46.17378" lon="6.78111">
        <ele>2140.0322265625</ele>
        <time>2012-03-16T10:08:50Z</time>
      </trkpt>
      <trkpt lat="46.17371" lon="6.78114">
        <ele>2143.3967285156</ele>
        <time>2012-03-16T10:08:52Z</time>
      </trkpt>
      <trkpt lat="46.17359" lon="6.78118">
        <ele>2150.1259765625</ele>
        <time>2012-03-16T10:08:56Z</time>
      </trkpt>
      <trkpt lat="46.17349" lon="6.78121">
        <ele>2153.4904785156</ele>
        <time>2012-03-16T10:08:59Z</time>
      </trkpt>
      <trkpt lat="46.17346" lon="6.78123">
        <ele>2153.4904785156</ele>
        <time>2012-03-16T10:09:00Z</time>
      </trkpt>
      <trkpt lat="46.1732" lon="6.78132">
        <ele>2156.3745117188</ele>
        <time>2012-03-16T10:09:08Z</time>
      </trkpt>
      <trkpt lat="46.17298" lon="6.78152">
        <ele>2156.8552246094</ele>
        <time>2012-03-16T10:09:16Z</time>
      </trkpt>
      <trkpt lat="46.17299" lon="6.78153">
        <ele>2157.3359375</ele>
        <time>2012-03-16T10:09:28Z</time>
      </trkpt>
      <trkpt lat="46.17299" lon="6.78154">
        <ele>2156.3745117188</ele>
        <time>2012-03-16T10:09:30Z</time>
      </trkpt>
      <trkpt lat="46.173" lon="6.78154">
        <ele>2157.3359375</ele>
        <time>2012-03-16T10:09:32Z</time>
      </trkpt>
      <trkpt lat="46.17301" lon="6.78156">
        <ele>2156.3745117188</ele>
        <time>2012-03-16T10:09:50Z</time>
      </trkpt>
      <trkpt lat="46.17301" lon="6.78157">
        <ele>2155.4130859375</ele>
        <time>2012-03-16T10:09:52Z</time>
      </trkpt>
      <trkpt lat="46.17296" lon="6.78164">
        <ele>2154.4516601562</ele>
        <time>2012-03-16T10:09:56Z</time>
      </trkpt>
      <trkpt lat="46.173" lon="6.78184">
        <ele>2151.5678710938</ele>
        <time>2012-03-16T10:10:02Z</time>
      </trkpt>
      <trkpt lat="46.17306" lon="6.78234">
        <ele>2144.3579101562</ele>
        <time>2012-03-16T10:10:07Z</time>
      </trkpt>
      <trkpt lat="46.17312" lon="6.78261">
        <ele>2139.5512695312</ele>
        <time>2012-03-16T10:10:09Z</time>
      </trkpt>
      <trkpt lat="46.17319" lon="6.78289">
        <ele>2131.8608398438</ele>
        <time>2012-03-16T10:10:11Z</time>
      </trkpt>
      <trkpt lat="46.17318" lon="6.78314">
        <ele>2130.4189453125</ele>
        <time>2012-03-16T10:10:13Z</time>
      </trkpt>
      <trkpt lat="46.17317" lon="6.78338">
        <ele>2128.9768066406</ele>
        <time>2012-03-16T10:10:15Z</time>
      </trkpt>
      <trkpt lat="46.17318" lon="6.78362">
        <ele>2124.1704101562</ele>
        <time>2012-03-16T10:10:17Z</time>
      </trkpt>
      <trkpt lat="46.17319" lon="6.78373">
        <ele>2123.689453125</ele>
        <time>2012-03-16T10:10:18Z</time>
      </trkpt>
      <trkpt lat="46.17337" lon="6.78388">
        <ele>2119.8442382812</ele>
        <time>2012-03-16T10:10:21Z</time>
      </trkpt>
      <trkpt lat="46.17346" lon="6.78393">
        <ele>2113.115234375</ele>
        <time>2012-03-16T10:10:22Z</time>
      </trkpt>
      <trkpt lat="46.17391" lon="6.78417">
        <ele>2103.501953125</ele>
        <time>2012-03-16T10:10:27Z</time>
      </trkpt>
      <trkpt lat="46.17407" lon="6.78402">
        <ele>2099.1760253906</ele>
        <time>2012-03-16T10:10:29Z</time>
      </trkpt>
      <trkpt lat="46.17414" lon="6.78389">
        <ele>2095.3308105469</ele>
        <time>2012-03-16T10:10:30Z</time>
      </trkpt>
      <trkpt lat="46.17421" lon="6.78375">
        <ele>2090.5239257812</ele>
        <time>2012-03-16T10:10:31Z</time>
      </trkpt>
      <trkpt lat="46.17428" lon="6.78361">
        <ele>2083.794921875</ele>
        <time>2012-03-16T10:10:32Z</time>
      </trkpt>
      <trkpt lat="46.17438" lon="6.7835">
        <ele>2081.8723144531</ele>
        <time>2012-03-16T10:10:33Z</time>
      </trkpt>
      <trkpt lat="46.17457" lon="6.78328">
        <ele>2076.1044921875</ele>
        <time>2012-03-16T10:10:35Z</time>
      </trkpt>
      <trkpt lat="46.17467" lon="6.78318">
        <ele>2072.2590332031</ele>
        <time>2012-03-16T10:10:36Z</time>
      </trkpt>
      <trkpt lat="46.17488" lon="6.78316">
        <ele>2063.1267089844</ele>
        <time>2012-03-16T10:10:38Z</time>
      </trkpt>
      <trkpt lat="46.17513" lon="6.78331">
        <ele>2057.3586425781</ele>
        <time>2012-03-16T10:10:40Z</time>
      </trkpt>
      <trkpt lat="46.17523" lon="6.78341">
        <ele>2055.9165039062</ele>
        <time>2012-03-16T10:10:41Z</time>
      </trkpt>
      <trkpt lat="46.17567" lon="6.78348">
        <ele>2048.7067871094</ele>
        <time>2012-03-16T10:10:45Z</time>
      </trkpt>
      <trkpt lat="46.17581" lon="6.78339">
        <ele>2045.8229980469</ele>
        <time>2012-03-16T10:10:47Z</time>
      </trkpt>
      <trkpt lat="46.17587" lon="6.78341">
        <ele>2043.9001464844</ele>
        <time>2012-03-16T10:10:48Z</time>
      </trkpt>
      <trkpt lat="46.17592" lon="6.78343">
        <ele>2042.9387207031</ele>
        <time>2012-03-16T10:10:50Z</time>
      </trkpt>
      <trkpt lat="46.17592" lon="6.78344">
        <ele>2042.4582519531</ele>
        <time>2012-03-16T10:10:51Z</time>
      </trkpt>
      <trkpt lat="46.17605" lon="6.78343">
        <ele>2040.5354003906</ele>
        <time>2012-03-16T10:10:57Z</time>
      </trkpt>
      <trkpt lat="46.17615" lon="6.78342">
        <ele>2038.1323242188</ele>
        <time>2012-03-16T10:10:59Z</time>
      </trkpt>
      <trkpt lat="46.17639" lon="6.78342">
        <ele>2033.3256835938</ele>
        <time>2012-03-16T10:11:02Z</time>
      </trkpt>
      <trkpt lat="46.17648" lon="6.78342">
        <ele>2030.4418945312</ele>
        <time>2012-03-16T10:11:03Z</time>
      </trkpt>
      <trkpt lat="46.17669" lon="6.78342">
        <ele>2027.5576171875</ele>
        <time>2012-03-16T10:11:05Z</time>
      </trkpt>
      <trkpt lat="46.17703" lon="6.78336">
        <ele>2022.2705078125</ele>
        <time>2012-03-16T10:11:08Z</time>
      </trkpt>
      <trkpt lat="46.17739" lon="6.78324">
        <ele>2016.9833984375</ele>
        <time>2012-03-16T10:11:11Z</time>
      </trkpt>
      <trkpt lat="46.17751" lon="6.7832">
        <ele>2015.5415039062</ele>
        <time>2012-03-16T10:11:12Z</time>
      </trkpt>
      <trkpt lat="46.17785" lon="6.78313">
        <ele>2008.3312988281</ele>
        <time>2012-03-16T10:11:15Z</time>
      </trkpt>
      <trkpt lat="46.17795" lon="6.7831">
        <ele>2005.9279785156</ele>
        <time>2012-03-16T10:11:16Z</time>
      </trkpt>
      <trkpt lat="46.17816" lon="6.78296">
        <ele>2001.1215820312</ele>
        <time>2012-03-16T10:11:19Z</time>
      </trkpt>
      <trkpt lat="46.17837" lon="6.78287">
        <ele>1991.9890136719</ele>
        <time>2012-03-16T10:11:22Z</time>
      </trkpt>
      <trkpt lat="46.17866" lon="6.78295">
        <ele>1988.1437988281</ele>
        <time>2012-03-16T10:11:27Z</time>
      </trkpt>
      <trkpt lat="46.17875" lon="6.78282">
        <ele>1986.2211914062</ele>
        <time>2012-03-16T10:11:29Z</time>
      </trkpt>
      <trkpt lat="46.17893" lon="6.78255">
        <ele>1977.0886230469</ele>
        <time>2012-03-16T10:11:32Z</time>
      </trkpt>
      <trkpt lat="46.17903" lon="6.78248">
        <ele>1973.2434082031</ele>
        <time>2012-03-16T10:11:33Z</time>
      </trkpt>
      <trkpt lat="46.17914" lon="6.78243">
        <ele>1968.9174804688</ele>
        <time>2012-03-16T10:11:34Z</time>
      </trkpt>
      <trkpt lat="46.17927" lon="6.78238">
        <ele>1965.072265625</ele>
        <time>2012-03-16T10:11:35Z</time>
      </trkpt>
      <trkpt lat="46.17954" lon="6.78232">
        <ele>1960.2653808594</ele>
        <time>2012-03-16T10:11:37Z</time>
      </trkpt>
      <trkpt lat="46.17968" lon="6.78224">
        <ele>1955.458984375</ele>
        <time>2012-03-16T10:11:38Z</time>
      </trkpt>
      <trkpt lat="46.17988" lon="6.78201">
        <ele>1951.6137695312</ele>
        <time>2012-03-16T10:11:40Z</time>
      </trkpt>
      <trkpt lat="46.17998" lon="6.78189">
        <ele>1951.1330566406</ele>
        <time>2012-03-16T10:11:41Z</time>
      </trkpt>
      <trkpt lat="46.18022" lon="6.78146">
        <ele>1943.9230957031</ele>
        <time>2012-03-16T10:11:44Z</time>
      </trkpt>
      <trkpt lat="46.18029" lon="6.7813">
        <ele>1941.0390625</ele>
        <time>2012-03-16T10:11:45Z</time>
      </trkpt>
      <trkpt lat="46.18064" lon="6.78065">
        <ele>1937.6745605469</ele>
        <time>2012-03-16T10:11:50Z</time>
      </trkpt>
      <trkpt lat="46.18072" lon="6.78036">
        <ele>1933.3486328125</ele>
        <time>2012-03-16T10:11:52Z</time>
      </trkpt>
      <trkpt lat="46.18091" lon="6.78022">
        <ele>1930.4645996094</ele>
        <time>2012-03-16T10:11:54Z</time>
      </trkpt>
      <trkpt lat="46.1812" lon="6.78025">
        <ele>1929.0224609375</ele>
        <time>2012-03-16T10:11:57Z</time>
      </trkpt>
      <trkpt lat="46.18182" lon="6.78014">
        <ele>1920.8515625</ele>
        <time>2012-03-16T10:12:03Z</time>
      </trkpt>
      <trkpt lat="46.18191" lon="6.78006">
        <ele>1918.4482421875</ele>
        <time>2012-03-16T10:12:04Z</time>
      </trkpt>
      <trkpt lat="46.18232" lon="6.77965">
        <ele>1916.5256347656</ele>
        <time>2012-03-16T10:12:09Z</time>
      </trkpt>
      <trkpt lat="46.18246" lon="6.77951">
        <ele>1917.0063476562</ele>
        <time>2012-03-16T10:12:11Z</time>
      </trkpt>
      <trkpt lat="46.18285" lon="6.77933">
        <ele>1913.6413574219</ele>
        <time>2012-03-16T10:12:16Z</time>
      </trkpt>
      <trkpt lat="46.1831" lon="6.77935">
        <ele>1911.7189941406</ele>
        <time>2012-03-16T10:12:19Z</time>
      </trkpt>
      <trkpt lat="46.18334" lon="6.77954">
        <ele>1906.9123535156</ele>
        <time>2012-03-16T10:12:22Z</time>
      </trkpt>
      <trkpt lat="46.1834" lon="6.77964">
        <ele>1905.9509277344</ele>
        <time>2012-03-16T10:12:23Z</time>
      </trkpt>
      <trkpt lat="46.18353" lon="6.77985">
        <ele>1902.5864257812</ele>
        <time>2012-03-16T10:12:25Z</time>
      </trkpt>
      <trkpt lat="46.18362" lon="6.78029">
        <ele>1895.8571777344</ele>
        <time>2012-03-16T10:12:28Z</time>
      </trkpt>
      <trkpt lat="46.18349" lon="6.78059">
        <ele>1890.0893554688</ele>
        <time>2012-03-16T10:12:30Z</time>
      </trkpt>
      <trkpt lat="46.18341" lon="6.78074">
        <ele>1889.1279296875</ele>
        <time>2012-03-16T10:12:31Z</time>
      </trkpt>
      <trkpt lat="46.18303" lon="6.78126">
        <ele>1878.5534667969</ele>
        <time>2012-03-16T10:12:35Z</time>
      </trkpt>
      <trkpt lat="46.18291" lon="6.78138">
        <ele>1874.7082519531</ele>
        <time>2012-03-16T10:12:36Z</time>
      </trkpt>
      <trkpt lat="46.18279" lon="6.78151">
        <ele>1871.3435058594</ele>
        <time>2012-03-16T10:12:37Z</time>
      </trkpt>
      <trkpt lat="46.18256" lon="6.7818">
        <ele>1867.498046875</ele>
        <time>2012-03-16T10:12:39Z</time>
      </trkpt>
      <trkpt lat="46.18233" lon="6.78212">
        <ele>1863.6528320312</ele>
        <time>2012-03-16T10:12:41Z</time>
      </trkpt>
      <trkpt lat="46.18211" lon="6.78244">
        <ele>1859.8076171875</ele>
        <time>2012-03-16T10:12:43Z</time>
      </trkpt>
      <trkpt lat="46.18178" lon="6.78292">
        <ele>1855.9624023438</ele>
        <time>2012-03-16T10:12:46Z</time>
      </trkpt>
      <trkpt lat="46.18148" lon="6.78365">
        <ele>1853.5593261719</ele>
        <time>2012-03-16T10:12:50Z</time>
      </trkpt>
      <trkpt lat="46.18125" lon="6.78414">
        <ele>1847.7912597656</ele>
        <time>2012-03-16T10:12:53Z</time>
      </trkpt>
      <trkpt lat="46.18092" lon="6.78443">
        <ele>1844.9072265625</ele>
        <time>2012-03-16T10:12:56Z</time>
      </trkpt>
      <trkpt lat="46.18073" lon="6.78461">
        <ele>1840.1008300781</ele>
        <time>2012-03-16T10:12:58Z</time>
      </trkpt>
      <trkpt lat="46.18045" lon="6.78493">
        <ele>1834.3327636719</ele>
        <time>2012-03-16T10:13:01Z</time>
      </trkpt>
      <trkpt lat="46.17994" lon="6.78537">
        <ele>1830.4875488281</ele>
        <time>2012-03-16T10:13:06Z</time>
      </trkpt>
      <trkpt lat="46.17957" lon="6.78578">
        <ele>1824.2390136719</ele>
        <time>2012-03-16T10:13:10Z</time>
      </trkpt>
      <trkpt lat="46.17936" lon="6.78614">
        <ele>1822.7971191406</ele>
        <time>2012-03-16T10:13:13Z</time>
      </trkpt>
      <trkpt lat="46.17908" lon="6.78658">
        <ele>1819.9128417969</ele>
        <time>2012-03-16T10:13:17Z</time>
      </trkpt>
      <trkpt lat="46.17879" lon="6.78701">
        <ele>1819.4323730469</ele>
        <time>2012-03-16T10:13:21Z</time>
      </trkpt>
      <trkpt lat="46.17902" lon="6.78761">
        <ele>1814.6257324219</ele>
        <time>2012-03-16T10:13:25Z</time>
      </trkpt>
      <trkpt lat="46.17904" lon="6.78799">
        <ele>1812.703125</ele>
        <time>2012-03-16T10:13:28Z</time>
      </trkpt>
      <trkpt lat="46.17909" lon="6.78821">
        <ele>1811.7419433594</ele>
        <time>2012-03-16T10:13:30Z</time>
      </trkpt>
      <trkpt lat="46.17928" lon="6.78872">
        <ele>1810.7805175781</ele>
        <time>2012-03-16T10:13:39Z</time>
      </trkpt>
      <trkpt lat="46.17932" lon="6.7888">
        <ele>1811.2612304688</ele>
        <time>2012-03-16T10:13:51Z</time>
      </trkpt>
      <trkpt lat="46.17948" lon="6.78906">
        <ele>1811.2612304688</ele>
        <time>2012-03-16T10:14:08Z</time>
      </trkpt>
      <trkpt lat="46.17951" lon="6.78912">
        <ele>1811.2612304688</ele>
        <time>2012-03-16T10:14:25Z</time>
      </trkpt>
      <trkpt lat="46.17956" lon="6.78923">
        <ele>1810.2998046875</ele>
        <time>2012-03-16T10:14:45Z</time>
      </trkpt>
      <trkpt lat="46.17956" lon="6.78928">
        <ele>1810.7805175781</ele>
        <time>2012-03-16T10:14:59Z</time>
      </trkpt>
      <trkpt lat="46.17956" lon="6.78936">
        <ele>1811.2612304688</ele>
        <time>2012-03-16T10:15:19Z</time>
      </trkpt>
      <trkpt lat="46.17955" lon="6.78939">
        <ele>1811.7419433594</ele>
        <time>2012-03-16T10:15:24Z</time>
      </trkpt>
      <trkpt lat="46.17946" lon="6.78951">
        <ele>1812.703125</ele>
        <time>2012-03-16T10:15:27Z</time>
      </trkpt>
      <trkpt lat="46.17934" lon="6.78971">
        <ele>1816.0676269531</ele>
        <time>2012-03-16T10:15:33Z</time>
      </trkpt>
      <trkpt lat="46.17926" lon="6.78986">
        <ele>1820.3937988281</ele>
        <time>2012-03-16T10:15:37Z</time>
      </trkpt>
      <trkpt lat="46.1792" lon="6.78997">
        <ele>1823.2778320312</ele>
        <time>2012-03-16T10:15:40Z</time>
      </trkpt>
      <trkpt lat="46.17911" lon="6.79013">
        <ele>1830.9682617188</ele>
        <time>2012-03-16T10:15:44Z</time>
      </trkpt>
      <trkpt lat="46.17902" lon="6.79028">
        <ele>1834.3327636719</ele>
        <time>2012-03-16T10:15:48Z</time>
      </trkpt>
      <trkpt lat="46.17898" lon="6.79035">
        <ele>1836.2556152344</ele>
        <time>2012-03-16T10:15:50Z</time>
      </trkpt>
      <trkpt lat="46.17893" lon="6.79046">
        <ele>1840.5812988281</ele>
        <time>2012-03-16T10:15:53Z</time>
      </trkpt>
      <trkpt lat="46.17892" lon="6.79051">
        <ele>1840.5812988281</ele>
        <time>2012-03-16T10:15:54Z</time>
      </trkpt>
      <trkpt lat="46.17885" lon="6.79067">
        <ele>1844.4265136719</ele>
        <time>2012-03-16T10:15:58Z</time>
      </trkpt>
      <trkpt lat="46.1788" lon="6.7908">
        <ele>1847.7912597656</ele>
        <time>2012-03-16T10:16:01Z</time>
      </trkpt>
      <trkpt lat="46.17872" lon="6.79101">
        <ele>1851.1557617188</ele>
        <time>2012-03-16T10:16:06Z</time>
      </trkpt>
      <trkpt lat="46.17869" lon="6.79109">
        <ele>1855.4819335938</ele>
        <time>2012-03-16T10:16:08Z</time>
      </trkpt>
      <trkpt lat="46.17864" lon="6.79122">
        <ele>1858.3657226562</ele>
        <time>2012-03-16T10:16:11Z</time>
      </trkpt>
      <trkpt lat="46.17862" lon="6.79126">
        <ele>1858.3657226562</ele>
        <time>2012-03-16T10:16:12Z</time>
      </trkpt>
      <trkpt lat="46.17854" lon="6.79147">
        <ele>1862.6916503906</ele>
        <time>2012-03-16T10:16:17Z</time>
      </trkpt>
      <trkpt lat="46.17848" lon="6.79163">
        <ele>1866.0561523438</ele>
        <time>2012-03-16T10:16:21Z</time>
      </trkpt>
      <trkpt lat="46.17842" lon="6.79176">
        <ele>1868.9404296875</ele>
        <time>2012-03-16T10:16:24Z</time>
      </trkpt>
      <trkpt lat="46.17836" lon="6.79192">
        <ele>1872.3049316406</ele>
        <time>2012-03-16T10:16:28Z</time>
      </trkpt>
      <trkpt lat="46.17834" lon="6.792">
        <ele>1875.6694335938</ele>
        <time>2012-03-16T10:16:30Z</time>
      </trkpt>
      <trkpt lat="46.17831" lon="6.79207">
        <ele>1879.5146484375</ele>
        <time>2012-03-16T10:16:32Z</time>
      </trkpt>
      <trkpt lat="46.17826" lon="6.79219">
        <ele>1881.91796875</ele>
        <time>2012-03-16T10:16:35Z</time>
      </trkpt>
      <trkpt lat="46.17822" lon="6.79231">
        <ele>1885.7634277344</ele>
        <time>2012-03-16T10:16:38Z</time>
      </trkpt>
      <trkpt lat="46.1782" lon="6.79235">
        <ele>1886.244140625</ele>
        <time>2012-03-16T10:16:39Z</time>
      </trkpt>
      <trkpt lat="46.17813" lon="6.79252">
        <ele>1889.6086425781</ele>
        <time>2012-03-16T10:16:43Z</time>
      </trkpt>
      <trkpt lat="46.17808" lon="6.79264">
        <ele>1892.0119628906</ele>
        <time>2012-03-16T10:16:46Z</time>
      </trkpt>
      <trkpt lat="46.17803" lon="6.79277">
        <ele>1894.8957519531</ele>
        <time>2012-03-16T10:16:49Z</time>
      </trkpt>
      <trkpt lat="46.178" lon="6.79285">
        <ele>1898.7409667969</ele>
        <time>2012-03-16T10:16:51Z</time>
      </trkpt>
      <trkpt lat="46.17794" lon="6.79301">
        <ele>1903.0671386719</ele>
        <time>2012-03-16T10:16:55Z</time>
      </trkpt>
      <trkpt lat="46.17792" lon="6.79304">
        <ele>1907.3930664062</ele>
        <time>2012-03-16T10:16:56Z</time>
      </trkpt>
      <trkpt lat="46.1779" lon="6.79313">
        <ele>1908.3542480469</ele>
        <time>2012-03-16T10:16:58Z</time>
      </trkpt>
      <trkpt lat="46.17787" lon="6.79321">
        <ele>1912.1994628906</ele>
        <time>2012-03-16T10:17:00Z</time>
      </trkpt>
      <trkpt lat="46.17781" lon="6.79333">
        <ele>1916.5256347656</ele>
        <time>2012-03-16T10:17:03Z</time>
      </trkpt>
      <trkpt lat="46.17777" lon="6.79345">
        <ele>1920.3708496094</ele>
        <time>2012-03-16T10:17:06Z</time>
      </trkpt>
      <trkpt lat="46.1777" lon="6.79362">
        <ele>1924.2160644531</ele>
        <time>2012-03-16T10:17:10Z</time>
      </trkpt>
      <trkpt lat="46.17767" lon="6.7937">
        <ele>1927.5805664062</ele>
        <time>2012-03-16T10:17:12Z</time>
      </trkpt>
      <trkpt lat="46.17763" lon="6.79382">
        <ele>1931.42578125</ele>
        <time>2012-03-16T10:17:15Z</time>
      </trkpt>
      <trkpt lat="46.17757" lon="6.79395">
        <ele>1932.8679199219</ele>
        <time>2012-03-16T10:17:18Z</time>
      </trkpt>
      <trkpt lat="46.17753" lon="6.79407">
        <ele>1936.7131347656</ele>
        <time>2012-03-16T10:17:21Z</time>
      </trkpt>
      <trkpt lat="46.17748" lon="6.79419">
        <ele>1940.0778808594</ele>
        <time>2012-03-16T10:17:24Z</time>
      </trkpt>
      <trkpt lat="46.17742" lon="6.79436">
        <ele>1942.9616699219</ele>
        <time>2012-03-16T10:17:28Z</time>
      </trkpt>
      <trkpt lat="46.17736" lon="6.79453">
        <ele>1946.3264160156</ele>
        <time>2012-03-16T10:17:32Z</time>
      </trkpt>
      <trkpt lat="46.1773" lon="6.79465">
        <ele>1949.6911621094</ele>
        <time>2012-03-16T10:17:35Z</time>
      </trkpt>
      <trkpt lat="46.17723" lon="6.79482">
        <ele>1952.5749511719</ele>
        <time>2012-03-16T10:17:39Z</time>
      </trkpt>
      <trkpt lat="46.17715" lon="6.79503">
        <ele>1955.939453125</ele>
        <time>2012-03-16T10:17:44Z</time>
      </trkpt>
      <trkpt lat="46.17711" lon="6.79516">
        <ele>1959.3041992188</ele>
        <time>2012-03-16T10:17:47Z</time>
      </trkpt>
      <trkpt lat="46.17706" lon="6.79529">
        <ele>1962.6687011719</ele>
        <time>2012-03-16T10:17:50Z</time>
      </trkpt>
      <trkpt lat="46.17699" lon="6.79545">
        <ele>1966.0334472656</ele>
        <time>2012-03-16T10:17:54Z</time>
      </trkpt>
      <trkpt lat="46.17696" lon="6.79553">
        <ele>1967.4753417969</ele>
        <time>2012-03-16T10:17:56Z</time>
      </trkpt>
      <trkpt lat="46.17688" lon="6.79574">
        <ele>1971.8012695312</ele>
        <time>2012-03-16T10:18:01Z</time>
      </trkpt>
      <trkpt lat="46.1768" lon="6.79595">
        <ele>1974.6853027344</ele>
        <time>2012-03-16T10:18:06Z</time>
      </trkpt>
      <trkpt lat="46.17672" lon="6.79616">
        <ele>1978.0498046875</ele>
        <time>2012-03-16T10:18:11Z</time>
      </trkpt>
      <trkpt lat="46.17668" lon="6.79629">
        <ele>1981.8952636719</ele>
        <time>2012-03-16T10:18:14Z</time>
      </trkpt>
      <trkpt lat="46.1766" lon="6.79646">
        <ele>1983.8178710938</ele>
        <time>2012-03-16T10:18:18Z</time>
      </trkpt>
      <trkpt lat="46.17651" lon="6.79672">
        <ele>1986.2211914062</ele>
        <time>2012-03-16T10:18:24Z</time>
      </trkpt>
      <trkpt lat="46.17636" lon="6.79709">
        <ele>1989.1049804688</ele>
        <time>2012-03-16T10:18:33Z</time>
      </trkpt>
      <trkpt lat="46.17633" lon="6.79717">
        <ele>1990.546875</ele>
        <time>2012-03-16T10:18:35Z</time>
      </trkpt>
      <trkpt lat="46.17616" lon="6.7976">
        <ele>1993.4309082031</ele>
        <time>2012-03-16T10:18:45Z</time>
      </trkpt>
      <trkpt lat="46.17607" lon="6.7978">
        <ele>1997.7570800781</ele>
        <time>2012-03-16T10:18:50Z</time>
      </trkpt>
      <trkpt lat="46.17603" lon="6.79793">
        <ele>2001.6022949219</ele>
        <time>2012-03-16T10:18:53Z</time>
      </trkpt>
      <trkpt lat="46.17598" lon="6.79805">
        <ele>2004.966796875</ele>
        <time>2012-03-16T10:18:56Z</time>
      </trkpt>
      <trkpt lat="46.17596" lon="6.79809">
        <ele>2004.966796875</ele>
        <time>2012-03-16T10:18:57Z</time>
      </trkpt>
      <trkpt lat="46.17593" lon="6.79817">
        <ele>2008.8120117188</ele>
        <time>2012-03-16T10:18:59Z</time>
      </trkpt>
      <trkpt lat="46.17592" lon="6.79822">
        <ele>2008.3312988281</ele>
        <time>2012-03-16T10:19:00Z</time>
      </trkpt>
      <trkpt lat="46.17587" lon="6.79834">
        <ele>2011.2153320312</ele>
        <time>2012-03-16T10:19:03Z</time>
      </trkpt>
      <trkpt lat="46.1758" lon="6.79851">
        <ele>2013.1381835938</ele>
        <time>2012-03-16T10:19:07Z</time>
      </trkpt>
      <trkpt lat="46.1757" lon="6.79877">
        <ele>2016.0219726562</ele>
        <time>2012-03-16T10:19:13Z</time>
      </trkpt>
      <trkpt lat="46.17568" lon="6.79881">
        <ele>2015.5415039062</ele>
        <time>2012-03-16T10:19:14Z</time>
      </trkpt>
      <trkpt lat="46.17563" lon="6.79895">
        <ele>2017.9445800781</ele>
        <time>2012-03-16T10:19:17Z</time>
      </trkpt>
      <trkpt lat="46.1755" lon="6.79928">
        <ele>2022.2705078125</ele>
        <time>2012-03-16T10:19:25Z</time>
      </trkpt>
      <trkpt lat="46.17545" lon="6.7994">
        <ele>2025.154296875</ele>
        <time>2012-03-16T10:19:28Z</time>
      </trkpt>
      <trkpt lat="46.17539" lon="6.79957">
        <ele>2029.48046875</ele>
        <time>2012-03-16T10:19:32Z</time>
      </trkpt>
      <trkpt lat="46.17534" lon="6.79969">
        <ele>2030.9226074219</ele>
        <time>2012-03-16T10:19:35Z</time>
      </trkpt>
      <trkpt lat="46.17531" lon="6.79977">
        <ele>2034.7678222656</ele>
        <time>2012-03-16T10:19:37Z</time>
      </trkpt>
      <trkpt lat="46.17528" lon="6.79985">
        <ele>2037.6516113281</ele>
        <time>2012-03-16T10:19:39Z</time>
      </trkpt>
      <trkpt lat="46.17524" lon="6.79998">
        <ele>2041.0161132812</ele>
        <time>2012-03-16T10:19:42Z</time>
      </trkpt>
      <trkpt lat="46.17519" lon="6.8001">
        <ele>2043.4194335938</ele>
        <time>2012-03-16T10:19:45Z</time>
      </trkpt>
      <trkpt lat="46.17513" lon="6.80026">
        <ele>2047.7456054688</ele>
        <time>2012-03-16T10:19:49Z</time>
      </trkpt>
      <trkpt lat="46.17506" lon="6.80042">
        <ele>2052.0712890625</ele>
        <time>2012-03-16T10:19:53Z</time>
      </trkpt>
      <trkpt lat="46.17502" lon="6.80054">
        <ele>2055.9165039062</ele>
        <time>2012-03-16T10:19:56Z</time>
      </trkpt>
      <trkpt lat="46.17497" lon="6.80066">
        <ele>2061.2041015625</ele>
        <time>2012-03-16T10:19:59Z</time>
      </trkpt>
      <trkpt lat="46.17492" lon="6.80078">
        <ele>2064.5686035156</ele>
        <time>2012-03-16T10:20:02Z</time>
      </trkpt>
      <trkpt lat="46.17488" lon="6.8009">
        <ele>2067.4523925781</ele>
        <time>2012-03-16T10:20:05Z</time>
      </trkpt>
      <trkpt lat="46.17483" lon="6.80103">
        <ele>2072.2590332031</ele>
        <time>2012-03-16T10:20:08Z</time>
      </trkpt>
      <trkpt lat="46.17482" lon="6.80107">
        <ele>2072.2590332031</ele>
        <time>2012-03-16T10:20:09Z</time>
      </trkpt>
      <trkpt lat="46.17466" lon="6.80145">
        <ele>2075.6235351562</ele>
        <time>2012-03-16T10:20:18Z</time>
      </trkpt>
      <trkpt lat="46.17465" lon="6.8015">
        <ele>2075.6235351562</ele>
        <time>2012-03-16T10:20:19Z</time>
      </trkpt>
      <trkpt lat="46.17452" lon="6.80184">
        <ele>2078.98828125</ele>
        <time>2012-03-16T10:20:27Z</time>
      </trkpt>
      <trkpt lat="46.17436" lon="6.80222">
        <ele>2082.3530273438</ele>
        <time>2012-03-16T10:20:36Z</time>
      </trkpt>
      <trkpt lat="46.1742" lon="6.80242">
        <ele>2085.2368164062</ele>
        <time>2012-03-16T10:20:45Z</time>
      </trkpt>
      <trkpt lat="46.17419" lon="6.80243">
        <ele>2088.6015625</ele>
        <time>2012-03-16T10:20:47Z</time>
      </trkpt>
      <trkpt lat="46.17419" lon="6.80243">
        <ele>2092.9274902344</ele>
        <time>2012-03-16T10:20:51Z</time>
      </trkpt>
      <trkpt lat="46.17419" lon="6.80243">
        <ele>2096.7727050781</ele>
        <time>2012-03-16T10:20:54Z</time>
      </trkpt>
      <trkpt lat="46.17376" lon="6.80307">
        <ele>2101.5793457031</ele>
        <time>2012-03-16T10:20:57Z</time>
      </trkpt>
      <trkpt lat="46.17376" lon="6.80309">
        <ele>2102.0598144531</ele>
        <time>2012-03-16T10:20:58Z</time>
      </trkpt>
      <trkpt lat="46.17378" lon="6.80326">
        <ele>2105.4245605469</ele>
        <time>2012-03-16T10:21:02Z</time>
      </trkpt>
      <trkpt lat="46.17377" lon="6.80331">
        <ele>2106.8664550781</ele>
        <time>2012-03-16T10:21:04Z</time>
      </trkpt>
      <trkpt lat="46.17375" lon="6.8034">
        <ele>2107.8278808594</ele>
        <time>2012-03-16T10:21:06Z</time>
      </trkpt>
      <trkpt lat="46.17372" lon="6.80358">
        <ele>2111.6733398438</ele>
        <time>2012-03-16T10:21:10Z</time>
      </trkpt>
      <trkpt lat="46.17369" lon="6.80373">
        <ele>2115.5185546875</ele>
        <time>2012-03-16T10:21:14Z</time>
      </trkpt>
      <trkpt lat="46.17371" lon="6.80382">
        <ele>2120.8056640625</ele>
        <time>2012-03-16T10:21:17Z</time>
      </trkpt>
      <trkpt lat="46.17369" lon="6.804">
        <ele>2121.7668457031</ele>
        <time>2012-03-16T10:21:19Z</time>
      </trkpt>
      <trkpt lat="46.17365" lon="6.80412">
        <ele>2128.4963378906</ele>
        <time>2012-03-16T10:21:22Z</time>
      </trkpt>
      <trkpt lat="46.1736" lon="6.80423">
        <ele>2131.8608398438</ele>
        <time>2012-03-16T10:21:25Z</time>
      </trkpt>
      <trkpt lat="46.17357" lon="6.80431">
        <ele>2136.6672363281</ele>
        <time>2012-03-16T10:21:27Z</time>
      </trkpt>
      <trkpt lat="46.17353" lon="6.80442">
        <ele>2140.9934082031</ele>
        <time>2012-03-16T10:21:30Z</time>
      </trkpt>
      <trkpt lat="46.17348" lon="6.80454">
        <ele>2144.8386230469</ele>
        <time>2012-03-16T10:21:33Z</time>
      </trkpt>
      <trkpt lat="46.17345" lon="6.80463">
        <ele>2148.6838378906</ele>
        <time>2012-03-16T10:21:35Z</time>
      </trkpt>
      <trkpt lat="46.17343" lon="6.80489">
        <ele>2149.6452636719</ele>
        <time>2012-03-16T10:21:37Z</time>
      </trkpt>
      <trkpt lat="46.17343" lon="6.8049">
        <ele>2150.1259765625</ele>
        <time>2012-03-16T10:21:38Z</time>
      </trkpt>
      <trkpt lat="46.17342" lon="6.80491">
        <ele>2149.6452636719</ele>
        <time>2012-03-16T10:21:51Z</time>
      </trkpt>
      <trkpt lat="46.17342" lon="6.80491">
        <ele>2149.1645507812</ele>
        <time>2012-03-16T10:22:11Z</time>
      </trkpt>
      <trkpt lat="46.17321" lon="6.80443">
        <ele>2143.8774414062</ele>
        <time>2012-03-16T10:22:19Z</time>
      </trkpt>
      <trkpt lat="46.17318" lon="6.8044">
        <ele>2144.8386230469</ele>
        <time>2012-03-16T10:22:25Z</time>
      </trkpt>
      <trkpt lat="46.17311" lon="6.80434">
        <ele>2142.916015625</ele>
        <time>2012-03-16T10:22:50Z</time>
      </trkpt>
      <trkpt lat="46.17322" lon="6.80385">
        <ele>2138.5900878906</ele>
        <time>2012-03-16T10:22:54Z</time>
      </trkpt>
      <trkpt lat="46.17293" lon="6.80414">
        <ele>2136.1867675781</ele>
        <time>2012-03-16T10:22:55Z</time>
      </trkpt>
      <trkpt lat="46.17369" lon="6.80371">
        <ele>2132.3415527344</ele>
        <time>2012-03-16T10:22:57Z</time>
      </trkpt>
      <trkpt lat="46.17371" lon="6.80362">
        <ele>2131.8608398438</ele>
        <time>2012-03-16T10:22:58Z</time>
      </trkpt>
      <trkpt lat="46.17374" lon="6.80349">
        <ele>2127.5349121094</ele>
        <time>2012-03-16T10:22:59Z</time>
      </trkpt>
      <trkpt lat="46.17377" lon="6.80317">
        <ele>2125.6123046875</ele>
        <time>2012-03-16T10:23:00Z</time>
      </trkpt>
      <trkpt lat="46.17369" lon="6.8028">
        <ele>2110.7119140625</ele>
        <time>2012-03-16T10:23:03Z</time>
      </trkpt>
      <trkpt lat="46.17366" lon="6.80267">
        <ele>2105.4245605469</ele>
        <time>2012-03-16T10:23:04Z</time>
      </trkpt>
      <trkpt lat="46.17374" lon="6.8022">
        <ele>2100.6179199219</ele>
        <time>2012-03-16T10:23:06Z</time>
      </trkpt>
      <trkpt lat="46.17378" lon="6.80201">
        <ele>2096.7727050781</ele>
        <time>2012-03-16T10:23:07Z</time>
      </trkpt>
      <trkpt lat="46.17389" lon="6.80208">
        <ele>2092.9274902344</ele>
        <time>2012-03-16T10:23:09Z</time>
      </trkpt>
      <trkpt lat="46.17466" lon="6.8015">
        <ele>2088.1208496094</ele>
        <time>2012-03-16T10:23:10Z</time>
      </trkpt>
      <trkpt lat="46.17466" lon="6.8015">
        <ele>2083.794921875</ele>
        <time>2012-03-16T10:23:12Z</time>
      </trkpt>
      <trkpt lat="46.17432" lon="6.80109">
        <ele>2080.9111328125</ele>
        <time>2012-03-16T10:23:13Z</time>
      </trkpt>
      <trkpt lat="46.17463" lon="6.80048">
        <ele>2074.6623535156</ele>
        <time>2012-03-16T10:23:19Z</time>
      </trkpt>
      <trkpt lat="46.17474" lon="6.80024">
        <ele>2062.1652832031</ele>
        <time>2012-03-16T10:23:21Z</time>
      </trkpt>
      <trkpt lat="46.1748" lon="6.80008">
        <ele>2058.3198242188</ele>
        <time>2012-03-16T10:23:22Z</time>
      </trkpt>
      <trkpt lat="46.17488" lon="6.79992">
        <ele>2051.1101074219</ele>
        <time>2012-03-16T10:23:23Z</time>
      </trkpt>
      <trkpt lat="46.17511" lon="6.79958">
        <ele>2038.1323242188</ele>
        <time>2012-03-16T10:23:25Z</time>
      </trkpt>
      <trkpt lat="46.17522" lon="6.79938">
        <ele>2028.5192871094</ele>
        <time>2012-03-16T10:23:26Z</time>
      </trkpt>
      <trkpt lat="46.17533" lon="6.79915">
        <ele>2020.3479003906</ele>
        <time>2012-03-16T10:23:27Z</time>
      </trkpt>
      <trkpt lat="46.17543" lon="6.7989">
        <ele>2013.6186523438</ele>
        <time>2012-03-16T10:23:28Z</time>
      </trkpt>
      <trkpt lat="46.17558" lon="6.7979">
        <ele>2004.4860839844</ele>
        <time>2012-03-16T10:23:32Z</time>
      </trkpt>
      <trkpt lat="46.17574" lon="6.79748">
        <ele>1999.1989746094</ele>
        <time>2012-03-16T10:23:35Z</time>
      </trkpt>
      <trkpt lat="46.17584" lon="6.79722">
        <ele>1994.3920898438</ele>
        <time>2012-03-16T10:23:37Z</time>
      </trkpt>
      <trkpt lat="46.17599" lon="6.79711">
        <ele>1991.5083007812</ele>
        <time>2012-03-16T10:23:40Z</time>
      </trkpt>
      <trkpt lat="46.17605" lon="6.79711">
        <ele>1991.9890136719</ele>
        <time>2012-03-16T10:23:47Z</time>
      </trkpt>
      <trkpt lat="46.17604" lon="6.79711">
        <ele>1991.0275878906</ele>
        <time>2012-03-16T10:24:13Z</time>
      </trkpt>
      <trkpt lat="46.17603" lon="6.7971">
        <ele>1991.9890136719</ele>
        <time>2012-03-16T10:24:16Z</time>
      </trkpt>
      <trkpt lat="46.176" lon="6.79696">
        <ele>1986.2211914062</ele>
        <time>2012-03-16T10:24:19Z</time>
      </trkpt>
      <trkpt lat="46.17602" lon="6.79686">
        <ele>1984.779296875</ele>
        <time>2012-03-16T10:24:20Z</time>
      </trkpt>
      <trkpt lat="46.17612" lon="6.7966">
        <ele>1979.4916992188</ele>
        <time>2012-03-16T10:24:22Z</time>
      </trkpt>
      <trkpt lat="46.17619" lon="6.79647">
        <ele>1975.646484375</ele>
        <time>2012-03-16T10:24:23Z</time>
      </trkpt>
      <trkpt lat="46.1762" lon="6.79598">
        <ele>1966.5141601562</ele>
        <time>2012-03-16T10:24:26Z</time>
      </trkpt>
      <trkpt lat="46.176" lon="6.79581">
        <ele>1960.74609375</ele>
        <time>2012-03-16T10:24:28Z</time>
      </trkpt>
      <trkpt lat="46.1758" lon="6.79587">
        <ele>1958.8234863281</ele>
        <time>2012-03-16T10:24:30Z</time>
      </trkpt>
      <trkpt lat="46.17557" lon="6.79591">
        <ele>1950.171875</ele>
        <time>2012-03-16T10:24:32Z</time>
      </trkpt>
      <trkpt lat="46.17545" lon="6.79593">
        <ele>1946.8068847656</ele>
        <time>2012-03-16T10:24:33Z</time>
      </trkpt>
      <trkpt lat="46.17522" lon="6.79587">
        <ele>1942.9616699219</ele>
        <time>2012-03-16T10:24:35Z</time>
      </trkpt>
      <trkpt lat="46.17516" lon="6.79573">
        <ele>1936.2326660156</ele>
        <time>2012-03-16T10:24:36Z</time>
      </trkpt>
      <trkpt lat="46.17512" lon="6.79555">
        <ele>1931.42578125</ele>
        <time>2012-03-16T10:24:37Z</time>
      </trkpt>
      <trkpt lat="46.17513" lon="6.7954">
        <ele>1928.0612792969</ele>
        <time>2012-03-16T10:24:38Z</time>
      </trkpt>
      <trkpt lat="46.17535" lon="6.79497">
        <ele>1923.2548828125</ele>
        <time>2012-03-16T10:24:41Z</time>
      </trkpt>
      <trkpt lat="46.17542" lon="6.79482">
        <ele>1922.2934570312</ele>
        <time>2012-03-16T10:24:42Z</time>
      </trkpt>
      <trkpt lat="46.17569" lon="6.79422">
        <ele>1915.0834960938</ele>
        <time>2012-03-16T10:24:46Z</time>
      </trkpt>
      <trkpt lat="46.17575" lon="6.79407">
        <ele>1911.7189941406</ele>
        <time>2012-03-16T10:24:47Z</time>
      </trkpt>
      <trkpt lat="46.17584" lon="6.79396">
        <ele>1908.8349609375</ele>
        <time>2012-03-16T10:24:48Z</time>
      </trkpt>
      <trkpt lat="46.17616" lon="6.79349">
        <ele>1903.0671386719</ele>
        <time>2012-03-16T10:24:52Z</time>
      </trkpt>
      <trkpt lat="46.17631" lon="6.79281">
        <ele>1903.0671386719</ele>
        <time>2012-03-16T10:24:56Z</time>
      </trkpt>
      <trkpt lat="46.17638" lon="6.79267">
        <ele>1880.4760742188</ele>
        <time>2012-03-16T10:24:57Z</time>
      </trkpt>
      <trkpt lat="46.17654" lon="6.79224">
        <ele>1872.7856445312</ele>
        <time>2012-03-16T10:24:59Z</time>
      </trkpt>
      <trkpt lat="46.17678" lon="6.79213">
        <ele>1863.1723632812</ele>
        <time>2012-03-16T10:25:01Z</time>
      </trkpt>
      <trkpt lat="46.1769" lon="6.79208">
        <ele>1863.1723632812</ele>
        <time>2012-03-16T10:25:02Z</time>
      </trkpt>
      <trkpt lat="46.17713" lon="6.79196">
        <ele>1861.2497558594</ele>
        <time>2012-03-16T10:25:04Z</time>
      </trkpt>
      <trkpt lat="46.17738" lon="6.79179">
        <ele>1858.3657226562</ele>
        <time>2012-03-16T10:25:06Z</time>
      </trkpt>
      <trkpt lat="46.17778" lon="6.79138">
        <ele>1853.5593261719</ele>
        <time>2012-03-16T10:25:10Z</time>
      </trkpt>
      <trkpt lat="46.17798" lon="6.79114">
        <ele>1850.1945800781</ele>
        <time>2012-03-16T10:25:15Z</time>
      </trkpt>
      <trkpt lat="46.17817" lon="6.79037">
        <ele>1847.310546875</ele>
        <time>2012-03-16T10:25:17Z</time>
      </trkpt>
      <trkpt lat="46.17833" lon="6.78997">
        <ele>1842.5041503906</ele>
        <time>2012-03-16T10:25:20Z</time>
      </trkpt>
      <trkpt lat="46.17848" lon="6.78973">
        <ele>1835.2939453125</ele>
        <time>2012-03-16T10:25:22Z</time>
      </trkpt>
      <trkpt lat="46.17864" lon="6.78949">
        <ele>1828.0842285156</ele>
        <time>2012-03-16T10:25:24Z</time>
      </trkpt>
      <trkpt lat="46.17873" lon="6.78938">
        <ele>1824.7197265625</ele>
        <time>2012-03-16T10:25:25Z</time>
      </trkpt>
      <trkpt lat="46.17881" lon="6.78924">
        <ele>1818.4709472656</ele>
        <time>2012-03-16T10:25:26Z</time>
      </trkpt>
      <trkpt lat="46.1789" lon="6.7891">
        <ele>1813.1838378906</ele>
        <time>2012-03-16T10:25:27Z</time>
      </trkpt>
      <trkpt lat="46.179" lon="6.78894">
        <ele>1809.8190917969</ele>
        <time>2012-03-16T10:25:28Z</time>
      </trkpt>
      <trkpt lat="46.17915" lon="6.78855">
        <ele>1811.2612304688</ele>
        <time>2012-03-16T10:25:31Z</time>
      </trkpt>
      <trkpt lat="46.1791" lon="6.78845">
        <ele>1811.7419433594</ele>
        <time>2012-03-16T10:25:35Z</time>
      </trkpt>
      <trkpt lat="46.17903" lon="6.78833">
        <ele>1811.7419433594</ele>
        <time>2012-03-16T10:25:50Z</time>
      </trkpt>
      <trkpt lat="46.179" lon="6.78831">
        <ele>1811.7419433594</ele>
        <time>2012-03-16T10:26:06Z</time>
      </trkpt>
      <trkpt lat="46.17896" lon="6.78832">
        <ele>1811.7419433594</ele>
        <time>2012-03-16T10:26:27Z</time>
      </trkpt>
      <trkpt lat="46.17892" lon="6.78833">
        <ele>1812.2224121094</ele>
        <time>2012-03-16T10:26:48Z</time>
      </trkpt>
      <trkpt lat="46.17885" lon="6.78831">
        <ele>1810.2998046875</ele>
        <time>2012-03-16T10:27:04Z</time>
      </trkpt>
      <trkpt lat="46.17873" lon="6.78834">
        <ele>1810.2998046875</ele>
        <time>2012-03-16T10:27:08Z</time>
      </trkpt>
      <trkpt lat="46.17856" lon="6.78845">
        <ele>1815.5871582031</ele>
        <time>2012-03-16T10:27:12Z</time>
      </trkpt>
      <trkpt lat="46.17848" lon="6.7885">
        <ele>1820.3937988281</ele>
        <time>2012-03-16T10:27:14Z</time>
      </trkpt>
      <trkpt lat="46.17845" lon="6.78853">
        <ele>1823.2778320312</ele>
        <time>2012-03-16T10:27:15Z</time>
      </trkpt>
      <trkpt lat="46.17833" lon="6.78857">
        <ele>1830.9682617188</ele>
        <time>2012-03-16T10:27:18Z</time>
      </trkpt>
      <trkpt lat="46.1783" lon="6.78859">
        <ele>1834.3327636719</ele>
        <time>2012-03-16T10:27:19Z</time>
      </trkpt>
      <trkpt lat="46.17822" lon="6.78862">
        <ele>1840.1008300781</ele>
        <time>2012-03-16T10:27:21Z</time>
      </trkpt>
      <trkpt lat="46.17819" lon="6.78863">
        <ele>1843.4653320312</ele>
        <time>2012-03-16T10:27:22Z</time>
      </trkpt>
      <trkpt lat="46.17811" lon="6.78866">
        <ele>1846.8298339844</ele>
        <time>2012-03-16T10:27:24Z</time>
      </trkpt>
      <trkpt lat="46.17802" lon="6.78869">
        <ele>1850.1945800781</ele>
        <time>2012-03-16T10:27:26Z</time>
      </trkpt>
      <trkpt lat="46.17789" lon="6.78875">
        <ele>1853.5593261719</ele>
        <time>2012-03-16T10:27:29Z</time>
      </trkpt>
      <trkpt lat="46.17776" lon="6.7888">
        <ele>1857.4045410156</ele>
        <time>2012-03-16T10:27:32Z</time>
      </trkpt>
      <trkpt lat="46.17768" lon="6.78883">
        <ele>1860.2883300781</ele>
        <time>2012-03-16T10:27:34Z</time>
      </trkpt>
      <trkpt lat="46.17759" lon="6.78887">
        <ele>1863.6528320312</ele>
        <time>2012-03-16T10:27:36Z</time>
      </trkpt>
      <trkpt lat="46.17751" lon="6.7889">
        <ele>1867.017578125</ele>
        <time>2012-03-16T10:27:38Z</time>
      </trkpt>
      <trkpt lat="46.17738" lon="6.78896">
        <ele>1869.9016113281</ele>
        <time>2012-03-16T10:27:41Z</time>
      </trkpt>
      <trkpt lat="46.17721" lon="6.78903">
        <ele>1873.7468261719</ele>
        <time>2012-03-16T10:27:45Z</time>
      </trkpt>
      <trkpt lat="46.17708" lon="6.78908">
        <ele>1878.0727539062</ele>
        <time>2012-03-16T10:27:48Z</time>
      </trkpt>
      <trkpt lat="46.17695" lon="6.78913">
        <ele>1882.3986816406</ele>
        <time>2012-03-16T10:27:51Z</time>
      </trkpt>
      <trkpt lat="46.17665" lon="6.78925">
        <ele>1885.7634277344</ele>
        <time>2012-03-16T10:27:58Z</time>
      </trkpt>
      <trkpt lat="46.17622" lon="6.78942">
        <ele>1889.6086425781</ele>
        <time>2012-03-16T10:28:09Z</time>
      </trkpt>
      <trkpt lat="46.17619" lon="6.78943">
        <ele>1889.6086425781</ele>
        <time>2012-03-16T10:28:10Z</time>
      </trkpt>
      <trkpt lat="46.17614" lon="6.78944">
        <ele>1892.9731445312</ele>
        <time>2012-03-16T10:28:12Z</time>
      </trkpt>
      <trkpt lat="46.17611" lon="6.78946">
        <ele>1892.9731445312</ele>
        <time>2012-03-16T10:28:13Z</time>
      </trkpt>
      <trkpt lat="46.17604" lon="6.78948">
        <ele>1897.2990722656</ele>
        <time>2012-03-16T10:28:16Z</time>
      </trkpt>
      <trkpt lat="46.17601" lon="6.78949">
        <ele>1894.8957519531</ele>
        <time>2012-03-16T10:28:17Z</time>
      </trkpt>
      <trkpt lat="46.1759" lon="6.78953">
        <ele>1898.7409667969</ele>
        <time>2012-03-16T10:28:21Z</time>
      </trkpt>
      <trkpt lat="46.17578" lon="6.78958">
        <ele>1902.1057128906</ele>
        <time>2012-03-16T10:28:25Z</time>
      </trkpt>
      <trkpt lat="46.17524" lon="6.78981">
        <ele>1905.9509277344</ele>
        <time>2012-03-16T10:28:38Z</time>
      </trkpt>
      <trkpt lat="46.1752" lon="6.78982">
        <ele>1905.4704589844</ele>
        <time>2012-03-16T10:28:39Z</time>
      </trkpt>
      <trkpt lat="46.17493" lon="6.78993">
        <ele>1908.8349609375</ele>
        <time>2012-03-16T10:28:45Z</time>
      </trkpt>
      <trkpt lat="46.17472" lon="6.79001">
        <ele>1913.1608886719</ele>
        <time>2012-03-16T10:28:50Z</time>
      </trkpt>
      <trkpt lat="46.17459" lon="6.79007">
        <ele>1915.0834960938</ele>
        <time>2012-03-16T10:28:53Z</time>
      </trkpt>
      <trkpt lat="46.17442" lon="6.79013">
        <ele>1918.4482421875</ele>
        <time>2012-03-16T10:28:57Z</time>
      </trkpt>
      <trkpt lat="46.17429" lon="6.79018">
        <ele>1924.2160644531</ele>
        <time>2012-03-16T10:29:00Z</time>
      </trkpt>
      <trkpt lat="46.17411" lon="6.79025">
        <ele>1927.1000976562</ele>
        <time>2012-03-16T10:29:04Z</time>
      </trkpt>
      <trkpt lat="46.17407" lon="6.79027">
        <ele>1927.5805664062</ele>
        <time>2012-03-16T10:29:05Z</time>
      </trkpt>
      <trkpt lat="46.17395" lon="6.79032">
        <ele>1930.9453125</ele>
        <time>2012-03-16T10:29:08Z</time>
      </trkpt>
      <trkpt lat="46.17386" lon="6.79035">
        <ele>1935.2712402344</ele>
        <time>2012-03-16T10:29:10Z</time>
      </trkpt>
      <trkpt lat="46.17382" lon="6.79037">
        <ele>1935.2712402344</ele>
        <time>2012-03-16T10:29:11Z</time>
      </trkpt>
      <trkpt lat="46.17369" lon="6.79042">
        <ele>1939.5971679688</ele>
        <time>2012-03-16T10:29:14Z</time>
      </trkpt>
      <trkpt lat="46.17361" lon="6.79045">
        <ele>1943.9230957031</ele>
        <time>2012-03-16T10:29:16Z</time>
      </trkpt>
      <trkpt lat="46.17349" lon="6.7905">
        <ele>1947.7683105469</ele>
        <time>2012-03-16T10:29:19Z</time>
      </trkpt>
      <trkpt lat="46.17328" lon="6.79059">
        <ele>1954.4975585938</ele>
        <time>2012-03-16T10:29:24Z</time>
      </trkpt>
      <trkpt lat="46.17319" lon="6.79062">
        <ele>1957.3815917969</ele>
        <time>2012-03-16T10:29:26Z</time>
      </trkpt>
      <trkpt lat="46.17306" lon="6.79067">
        <ele>1960.74609375</ele>
        <time>2012-03-16T10:29:29Z</time>
      </trkpt>
      <trkpt lat="46.17297" lon="6.79072">
        <ele>1964.5915527344</ele>
        <time>2012-03-16T10:29:31Z</time>
      </trkpt>
      <trkpt lat="46.17289" lon="6.79075">
        <ele>1969.3981933594</ele>
        <time>2012-03-16T10:29:33Z</time>
      </trkpt>
      <trkpt lat="46.17228" lon="6.7912">
        <ele>1973.2434082031</ele>
        <time>2012-03-16T10:29:38Z</time>
      </trkpt>
      <trkpt lat="46.17228" lon="6.7912">
        <ele>1977.0886230469</ele>
        <time>2012-03-16T10:29:40Z</time>
      </trkpt>
      <trkpt lat="46.17228" lon="6.7912">
        <ele>1980.4533691406</ele>
        <time>2012-03-16T10:29:43Z</time>
      </trkpt>
      <trkpt lat="46.17228" lon="6.7912">
        <ele>1984.779296875</ele>
        <time>2012-03-16T10:29:45Z</time>
      </trkpt>
      <trkpt lat="46.17228" lon="6.7912">
        <ele>1988.1437988281</ele>
        <time>2012-03-16T10:29:48Z</time>
      </trkpt>
      <trkpt lat="46.17228" lon="6.7912">
        <ele>1991.0275878906</ele>
        <time>2012-03-16T10:29:50Z</time>
      </trkpt>
      <trkpt lat="46.17194" lon="6.79135">
        <ele>1996.3151855469</ele>
        <time>2012-03-16T10:29:53Z</time>
      </trkpt>
      <trkpt lat="46.17184" lon="6.79127">
        <ele>2000.6408691406</ele>
        <time>2012-03-16T10:29:57Z</time>
      </trkpt>
      <trkpt lat="46.17177" lon="6.79125">
        <ele>2004.0056152344</ele>
        <time>2012-03-16T10:29:59Z</time>
      </trkpt>
      <trkpt lat="46.17173" lon="6.79125">
        <ele>2004.0056152344</ele>
        <time>2012-03-16T10:30:00Z</time>
      </trkpt>
      <trkpt lat="46.17163" lon="6.79133">
        <ele>2006.8894042969</ele>
        <time>2012-03-16T10:30:03Z</time>
      </trkpt>
      <trkpt lat="46.17156" lon="6.79144">
        <ele>2010.7346191406</ele>
        <time>2012-03-16T10:30:06Z</time>
      </trkpt>
      <trkpt lat="46.1715" lon="6.79152">
        <ele>2014.580078125</ele>
        <time>2012-03-16T10:30:08Z</time>
      </trkpt>
      <trkpt lat="46.17127" lon="6.79156">
        <ele>2018.9060058594</ele>
        <time>2012-03-16T10:30:11Z</time>
      </trkpt>
      <trkpt lat="46.1712" lon="6.79154">
        <ele>2022.2705078125</ele>
        <time>2012-03-16T10:30:13Z</time>
      </trkpt>
      <trkpt lat="46.17109" lon="6.79147">
        <ele>2025.154296875</ele>
        <time>2012-03-16T10:30:16Z</time>
      </trkpt>
      <trkpt lat="46.17099" lon="6.7914">
        <ele>2028.0385742188</ele>
        <time>2012-03-16T10:30:19Z</time>
      </trkpt>
      <trkpt lat="46.17089" lon="6.79133">
        <ele>2032.3645019531</ele>
        <time>2012-03-16T10:30:22Z</time>
      </trkpt>
      <trkpt lat="46.17065" lon="6.79128">
        <ele>2036.6901855469</ele>
        <time>2012-03-16T10:30:25Z</time>
      </trkpt>
      <trkpt lat="46.1706" lon="6.79129">
        <ele>2036.6901855469</ele>
        <time>2012-03-16T10:30:26Z</time>
      </trkpt>
      <trkpt lat="46.17047" lon="6.79131">
        <ele>2040.0549316406</ele>
        <time>2012-03-16T10:30:29Z</time>
      </trkpt>
      <trkpt lat="46.1703" lon="6.79133">
        <ele>2044.8615722656</ele>
        <time>2012-03-16T10:30:33Z</time>
      </trkpt>
      <trkpt lat="46.17018" lon="6.79134">
        <ele>2050.6293945312</ele>
        <time>2012-03-16T10:30:36Z</time>
      </trkpt>
      <trkpt lat="46.17013" lon="6.79135">
        <ele>2054.9553222656</ele>
        <time>2012-03-16T10:30:37Z</time>
      </trkpt>
      <trkpt lat="46.17001" lon="6.79137">
        <ele>2057.8393554688</ele>
        <time>2012-03-16T10:30:40Z</time>
      </trkpt>
      <trkpt lat="46.16968" lon="6.79154">
        <ele>2061.2041015625</ele>
        <time>2012-03-16T10:30:44Z</time>
      </trkpt>
      <trkpt lat="46.16968" lon="6.79155">
        <ele>2064.087890625</ele>
        <time>2012-03-16T10:30:47Z</time>
      </trkpt>
      <trkpt lat="46.16955" lon="6.79158">
        <ele>2068.4138183594</ele>
        <time>2012-03-16T10:30:50Z</time>
      </trkpt>
      <trkpt lat="46.16942" lon="6.79162">
        <ele>2073.7009277344</ele>
        <time>2012-03-16T10:30:53Z</time>
      </trkpt>
      <trkpt lat="46.16935" lon="6.79163">
        <ele>2076.5852050781</ele>
        <time>2012-03-16T10:30:55Z</time>
      </trkpt>
      <trkpt lat="46.16913" lon="6.79176">
        <ele>2079.4689941406</ele>
        <time>2012-03-16T10:30:59Z</time>
      </trkpt>
      <trkpt lat="46.16904" lon="6.79189">
        <ele>2082.3530273438</ele>
        <time>2012-03-16T10:31:02Z</time>
      </trkpt>
      <trkpt lat="46.16896" lon="6.79196">
        <ele>2085.7175292969</ele>
        <time>2012-03-16T10:31:04Z</time>
      </trkpt>
      <trkpt lat="46.16882" lon="6.79203">
        <ele>2089.08203125</ele>
        <time>2012-03-16T10:31:07Z</time>
      </trkpt>
      <trkpt lat="46.16874" lon="6.79205">
        <ele>2092.4470214844</ele>
        <time>2012-03-16T10:31:09Z</time>
      </trkpt>
      <trkpt lat="46.16863" lon="6.79208">
        <ele>2096.2922363281</ele>
        <time>2012-03-16T10:31:12Z</time>
      </trkpt>
      <trkpt lat="46.16851" lon="6.79211">
        <ele>2101.0986328125</ele>
        <time>2012-03-16T10:31:15Z</time>
      </trkpt>
      <trkpt lat="46.16846" lon="6.79212">
        <ele>2101.0986328125</ele>
        <time>2012-03-16T10:31:16Z</time>
      </trkpt>
      <trkpt lat="46.16834" lon="6.7922">
        <ele>2104.4631347656</ele>
        <time>2012-03-16T10:31:19Z</time>
      </trkpt>
      <trkpt lat="46.16821" lon="6.79225">
        <ele>2107.3471679688</ele>
        <time>2012-03-16T10:31:22Z</time>
      </trkpt>
      <trkpt lat="46.16813" lon="6.79226">
        <ele>2112.6345214844</ele>
        <time>2012-03-16T10:31:24Z</time>
      </trkpt>
      <trkpt lat="46.16796" lon="6.79232">
        <ele>2118.40234375</ele>
        <time>2012-03-16T10:31:28Z</time>
      </trkpt>
      <trkpt lat="46.16788" lon="6.79235">
        <ele>2119.8442382812</ele>
        <time>2012-03-16T10:31:30Z</time>
      </trkpt>
      <trkpt lat="46.1678" lon="6.79233">
        <ele>2124.1704101562</ele>
        <time>2012-03-16T10:31:33Z</time>
      </trkpt>
      <trkpt lat="46.16776" lon="6.79229">
        <ele>2127.5349121094</ele>
        <time>2012-03-16T10:31:35Z</time>
      </trkpt>
      <trkpt lat="46.16761" lon="6.79282">
        <ele>2131.8608398438</ele>
        <time>2012-03-16T10:31:38Z</time>
      </trkpt>
      <trkpt lat="46.16752" lon="6.79285">
        <ele>2135.7060546875</ele>
        <time>2012-03-16T10:31:40Z</time>
      </trkpt>
      <trkpt lat="46.16737" lon="6.79204">
        <ele>2140.9934082031</ele>
        <time>2012-03-16T10:31:43Z</time>
      </trkpt>
      <trkpt lat="46.16732" lon="6.79204">
        <ele>2140.5126953125</ele>
        <time>2012-03-16T10:31:44Z</time>
      </trkpt>
      <trkpt lat="46.16685" lon="6.79322">
        <ele>2144.8386230469</ele>
        <time>2012-03-16T10:31:47Z</time>
      </trkpt>
      <trkpt lat="46.16685" lon="6.79322">
        <ele>2148.6838378906</ele>
        <time>2012-03-16T10:31:48Z</time>
      </trkpt>
      <trkpt lat="46.16685" lon="6.79322">
        <ele>2153.009765625</ele>
        <time>2012-03-16T10:31:51Z</time>
      </trkpt>
      <trkpt lat="46.16681" lon="6.79318">
        <ele>2155.4130859375</ele>
        <time>2012-03-16T10:31:53Z</time>
      </trkpt>
      <trkpt lat="46.16675" lon="6.79312">
        <ele>2158.7778320312</ele>
        <time>2012-03-16T10:31:56Z</time>
      </trkpt>
      <trkpt lat="46.1667" lon="6.79307">
        <ele>2163.1037597656</ele>
        <time>2012-03-16T10:31:59Z</time>
      </trkpt>
      <trkpt lat="46.16665" lon="6.79301">
        <ele>2168.3908691406</ele>
        <time>2012-03-16T10:32:02Z</time>
      </trkpt>
      <trkpt lat="46.16663" lon="6.79299">
        <ele>2172.236328125</ele>
        <time>2012-03-16T10:32:03Z</time>
      </trkpt>
      <trkpt lat="46.16599" lon="6.79301">
        <ele>2177.5234375</ele>
        <time>2012-03-16T10:32:06Z</time>
      </trkpt>
      <trkpt lat="46.16599" lon="6.79301">
        <ele>2180.8881835938</ele>
        <time>2012-03-16T10:32:08Z</time>
      </trkpt>
      <trkpt lat="46.16599" lon="6.79301">
        <ele>2185.2138671875</ele>
        <time>2012-03-16T10:32:10Z</time>
      </trkpt>
      <trkpt lat="46.16599" lon="6.79301">
        <ele>2189.5400390625</ele>
        <time>2012-03-16T10:32:12Z</time>
      </trkpt>
      <trkpt lat="46.16593" lon="6.79308">
        <ele>2194.3464355469</ele>
        <time>2012-03-16T10:32:15Z</time>
      </trkpt>
      <trkpt lat="46.16582" lon="6.7932">
        <ele>2197.7111816406</ele>
        <time>2012-03-16T10:32:19Z</time>
      </trkpt>
      <trkpt lat="46.16574" lon="6.79324">
        <ele>2202.0368652344</ele>
        <time>2012-03-16T10:32:21Z</time>
      </trkpt>
      <trkpt lat="46.16569" lon="6.79323">
        <ele>2205.4018554688</ele>
        <time>2012-03-16T10:32:23Z</time>
      </trkpt>
      <trkpt lat="46.16566" lon="6.79321">
        <ele>2205.4018554688</ele>
        <time>2012-03-16T10:32:24Z</time>
      </trkpt>
      <trkpt lat="46.16557" lon="6.79318">
        <ele>2209.2470703125</ele>
        <time>2012-03-16T10:32:27Z</time>
      </trkpt>
      <trkpt lat="46.16552" lon="6.79316">
        <ele>2214.5341796875</ele>
        <time>2012-03-16T10:32:29Z</time>
      </trkpt>
      <trkpt lat="46.16547" lon="6.79311">
        <ele>2218.3793945312</ele>
        <time>2012-03-16T10:32:33Z</time>
      </trkpt>
      <trkpt lat="46.16541" lon="6.79305">
        <ele>2221.2634277344</ele>
        <time>2012-03-16T10:32:38Z</time>
      </trkpt>
      <trkpt lat="46.1654" lon="6.79303">
        <ele>2218.3793945312</ele>
        <time>2012-03-16T10:32:40Z</time>
      </trkpt>
      <trkpt lat="46.16537" lon="6.79301">
        <ele>2218.8601074219</ele>
        <time>2012-03-16T10:32:45Z</time>
      </trkpt>
      <trkpt lat="46.16537" lon="6.79301">
        <ele>2217.8986816406</ele>
        <time>2012-03-16T10:33:02Z</time>
      </trkpt>
      <trkpt lat="46.16537" lon="6.79301">
        <ele>2217.8986816406</ele>
        <time>2012-03-16T10:33:26Z</time>
      </trkpt>
      <trkpt lat="46.16517" lon="6.79279">
        <ele>2217.8986816406</ele>
        <time>2012-03-16T10:33:48Z</time>
      </trkpt>
      <trkpt lat="46.16494" lon="6.7925">
        <ele>2214.5341796875</ele>
        <time>2012-03-16T10:34:03Z</time>
      </trkpt>
      <trkpt lat="46.16485" lon="6.79213">
        <ele>2213.5727539062</ele>
        <time>2012-03-16T10:34:20Z</time>
      </trkpt>
      <trkpt lat="46.16493" lon="6.7914">
        <ele>2211.650390625</ele>
        <time>2012-03-16T10:34:40Z</time>
      </trkpt>
      <trkpt lat="46.16499" lon="6.79125">
        <ele>2209.7275390625</ele>
        <time>2012-03-16T10:34:43Z</time>
      </trkpt>
      <trkpt lat="46.16513" lon="6.79087">
        <ele>2207.3244628906</ele>
        <time>2012-03-16T10:34:50Z</time>
      </trkpt>
      <trkpt lat="46.16535" lon="6.79056">
        <ele>2206.3630371094</ele>
        <time>2012-03-16T10:35:00Z</time>
      </trkpt>
      <trkpt lat="46.16549" lon="6.79041">
        <ele>2202.9982910156</ele>
        <time>2012-03-16T10:35:03Z</time>
      </trkpt>
      <trkpt lat="46.16559" lon="6.7903">
        <ele>2199.6337890625</ele>
        <time>2012-03-16T10:35:05Z</time>
      </trkpt>
      <trkpt lat="46.16589" lon="6.78996">
        <ele>2196.2692871094</ele>
        <time>2012-03-16T10:35:11Z</time>
      </trkpt>
      <trkpt lat="46.1663" lon="6.78956">
        <ele>2193.3852539062</ele>
        <time>2012-03-16T10:35:19Z</time>
      </trkpt>
      <trkpt lat="46.16664" lon="6.78924">
        <ele>2189.0593261719</ele>
        <time>2012-03-16T10:35:25Z</time>
      </trkpt>
      <trkpt lat="46.16686" lon="6.7891">
        <ele>2185.6945800781</ele>
        <time>2012-03-16T10:35:28Z</time>
      </trkpt>
      <trkpt lat="46.16701" lon="6.78901">
        <ele>2182.330078125</ele>
        <time>2012-03-16T10:35:30Z</time>
      </trkpt>
      <trkpt lat="46.16729" lon="6.78881">
        <ele>2183.2912597656</ele>
        <time>2012-03-16T10:35:38Z</time>
      </trkpt>
      <trkpt lat="46.16729" lon="6.78881">
        <ele>2182.810546875</ele>
        <time>2012-03-16T10:35:41Z</time>
      </trkpt>
      <trkpt lat="46.1674" lon="6.78907">
        <ele>2176.5622558594</ele>
        <time>2012-03-16T10:35:45Z</time>
      </trkpt>
      <trkpt lat="46.16752" lon="6.78944">
        <ele>2163.5842285156</ele>
        <time>2012-03-16T10:35:47Z</time>
      </trkpt>
      <trkpt lat="46.1676" lon="6.78965">
        <ele>2158.2971191406</ele>
        <time>2012-03-16T10:35:48Z</time>
      </trkpt>
      <trkpt lat="46.16768" lon="6.78983">
        <ele>2145.8000488281</ele>
        <time>2012-03-16T10:35:49Z</time>
      </trkpt>
      <trkpt lat="46.16794" lon="6.78988">
        <ele>2139.5512695312</ele>
        <time>2012-03-16T10:35:51Z</time>
      </trkpt>
      <trkpt lat="46.16819" lon="6.78981">
        <ele>2133.7834472656</ele>
        <time>2012-03-16T10:35:53Z</time>
      </trkpt>
      <trkpt lat="46.16831" lon="6.78976">
        <ele>2130.8996582031</ele>
        <time>2012-03-16T10:35:54Z</time>
      </trkpt>
      <trkpt lat="46.16842" lon="6.7897">
        <ele>2126.0930175781</ele>
        <time>2012-03-16T10:35:55Z</time>
      </trkpt>
      <trkpt lat="46.16881" lon="6.78943">
        <ele>2115.9990234375</ele>
        <time>2012-03-16T10:35:59Z</time>
      </trkpt>
      <trkpt lat="46.16891" lon="6.78963">
        <ele>2105.9050292969</ele>
        <time>2012-03-16T10:36:02Z</time>
      </trkpt>
      <trkpt lat="46.1689" lon="6.78967">
        <ele>2105.4245605469</ele>
        <time>2012-03-16T10:36:03Z</time>
      </trkpt>
      <trkpt lat="46.16895" lon="6.78972">
        <ele>2102.0598144531</ele>
        <time>2012-03-16T10:36:09Z</time>
      </trkpt>
      <trkpt lat="46.16896" lon="6.78972">
        <ele>2102.0598144531</ele>
        <time>2012-03-16T10:36:10Z</time>
      </trkpt>
      <trkpt lat="46.16897" lon="6.78977">
        <ele>2099.6567382812</ele>
        <time>2012-03-16T10:36:19Z</time>
      </trkpt>
      <trkpt lat="46.16901" lon="6.78977">
        <ele>2099.1760253906</ele>
        <time>2012-03-16T10:36:32Z</time>
      </trkpt>
      <trkpt lat="46.16898" lon="6.7897">
        <ele>2097.7341308594</ele>
        <time>2012-03-16T10:36:41Z</time>
      </trkpt>
      <trkpt lat="46.16907" lon="6.78946">
        <ele>2091.9660644531</ele>
        <time>2012-03-16T10:36:45Z</time>
      </trkpt>
      <trkpt lat="46.16938" lon="6.78931">
        <ele>2087.6401367188</ele>
        <time>2012-03-16T10:36:50Z</time>
      </trkpt>
      <trkpt lat="46.16959" lon="6.78931">
        <ele>2082.8334960938</ele>
        <time>2012-03-16T10:36:54Z</time>
      </trkpt>
      <trkpt lat="46.16971" lon="6.78941">
        <ele>2078.5078125</ele>
        <time>2012-03-16T10:36:57Z</time>
      </trkpt>
      <trkpt lat="46.1697" lon="6.78952">
        <ele>2076.5852050781</ele>
        <time>2012-03-16T10:36:59Z</time>
      </trkpt>
      <trkpt lat="46.16972" lon="6.78958">
        <ele>2068.89453125</ele>
        <time>2012-03-16T10:37:01Z</time>
      </trkpt>
      <trkpt lat="46.16974" lon="6.78967">
        <ele>2064.087890625</ele>
        <time>2012-03-16T10:37:04Z</time>
      </trkpt>
      <trkpt lat="46.16976" lon="6.78969">
        <ele>2060.7233886719</ele>
        <time>2012-03-16T10:37:05Z</time>
      </trkpt>
      <trkpt lat="46.16978" lon="6.78972">
        <ele>2061.6848144531</ele>
        <time>2012-03-16T10:37:06Z</time>
      </trkpt>
      <trkpt lat="46.16983" lon="6.78974">
        <ele>2055.9165039062</ele>
        <time>2012-03-16T10:37:08Z</time>
      </trkpt>
      <trkpt lat="46.16986" lon="6.78971">
        <ele>2056.8779296875</ele>
        <time>2012-03-16T10:37:09Z</time>
      </trkpt>
      <trkpt lat="46.16988" lon="6.78968">
        <ele>2055.9165039062</ele>
        <time>2012-03-16T10:37:16Z</time>
      </trkpt>
      <trkpt lat="46.16989" lon="6.78976">
        <ele>2052.5520019531</ele>
        <time>2012-03-16T10:37:18Z</time>
      </trkpt>
      <trkpt lat="46.16993" lon="6.79002">
        <ele>2047.2648925781</ele>
        <time>2012-03-16T10:37:21Z</time>
      </trkpt>
      <trkpt lat="46.16995" lon="6.79011">
        <ele>2044.8615722656</ele>
        <time>2012-03-16T10:37:22Z</time>
      </trkpt>
      <trkpt lat="46.17004" lon="6.79041">
        <ele>2033.3256835938</ele>
        <time>2012-03-16T10:37:25Z</time>
      </trkpt>
      <trkpt lat="46.17014" lon="6.79135">
        <ele>2029.9611816406</ele>
        <time>2012-03-16T10:37:26Z</time>
      </trkpt>
      <trkpt lat="46.17034" lon="6.79132">
        <ele>2022.2705078125</ele>
        <time>2012-03-16T10:37:28Z</time>
      </trkpt>
      <trkpt lat="46.17042" lon="6.79131">
        <ele>2017.9445800781</ele>
        <time>2012-03-16T10:37:29Z</time>
      </trkpt>
      <trkpt lat="46.17047" lon="6.79131">
        <ele>2018.9060058594</ele>
        <time>2012-03-16T10:37:30Z</time>
      </trkpt>
      <trkpt lat="46.17058" lon="6.79129">
        <ele>2019.8671875</ele>
        <time>2012-03-16T10:37:32Z</time>
      </trkpt>
      <trkpt lat="46.17074" lon="6.79127">
        <ele>2019.38671875</ele>
        <time>2012-03-16T10:37:35Z</time>
      </trkpt>
      <trkpt lat="46.171" lon="6.7914">
        <ele>2014.0993652344</ele>
        <time>2012-03-16T10:37:38Z</time>
      </trkpt>
      <trkpt lat="46.17113" lon="6.7915">
        <ele>2010.7346191406</ele>
        <time>2012-03-16T10:37:40Z</time>
      </trkpt>
      <trkpt lat="46.17125" lon="6.79155">
        <ele>2011.2153320312</ele>
        <time>2012-03-16T10:37:41Z</time>
      </trkpt>
      <trkpt lat="46.17156" lon="6.79143">
        <ele>2011.2153320312</ele>
        <time>2012-03-16T10:37:42Z</time>
      </trkpt>
      <trkpt lat="46.17146" lon="6.79105">
        <ele>2010.7346191406</ele>
        <time>2012-03-16T10:37:49Z</time>
      </trkpt>
      <trkpt lat="46.17145" lon="6.79107">
        <ele>2009.2927246094</ele>
        <time>2012-03-16T10:37:51Z</time>
      </trkpt>
      <trkpt lat="46.17151" lon="6.7911">
        <ele>2004.0056152344</ele>
        <time>2012-03-16T10:37:53Z</time>
      </trkpt>
      <trkpt lat="46.17162" lon="6.79135">
        <ele>2000.1604003906</ele>
        <time>2012-03-16T10:37:54Z</time>
      </trkpt>
      <trkpt lat="46.17164" lon="6.79131">
        <ele>1995.353515625</ele>
        <time>2012-03-16T10:37:55Z</time>
      </trkpt>
      <trkpt lat="46.17192" lon="6.79133">
        <ele>1993.9116210938</ele>
        <time>2012-03-16T10:37:58Z</time>
      </trkpt>
      <trkpt lat="46.17197" lon="6.79137">
        <ele>1994.8728027344</ele>
        <time>2012-03-16T10:37:59Z</time>
      </trkpt>
      <trkpt lat="46.17199" lon="6.79139">
        <ele>1994.8728027344</ele>
        <time>2012-03-16T10:38:09Z</time>
      </trkpt>
      <trkpt lat="46.17203" lon="6.79142">
        <ele>1993.9116210938</ele>
        <time>2012-03-16T10:38:22Z</time>
      </trkpt>
      <trkpt lat="46.17215" lon="6.79144">
        <ele>1988.6245117188</ele>
        <time>2012-03-16T10:38:29Z</time>
      </trkpt>
      <trkpt lat="46.17215" lon="6.79144">
        <ele>1989.1049804688</ele>
        <time>2012-03-16T10:38:30Z</time>
      </trkpt>
      <trkpt lat="46.17215" lon="6.79144">
        <ele>1985.7404785156</ele>
        <time>2012-03-16T10:38:42Z</time>
      </trkpt>
      <trkpt lat="46.17218" lon="6.79137">
        <ele>1983.8178710938</ele>
        <time>2012-03-16T10:38:49Z</time>
      </trkpt>
      <trkpt lat="46.1722" lon="6.79148">
        <ele>1979.0109863281</ele>
        <time>2012-03-16T10:38:51Z</time>
      </trkpt>
      <trkpt lat="46.17219" lon="6.79152">
        <ele>1979.0109863281</ele>
        <time>2012-03-16T10:38:52Z</time>
      </trkpt>
      <trkpt lat="46.17218" lon="6.79155">
        <ele>1978.5305175781</ele>
        <time>2012-03-16T10:38:53Z</time>
      </trkpt>
      <trkpt lat="46.17217" lon="6.7916">
        <ele>1977.0886230469</ele>
        <time>2012-03-16T10:38:58Z</time>
      </trkpt>
      <trkpt lat="46.17224" lon="6.7915">
        <ele>1970.359375</ele>
        <time>2012-03-16T10:39:01Z</time>
      </trkpt>
      <trkpt lat="46.17233" lon="6.79162">
        <ele>1963.1494140625</ele>
        <time>2012-03-16T10:39:05Z</time>
      </trkpt>
      <trkpt lat="46.17238" lon="6.79165">
        <ele>1958.3427734375</ele>
        <time>2012-03-16T10:39:06Z</time>
      </trkpt>
      <trkpt lat="46.17244" lon="6.79168">
        <ele>1954.9782714844</ele>
        <time>2012-03-16T10:39:07Z</time>
      </trkpt>
      <trkpt lat="46.17256" lon="6.79176">
        <ele>1949.6911621094</ele>
        <time>2012-03-16T10:39:09Z</time>
      </trkpt>
      <trkpt lat="46.17223" lon="6.7913">
        <ele>1942.4812011719</ele>
        <time>2012-03-16T10:39:11Z</time>
      </trkpt>
      <trkpt lat="46.17284" lon="6.79178">
        <ele>1934.3100585938</ele>
        <time>2012-03-16T10:39:13Z</time>
      </trkpt>
      <trkpt lat="46.17302" lon="6.79181">
        <ele>1928.5419921875</ele>
        <time>2012-03-16T10:39:15Z</time>
      </trkpt>
      <trkpt lat="46.17228" lon="6.7912">
        <ele>1925.1772460938</ele>
        <time>2012-03-16T10:39:16Z</time>
      </trkpt>
      <trkpt lat="46.17228" lon="6.7912">
        <ele>1925.1772460938</ele>
        <time>2012-03-16T10:39:17Z</time>
      </trkpt>
      <trkpt lat="46.17337" lon="6.79135">
        <ele>1926.6193847656</ele>
        <time>2012-03-16T10:39:22Z</time>
      </trkpt>
      <trkpt lat="46.17336" lon="6.79141">
        <ele>1926.6193847656</ele>
        <time>2012-03-16T10:39:36Z</time>
      </trkpt>
      <trkpt lat="46.17335" lon="6.79141">
        <ele>1926.6193847656</ele>
        <time>2012-03-16T10:39:43Z</time>
      </trkpt>
      <trkpt lat="46.17349" lon="6.79139">
        <ele>1923.7353515625</ele>
        <time>2012-03-16T10:39:53Z</time>
      </trkpt>
      <trkpt lat="46.17352" lon="6.79137">
        <ele>1923.2548828125</ele>
        <time>2012-03-16T10:39:54Z</time>
      </trkpt>
      <trkpt lat="46.17365" lon="6.79143">
        <ele>1917.0063476562</ele>
        <time>2012-03-16T10:39:56Z</time>
      </trkpt>
      <trkpt lat="46.17374" lon="6.79149">
        <ele>1913.1608886719</ele>
        <time>2012-03-16T10:39:57Z</time>
      </trkpt>
      <trkpt lat="46.17384" lon="6.79159">
        <ele>1909.3156738281</ele>
        <time>2012-03-16T10:39:58Z</time>
      </trkpt>
      <trkpt lat="46.17396" lon="6.79164">
        <ele>1904.5090332031</ele>
        <time>2012-03-16T10:39:59Z</time>
      </trkpt>
      <trkpt lat="46.17421" lon="6.79155">
        <ele>1903.0671386719</ele>
        <time>2012-03-16T10:40:01Z</time>
      </trkpt>
      <trkpt lat="46.17441" lon="6.79138">
        <ele>1902.5864257812</ele>
        <time>2012-03-16T10:40:03Z</time>
      </trkpt>
      <trkpt lat="46.1746" lon="6.79122">
        <ele>1903.0671386719</ele>
        <time>2012-03-16T10:40:06Z</time>
      </trkpt>
      <trkpt lat="46.17481" lon="6.79096">
        <ele>1896.337890625</ele>
        <time>2012-03-16T10:40:11Z</time>
      </trkpt>
      <trkpt lat="46.17494" lon="6.79083">
        <ele>1894.8957519531</ele>
        <time>2012-03-16T10:40:13Z</time>
      </trkpt>
      <trkpt lat="46.17505" lon="6.79074">
        <ele>1895.3764648438</ele>
        <time>2012-03-16T10:40:15Z</time>
      </trkpt>
      <trkpt lat="46.17522" lon="6.7908">
        <ele>1892.0119628906</ele>
        <time>2012-03-16T10:40:18Z</time>
      </trkpt>
      <trkpt lat="46.17537" lon="6.79118">
        <ele>1890.0893554688</ele>
        <time>2012-03-16T10:40:24Z</time>
      </trkpt>
      <trkpt lat="46.17534" lon="6.7911">
        <ele>1889.6086425781</ele>
        <time>2012-03-16T10:40:43Z</time>
      </trkpt>
      <trkpt lat="46.17548" lon="6.79096">
        <ele>1883.3598632812</ele>
        <time>2012-03-16T10:40:47Z</time>
      </trkpt>
      <trkpt lat="46.17576" lon="6.79079">
        <ele>1873.2663574219</ele>
        <time>2012-03-16T10:40:50Z</time>
      </trkpt>
      <trkpt lat="46.17588" lon="6.7907">
        <ele>1869.9016113281</ele>
        <time>2012-03-16T10:40:51Z</time>
      </trkpt>
      <trkpt lat="46.17601" lon="6.79059">
        <ele>1866.5368652344</ele>
        <time>2012-03-16T10:40:52Z</time>
      </trkpt>
      <trkpt lat="46.17625" lon="6.79035">
        <ele>1863.1723632812</ele>
        <time>2012-03-16T10:40:54Z</time>
      </trkpt>
      <trkpt lat="46.17651" lon="6.79017">
        <ele>1867.9787597656</ele>
        <time>2012-03-16T10:40:57Z</time>
      </trkpt>
      <trkpt lat="46.17656" lon="6.79014">
        <ele>1867.9787597656</ele>
        <time>2012-03-16T10:40:58Z</time>
      </trkpt>
      <trkpt lat="46.17684" lon="6.79009">
        <ele>1855.9624023438</ele>
        <time>2012-03-16T10:41:01Z</time>
      </trkpt>
      <trkpt lat="46.17734" lon="6.79027">
        <ele>1852.5979003906</ele>
        <time>2012-03-16T10:41:06Z</time>
      </trkpt>
      <trkpt lat="46.1774" lon="6.79036">
        <ele>1852.5979003906</ele>
        <time>2012-03-16T10:41:07Z</time>
      </trkpt>
      <trkpt lat="46.17798" lon="6.79114">
        <ele>1850.6750488281</ele>
        <time>2012-03-16T10:41:15Z</time>
      </trkpt>
      <trkpt lat="46.17821" lon="6.79023">
        <ele>1846.3493652344</ele>
        <time>2012-03-16T10:41:21Z</time>
      </trkpt>
      <trkpt lat="46.17842" lon="6.78981">
        <ele>1838.1782226562</ele>
        <time>2012-03-16T10:41:25Z</time>
      </trkpt>
      <trkpt lat="46.17848" lon="6.78968">
        <ele>1832.890625</ele>
        <time>2012-03-16T10:41:26Z</time>
      </trkpt>
      <trkpt lat="46.17863" lon="6.78939">
        <ele>1827.123046875</ele>
        <time>2012-03-16T10:41:28Z</time>
      </trkpt>
      <trkpt lat="46.17872" lon="6.78924">
        <ele>1821.8356933594</ele>
        <time>2012-03-16T10:41:29Z</time>
      </trkpt>
      <trkpt lat="46.1789" lon="6.78891">
        <ele>1816.0676269531</ele>
        <time>2012-03-16T10:41:31Z</time>
      </trkpt>
      <trkpt lat="46.17909" lon="6.78862">
        <ele>1812.2224121094</ele>
        <time>2012-03-16T10:41:33Z</time>
      </trkpt>
      <trkpt lat="46.17915" lon="6.7885">
        <ele>1814.1450195312</ele>
        <time>2012-03-16T10:41:34Z</time>
      </trkpt>
      <trkpt lat="46.17906" lon="6.78837">
        <ele>1815.5871582031</ele>
        <time>2012-03-16T10:41:36Z</time>
      </trkpt>
      <trkpt lat="46.17903" lon="6.78833">
        <ele>1817.5095214844</ele>
        <time>2012-03-16T10:41:41Z</time>
      </trkpt>
      <trkpt lat="46.17899" lon="6.78835">
        <ele>1815.5871582031</ele>
        <time>2012-03-16T10:42:01Z</time>
      </trkpt>
      <trkpt lat="46.17891" lon="6.78836">
        <ele>1816.0676269531</ele>
        <time>2012-03-16T10:42:19Z</time>
      </trkpt>
      <trkpt lat="46.17889" lon="6.78836">
        <ele>1815.1064453125</ele>
        <time>2012-03-16T10:42:21Z</time>
      </trkpt>
      <trkpt lat="46.17887" lon="6.78837">
        <ele>1813.1838378906</ele>
        <time>2012-03-16T10:42:30Z</time>
      </trkpt>
      <trkpt lat="46.17868" lon="6.78842">
        <ele>1814.1450195312</ele>
        <time>2012-03-16T10:42:36Z</time>
      </trkpt>
      <trkpt lat="46.1786" lon="6.78847">
        <ele>1817.5095214844</ele>
        <time>2012-03-16T10:42:38Z</time>
      </trkpt>
      <trkpt lat="46.17856" lon="6.7885">
        <ele>1820.3937988281</ele>
        <time>2012-03-16T10:42:39Z</time>
      </trkpt>
      <trkpt lat="46.17844" lon="6.78854">
        <ele>1825.2001953125</ele>
        <time>2012-03-16T10:42:42Z</time>
      </trkpt>
      <trkpt lat="46.17836" lon="6.78856">
        <ele>1830.4875488281</ele>
        <time>2012-03-16T10:42:44Z</time>
      </trkpt>
      <trkpt lat="46.17828" lon="6.78859">
        <ele>1836.2556152344</ele>
        <time>2012-03-16T10:42:46Z</time>
      </trkpt>
      <trkpt lat="46.17825" lon="6.78861">
        <ele>1840.5812988281</ele>
        <time>2012-03-16T10:42:47Z</time>
      </trkpt>
      <trkpt lat="46.17818" lon="6.78864">
        <ele>1844.9072265625</ele>
        <time>2012-03-16T10:42:49Z</time>
      </trkpt>
      <trkpt lat="46.17813" lon="6.78866">
        <ele>1847.7912597656</ele>
        <time>2012-03-16T10:42:50Z</time>
      </trkpt>
      <trkpt lat="46.17808" lon="6.78868">
        <ele>1847.7912597656</ele>
        <time>2012-03-16T10:42:51Z</time>
      </trkpt>
      <trkpt lat="46.17804" lon="6.78869">
        <ele>1848.7524414062</ele>
        <time>2012-03-16T10:42:52Z</time>
      </trkpt>
      <trkpt lat="46.17791" lon="6.78874">
        <ele>1854.5205078125</ele>
        <time>2012-03-16T10:42:55Z</time>
      </trkpt>
      <trkpt lat="46.17788" lon="6.78876">
        <ele>1854.5205078125</ele>
        <time>2012-03-16T10:42:56Z</time>
      </trkpt>
      <trkpt lat="46.17775" lon="6.78881">
        <ele>1858.8464355469</ele>
        <time>2012-03-16T10:42:59Z</time>
      </trkpt>
      <trkpt lat="46.17766" lon="6.78884">
        <ele>1864.1335449219</ele>
        <time>2012-03-16T10:43:01Z</time>
      </trkpt>
      <trkpt lat="46.17754" lon="6.78889">
        <ele>1867.9787597656</ele>
        <time>2012-03-16T10:43:04Z</time>
      </trkpt>
      <trkpt lat="46.17745" lon="6.78892">
        <ele>1869.4211425781</ele>
        <time>2012-03-16T10:43:06Z</time>
      </trkpt>
      <trkpt lat="46.17733" lon="6.78898">
        <ele>1872.7856445312</ele>
        <time>2012-03-16T10:43:09Z</time>
      </trkpt>
      <trkpt lat="46.17716" lon="6.78906">
        <ele>1877.1115722656</ele>
        <time>2012-03-16T10:43:13Z</time>
      </trkpt>
      <trkpt lat="46.17712" lon="6.78908">
        <ele>1877.1115722656</ele>
        <time>2012-03-16T10:43:14Z</time>
      </trkpt>
      <trkpt lat="46.17704" lon="6.78911">
        <ele>1880.9567871094</ele>
        <time>2012-03-16T10:43:16Z</time>
      </trkpt>
      <trkpt lat="46.17693" lon="6.78917">
        <ele>1884.3215332031</ele>
        <time>2012-03-16T10:43:19Z</time>
      </trkpt>
      <trkpt lat="46.17688" lon="6.78918">
        <ele>1884.3215332031</ele>
        <time>2012-03-16T10:43:20Z</time>
      </trkpt>
      <trkpt lat="46.17683" lon="6.7892">
        <ele>1887.6860351562</ele>
        <time>2012-03-16T10:43:21Z</time>
      </trkpt>
      <trkpt lat="46.17645" lon="6.78936">
        <ele>1891.53125</ele>
        <time>2012-03-16T10:43:30Z</time>
      </trkpt>
      <trkpt lat="46.1764" lon="6.78938">
        <ele>1891.53125</ele>
        <time>2012-03-16T10:43:31Z</time>
      </trkpt>
      <trkpt lat="46.17623" lon="6.78945">
        <ele>1893.9345703125</ele>
        <time>2012-03-16T10:43:35Z</time>
      </trkpt>
      <trkpt lat="46.1761" lon="6.7895">
        <ele>1895.8571777344</ele>
        <time>2012-03-16T10:43:38Z</time>
      </trkpt>
      <trkpt lat="46.17596" lon="6.78955">
        <ele>1899.2216796875</ele>
        <time>2012-03-16T10:43:41Z</time>
      </trkpt>
      <trkpt lat="46.17575" lon="6.78963">
        <ele>1903.5478515625</ele>
        <time>2012-03-16T10:43:46Z</time>
      </trkpt>
      <trkpt lat="46.17566" lon="6.78966">
        <ele>1906.431640625</ele>
        <time>2012-03-16T10:43:48Z</time>
      </trkpt>
      <trkpt lat="46.17521" lon="6.78984">
        <ele>1907.3930664062</ele>
        <time>2012-03-16T10:44:00Z</time>
      </trkpt>
      <trkpt lat="46.17521" lon="6.78985">
        <ele>1907.3930664062</ele>
        <time>2012-03-16T10:44:12Z</time>
      </trkpt>
      <trkpt lat="46.17514" lon="6.78987">
        <ele>1907.8737792969</ele>
        <time>2012-03-16T10:44:33Z</time>
      </trkpt>
      <trkpt lat="46.17482" lon="6.78999">
        <ele>1911.23828125</ele>
        <time>2012-03-16T10:44:50Z</time>
      </trkpt>
      <trkpt lat="46.17469" lon="6.79004">
        <ele>1914.6027832031</ele>
        <time>2012-03-16T10:44:54Z</time>
      </trkpt>
      <trkpt lat="46.17461" lon="6.79006">
        <ele>1916.5256347656</ele>
        <time>2012-03-16T10:44:56Z</time>
      </trkpt>
      <trkpt lat="46.17446" lon="6.79014">
        <ele>1919.8901367188</ele>
        <time>2012-03-16T10:45:00Z</time>
      </trkpt>
      <trkpt lat="46.1743" lon="6.79022">
        <ele>1924.2160644531</ele>
        <time>2012-03-16T10:45:04Z</time>
      </trkpt>
      <trkpt lat="46.17417" lon="6.79027">
        <ele>1927.5805664062</ele>
        <time>2012-03-16T10:45:07Z</time>
      </trkpt>
      <trkpt lat="46.17408" lon="6.79031">
        <ele>1928.5419921875</ele>
        <time>2012-03-16T10:45:09Z</time>
      </trkpt>
      <trkpt lat="46.174" lon="6.79034">
        <ele>1932.3874511719</ele>
        <time>2012-03-16T10:45:11Z</time>
      </trkpt>
      <trkpt lat="46.17391" lon="6.79038">
        <ele>1936.2326660156</ele>
        <time>2012-03-16T10:45:13Z</time>
      </trkpt>
      <trkpt lat="46.17382" lon="6.7904">
        <ele>1940.0778808594</ele>
        <time>2012-03-16T10:45:15Z</time>
      </trkpt>
      <trkpt lat="46.17365" lon="6.79047">
        <ele>1942.9616699219</ele>
        <time>2012-03-16T10:45:19Z</time>
      </trkpt>
      <trkpt lat="46.17356" lon="6.79051">
        <ele>1947.7683105469</ele>
        <time>2012-03-16T10:45:21Z</time>
      </trkpt>
      <trkpt lat="46.17339" lon="6.79058">
        <ele>1952.0942382812</ele>
        <time>2012-03-16T10:45:25Z</time>
      </trkpt>
      <trkpt lat="46.17331" lon="6.79061">
        <ele>1955.458984375</ele>
        <time>2012-03-16T10:45:27Z</time>
      </trkpt>
      <trkpt lat="46.17318" lon="6.79066">
        <ele>1959.7846679688</ele>
        <time>2012-03-16T10:45:30Z</time>
      </trkpt>
      <trkpt lat="46.17306" lon="6.79071">
        <ele>1963.1494140625</ele>
        <time>2012-03-16T10:45:33Z</time>
      </trkpt>
      <trkpt lat="46.17297" lon="6.79075">
        <ele>1966.5141601562</ele>
        <time>2012-03-16T10:45:35Z</time>
      </trkpt>
      <trkpt lat="46.17289" lon="6.79078">
        <ele>1969.8786621094</ele>
        <time>2012-03-16T10:45:37Z</time>
      </trkpt>
      <trkpt lat="46.17228" lon="6.7912">
        <ele>1973.2434082031</ele>
        <time>2012-03-16T10:45:40Z</time>
      </trkpt>
      <trkpt lat="46.17228" lon="6.7912">
        <ele>1978.5305175781</ele>
        <time>2012-03-16T10:45:44Z</time>
      </trkpt>
      <trkpt lat="46.17228" lon="6.7912">
        <ele>1981.8952636719</ele>
        <time>2012-03-16T10:45:46Z</time>
      </trkpt>
      <trkpt lat="46.17228" lon="6.7912">
        <ele>1985.259765625</ele>
        <time>2012-03-16T10:45:49Z</time>
      </trkpt>
      <trkpt lat="46.17228" lon="6.7912">
        <ele>1988.6245117188</ele>
        <time>2012-03-16T10:45:50Z</time>
      </trkpt>
      <trkpt lat="46.17228" lon="6.7912">
        <ele>1992.4697265625</ele>
        <time>2012-03-16T10:45:52Z</time>
      </trkpt>
      <trkpt lat="46.17228" lon="6.7912">
        <ele>1995.8342285156</ele>
        <time>2012-03-16T10:45:54Z</time>
      </trkpt>
      <trkpt lat="46.17226" lon="6.79125">
        <ele>1998.7182617188</ele>
        <time>2012-03-16T10:45:56Z</time>
      </trkpt>
      <trkpt lat="46.17191" lon="6.79132">
        <ele>2001.1215820312</ele>
        <time>2012-03-16T10:45:59Z</time>
      </trkpt>
      <trkpt lat="46.17174" lon="6.79125">
        <ele>2004.966796875</ele>
        <time>2012-03-16T10:46:04Z</time>
      </trkpt>
      <trkpt lat="46.17162" lon="6.79134">
        <ele>2009.2927246094</ele>
        <time>2012-03-16T10:46:07Z</time>
      </trkpt>
      <trkpt lat="46.17157" lon="6.79141">
        <ele>2012.6574707031</ele>
        <time>2012-03-16T10:46:09Z</time>
      </trkpt>
      <trkpt lat="46.17152" lon="6.7915">
        <ele>2016.0219726562</ele>
        <time>2012-03-16T10:46:11Z</time>
      </trkpt>
      <trkpt lat="46.17131" lon="6.79158">
        <ele>2019.8671875</ele>
        <time>2012-03-16T10:46:14Z</time>
      </trkpt>
      <trkpt lat="46.1712" lon="6.79154">
        <ele>2024.673828125</ele>
        <time>2012-03-16T10:46:17Z</time>
      </trkpt>
      <trkpt lat="46.1711" lon="6.79148">
        <ele>2027.5576171875</ele>
        <time>2012-03-16T10:46:20Z</time>
      </trkpt>
      <trkpt lat="46.17101" lon="6.79141">
        <ele>2030.9226074219</ele>
        <time>2012-03-16T10:46:23Z</time>
      </trkpt>
      <trkpt lat="46.17088" lon="6.79133">
        <ele>2034.287109375</ele>
        <time>2012-03-16T10:46:27Z</time>
      </trkpt>
      <trkpt lat="46.17069" lon="6.79128">
        <ele>2037.1708984375</ele>
        <time>2012-03-16T10:46:29Z</time>
      </trkpt>
      <trkpt lat="46.17051" lon="6.7913">
        <ele>2041.0161132812</ele>
        <time>2012-03-16T10:46:33Z</time>
      </trkpt>
      <trkpt lat="46.17042" lon="6.79131">
        <ele>2046.3037109375</ele>
        <time>2012-03-16T10:46:35Z</time>
      </trkpt>
      <trkpt lat="46.17033" lon="6.79132">
        <ele>2050.6293945312</ele>
        <time>2012-03-16T10:46:37Z</time>
      </trkpt>
      <trkpt lat="46.17021" lon="6.79134">
        <ele>2053.994140625</ele>
        <time>2012-03-16T10:46:40Z</time>
      </trkpt>
      <trkpt lat="46.17009" lon="6.79136">
        <ele>2055.9165039062</ele>
        <time>2012-03-16T10:46:43Z</time>
      </trkpt>
      <trkpt lat="46.16999" lon="6.79137">
        <ele>2057.8393554688</ele>
        <time>2012-03-16T10:46:45Z</time>
      </trkpt>
      <trkpt lat="46.16987" lon="6.79137">
        <ele>2061.6848144531</ele>
        <time>2012-03-16T10:46:48Z</time>
      </trkpt>
      <trkpt lat="46.16968" lon="6.79155">
        <ele>2065.0493164062</ele>
        <time>2012-03-16T10:46:51Z</time>
      </trkpt>
      <trkpt lat="46.16961" lon="6.79157">
        <ele>2068.4138183594</ele>
        <time>2012-03-16T10:46:53Z</time>
      </trkpt>
      <trkpt lat="46.16951" lon="6.79159">
        <ele>2071.7783203125</ele>
        <time>2012-03-16T10:46:55Z</time>
      </trkpt>
      <trkpt lat="46.16939" lon="6.79163">
        <ele>2075.1428222656</ele>
        <time>2012-03-16T10:46:58Z</time>
      </trkpt>
      <trkpt lat="46.16933" lon="6.79163">
        <ele>2078.5078125</ele>
        <time>2012-03-16T10:47:00Z</time>
      </trkpt>
      <trkpt lat="46.16914" lon="6.79175">
        <ele>2081.8723144531</ele>
        <time>2012-03-16T10:47:03Z</time>
      </trkpt>
      <trkpt lat="46.16905" lon="6.79188">
        <ele>2086.1982421875</ele>
        <time>2012-03-16T10:47:06Z</time>
      </trkpt>
      <trkpt lat="46.16892" lon="6.792">
        <ele>2090.0434570312</ele>
        <time>2012-03-16T10:47:09Z</time>
      </trkpt>
      <trkpt lat="46.16875" lon="6.79205">
        <ele>2093.408203125</ele>
        <time>2012-03-16T10:47:13Z</time>
      </trkpt>
      <trkpt lat="46.16859" lon="6.79209">
        <ele>2098.2145996094</ele>
        <time>2012-03-16T10:47:17Z</time>
      </trkpt>
      <trkpt lat="46.16846" lon="6.79213">
        <ele>2103.0212402344</ele>
        <time>2012-03-16T10:47:20Z</time>
      </trkpt>
      <trkpt lat="46.16837" lon="6.79218">
        <ele>2106.8664550781</ele>
        <time>2012-03-16T10:47:22Z</time>
      </trkpt>
      <trkpt lat="46.16829" lon="6.79223">
        <ele>2109.7504882812</ele>
        <time>2012-03-16T10:47:24Z</time>
      </trkpt>
      <trkpt lat="46.1682" lon="6.79225">
        <ele>2114.0764160156</ele>
        <time>2012-03-16T10:47:26Z</time>
      </trkpt>
      <trkpt lat="46.16808" lon="6.79228">
        <ele>2115.9990234375</ele>
        <time>2012-03-16T10:47:29Z</time>
      </trkpt>
      <trkpt lat="46.16796" lon="6.79232">
        <ele>2119.3637695312</ele>
        <time>2012-03-16T10:47:32Z</time>
      </trkpt>
      <trkpt lat="46.16791" lon="6.79234">
        <ele>2119.8442382812</ele>
        <time>2012-03-16T10:47:33Z</time>
      </trkpt>
      <trkpt lat="46.16783" lon="6.79236">
        <ele>2123.208984375</ele>
        <time>2012-03-16T10:47:35Z</time>
      </trkpt>
      <trkpt lat="46.16779" lon="6.79232">
        <ele>2126.5737304688</ele>
        <time>2012-03-16T10:47:37Z</time>
      </trkpt>
      <trkpt lat="46.16772" lon="6.79281">
        <ele>2129.4575195312</ele>
        <time>2012-03-16T10:47:39Z</time>
      </trkpt>
      <trkpt lat="46.16764" lon="6.79284">
        <ele>2133.302734375</ele>
        <time>2012-03-16T10:47:41Z</time>
      </trkpt>
      <trkpt lat="46.16752" lon="6.79289">
        <ele>2137.6286621094</ele>
        <time>2012-03-16T10:47:44Z</time>
      </trkpt>
      <trkpt lat="46.16752" lon="6.79207">
        <ele>2141.4741210938</ele>
        <time>2012-03-16T10:47:46Z</time>
      </trkpt>
      <trkpt lat="46.16728" lon="6.79205">
        <ele>2146.7612304688</ele>
        <time>2012-03-16T10:47:49Z</time>
      </trkpt>
      <trkpt lat="46.1672" lon="6.79205">
        <ele>2150.1259765625</ele>
        <time>2012-03-16T10:47:51Z</time>
      </trkpt>
      <trkpt lat="46.16685" lon="6.79322">
        <ele>2150.1259765625</ele>
        <time>2012-03-16T10:47:52Z</time>
      </trkpt>
      <trkpt lat="46.16685" lon="6.79322">
        <ele>2153.9711914062</ele>
        <time>2012-03-16T10:47:54Z</time>
      </trkpt>
      <trkpt lat="46.16683" lon="6.79321">
        <ele>2154.4516601562</ele>
        <time>2012-03-16T10:47:56Z</time>
      </trkpt>
      <trkpt lat="46.16679" lon="6.79317">
        <ele>2158.2971191406</ele>
        <time>2012-03-16T10:47:58Z</time>
      </trkpt>
      <trkpt lat="46.16675" lon="6.79313">
        <ele>2162.1423339844</ele>
        <time>2012-03-16T10:48:00Z</time>
      </trkpt>
      <trkpt lat="46.16672" lon="6.79309">
        <ele>2166.4682617188</ele>
        <time>2012-03-16T10:48:02Z</time>
      </trkpt>
      <trkpt lat="46.16668" lon="6.79305">
        <ele>2169.3522949219</ele>
        <time>2012-03-16T10:48:04Z</time>
      </trkpt>
      <trkpt lat="46.16663" lon="6.79299">
        <ele>2172.236328125</ele>
        <time>2012-03-16T10:48:07Z</time>
      </trkpt>
      <trkpt lat="46.16659" lon="6.79295">
        <ele>2176.0815429688</ele>
        <time>2012-03-16T10:48:09Z</time>
      </trkpt>
      <trkpt lat="46.16599" lon="6.79301">
        <ele>2179.9267578125</ele>
        <time>2012-03-16T10:48:11Z</time>
      </trkpt>
      <trkpt lat="46.16599" lon="6.79301">
        <ele>2187.6171875</ele>
        <time>2012-03-16T10:48:13Z</time>
      </trkpt>
      <trkpt lat="46.16599" lon="6.79301">
        <ele>2191.4626464844</ele>
        <time>2012-03-16T10:48:15Z</time>
      </trkpt>
      <trkpt lat="46.16597" lon="6.79302">
        <ele>2194.8271484375</ele>
        <time>2012-03-16T10:48:17Z</time>
      </trkpt>
      <trkpt lat="46.16591" lon="6.79311">
        <ele>2198.1916503906</ele>
        <time>2012-03-16T10:48:19Z</time>
      </trkpt>
      <trkpt lat="46.16583" lon="6.79319">
        <ele>2201.5563964844</ele>
        <time>2012-03-16T10:48:22Z</time>
      </trkpt>
      <trkpt lat="46.16573" lon="6.79324">
        <ele>2205.4018554688</ele>
        <time>2012-03-16T10:48:26Z</time>
      </trkpt>
      <trkpt lat="46.1656" lon="6.79319">
        <ele>2208.7663574219</ele>
        <time>2012-03-16T10:48:30Z</time>
      </trkpt>
      <trkpt lat="46.16552" lon="6.79316">
        <ele>2213.5727539062</ele>
        <time>2012-03-16T10:48:33Z</time>
      </trkpt>
      <trkpt lat="46.16551" lon="6.79315">
        <ele>2217.41796875</ele>
        <time>2012-03-16T10:48:35Z</time>
      </trkpt>
      <trkpt lat="46.16544" lon="6.79308">
        <ele>2219.8212890625</ele>
        <time>2012-03-16T10:48:38Z</time>
      </trkpt>
      <trkpt lat="46.16493" lon="6.79407">
        <ele>2219.8212890625</ele>
        <time>2012-03-16T10:48:44Z</time>
      </trkpt>
      <trkpt lat="46.16491" lon="6.79405">
        <ele>2219.8212890625</ele>
        <time>2012-03-16T10:48:56Z</time>
      </trkpt>
      <trkpt lat="46.16491" lon="6.79405">
        <ele>2219.8212890625</ele>
        <time>2012-03-16T10:49:04Z</time>
      </trkpt>
      <trkpt lat="46.16466" lon="6.79367">
        <ele>2216.4567871094</ele>
        <time>2012-03-16T10:49:15Z</time>
      </trkpt>
      <trkpt lat="46.16459" lon="6.79354">
        <ele>2211.650390625</ele>
        <time>2012-03-16T10:49:18Z</time>
      </trkpt>
      <trkpt lat="46.16505" lon="6.79291">
        <ele>2209.7275390625</ele>
        <time>2012-03-16T10:49:20Z</time>
      </trkpt>
      <trkpt lat="46.16525" lon="6.79289">
        <ele>2206.3630371094</ele>
        <time>2012-03-16T10:49:24Z</time>
      </trkpt>
      <trkpt lat="46.16543" lon="6.79307">
        <ele>2201.5563964844</ele>
        <time>2012-03-16T10:49:27Z</time>
      </trkpt>
      <trkpt lat="46.16566" lon="6.79321">
        <ele>2197.7111816406</ele>
        <time>2012-03-16T10:49:30Z</time>
      </trkpt>
      <trkpt lat="46.16586" lon="6.79318">
        <ele>2192.4240722656</ele>
        <time>2012-03-16T10:49:33Z</time>
      </trkpt>
      <trkpt lat="46.16599" lon="6.79301">
        <ele>2189.0593261719</ele>
        <time>2012-03-16T10:49:36Z</time>
      </trkpt>
      <trkpt lat="46.16642" lon="6.79274">
        <ele>2188.5788574219</ele>
        <time>2012-03-16T10:49:38Z</time>
      </trkpt>
      <trkpt lat="46.16643" lon="6.79275">
        <ele>2186.1752929688</ele>
        <time>2012-03-16T10:49:42Z</time>
      </trkpt>
      <trkpt lat="46.16599" lon="6.79301">
        <ele>2183.7719726562</ele>
        <time>2012-03-16T10:49:46Z</time>
      </trkpt>
      <trkpt lat="46.16599" lon="6.79301">
        <ele>2183.2912597656</ele>
        <time>2012-03-16T10:49:57Z</time>
      </trkpt>
      <trkpt lat="46.16636" lon="6.79339">
        <ele>2179.9267578125</ele>
        <time>2012-03-16T10:50:00Z</time>
      </trkpt>
      <trkpt lat="46.16641" lon="6.79333">
        <ele>2178.0041503906</ele>
        <time>2012-03-16T10:50:02Z</time>
      </trkpt>
      <trkpt lat="46.16658" lon="6.7932">
        <ele>2172.7170410156</ele>
        <time>2012-03-16T10:50:08Z</time>
      </trkpt>
      <trkpt lat="46.16665" lon="6.79302">
        <ele>2168.3908691406</ele>
        <time>2012-03-16T10:50:11Z</time>
      </trkpt>
      <trkpt lat="46.16667" lon="6.79305">
        <ele>2165.0263671875</ele>
        <time>2012-03-16T10:50:13Z</time>
      </trkpt>
      <trkpt lat="46.1667" lon="6.79301">
        <ele>2160.2197265625</ele>
        <time>2012-03-16T10:50:17Z</time>
      </trkpt>
      <trkpt lat="46.16676" lon="6.79313">
        <ele>2157.3359375</ele>
        <time>2012-03-16T10:50:22Z</time>
      </trkpt>
      <trkpt lat="46.16681" lon="6.79318">
        <ele>2153.4904785156</ele>
        <time>2012-03-16T10:50:24Z</time>
      </trkpt>
      <trkpt lat="46.16684" lon="6.79321">
        <ele>2152.0483398438</ele>
        <time>2012-03-16T10:50:25Z</time>
      </trkpt>
      <trkpt lat="46.16718" lon="6.79205">
        <ele>2142.435546875</ele>
        <time>2012-03-16T10:50:29Z</time>
      </trkpt>
      <trkpt lat="46.16724" lon="6.79205">
        <ele>2138.5900878906</ele>
        <time>2012-03-16T10:50:30Z</time>
      </trkpt>
      <trkpt lat="46.16737" lon="6.79204">
        <ele>2136.1867675781</ele>
        <time>2012-03-16T10:50:32Z</time>
      </trkpt>
      <trkpt lat="46.16763" lon="6.79258">
        <ele>2126.0930175781</ele>
        <time>2012-03-16T10:50:35Z</time>
      </trkpt>
      <trkpt lat="46.1677" lon="6.79253">
        <ele>2127.0544433594</ele>
        <time>2012-03-16T10:50:36Z</time>
      </trkpt>
      <trkpt lat="46.16776" lon="6.79249">
        <ele>2126.5737304688</ele>
        <time>2012-03-16T10:50:37Z</time>
      </trkpt>
      <trkpt lat="46.16783" lon="6.79236">
        <ele>2126.0930175781</ele>
        <time>2012-03-16T10:50:44Z</time>
      </trkpt>
      <trkpt lat="46.16784" lon="6.79236">
        <ele>2125.6123046875</ele>
        <time>2012-03-16T10:50:47Z</time>
      </trkpt>
      <trkpt lat="46.1679" lon="6.79248">
        <ele>2122.7282714844</ele>
        <time>2012-03-16T10:50:51Z</time>
      </trkpt>
      <trkpt lat="46.16789" lon="6.79258">
        <ele>2122.7282714844</ele>
        <time>2012-03-16T10:50:55Z</time>
      </trkpt>
      <trkpt lat="46.16796" lon="6.79232">
        <ele>2117.4409179688</ele>
        <time>2012-03-16T10:50:58Z</time>
      </trkpt>
      <trkpt lat="46.16803" lon="6.7923">
        <ele>2117.4409179688</ele>
        <time>2012-03-16T10:50:59Z</time>
      </trkpt>
      <trkpt lat="46.16823" lon="6.79225">
        <ele>2112.6345214844</ele>
        <time>2012-03-16T10:51:02Z</time>
      </trkpt>
      <trkpt lat="46.16825" lon="6.79225">
        <ele>2110.7119140625</ele>
        <time>2012-03-16T10:51:03Z</time>
      </trkpt>
      <trkpt lat="46.16836" lon="6.79218">
        <ele>2103.9826660156</ele>
        <time>2012-03-16T10:51:07Z</time>
      </trkpt>
      <trkpt lat="46.16844" lon="6.79214">
        <ele>2099.1760253906</ele>
        <time>2012-03-16T10:51:10Z</time>
      </trkpt>
      <trkpt lat="46.16846" lon="6.79212">
        <ele>2099.1760253906</ele>
        <time>2012-03-16T10:51:11Z</time>
      </trkpt>
      <trkpt lat="46.1685" lon="6.79211">
        <ele>2097.2534179688</ele>
        <time>2012-03-16T10:51:13Z</time>
      </trkpt>
      <trkpt lat="46.16857" lon="6.7921">
        <ele>2095.3308105469</ele>
        <time>2012-03-16T10:51:15Z</time>
      </trkpt>
      <trkpt lat="46.16864" lon="6.79208">
        <ele>2093.408203125</ele>
        <time>2012-03-16T10:51:17Z</time>
      </trkpt>
      <trkpt lat="46.16872" lon="6.79206">
        <ele>2088.6015625</ele>
        <time>2012-03-16T10:51:19Z</time>
      </trkpt>
      <trkpt lat="46.1688" lon="6.79204">
        <ele>2086.6787109375</ele>
        <time>2012-03-16T10:51:21Z</time>
      </trkpt>
      <trkpt lat="46.16898" lon="6.79195">
        <ele>2080.9111328125</ele>
        <time>2012-03-16T10:51:25Z</time>
      </trkpt>
      <trkpt lat="46.16903" lon="6.79189">
        <ele>2078.5078125</ele>
        <time>2012-03-16T10:51:27Z</time>
      </trkpt>
      <trkpt lat="46.16904" lon="6.79188">
        <ele>2077.5463867188</ele>
        <time>2012-03-16T10:51:35Z</time>
      </trkpt>
      <trkpt lat="46.16913" lon="6.79176">
        <ele>2073.7009277344</ele>
        <time>2012-03-16T10:51:41Z</time>
      </trkpt>
      <trkpt lat="46.16923" lon="6.79187">
        <ele>2068.89453125</ele>
        <time>2012-03-16T10:51:44Z</time>
      </trkpt>
      <trkpt lat="46.16937" lon="6.79163">
        <ele>2063.1267089844</ele>
        <time>2012-03-16T10:51:46Z</time>
      </trkpt>
      <trkpt lat="46.16949" lon="6.7916">
        <ele>2059.28125</ele>
        <time>2012-03-16T10:51:48Z</time>
      </trkpt>
      <trkpt lat="46.16968" lon="6.79155">
        <ele>2055.4360351562</ele>
        <time>2012-03-16T10:51:51Z</time>
      </trkpt>
      <trkpt lat="46.16982" lon="6.79137">
        <ele>2052.0712890625</ele>
        <time>2012-03-16T10:51:53Z</time>
      </trkpt>
      <trkpt lat="46.16987" lon="6.79137">
        <ele>2046.3037109375</ele>
        <time>2012-03-16T10:51:55Z</time>
      </trkpt>
      <trkpt lat="46.17001" lon="6.79136">
        <ele>2042.4582519531</ele>
        <time>2012-03-16T10:51:58Z</time>
      </trkpt>
      <trkpt lat="46.17006" lon="6.79136">
        <ele>2041.9775390625</ele>
        <time>2012-03-16T10:51:59Z</time>
      </trkpt>
      <trkpt lat="46.17015" lon="6.79135">
        <ele>2038.1323242188</ele>
        <time>2012-03-16T10:52:02Z</time>
      </trkpt>
      <trkpt lat="46.17027" lon="6.79133">
        <ele>2034.287109375</ele>
        <time>2012-03-16T10:52:05Z</time>
      </trkpt>
      <trkpt lat="46.17033" lon="6.79132">
        <ele>2034.287109375</ele>
        <time>2012-03-16T10:52:06Z</time>
      </trkpt>
      <trkpt lat="46.1704" lon="6.79132">
        <ele>2031.8837890625</ele>
        <time>2012-03-16T10:52:08Z</time>
      </trkpt>
      <trkpt lat="46.17064" lon="6.79128">
        <ele>2022.7512207031</ele>
        <time>2012-03-16T10:52:12Z</time>
      </trkpt>
      <trkpt lat="46.17082" lon="6.79129">
        <ele>2018.9060058594</ele>
        <time>2012-03-16T10:52:15Z</time>
      </trkpt>
      <trkpt lat="46.17108" lon="6.79146">
        <ele>2010.7346191406</ele>
        <time>2012-03-16T10:52:20Z</time>
      </trkpt>
      <trkpt lat="46.17121" lon="6.79154">
        <ele>2010.7346191406</ele>
        <time>2012-03-16T10:52:21Z</time>
      </trkpt>
      <trkpt lat="46.17127" lon="6.79156">
        <ele>2010.7346191406</ele>
        <time>2012-03-16T10:52:22Z</time>
      </trkpt>
      <trkpt lat="46.1716" lon="6.79098">
        <ele>2008.8120117188</ele>
        <time>2012-03-16T10:52:31Z</time>
      </trkpt>
      <trkpt lat="46.1716" lon="6.79099">
        <ele>2008.3312988281</ele>
        <time>2012-03-16T10:52:32Z</time>
      </trkpt>
      <trkpt lat="46.17167" lon="6.7911">
        <ele>2004.966796875</ele>
        <time>2012-03-16T10:52:35Z</time>
      </trkpt>
      <trkpt lat="46.17174" lon="6.79125">
        <ele>2001.6022949219</ele>
        <time>2012-03-16T10:52:36Z</time>
      </trkpt>
      <trkpt lat="46.17191" lon="6.79132">
        <ele>1998.2375488281</ele>
        <time>2012-03-16T10:52:38Z</time>
      </trkpt>
      <trkpt lat="46.17199" lon="6.79139">
        <ele>1998.2375488281</ele>
        <time>2012-03-16T10:52:40Z</time>
      </trkpt>
      <trkpt lat="46.172" lon="6.7914">
        <ele>1998.2375488281</ele>
        <time>2012-03-16T10:52:49Z</time>
      </trkpt>
      <trkpt lat="46.172" lon="6.7914">
        <ele>1994.3920898438</ele>
        <time>2012-03-16T10:52:51Z</time>
      </trkpt>
      <trkpt lat="46.17203" lon="6.79131">
        <ele>1991.0275878906</ele>
        <time>2012-03-16T10:52:53Z</time>
      </trkpt>
      <trkpt lat="46.1721" lon="6.79133">
        <ele>1989.1049804688</ele>
        <time>2012-03-16T10:52:56Z</time>
      </trkpt>
      <trkpt lat="46.17212" lon="6.79133">
        <ele>1988.1437988281</ele>
        <time>2012-03-16T10:53:09Z</time>
      </trkpt>
      <trkpt lat="46.17212" lon="6.79133">
        <ele>1988.1437988281</ele>
        <time>2012-03-16T10:53:16Z</time>
      </trkpt>
      <trkpt lat="46.17213" lon="6.79141">
        <ele>1985.259765625</ele>
        <time>2012-03-16T10:53:19Z</time>
      </trkpt>
      <trkpt lat="46.17224" lon="6.79144">
        <ele>1978.5305175781</ele>
        <time>2012-03-16T10:53:22Z</time>
      </trkpt>
      <trkpt lat="46.17229" lon="6.79153">
        <ele>1975.646484375</ele>
        <time>2012-03-16T10:53:23Z</time>
      </trkpt>
      <trkpt lat="46.17244" lon="6.79165">
        <ele>1957.3815917969</ele>
        <time>2012-03-16T10:53:26Z</time>
      </trkpt>
      <trkpt lat="46.17256" lon="6.79184">
        <ele>1950.171875</ele>
        <time>2012-03-16T10:53:28Z</time>
      </trkpt>
      <trkpt lat="46.17266" lon="6.79194">
        <ele>1941.5197753906</ele>
        <time>2012-03-16T10:53:30Z</time>
      </trkpt>
      <trkpt lat="46.17271" lon="6.792">
        <ele>1933.3486328125</ele>
        <time>2012-03-16T10:53:31Z</time>
      </trkpt>
      <trkpt lat="46.17278" lon="6.79212">
        <ele>1923.7353515625</ele>
        <time>2012-03-16T10:53:32Z</time>
      </trkpt>
      <trkpt lat="46.17306" lon="6.79254">
        <ele>1908.8349609375</ele>
        <time>2012-03-16T10:53:35Z</time>
      </trkpt>
      <trkpt lat="46.17337" lon="6.79265">
        <ele>1904.0285644531</ele>
        <time>2012-03-16T10:53:37Z</time>
      </trkpt>
      <trkpt lat="46.17353" lon="6.79267">
        <ele>1901.6252441406</ele>
        <time>2012-03-16T10:53:38Z</time>
      </trkpt>
      <trkpt lat="46.17405" lon="6.79276">
        <ele>1900.1833496094</ele>
        <time>2012-03-16T10:53:42Z</time>
      </trkpt>
      <trkpt lat="46.17416" lon="6.79279">
        <ele>1902.1057128906</ele>
        <time>2012-03-16T10:53:43Z</time>
      </trkpt>
      <trkpt lat="46.17428" lon="6.79281">
        <ele>1899.2216796875</ele>
        <time>2012-03-16T10:53:44Z</time>
      </trkpt>
      <trkpt lat="46.17454" lon="6.79274">
        <ele>1891.53125</ele>
        <time>2012-03-16T10:53:46Z</time>
      </trkpt>
      <trkpt lat="46.1748" lon="6.79259">
        <ele>1887.6860351562</ele>
        <time>2012-03-16T10:53:48Z</time>
      </trkpt>
      <trkpt lat="46.17518" lon="6.79213">
        <ele>1883.3598632812</ele>
        <time>2012-03-16T10:53:52Z</time>
      </trkpt>
      <trkpt lat="46.17572" lon="6.79129">
        <ele>1877.1115722656</ele>
        <time>2012-03-16T10:53:59Z</time>
      </trkpt>
      <trkpt lat="46.17596" lon="6.79097">
        <ele>1870.8630371094</ele>
        <time>2012-03-16T10:54:02Z</time>
      </trkpt>
      <trkpt lat="46.17605" lon="6.79085">
        <ele>1867.017578125</ele>
        <time>2012-03-16T10:54:03Z</time>
      </trkpt>
      <trkpt lat="46.17628" lon="6.79062">
        <ele>1860.7690429688</ele>
        <time>2012-03-16T10:54:05Z</time>
      </trkpt>
      <trkpt lat="46.17665" lon="6.79036">
        <ele>1855.9624023438</ele>
        <time>2012-03-16T10:54:08Z</time>
      </trkpt>
      <trkpt lat="46.1769" lon="6.79025">
        <ele>1855.4819335938</ele>
        <time>2012-03-16T10:54:10Z</time>
      </trkpt>
      <trkpt lat="46.17719" lon="6.79026">
        <ele>1855.0012207031</ele>
        <time>2012-03-16T10:54:13Z</time>
      </trkpt>
      <trkpt lat="46.17735" lon="6.79023">
        <ele>1855.0012207031</ele>
        <time>2012-03-16T10:54:19Z</time>
      </trkpt>
      <trkpt lat="46.17752" lon="6.79045">
        <ele>1855.4819335938</ele>
        <time>2012-03-16T10:54:30Z</time>
      </trkpt>
      <trkpt lat="46.17798" lon="6.79114">
        <ele>1852.1171875</ele>
        <time>2012-03-16T10:54:39Z</time>
      </trkpt>
      <trkpt lat="46.17795" lon="6.79041">
        <ele>1850.1945800781</ele>
        <time>2012-03-16T10:54:43Z</time>
      </trkpt>
      <trkpt lat="46.17811" lon="6.79016">
        <ele>1846.8298339844</ele>
        <time>2012-03-16T10:54:47Z</time>
      </trkpt>
      <trkpt lat="46.17826" lon="6.78994">
        <ele>1843.4653320312</ele>
        <time>2012-03-16T10:54:50Z</time>
      </trkpt>
      <trkpt lat="46.17832" lon="6.78985">
        <ele>1840.1008300781</ele>
        <time>2012-03-16T10:54:51Z</time>
      </trkpt>
      <trkpt lat="46.17839" lon="6.78975">
        <ele>1835.2939453125</ele>
        <time>2012-03-16T10:54:52Z</time>
      </trkpt>
      <trkpt lat="46.17853" lon="6.78947">
        <ele>1830.4875488281</ele>
        <time>2012-03-16T10:54:54Z</time>
      </trkpt>
      <trkpt lat="46.17877" lon="6.78914">
        <ele>1824.7197265625</ele>
        <time>2012-03-16T10:54:56Z</time>
      </trkpt>
      <trkpt lat="46.17888" lon="6.78897">
        <ele>1817.5095214844</ele>
        <time>2012-03-16T10:54:57Z</time>
      </trkpt>
      <trkpt lat="46.17898" lon="6.78882">
        <ele>1816.0676269531</ele>
        <time>2012-03-16T10:54:58Z</time>
      </trkpt>
      <trkpt lat="46.17905" lon="6.78843">
        <ele>1816.0676269531</ele>
        <time>2012-03-16T10:55:04Z</time>
      </trkpt>
      <trkpt lat="46.17901" lon="6.78837">
        <ele>1816.0676269531</ele>
        <time>2012-03-16T10:55:19Z</time>
      </trkpt>
      <trkpt lat="46.179" lon="6.78833">
        <ele>1817.0290527344</ele>
        <time>2012-03-16T10:55:26Z</time>
      </trkpt>
      <trkpt lat="46.17898" lon="6.78831">
        <ele>1816.0676269531</ele>
        <time>2012-03-16T10:55:46Z</time>
      </trkpt>
      <trkpt lat="46.17893" lon="6.78831">
        <ele>1816.5483398438</ele>
        <time>2012-03-16T10:56:00Z</time>
      </trkpt>
      <trkpt lat="46.17883" lon="6.7883">
        <ele>1816.0676269531</ele>
        <time>2012-03-16T10:56:12Z</time>
      </trkpt>
      <trkpt lat="46.17869" lon="6.78841">
        <ele>1815.5871582031</ele>
        <time>2012-03-16T10:56:17Z</time>
      </trkpt>
      <trkpt lat="46.17855" lon="6.78847">
        <ele>1821.8356933594</ele>
        <time>2012-03-16T10:56:20Z</time>
      </trkpt>
      <trkpt lat="46.17842" lon="6.78851">
        <ele>1829.5261230469</ele>
        <time>2012-03-16T10:56:23Z</time>
      </trkpt>
      <trkpt lat="46.17834" lon="6.78854">
        <ele>1833.8520507812</ele>
        <time>2012-03-16T10:56:25Z</time>
      </trkpt>
      <trkpt lat="46.17827" lon="6.78857">
        <ele>1837.216796875</ele>
        <time>2012-03-16T10:56:27Z</time>
      </trkpt>
      <trkpt lat="46.17819" lon="6.78861">
        <ele>1842.5041503906</ele>
        <time>2012-03-16T10:56:29Z</time>
      </trkpt>
      <trkpt lat="46.17801" lon="6.78868">
        <ele>1848.2717285156</ele>
        <time>2012-03-16T10:56:33Z</time>
      </trkpt>
      <trkpt lat="46.17789" lon="6.78873">
        <ele>1855.0012207031</ele>
        <time>2012-03-16T10:56:36Z</time>
      </trkpt>
      <trkpt lat="46.1778" lon="6.78876">
        <ele>1858.3657226562</ele>
        <time>2012-03-16T10:56:38Z</time>
      </trkpt>
      <trkpt lat="46.17772" lon="6.78879">
        <ele>1862.6916503906</ele>
        <time>2012-03-16T10:56:40Z</time>
      </trkpt>
      <trkpt lat="46.17763" lon="6.78882">
        <ele>1863.6528320312</ele>
        <time>2012-03-16T10:56:42Z</time>
      </trkpt>
      <trkpt lat="46.1776" lon="6.78884">
        <ele>1867.498046875</ele>
        <time>2012-03-16T10:56:43Z</time>
      </trkpt>
      <trkpt lat="46.17748" lon="6.78889">
        <ele>1870.3823242188</ele>
        <time>2012-03-16T10:56:46Z</time>
      </trkpt>
      <trkpt lat="46.17736" lon="6.78894">
        <ele>1873.7468261719</ele>
        <time>2012-03-16T10:56:49Z</time>
      </trkpt>
      <trkpt lat="46.17724" lon="6.78899">
        <ele>1877.5920410156</ele>
        <time>2012-03-16T10:56:52Z</time>
      </trkpt>
      <trkpt lat="46.17711" lon="6.78905">
        <ele>1880.9567871094</ele>
        <time>2012-03-16T10:56:55Z</time>
      </trkpt>
      <trkpt lat="46.17695" lon="6.78911">
        <ele>1884.8022460938</ele>
        <time>2012-03-16T10:56:59Z</time>
      </trkpt>
      <trkpt lat="46.17676" lon="6.78918">
        <ele>1887.2053222656</ele>
        <time>2012-03-16T10:57:03Z</time>
      </trkpt>
      <trkpt lat="46.17653" lon="6.78926">
        <ele>1888.6474609375</ele>
        <time>2012-03-16T10:57:08Z</time>
      </trkpt>
      <trkpt lat="46.17636" lon="6.78933">
        <ele>1891.0505371094</ele>
        <time>2012-03-16T10:57:12Z</time>
      </trkpt>
      <trkpt lat="46.17615" lon="6.78942">
        <ele>1893.4538574219</ele>
        <time>2012-03-16T10:57:17Z</time>
      </trkpt>
      <trkpt lat="46.17602" lon="6.78947">
        <ele>1896.818359375</ele>
        <time>2012-03-16T10:57:20Z</time>
      </trkpt>
      <trkpt lat="46.17589" lon="6.78953">
        <ele>1900.1833496094</ele>
        <time>2012-03-16T10:57:23Z</time>
      </trkpt>
      <trkpt lat="46.17581" lon="6.78956">
        <ele>1904.5090332031</ele>
        <time>2012-03-16T10:57:25Z</time>
      </trkpt>
      <trkpt lat="46.17559" lon="6.78964">
        <ele>1907.3930664062</ele>
        <time>2012-03-16T10:57:30Z</time>
      </trkpt>
      <trkpt lat="46.17511" lon="6.78983">
        <ele>1909.3156738281</ele>
        <time>2012-03-16T10:57:41Z</time>
      </trkpt>
      <trkpt lat="46.17476" lon="6.78997">
        <ele>1913.1608886719</ele>
        <time>2012-03-16T10:57:49Z</time>
      </trkpt>
      <trkpt lat="46.17466" lon="6.79">
        <ele>1915.0834960938</ele>
        <time>2012-03-16T10:57:51Z</time>
      </trkpt>
      <trkpt lat="46.17444" lon="6.79007">
        <ele>1918.4482421875</ele>
        <time>2012-03-16T10:57:56Z</time>
      </trkpt>
      <trkpt lat="46.17431" lon="6.79012">
        <ele>1922.2934570312</ele>
        <time>2012-03-16T10:57:59Z</time>
      </trkpt>
      <trkpt lat="46.17419" lon="6.79018">
        <ele>1924.2160644531</ele>
        <time>2012-03-16T10:58:02Z</time>
      </trkpt>
      <trkpt lat="46.1741" lon="6.79021">
        <ele>1927.5805664062</ele>
        <time>2012-03-16T10:58:04Z</time>
      </trkpt>
      <trkpt lat="46.17402" lon="6.79025">
        <ele>1930.4645996094</ele>
        <time>2012-03-16T10:58:06Z</time>
      </trkpt>
      <trkpt lat="46.17389" lon="6.7903">
        <ele>1935.2712402344</ele>
        <time>2012-03-16T10:58:09Z</time>
      </trkpt>
      <trkpt lat="46.17377" lon="6.79035">
        <ele>1938.1552734375</ele>
        <time>2012-03-16T10:58:12Z</time>
      </trkpt>
      <trkpt lat="46.17369" lon="6.79039">
        <ele>1943.4423828125</ele>
        <time>2012-03-16T10:58:14Z</time>
      </trkpt>
      <trkpt lat="46.17361" lon="6.79042">
        <ele>1947.2875976562</ele>
        <time>2012-03-16T10:58:16Z</time>
      </trkpt>
      <trkpt lat="46.17352" lon="6.79046">
        <ele>1950.171875</ele>
        <time>2012-03-16T10:58:18Z</time>
      </trkpt>
      <trkpt lat="46.17344" lon="6.7905">
        <ele>1954.0170898438</ele>
        <time>2012-03-16T10:58:20Z</time>
      </trkpt>
      <trkpt lat="46.1733" lon="6.79052">
        <ele>1956.9008789062</ele>
        <time>2012-03-16T10:58:23Z</time>
      </trkpt>
      <trkpt lat="46.17326" lon="6.79054">
        <ele>1956.9008789062</ele>
        <time>2012-03-16T10:58:24Z</time>
      </trkpt>
      <trkpt lat="46.17317" lon="6.79057">
        <ele>1960.2653808594</ele>
        <time>2012-03-16T10:58:26Z</time>
      </trkpt>
      <trkpt lat="46.17309" lon="6.79061">
        <ele>1964.1108398438</ele>
        <time>2012-03-16T10:58:28Z</time>
      </trkpt>
      <trkpt lat="46.17297" lon="6.79066">
        <ele>1967.4753417969</ele>
        <time>2012-03-16T10:58:31Z</time>
      </trkpt>
      <trkpt lat="46.17288" lon="6.7907">
        <ele>1970.359375</ele>
        <time>2012-03-16T10:58:33Z</time>
      </trkpt>
      <trkpt lat="46.17276" lon="6.79076">
        <ele>1974.6853027344</ele>
        <time>2012-03-16T10:58:36Z</time>
      </trkpt>
      <trkpt lat="46.17228" lon="6.7912">
        <ele>1978.5305175781</ele>
        <time>2012-03-16T10:58:39Z</time>
      </trkpt>
      <trkpt lat="46.17228" lon="6.7912">
        <ele>1983.3371582031</ele>
        <time>2012-03-16T10:58:42Z</time>
      </trkpt>
      <trkpt lat="46.17228" lon="6.7912">
        <ele>1986.7016601562</ele>
        <time>2012-03-16T10:58:44Z</time>
      </trkpt>
      <trkpt lat="46.17228" lon="6.7912">
        <ele>1991.5083007812</ele>
        <time>2012-03-16T10:58:47Z</time>
      </trkpt>
      <trkpt lat="46.17228" lon="6.7912">
        <ele>1994.3920898438</ele>
        <time>2012-03-16T10:58:49Z</time>
      </trkpt>
      <trkpt lat="46.17228" lon="6.7912">
        <ele>1998.2375488281</ele>
        <time>2012-03-16T10:58:51Z</time>
      </trkpt>
      <trkpt lat="46.17194" lon="6.79135">
        <ele>2001.6022949219</ele>
        <time>2012-03-16T10:58:53Z</time>
      </trkpt>
      <trkpt lat="46.17184" lon="6.79127">
        <ele>2006.4086914062</ele>
        <time>2012-03-16T10:58:57Z</time>
      </trkpt>
      <trkpt lat="46.17174" lon="6.79125">
        <ele>2009.7731933594</ele>
        <time>2012-03-16T10:59:00Z</time>
      </trkpt>
      <trkpt lat="46.17166" lon="6.79129">
        <ele>2014.0993652344</ele>
        <time>2012-03-16T10:59:02Z</time>
      </trkpt>
      <trkpt lat="46.17153" lon="6.79148">
        <ele>2017.4638671875</ele>
        <time>2012-03-16T10:59:07Z</time>
      </trkpt>
      <trkpt lat="46.17132" lon="6.79158">
        <ele>2020.8286132812</ele>
        <time>2012-03-16T10:59:10Z</time>
      </trkpt>
      <trkpt lat="46.17126" lon="6.79156">
        <ele>2024.1931152344</ele>
        <time>2012-03-16T10:59:12Z</time>
      </trkpt>
      <trkpt lat="46.17118" lon="6.79153">
        <ele>2027.5576171875</ele>
        <time>2012-03-16T10:59:14Z</time>
      </trkpt>
      <trkpt lat="46.17105" lon="6.79143">
        <ele>2031.4030761719</ele>
        <time>2012-03-16T10:59:18Z</time>
      </trkpt>
      <trkpt lat="46.17095" lon="6.79137">
        <ele>2034.7678222656</ele>
        <time>2012-03-16T10:59:21Z</time>
      </trkpt>
      <trkpt lat="46.17089" lon="6.79133">
        <ele>2035.7290039062</ele>
        <time>2012-03-16T10:59:23Z</time>
      </trkpt>
      <trkpt lat="46.17065" lon="6.79128">
        <ele>2041.4968261719</ele>
        <time>2012-03-16T10:59:26Z</time>
      </trkpt>
      <trkpt lat="46.17057" lon="6.79129">
        <ele>2044.8615722656</ele>
        <time>2012-03-16T10:59:28Z</time>
      </trkpt>
      <trkpt lat="46.17052" lon="6.7913">
        <ele>2044.8615722656</ele>
        <time>2012-03-16T10:59:29Z</time>
      </trkpt>
      <trkpt lat="46.17044" lon="6.79131">
        <ele>2048.2260742188</ele>
        <time>2012-03-16T10:59:31Z</time>
      </trkpt>
      <trkpt lat="46.17027" lon="6.79133">
        <ele>2053.5134277344</ele>
        <time>2012-03-16T10:59:35Z</time>
      </trkpt>
      <trkpt lat="46.17018" lon="6.79134">
        <ele>2055.9165039062</ele>
        <time>2012-03-16T10:59:37Z</time>
      </trkpt>
      <trkpt lat="46.17009" lon="6.79135">
        <ele>2058.3198242188</ele>
        <time>2012-03-16T10:59:39Z</time>
      </trkpt>
      <trkpt lat="46.17001" lon="6.79137">
        <ele>2061.6848144531</ele>
        <time>2012-03-16T10:59:41Z</time>
      </trkpt>
      <trkpt lat="46.16987" lon="6.79137">
        <ele>2066.0104980469</ele>
        <time>2012-03-16T10:59:44Z</time>
      </trkpt>
      <trkpt lat="46.16966" lon="6.79155">
        <ele>2069.3752441406</ele>
        <time>2012-03-16T10:59:48Z</time>
      </trkpt>
      <trkpt lat="46.16953" lon="6.79159">
        <ele>2072.7397460938</ele>
        <time>2012-03-16T10:59:51Z</time>
      </trkpt>
      <trkpt lat="46.16941" lon="6.79162">
        <ele>2077.0659179688</ele>
        <time>2012-03-16T10:59:54Z</time>
      </trkpt>
      <trkpt lat="46.16938" lon="6.79163">
        <ele>2077.0659179688</ele>
        <time>2012-03-16T10:59:55Z</time>
      </trkpt>
      <trkpt lat="46.16917" lon="6.79169">
        <ele>2079.9497070312</ele>
        <time>2012-03-16T10:59:58Z</time>
      </trkpt>
      <trkpt lat="46.16911" lon="6.79179">
        <ele>2083.794921875</ele>
        <time>2012-03-16T11:00:00Z</time>
      </trkpt>
      <trkpt lat="46.16901" lon="6.79191">
        <ele>2088.1208496094</ele>
        <time>2012-03-16T11:00:03Z</time>
      </trkpt>
      <trkpt lat="46.16897" lon="6.79195">
        <ele>2088.6015625</ele>
        <time>2012-03-16T11:00:04Z</time>
      </trkpt>
      <trkpt lat="46.16874" lon="6.79205">
        <ele>2093.408203125</ele>
        <time>2012-03-16T11:00:09Z</time>
      </trkpt>
      <trkpt lat="46.16866" lon="6.79207">
        <ele>2096.7727050781</ele>
        <time>2012-03-16T11:00:11Z</time>
      </trkpt>
      <trkpt lat="46.16862" lon="6.79208">
        <ele>2096.7727050781</ele>
        <time>2012-03-16T11:00:12Z</time>
      </trkpt>
      <trkpt lat="46.16854" lon="6.7921">
        <ele>2102.5405273438</ele>
        <time>2012-03-16T11:00:14Z</time>
      </trkpt>
      <trkpt lat="46.16846" lon="6.79212">
        <ele>2106.3857421875</ele>
        <time>2012-03-16T11:00:16Z</time>
      </trkpt>
      <trkpt lat="46.16834" lon="6.79219">
        <ele>2110.2312011719</ele>
        <time>2012-03-16T11:00:19Z</time>
      </trkpt>
      <trkpt lat="46.16821" lon="6.79225">
        <ele>2113.595703125</ele>
        <time>2012-03-16T11:00:22Z</time>
      </trkpt>
      <trkpt lat="46.1681" lon="6.79227">
        <ele>2116.9604492188</ele>
        <time>2012-03-16T11:00:25Z</time>
      </trkpt>
      <trkpt lat="46.16801" lon="6.7923">
        <ele>2120.3249511719</ele>
        <time>2012-03-16T11:00:27Z</time>
      </trkpt>
      <trkpt lat="46.16793" lon="6.79233">
        <ele>2123.689453125</ele>
        <time>2012-03-16T11:00:29Z</time>
      </trkpt>
      <trkpt lat="46.16782" lon="6.79235">
        <ele>2128.4963378906</ele>
        <time>2012-03-16T11:00:32Z</time>
      </trkpt>
      <trkpt lat="46.16776" lon="6.79229">
        <ele>2131.3801269531</ele>
        <time>2012-03-16T11:00:35Z</time>
      </trkpt>
      <trkpt lat="46.1677" lon="6.7928">
        <ele>2131.8608398438</ele>
        <time>2012-03-16T11:00:36Z</time>
      </trkpt>
      <trkpt lat="46.16762" lon="6.79284">
        <ele>2135.2253417969</ele>
        <time>2012-03-16T11:00:38Z</time>
      </trkpt>
      <trkpt lat="46.16754" lon="6.79287">
        <ele>2139.0705566406</ele>
        <time>2012-03-16T11:00:40Z</time>
      </trkpt>
      <trkpt lat="46.16749" lon="6.79289">
        <ele>2141.9548339844</ele>
        <time>2012-03-16T11:00:41Z</time>
      </trkpt>
      <trkpt lat="46.16733" lon="6.79204">
        <ele>2146.2807617188</ele>
        <time>2012-03-16T11:00:44Z</time>
      </trkpt>
      <trkpt lat="46.16685" lon="6.79322">
        <ele>2149.6452636719</ele>
        <time>2012-03-16T11:00:47Z</time>
      </trkpt>
      <trkpt lat="46.16685" lon="6.79322">
        <ele>2154.4516601562</ele>
        <time>2012-03-16T11:00:50Z</time>
      </trkpt>
      <trkpt lat="46.16679" lon="6.79316">
        <ele>2159.7390136719</ele>
        <time>2012-03-16T11:00:54Z</time>
      </trkpt>
      <trkpt lat="46.16675" lon="6.79312">
        <ele>2163.1037597656</ele>
        <time>2012-03-16T11:00:56Z</time>
      </trkpt>
      <trkpt lat="46.16672" lon="6.79309">
        <ele>2165.9875488281</ele>
        <time>2012-03-16T11:00:58Z</time>
      </trkpt>
      <trkpt lat="46.16668" lon="6.79305">
        <ele>2169.3522949219</ele>
        <time>2012-03-16T11:01:00Z</time>
      </trkpt>
      <trkpt lat="46.16665" lon="6.79302">
        <ele>2173.1977539062</ele>
        <time>2012-03-16T11:01:02Z</time>
      </trkpt>
      <trkpt lat="46.16663" lon="6.79299">
        <ele>2176.0815429688</ele>
        <time>2012-03-16T11:01:03Z</time>
      </trkpt>
      <trkpt lat="46.1666" lon="6.79296">
        <ele>2179.4460449219</ele>
        <time>2012-03-16T11:01:05Z</time>
      </trkpt>
      <trkpt lat="46.16599" lon="6.79301">
        <ele>2182.330078125</ele>
        <time>2012-03-16T11:01:06Z</time>
      </trkpt>
      <trkpt lat="46.16599" lon="6.79301">
        <ele>2185.2138671875</ele>
        <time>2012-03-16T11:01:08Z</time>
      </trkpt>
      <trkpt lat="46.16599" lon="6.79301">
        <ele>2190.5012207031</ele>
        <time>2012-03-16T11:01:11Z</time>
      </trkpt>
      <trkpt lat="46.16599" lon="6.79301">
        <ele>2195.3078613281</ele>
        <time>2012-03-16T11:01:13Z</time>
      </trkpt>
      <trkpt lat="46.1659" lon="6.79312">
        <ele>2199.1530761719</ele>
        <time>2012-03-16T11:01:16Z</time>
      </trkpt>
      <trkpt lat="46.16586" lon="6.79318">
        <ele>2202.0368652344</ele>
        <time>2012-03-16T11:01:18Z</time>
      </trkpt>
      <trkpt lat="46.16574" lon="6.79324">
        <ele>2205.8823242188</ele>
        <time>2012-03-16T11:01:21Z</time>
      </trkpt>
      <trkpt lat="46.16566" lon="6.79321">
        <ele>2210.6889648438</ele>
        <time>2012-03-16T11:01:24Z</time>
      </trkpt>
      <trkpt lat="46.1656" lon="6.79319">
        <ele>2215.0148925781</ele>
        <time>2012-03-16T11:01:26Z</time>
      </trkpt>
      <trkpt lat="46.16552" lon="6.79316">
        <ele>2217.8986816406</ele>
        <time>2012-03-16T11:01:29Z</time>
      </trkpt>
      <trkpt lat="46.16549" lon="6.79313">
        <ele>2221.2634277344</ele>
        <time>2012-03-16T11:01:32Z</time>
      </trkpt>
      <trkpt lat="46.16547" lon="6.79311">
        <ele>2222.2248535156</ele>
        <time>2012-03-16T11:01:34Z</time>
      </trkpt>
      <trkpt lat="46.16495" lon="6.79409">
        <ele>2222.2248535156</ele>
        <time>2012-03-16T11:01:41Z</time>
      </trkpt>
      <trkpt lat="46.16488" lon="6.79402">
        <ele>2221.2634277344</ele>
        <time>2012-03-16T11:01:54Z</time>
      </trkpt>
      <trkpt lat="46.16488" lon="6.79402">
        <ele>2221.744140625</ele>
        <time>2012-03-16T11:02:11Z</time>
      </trkpt>
      <trkpt lat="46.16488" lon="6.79402">
        <ele>2221.2634277344</ele>
        <time>2012-03-16T11:02:21Z</time>
      </trkpt>
      <trkpt lat="46.16462" lon="6.79359">
        <ele>2219.8212890625</ele>
        <time>2012-03-16T11:02:32Z</time>
      </trkpt>
      <trkpt lat="46.16503" lon="6.79326">
        <ele>2218.8601074219</ele>
        <time>2012-03-16T11:02:34Z</time>
      </trkpt>
      <trkpt lat="46.16526" lon="6.7929">
        <ele>2208.2856445312</ele>
        <time>2012-03-16T11:02:38Z</time>
      </trkpt>
      <trkpt lat="46.16531" lon="6.79295">
        <ele>2205.8823242188</ele>
        <time>2012-03-16T11:02:39Z</time>
      </trkpt>
      <trkpt lat="46.16564" lon="6.7932">
        <ele>2197.23046875</ele>
        <time>2012-03-16T11:02:43Z</time>
      </trkpt>
      <trkpt lat="46.16573" lon="6.79324">
        <ele>2195.3078613281</ele>
        <time>2012-03-16T11:02:44Z</time>
      </trkpt>
      <trkpt lat="46.16594" lon="6.79307">
        <ele>2190.5012207031</ele>
        <time>2012-03-16T11:02:48Z</time>
      </trkpt>
      <trkpt lat="46.16601" lon="6.79285">
        <ele>2187.6171875</ele>
        <time>2012-03-16T11:02:53Z</time>
      </trkpt>
      <trkpt lat="46.16604" lon="6.79204">
        <ele>2186.1752929688</ele>
        <time>2012-03-16T11:02:56Z</time>
      </trkpt>
      <trkpt lat="46.16605" lon="6.79204">
        <ele>2183.2912597656</ele>
        <time>2012-03-16T11:02:59Z</time>
      </trkpt>
      <trkpt lat="46.16631" lon="6.7926">
        <ele>2178.4848632812</ele>
        <time>2012-03-16T11:03:01Z</time>
      </trkpt>
      <trkpt lat="46.16631" lon="6.7926">
        <ele>2174.1589355469</ele>
        <time>2012-03-16T11:03:04Z</time>
      </trkpt>
      <trkpt lat="46.16605" lon="6.79204">
        <ele>2169.8327636719</ele>
        <time>2012-03-16T11:03:07Z</time>
      </trkpt>
      <trkpt lat="46.16648" lon="6.79218">
        <ele>2167.91015625</ele>
        <time>2012-03-16T11:03:11Z</time>
      </trkpt>
      <trkpt lat="46.16643" lon="6.79275">
        <ele>2164.5456542969</ele>
        <time>2012-03-16T11:03:14Z</time>
      </trkpt>
      <trkpt lat="46.16648" lon="6.79281">
        <ele>2159.7390136719</ele>
        <time>2012-03-16T11:03:16Z</time>
      </trkpt>
      <trkpt lat="46.16656" lon="6.79291">
        <ele>2155.4130859375</ele>
        <time>2012-03-16T11:03:18Z</time>
      </trkpt>
      <trkpt lat="46.16669" lon="6.79305">
        <ele>2149.6452636719</ele>
        <time>2012-03-16T11:03:21Z</time>
      </trkpt>
      <trkpt lat="46.16711" lon="6.79205">
        <ele>2146.2807617188</ele>
        <time>2012-03-16T11:03:25Z</time>
      </trkpt>
      <trkpt lat="46.16714" lon="6.79205">
        <ele>2141.9548339844</ele>
        <time>2012-03-16T11:03:26Z</time>
      </trkpt>
      <trkpt lat="46.16685" lon="6.79322">
        <ele>2139.5512695312</ele>
        <time>2012-03-16T11:03:29Z</time>
      </trkpt>
      <trkpt lat="46.16685" lon="6.79322">
        <ele>2135.7060546875</ele>
        <time>2012-03-16T11:03:31Z</time>
      </trkpt>
      <trkpt lat="46.16734" lon="6.79204">
        <ele>2133.302734375</ele>
        <time>2012-03-16T11:03:32Z</time>
      </trkpt>
      <trkpt lat="46.16758" lon="6.79261">
        <ele>2130.4189453125</ele>
        <time>2012-03-16T11:03:34Z</time>
      </trkpt>
      <trkpt lat="46.1678" lon="6.79233">
        <ele>2130.8996582031</ele>
        <time>2012-03-16T11:03:36Z</time>
      </trkpt>
      <trkpt lat="46.16785" lon="6.79236">
        <ele>2128.4963378906</ele>
        <time>2012-03-16T11:03:39Z</time>
      </trkpt>
      <trkpt lat="46.16789" lon="6.79234">
        <ele>2128.9768066406</ele>
        <time>2012-03-16T11:03:42Z</time>
      </trkpt>
      <trkpt lat="46.16809" lon="6.79228">
        <ele>2125.6123046875</ele>
        <time>2012-03-16T11:03:53Z</time>
      </trkpt>
      <trkpt lat="46.16812" lon="6.79217">
        <ele>2122.2475585938</ele>
        <time>2012-03-16T11:03:57Z</time>
      </trkpt>
      <trkpt lat="46.16813" lon="6.79222">
        <ele>2120.3249511719</ele>
        <time>2012-03-16T11:04:01Z</time>
      </trkpt>
      <trkpt lat="46.16818" lon="6.79227">
        <ele>2114.5571289062</ele>
        <time>2012-03-16T11:04:03Z</time>
      </trkpt>
      <trkpt lat="46.16826" lon="6.79225">
        <ele>2108.7893066406</ele>
        <time>2012-03-16T11:04:05Z</time>
      </trkpt>
      <trkpt lat="46.16836" lon="6.79237">
        <ele>2104.9438476562</ele>
        <time>2012-03-16T11:04:07Z</time>
      </trkpt>
      <trkpt lat="46.16848" lon="6.79212">
        <ele>2100.1374511719</ele>
        <time>2012-03-16T11:04:10Z</time>
      </trkpt>
      <trkpt lat="46.16858" lon="6.79209">
        <ele>2095.3308105469</ele>
        <time>2012-03-16T11:04:13Z</time>
      </trkpt>
      <trkpt lat="46.16867" lon="6.79207">
        <ele>2090.5239257812</ele>
        <time>2012-03-16T11:04:15Z</time>
      </trkpt>
      <trkpt lat="46.16881" lon="6.79203">
        <ele>2087.6401367188</ele>
        <time>2012-03-16T11:04:18Z</time>
      </trkpt>
      <trkpt lat="46.16889" lon="6.79201">
        <ele>2086.1982421875</ele>
        <time>2012-03-16T11:04:20Z</time>
      </trkpt>
      <trkpt lat="46.16908" lon="6.79185">
        <ele>2076.5852050781</ele>
        <time>2012-03-16T11:04:25Z</time>
      </trkpt>
      <trkpt lat="46.16911" lon="6.79179">
        <ele>2072.2590332031</ele>
        <time>2012-03-16T11:04:29Z</time>
      </trkpt>
      <trkpt lat="46.16916" lon="6.79171">
        <ele>2067.9331054688</ele>
        <time>2012-03-16T11:04:31Z</time>
      </trkpt>
      <trkpt lat="46.16931" lon="6.79163">
        <ele>2067.9331054688</ele>
        <time>2012-03-16T11:04:32Z</time>
      </trkpt>
      <trkpt lat="46.1694" lon="6.79177">
        <ele>2064.5686035156</ele>
        <time>2012-03-16T11:04:34Z</time>
      </trkpt>
      <trkpt lat="46.16941" lon="6.79171">
        <ele>2065.0493164062</ele>
        <time>2012-03-16T11:04:35Z</time>
      </trkpt>
      <trkpt lat="46.16941" lon="6.79167">
        <ele>2064.5686035156</ele>
        <time>2012-03-16T11:04:36Z</time>
      </trkpt>
      <trkpt lat="46.16947" lon="6.79159">
        <ele>2062.1652832031</ele>
        <time>2012-03-16T11:04:40Z</time>
      </trkpt>
      <trkpt lat="46.16961" lon="6.79157">
        <ele>2057.3586425781</ele>
        <time>2012-03-16T11:04:45Z</time>
      </trkpt>
      <trkpt lat="46.16965" lon="6.79156">
        <ele>2053.994140625</ele>
        <time>2012-03-16T11:04:46Z</time>
      </trkpt>
      <trkpt lat="46.16995" lon="6.79137">
        <ele>2042.9387207031</ele>
        <time>2012-03-16T11:04:51Z</time>
      </trkpt>
      <trkpt lat="46.17001" lon="6.79137">
        <ele>2042.4582519531</ele>
        <time>2012-03-16T11:04:52Z</time>
      </trkpt>
      <trkpt lat="46.17009" lon="6.79135">
        <ele>2041.0161132812</ele>
        <time>2012-03-16T11:04:54Z</time>
      </trkpt>
      <trkpt lat="46.17018" lon="6.79134">
        <ele>2040.5354003906</ele>
        <time>2012-03-16T11:04:59Z</time>
      </trkpt>
      <trkpt lat="46.17025" lon="6.79133">
        <ele>2035.7290039062</ele>
        <time>2012-03-16T11:05:03Z</time>
      </trkpt>
      <trkpt lat="46.17028" lon="6.79139">
        <ele>2035.7290039062</ele>
        <time>2012-03-16T11:05:04Z</time>
      </trkpt>
      <trkpt lat="46.17038" lon="6.79132">
        <ele>2032.3645019531</ele>
        <time>2012-03-16T11:05:10Z</time>
      </trkpt>
      <trkpt lat="46.17043" lon="6.79131">
        <ele>2030.9226074219</ele>
        <time>2012-03-16T11:05:11Z</time>
      </trkpt>
      <trkpt lat="46.17065" lon="6.79128">
        <ele>2022.7512207031</ele>
        <time>2012-03-16T11:05:14Z</time>
      </trkpt>
      <trkpt lat="46.17077" lon="6.79127">
        <ele>2022.2705078125</ele>
        <time>2012-03-16T11:05:16Z</time>
      </trkpt>
      <trkpt lat="46.17088" lon="6.79132">
        <ele>2019.8671875</ele>
        <time>2012-03-16T11:05:22Z</time>
      </trkpt>
      <trkpt lat="46.17094" lon="6.79137">
        <ele>2018.4252929688</ele>
        <time>2012-03-16T11:05:28Z</time>
      </trkpt>
      <trkpt lat="46.17102" lon="6.79142">
        <ele>2016.0219726562</ele>
        <time>2012-03-16T11:05:30Z</time>
      </trkpt>
      <trkpt lat="46.1711" lon="6.79148">
        <ele>2015.0607910156</ele>
        <time>2012-03-16T11:05:32Z</time>
      </trkpt>
      <trkpt lat="46.17166" lon="6.79129">
        <ele>2013.6186523438</ele>
        <time>2012-03-16T11:05:38Z</time>
      </trkpt>
      <trkpt lat="46.1717" lon="6.79126">
        <ele>2012.6574707031</ele>
        <time>2012-03-16T11:05:42Z</time>
      </trkpt>
      <trkpt lat="46.17174" lon="6.79125">
        <ele>2008.3312988281</ele>
        <time>2012-03-16T11:05:45Z</time>
      </trkpt>
      <trkpt lat="46.17178" lon="6.79125">
        <ele>2002.5634765625</ele>
        <time>2012-03-16T11:05:46Z</time>
      </trkpt>
      <trkpt lat="46.17204" lon="6.79143">
        <ele>1998.7182617188</ele>
        <time>2012-03-16T11:05:51Z</time>
      </trkpt>
      <trkpt lat="46.17209" lon="6.79144">
        <ele>1994.8728027344</ele>
        <time>2012-03-16T11:05:53Z</time>
      </trkpt>
      <trkpt lat="46.17215" lon="6.79144">
        <ele>1989.5856933594</ele>
        <time>2012-03-16T11:05:56Z</time>
      </trkpt>
      <trkpt lat="46.17215" lon="6.79144">
        <ele>1989.5856933594</ele>
        <time>2012-03-16T11:05:57Z</time>
      </trkpt>
      <trkpt lat="46.17217" lon="6.7914">
        <ele>1981.4145507812</ele>
        <time>2012-03-16T11:06:00Z</time>
      </trkpt>
      <trkpt lat="46.1722" lon="6.79148">
        <ele>1976.1271972656</ele>
        <time>2012-03-16T11:06:01Z</time>
      </trkpt>
      <trkpt lat="46.17229" lon="6.79153">
        <ele>1967.9560546875</ele>
        <time>2012-03-16T11:06:02Z</time>
      </trkpt>
      <trkpt lat="46.17221" lon="6.79135">
        <ele>1962.1879882812</ele>
        <time>2012-03-16T11:06:03Z</time>
      </trkpt>
      <trkpt lat="46.17224" lon="6.79129">
        <ele>1956.4201660156</ele>
        <time>2012-03-16T11:06:04Z</time>
      </trkpt>
      <trkpt lat="46.17277" lon="6.79153">
        <ele>1948.2490234375</ele>
        <time>2012-03-16T11:06:07Z</time>
      </trkpt>
      <trkpt lat="46.17226" lon="6.79124">
        <ele>1943.9230957031</ele>
        <time>2012-03-16T11:06:08Z</time>
      </trkpt>
      <trkpt lat="46.17225" lon="6.79127">
        <ele>1937.6745605469</ele>
        <time>2012-03-16T11:06:09Z</time>
      </trkpt>
      <trkpt lat="46.17301" lon="6.79217">
        <ele>1917.4868164062</ele>
        <time>2012-03-16T11:06:12Z</time>
      </trkpt>
      <trkpt lat="46.17309" lon="6.79234">
        <ele>1914.1220703125</ele>
        <time>2012-03-16T11:06:13Z</time>
      </trkpt>
      <trkpt lat="46.17319" lon="6.79245">
        <ele>1912.6801757812</ele>
        <time>2012-03-16T11:06:14Z</time>
      </trkpt>
      <trkpt lat="46.17377" lon="6.79271">
        <ele>1907.3930664062</ele>
        <time>2012-03-16T11:06:19Z</time>
      </trkpt>
      <trkpt lat="46.17385" lon="6.79281">
        <ele>1907.8737792969</ele>
        <time>2012-03-16T11:06:23Z</time>
      </trkpt>
      <trkpt lat="46.17381" lon="6.79285">
        <ele>1908.3542480469</ele>
        <time>2012-03-16T11:06:35Z</time>
      </trkpt>
      <trkpt lat="46.17381" lon="6.7928">
        <ele>1908.3542480469</ele>
        <time>2012-03-16T11:06:54Z</time>
      </trkpt>
      <trkpt lat="46.17377" lon="6.79274">
        <ele>1907.8737792969</ele>
        <time>2012-03-16T11:07:28Z</time>
      </trkpt>
      <trkpt lat="46.17377" lon="6.79277">
        <ele>1908.3542480469</ele>
        <time>2012-03-16T11:08:29Z</time>
      </trkpt>
      <trkpt lat="46.17379" lon="6.79276">
        <ele>1908.3542480469</ele>
        <time>2012-03-16T11:09:26Z</time>
      </trkpt>
      <trkpt lat="46.17384" lon="6.79272">
        <ele>1906.431640625</ele>
        <time>2012-03-16T11:09:29Z</time>
      </trkpt>
      <trkpt lat="46.17386" lon="6.79272">
        <ele>1905.9509277344</ele>
        <time>2012-03-16T11:09:30Z</time>
      </trkpt>
      <trkpt lat="46.17408" lon="6.79273">
        <ele>1901.14453125</ele>
        <time>2012-03-16T11:09:36Z</time>
      </trkpt>
      <trkpt lat="46.17429" lon="6.7927">
        <ele>1895.3764648438</ele>
        <time>2012-03-16T11:09:39Z</time>
      </trkpt>
      <trkpt lat="46.17447" lon="6.79264">
        <ele>1892.9731445312</ele>
        <time>2012-03-16T11:09:41Z</time>
      </trkpt>
      <trkpt lat="46.17505" lon="6.79209">
        <ele>1888.6474609375</ele>
        <time>2012-03-16T11:09:49Z</time>
      </trkpt>
      <trkpt lat="46.1752" lon="6.7919">
        <ele>1882.8791503906</ele>
        <time>2012-03-16T11:09:51Z</time>
      </trkpt>
      <trkpt lat="46.17527" lon="6.7918">
        <ele>1882.8791503906</ele>
        <time>2012-03-16T11:09:52Z</time>
      </trkpt>
      <trkpt lat="46.17577" lon="6.79108">
        <ele>1879.9953613281</ele>
        <time>2012-03-16T11:10:00Z</time>
      </trkpt>
      <trkpt lat="46.17593" lon="6.79086">
        <ele>1872.7856445312</ele>
        <time>2012-03-16T11:10:02Z</time>
      </trkpt>
      <trkpt lat="46.17615" lon="6.79068">
        <ele>1865.5756835938</ele>
        <time>2012-03-16T11:10:04Z</time>
      </trkpt>
      <trkpt lat="46.1764" lon="6.79053">
        <ele>1861.2497558594</ele>
        <time>2012-03-16T11:10:06Z</time>
      </trkpt>
      <trkpt lat="46.17665" lon="6.79039">
        <ele>1857.8852539062</ele>
        <time>2012-03-16T11:10:08Z</time>
      </trkpt>
      <trkpt lat="46.17695" lon="6.79023">
        <ele>1858.3657226562</ele>
        <time>2012-03-16T11:10:11Z</time>
      </trkpt>
      <trkpt lat="46.17739" lon="6.79035">
        <ele>1856.923828125</ele>
        <time>2012-03-16T11:10:16Z</time>
      </trkpt>
      <trkpt lat="46.17753" lon="6.79046">
        <ele>1856.923828125</ele>
        <time>2012-03-16T11:10:18Z</time>
      </trkpt>
      <trkpt lat="46.17798" lon="6.79114">
        <ele>1851.6364746094</ele>
        <time>2012-03-16T11:10:23Z</time>
      </trkpt>
      <trkpt lat="46.17794" lon="6.79039">
        <ele>1851.1557617188</ele>
        <time>2012-03-16T11:10:24Z</time>
      </trkpt>
      <trkpt lat="46.17805" lon="6.79024">
        <ele>1849.7138671875</ele>
        <time>2012-03-16T11:10:26Z</time>
      </trkpt>
      <trkpt lat="46.17822" lon="6.79001">
        <ele>1846.8298339844</ele>
        <time>2012-03-16T11:10:29Z</time>
      </trkpt>
      <trkpt lat="46.17836" lon="6.78981">
        <ele>1842.0234375</ele>
        <time>2012-03-16T11:10:31Z</time>
      </trkpt>
      <trkpt lat="46.17853" lon="6.78957">
        <ele>1836.7360839844</ele>
        <time>2012-03-16T11:10:33Z</time>
      </trkpt>
      <trkpt lat="46.17873" lon="6.78931">
        <ele>1830.9682617188</ele>
        <time>2012-03-16T11:10:35Z</time>
      </trkpt>
      <trkpt lat="46.17882" lon="6.78916">
        <ele>1827.603515625</ele>
        <time>2012-03-16T11:10:36Z</time>
      </trkpt>
      <trkpt lat="46.17903" lon="6.78889">
        <ele>1817.5095214844</ele>
        <time>2012-03-16T11:10:38Z</time>
      </trkpt>
      <trkpt lat="46.17913" lon="6.7888">
        <ele>1817.990234375</ele>
        <time>2012-03-16T11:10:39Z</time>
      </trkpt>
      <trkpt lat="46.17921" lon="6.78873">
        <ele>1818.9516601562</ele>
        <time>2012-03-16T11:10:40Z</time>
      </trkpt>
      <trkpt lat="46.17929" lon="6.78885">
        <ele>1818.4709472656</ele>
        <time>2012-03-16T11:10:46Z</time>
      </trkpt>
      <trkpt lat="46.17929" lon="6.78889">
        <ele>1818.9516601562</ele>
        <time>2012-03-16T11:10:58Z</time>
      </trkpt>
      <trkpt lat="46.17933" lon="6.78892">
        <ele>1817.990234375</ele>
        <time>2012-03-16T11:11:15Z</time>
      </trkpt>
      <trkpt lat="46.17938" lon="6.78904">
        <ele>1818.9516601562</ele>
        <time>2012-03-16T11:11:37Z</time>
      </trkpt>
      <trkpt lat="46.17936" lon="6.78909">
        <ele>1817.990234375</ele>
        <time>2012-03-16T11:11:56Z</time>
      </trkpt>
      <trkpt lat="46.17934" lon="6.78912">
        <ele>1817.990234375</ele>
        <time>2012-03-16T11:12:16Z</time>
      </trkpt>
      <trkpt lat="46.17931" lon="6.78916">
        <ele>1817.5095214844</ele>
        <time>2012-03-16T11:12:35Z</time>
      </trkpt>
      <trkpt lat="46.17929" lon="6.7892">
        <ele>1817.0290527344</ele>
        <time>2012-03-16T11:12:39Z</time>
      </trkpt>
      <trkpt lat="46.17917" lon="6.78939">
        <ele>1817.0290527344</ele>
        <time>2012-03-16T11:12:45Z</time>
      </trkpt>
      <trkpt lat="46.17907" lon="6.78956">
        <ele>1822.7971191406</ele>
        <time>2012-03-16T11:12:49Z</time>
      </trkpt>
      <trkpt lat="46.17899" lon="6.7897">
        <ele>1826.1616210938</ele>
        <time>2012-03-16T11:12:52Z</time>
      </trkpt>
      <trkpt lat="46.17894" lon="6.78978">
        <ele>1830.9682617188</ele>
        <time>2012-03-16T11:12:54Z</time>
      </trkpt>
      <trkpt lat="46.17884" lon="6.78995">
        <ele>1834.8134765625</ele>
        <time>2012-03-16T11:12:58Z</time>
      </trkpt>
      <trkpt lat="46.17879" lon="6.79002">
        <ele>1838.1782226562</ele>
        <time>2012-03-16T11:13:00Z</time>
      </trkpt>
      <trkpt lat="46.17874" lon="6.79011">
        <ele>1842.9846191406</ele>
        <time>2012-03-16T11:13:02Z</time>
      </trkpt>
      <trkpt lat="46.17866" lon="6.79024">
        <ele>1848.2717285156</ele>
        <time>2012-03-16T11:13:05Z</time>
      </trkpt>
      <trkpt lat="46.17861" lon="6.79032">
        <ele>1851.6364746094</ele>
        <time>2012-03-16T11:13:07Z</time>
      </trkpt>
      <trkpt lat="46.17851" lon="6.7905">
        <ele>1855.0012207031</ele>
        <time>2012-03-16T11:13:11Z</time>
      </trkpt>
      <trkpt lat="46.17848" lon="6.79054">
        <ele>1855.4819335938</ele>
        <time>2012-03-16T11:13:12Z</time>
      </trkpt>
      <trkpt lat="46.17843" lon="6.79062">
        <ele>1860.2883300781</ele>
        <time>2012-03-16T11:13:14Z</time>
      </trkpt>
      <trkpt lat="46.17841" lon="6.79067">
        <ele>1860.2883300781</ele>
        <time>2012-03-16T11:13:15Z</time>
      </trkpt>
      <trkpt lat="46.17798" lon="6.79114">
        <ele>1864.1335449219</ele>
        <time>2012-03-16T11:13:18Z</time>
      </trkpt>
      <trkpt lat="46.17798" lon="6.79114">
        <ele>1866.0561523438</ele>
        <time>2012-03-16T11:13:21Z</time>
      </trkpt>
      <trkpt lat="46.17798" lon="6.79114">
        <ele>1868.9404296875</ele>
        <time>2012-03-16T11:13:25Z</time>
      </trkpt>
      <trkpt lat="46.17798" lon="6.79114">
        <ele>1873.7468261719</ele>
        <time>2012-03-16T11:13:28Z</time>
      </trkpt>
      <trkpt lat="46.17789" lon="6.79126">
        <ele>1877.1115722656</ele>
        <time>2012-03-16T11:13:32Z</time>
      </trkpt>
      <trkpt lat="46.17767" lon="6.79151">
        <ele>1879.9953613281</ele>
        <time>2012-03-16T11:13:39Z</time>
      </trkpt>
      <trkpt lat="46.1775" lon="6.7917">
        <ele>1882.8791503906</ele>
        <time>2012-03-16T11:13:45Z</time>
      </trkpt>
      <trkpt lat="46.17738" lon="6.7918">
        <ele>1886.244140625</ele>
        <time>2012-03-16T11:13:49Z</time>
      </trkpt>
      <trkpt lat="46.17734" lon="6.79182">
        <ele>1886.244140625</ele>
        <time>2012-03-16T11:13:50Z</time>
      </trkpt>
      <trkpt lat="46.17724" lon="6.79189">
        <ele>1888.1667480469</ele>
        <time>2012-03-16T11:13:53Z</time>
      </trkpt>
      <trkpt lat="46.17719" lon="6.79193">
        <ele>1891.53125</ele>
        <time>2012-03-16T11:13:55Z</time>
      </trkpt>
      <trkpt lat="46.17715" lon="6.79195">
        <ele>1895.3764648438</ele>
        <time>2012-03-16T11:13:58Z</time>
      </trkpt>
      <trkpt lat="46.1772" lon="6.79275">
        <ele>1899.7023925781</ele>
        <time>2012-03-16T11:14:01Z</time>
      </trkpt>
      <trkpt lat="46.17711" lon="6.7928">
        <ele>1904.0285644531</ele>
        <time>2012-03-16T11:14:04Z</time>
      </trkpt>
      <trkpt lat="46.17708" lon="6.79281">
        <ele>1904.0285644531</ele>
        <time>2012-03-16T11:14:05Z</time>
      </trkpt>
      <trkpt lat="46.17699" lon="6.79286">
        <ele>1908.3542480469</ele>
        <time>2012-03-16T11:14:08Z</time>
      </trkpt>
      <trkpt lat="46.17696" lon="6.79287">
        <ele>1908.3542480469</ele>
        <time>2012-03-16T11:14:09Z</time>
      </trkpt>
      <trkpt lat="46.17681" lon="6.79288">
        <ele>1913.6413574219</ele>
        <time>2012-03-16T11:14:16Z</time>
      </trkpt>
      <trkpt lat="46.17676" lon="6.79288">
        <ele>1915.0834960938</ele>
        <time>2012-03-16T11:14:18Z</time>
      </trkpt>
      <trkpt lat="46.17669" lon="6.79287">
        <ele>1916.5256347656</ele>
        <time>2012-03-16T11:14:22Z</time>
      </trkpt>
      <trkpt lat="46.17662" lon="6.79286">
        <ele>1919.4096679688</ele>
        <time>2012-03-16T11:14:25Z</time>
      </trkpt>
      <trkpt lat="46.17655" lon="6.79383">
        <ele>1922.7741699219</ele>
        <time>2012-03-16T11:14:27Z</time>
      </trkpt>
      <trkpt lat="46.17647" lon="6.79396">
        <ele>1925.1772460938</ele>
        <time>2012-03-16T11:14:30Z</time>
      </trkpt>
      <trkpt lat="46.1764" lon="6.79409">
        <ele>1929.0224609375</ele>
        <time>2012-03-16T11:14:33Z</time>
      </trkpt>
      <trkpt lat="46.17632" lon="6.79422">
        <ele>1933.3486328125</ele>
        <time>2012-03-16T11:14:36Z</time>
      </trkpt>
      <trkpt lat="46.17625" lon="6.79434">
        <ele>1936.7131347656</ele>
        <time>2012-03-16T11:14:39Z</time>
      </trkpt>
      <trkpt lat="46.17619" lon="6.79443">
        <ele>1939.5971679688</ele>
        <time>2012-03-16T11:14:41Z</time>
      </trkpt>
      <trkpt lat="46.17608" lon="6.7946">
        <ele>1942.9616699219</ele>
        <time>2012-03-16T11:14:45Z</time>
      </trkpt>
      <trkpt lat="46.17603" lon="6.79469">
        <ele>1943.9230957031</ele>
        <time>2012-03-16T11:14:47Z</time>
      </trkpt>
      <trkpt lat="46.17593" lon="6.79487">
        <ele>1947.2875976562</ele>
        <time>2012-03-16T11:14:51Z</time>
      </trkpt>
      <trkpt lat="46.17577" lon="6.79513">
        <ele>1950.65234375</ele>
        <time>2012-03-16T11:14:57Z</time>
      </trkpt>
      <trkpt lat="46.17575" lon="6.79518">
        <ele>1951.1330566406</ele>
        <time>2012-03-16T11:14:58Z</time>
      </trkpt>
      <trkpt lat="46.1757" lon="6.79526">
        <ele>1952.0942382812</ele>
        <time>2012-03-16T11:15:00Z</time>
      </trkpt>
      <trkpt lat="46.17562" lon="6.7954">
        <ele>1954.4975585938</ele>
        <time>2012-03-16T11:15:03Z</time>
      </trkpt>
      <trkpt lat="46.17551" lon="6.79557">
        <ele>1957.3815917969</ele>
        <time>2012-03-16T11:15:07Z</time>
      </trkpt>
      <trkpt lat="46.17546" lon="6.79567">
        <ele>1960.2653808594</ele>
        <time>2012-03-16T11:15:09Z</time>
      </trkpt>
      <trkpt lat="46.17536" lon="6.79584">
        <ele>1964.1108398438</ele>
        <time>2012-03-16T11:15:13Z</time>
      </trkpt>
      <trkpt lat="46.17529" lon="6.79598">
        <ele>1966.9948730469</ele>
        <time>2012-03-16T11:15:16Z</time>
      </trkpt>
      <trkpt lat="46.17519" lon="6.79615">
        <ele>1971.3205566406</ele>
        <time>2012-03-16T11:15:20Z</time>
      </trkpt>
      <trkpt lat="46.17514" lon="6.79624">
        <ele>1975.1657714844</ele>
        <time>2012-03-16T11:15:22Z</time>
      </trkpt>
      <trkpt lat="46.17506" lon="6.79637">
        <ele>1978.5305175781</ele>
        <time>2012-03-16T11:15:25Z</time>
      </trkpt>
      <trkpt lat="46.17499" lon="6.79649">
        <ele>1985.259765625</ele>
        <time>2012-03-16T11:15:28Z</time>
      </trkpt>
      <trkpt lat="46.17491" lon="6.79662">
        <ele>1989.1049804688</ele>
        <time>2012-03-16T11:15:31Z</time>
      </trkpt>
      <trkpt lat="46.17483" lon="6.79675">
        <ele>1993.4309082031</ele>
        <time>2012-03-16T11:15:34Z</time>
      </trkpt>
      <trkpt lat="46.17479" lon="6.79683">
        <ele>1997.2763671875</ele>
        <time>2012-03-16T11:15:36Z</time>
      </trkpt>
      <trkpt lat="46.17474" lon="6.79692">
        <ele>2001.1215820312</ele>
        <time>2012-03-16T11:15:38Z</time>
      </trkpt>
      <trkpt lat="46.17466" lon="6.79704">
        <ele>2004.4860839844</ele>
        <time>2012-03-16T11:15:41Z</time>
      </trkpt>
      <trkpt lat="46.17454" lon="6.79725">
        <ele>2007.8508300781</ele>
        <time>2012-03-16T11:15:46Z</time>
      </trkpt>
      <trkpt lat="46.17446" lon="6.79739">
        <ele>2012.1767578125</ele>
        <time>2012-03-16T11:15:49Z</time>
      </trkpt>
      <trkpt lat="46.17442" lon="6.79747">
        <ele>2015.5415039062</ele>
        <time>2012-03-16T11:15:51Z</time>
      </trkpt>
      <trkpt lat="46.17437" lon="6.79756">
        <ele>2020.3479003906</ele>
        <time>2012-03-16T11:15:53Z</time>
      </trkpt>
      <trkpt lat="46.17429" lon="6.79769">
        <ele>2023.7124023438</ele>
        <time>2012-03-16T11:15:56Z</time>
      </trkpt>
      <trkpt lat="46.17425" lon="6.79777">
        <ele>2027.5576171875</ele>
        <time>2012-03-16T11:15:58Z</time>
      </trkpt>
      <trkpt lat="46.1742" lon="6.79785">
        <ele>2030.9226074219</ele>
        <time>2012-03-16T11:16:00Z</time>
      </trkpt>
      <trkpt lat="46.17412" lon="6.79798">
        <ele>2035.2482910156</ele>
        <time>2012-03-16T11:16:03Z</time>
      </trkpt>
      <trkpt lat="46.17404" lon="6.7981">
        <ele>2040.5354003906</ele>
        <time>2012-03-16T11:16:06Z</time>
      </trkpt>
      <trkpt lat="46.17394" lon="6.79828">
        <ele>2044.380859375</ele>
        <time>2012-03-16T11:16:10Z</time>
      </trkpt>
      <trkpt lat="46.17389" lon="6.79836">
        <ele>2047.7456054688</ele>
        <time>2012-03-16T11:16:12Z</time>
      </trkpt>
      <trkpt lat="46.17383" lon="6.79845">
        <ele>2051.1101074219</ele>
        <time>2012-03-16T11:16:14Z</time>
      </trkpt>
      <trkpt lat="46.17378" lon="6.79853">
        <ele>2054.9553222656</ele>
        <time>2012-03-16T11:16:16Z</time>
      </trkpt>
      <trkpt lat="46.17376" lon="6.79857">
        <ele>2054.9553222656</ele>
        <time>2012-03-16T11:16:17Z</time>
      </trkpt>
      <trkpt lat="46.17368" lon="6.79869">
        <ele>2059.28125</ele>
        <time>2012-03-16T11:16:20Z</time>
      </trkpt>
      <trkpt lat="46.1736" lon="6.79882">
        <ele>2062.6459960938</ele>
        <time>2012-03-16T11:16:23Z</time>
      </trkpt>
      <trkpt lat="46.17358" lon="6.79886">
        <ele>2063.1267089844</ele>
        <time>2012-03-16T11:16:24Z</time>
      </trkpt>
      <trkpt lat="46.17339" lon="6.79917">
        <ele>2066.4912109375</ele>
        <time>2012-03-16T11:16:31Z</time>
      </trkpt>
      <trkpt lat="46.17331" lon="6.7993">
        <ele>2069.3752441406</ele>
        <time>2012-03-16T11:16:34Z</time>
      </trkpt>
      <trkpt lat="46.17321" lon="6.79948">
        <ele>2073.7009277344</ele>
        <time>2012-03-16T11:16:38Z</time>
      </trkpt>
      <trkpt lat="46.17316" lon="6.79957">
        <ele>2075.6235351562</ele>
        <time>2012-03-16T11:16:40Z</time>
      </trkpt>
      <trkpt lat="46.17306" lon="6.79975">
        <ele>2079.9497070312</ele>
        <time>2012-03-16T11:16:44Z</time>
      </trkpt>
      <trkpt lat="46.17301" lon="6.79984">
        <ele>2081.3916015625</ele>
        <time>2012-03-16T11:16:46Z</time>
      </trkpt>
      <trkpt lat="46.17293" lon="6.79997">
        <ele>2085.2368164062</ele>
        <time>2012-03-16T11:16:49Z</time>
      </trkpt>
      <trkpt lat="46.17288" lon="6.80005">
        <ele>2089.08203125</ele>
        <time>2012-03-16T11:16:51Z</time>
      </trkpt>
      <trkpt lat="46.1728" lon="6.80018">
        <ele>2092.4470214844</ele>
        <time>2012-03-16T11:16:54Z</time>
      </trkpt>
      <trkpt lat="46.1727" lon="6.80035">
        <ele>2096.2922363281</ele>
        <time>2012-03-16T11:16:58Z</time>
      </trkpt>
      <trkpt lat="46.17265" lon="6.80043">
        <ele>2099.6567382812</ele>
        <time>2012-03-16T11:17:00Z</time>
      </trkpt>
      <trkpt lat="46.17257" lon="6.80056">
        <ele>2103.501953125</ele>
        <time>2012-03-16T11:17:03Z</time>
      </trkpt>
      <trkpt lat="46.17255" lon="6.80061">
        <ele>2107.3471679688</ele>
        <time>2012-03-16T11:17:04Z</time>
      </trkpt>
      <trkpt lat="46.1725" lon="6.80069">
        <ele>2110.2312011719</ele>
        <time>2012-03-16T11:17:06Z</time>
      </trkpt>
      <trkpt lat="46.17243" lon="6.80082">
        <ele>2114.5571289062</ele>
        <time>2012-03-16T11:17:09Z</time>
      </trkpt>
      <trkpt lat="46.17236" lon="6.80094">
        <ele>2118.8830566406</ele>
        <time>2012-03-16T11:17:12Z</time>
      </trkpt>
      <trkpt lat="46.17231" lon="6.80102">
        <ele>2122.7282714844</ele>
        <time>2012-03-16T11:17:14Z</time>
      </trkpt>
      <trkpt lat="46.17226" lon="6.80111">
        <ele>2126.0930175781</ele>
        <time>2012-03-16T11:17:16Z</time>
      </trkpt>
      <trkpt lat="46.17221" lon="6.80119">
        <ele>2130.4189453125</ele>
        <time>2012-03-16T11:17:18Z</time>
      </trkpt>
      <trkpt lat="46.17216" lon="6.80127">
        <ele>2133.7834472656</ele>
        <time>2012-03-16T11:17:20Z</time>
      </trkpt>
      <trkpt lat="46.17212" lon="6.80135">
        <ele>2138.109375</ele>
        <time>2012-03-16T11:17:22Z</time>
      </trkpt>
      <trkpt lat="46.17205" lon="6.80147">
        <ele>2142.435546875</ele>
        <time>2012-03-16T11:17:25Z</time>
      </trkpt>
      <trkpt lat="46.172" lon="6.80155">
        <ele>2147.72265625</ele>
        <time>2012-03-16T11:17:27Z</time>
      </trkpt>
      <trkpt lat="46.17198" lon="6.80159">
        <ele>2151.5678710938</ele>
        <time>2012-03-16T11:17:28Z</time>
      </trkpt>
      <trkpt lat="46.17191" lon="6.8017">
        <ele>2157.3359375</ele>
        <time>2012-03-16T11:17:31Z</time>
      </trkpt>
      <trkpt lat="46.17185" lon="6.80177">
        <ele>2161.1811523438</ele>
        <time>2012-03-16T11:17:33Z</time>
      </trkpt>
      <trkpt lat="46.17182" lon="6.80181">
        <ele>2160.7004394531</ele>
        <time>2012-03-16T11:17:34Z</time>
      </trkpt>
      <trkpt lat="46.17167" lon="6.80213">
        <ele>2160.7004394531</ele>
        <time>2012-03-16T11:17:43Z</time>
      </trkpt>
      <trkpt lat="46.17173" lon="6.80219">
        <ele>2161.6618652344</ele>
        <time>2012-03-16T11:17:54Z</time>
      </trkpt>
      <trkpt lat="46.17178" lon="6.80223">
        <ele>2162.1423339844</ele>
        <time>2012-03-16T11:18:10Z</time>
      </trkpt>
      <trkpt lat="46.17195" lon="6.80232">
        <ele>2161.6618652344</ele>
        <time>2012-03-16T11:18:33Z</time>
      </trkpt>
      <trkpt lat="46.17197" lon="6.80233">
        <ele>2162.623046875</ele>
        <time>2012-03-16T11:18:36Z</time>
      </trkpt>
      <trkpt lat="46.17232" lon="6.80263">
        <ele>2160.2197265625</ele>
        <time>2012-03-16T11:18:57Z</time>
      </trkpt>
      <trkpt lat="46.17235" lon="6.80266">
        <ele>2159.7390136719</ele>
        <time>2012-03-16T11:18:58Z</time>
      </trkpt>
      <trkpt lat="46.17252" lon="6.80297">
        <ele>2156.3745117188</ele>
        <time>2012-03-16T11:19:04Z</time>
      </trkpt>
      <trkpt lat="46.17259" lon="6.8031">
        <ele>2154.9323730469</ele>
        <time>2012-03-16T11:19:06Z</time>
      </trkpt>
      <trkpt lat="46.17268" lon="6.80345">
        <ele>2151.5678710938</ele>
        <time>2012-03-16T11:19:10Z</time>
      </trkpt>
      <trkpt lat="46.17275" lon="6.80371">
        <ele>2149.6452636719</ele>
        <time>2012-03-16T11:19:13Z</time>
      </trkpt>
      <trkpt lat="46.17302" lon="6.80426">
        <ele>2146.7612304688</ele>
        <time>2012-03-16T11:19:22Z</time>
      </trkpt>
      <trkpt lat="46.17316" lon="6.80438">
        <ele>2147.72265625</ele>
        <time>2012-03-16T11:19:27Z</time>
      </trkpt>
      <trkpt lat="46.17305" lon="6.80459">
        <ele>2146.2807617188</ele>
        <time>2012-03-16T11:19:29Z</time>
      </trkpt>
      <trkpt lat="46.17335" lon="6.80402">
        <ele>2145.3193359375</ele>
        <time>2012-03-16T11:19:32Z</time>
      </trkpt>
      <trkpt lat="46.17319" lon="6.80441">
        <ele>2137.6286621094</ele>
        <time>2012-03-16T11:19:37Z</time>
      </trkpt>
      <trkpt lat="46.17321" lon="6.80443">
        <ele>2137.1479492188</ele>
        <time>2012-03-16T11:19:38Z</time>
      </trkpt>
      <trkpt lat="46.17374" lon="6.80347">
        <ele>2133.302734375</ele>
        <time>2012-03-16T11:19:40Z</time>
      </trkpt>
      <trkpt lat="46.17376" lon="6.80339">
        <ele>2131.8608398438</ele>
        <time>2012-03-16T11:19:41Z</time>
      </trkpt>
      <trkpt lat="46.17374" lon="6.80301">
        <ele>2125.1315917969</ele>
        <time>2012-03-16T11:19:43Z</time>
      </trkpt>
      <trkpt lat="46.17372" lon="6.80292">
        <ele>2124.1704101562</ele>
        <time>2012-03-16T11:19:44Z</time>
      </trkpt>
      <trkpt lat="46.17368" lon="6.80275">
        <ele>2115.0378417969</ele>
        <time>2012-03-16T11:19:46Z</time>
      </trkpt>
      <trkpt lat="46.17365" lon="6.80266">
        <ele>2110.2312011719</ele>
        <time>2012-03-16T11:19:47Z</time>
      </trkpt>
      <trkpt lat="46.17368" lon="6.80278">
        <ele>2107.3471679688</ele>
        <time>2012-03-16T11:19:48Z</time>
      </trkpt>
      <trkpt lat="46.17374" lon="6.80302">
        <ele>2105.4245605469</ele>
        <time>2012-03-16T11:19:50Z</time>
      </trkpt>
      <trkpt lat="46.17466" lon="6.8015">
        <ele>2096.2922363281</ele>
        <time>2012-03-16T11:19:52Z</time>
      </trkpt>
      <trkpt lat="46.17455" lon="6.80177">
        <ele>2086.1982421875</ele>
        <time>2012-03-16T11:19:55Z</time>
      </trkpt>
      <trkpt lat="46.17481" lon="6.80161">
        <ele>2083.3142089844</ele>
        <time>2012-03-16T11:19:58Z</time>
      </trkpt>
      <trkpt lat="46.17489" lon="6.80212">
        <ele>2081.8723144531</ele>
        <time>2012-03-16T11:20:02Z</time>
      </trkpt>
      <trkpt lat="46.17489" lon="6.80215">
        <ele>2082.3530273438</ele>
        <time>2012-03-16T11:20:13Z</time>
      </trkpt>
      <trkpt lat="46.17487" lon="6.80223">
        <ele>2078.98828125</ele>
        <time>2012-03-16T11:20:21Z</time>
      </trkpt>
      <trkpt lat="46.17489" lon="6.80231">
        <ele>2066.4912109375</ele>
        <time>2012-03-16T11:20:23Z</time>
      </trkpt>
      <trkpt lat="46.17514" lon="6.80248">
        <ele>2064.087890625</ele>
        <time>2012-03-16T11:20:25Z</time>
      </trkpt>
      <trkpt lat="46.17522" lon="6.80254">
        <ele>2062.6459960938</ele>
        <time>2012-03-16T11:20:26Z</time>
      </trkpt>
      <trkpt lat="46.17565" lon="6.80258">
        <ele>2061.2041015625</ele>
        <time>2012-03-16T11:20:32Z</time>
      </trkpt>
      <trkpt lat="46.17572" lon="6.80266">
        <ele>2060.7233886719</ele>
        <time>2012-03-16T11:20:49Z</time>
      </trkpt>
      <trkpt lat="46.17575" lon="6.80268">
        <ele>2060.7233886719</ele>
        <time>2012-03-16T11:21:08Z</time>
      </trkpt>
      <trkpt lat="46.17577" lon="6.80274">
        <ele>2060.7233886719</ele>
        <time>2012-03-16T11:21:31Z</time>
      </trkpt>
      <trkpt lat="46.17578" lon="6.8027">
        <ele>2059.28125</ele>
        <time>2012-03-16T11:21:45Z</time>
      </trkpt>
      <trkpt lat="46.17578" lon="6.80271">
        <ele>2059.28125</ele>
        <time>2012-03-16T11:21:46Z</time>
      </trkpt>
      <trkpt lat="46.17593" lon="6.80282">
        <ele>2061.6848144531</ele>
        <time>2012-03-16T11:21:54Z</time>
      </trkpt>
      <trkpt lat="46.17595" lon="6.80283">
        <ele>2061.2041015625</ele>
        <time>2012-03-16T11:21:55Z</time>
      </trkpt>
      <trkpt lat="46.17605" lon="6.80294">
        <ele>2061.2041015625</ele>
        <time>2012-03-16T11:22:01Z</time>
      </trkpt>
      <trkpt lat="46.17621" lon="6.80307">
        <ele>2061.6848144531</ele>
        <time>2012-03-16T11:22:10Z</time>
      </trkpt>
      <trkpt lat="46.17639" lon="6.80324">
        <ele>2065.0493164062</ele>
        <time>2012-03-16T11:22:22Z</time>
      </trkpt>
      <trkpt lat="46.17655" lon="6.80338">
        <ele>2067.9331054688</ele>
        <time>2012-03-16T11:22:31Z</time>
      </trkpt>
      <trkpt lat="46.17658" lon="6.80341">
        <ele>2068.89453125</ele>
        <time>2012-03-16T11:22:33Z</time>
      </trkpt>
      <trkpt lat="46.17667" lon="6.80349">
        <ele>2071.7783203125</ele>
        <time>2012-03-16T11:22:38Z</time>
      </trkpt>
      <trkpt lat="46.17672" lon="6.80353">
        <ele>2075.1428222656</ele>
        <time>2012-03-16T11:22:41Z</time>
      </trkpt>
      <trkpt lat="46.17675" lon="6.80356">
        <ele>2076.5852050781</ele>
        <time>2012-03-16T11:22:43Z</time>
      </trkpt>
      <trkpt lat="46.17682" lon="6.80362">
        <ele>2078.98828125</ele>
        <time>2012-03-16T11:22:47Z</time>
      </trkpt>
      <trkpt lat="46.1769" lon="6.8037">
        <ele>2081.8723144531</ele>
        <time>2012-03-16T11:22:52Z</time>
      </trkpt>
      <trkpt lat="46.17695" lon="6.80375">
        <ele>2085.2368164062</ele>
        <time>2012-03-16T11:22:55Z</time>
      </trkpt>
      <trkpt lat="46.17697" lon="6.80376">
        <ele>2085.2368164062</ele>
        <time>2012-03-16T11:22:56Z</time>
      </trkpt>
      <trkpt lat="46.17705" lon="6.80384">
        <ele>2091.4853515625</ele>
        <time>2012-03-16T11:23:01Z</time>
      </trkpt>
      <trkpt lat="46.17711" lon="6.8039">
        <ele>2095.8115234375</ele>
        <time>2012-03-16T11:23:05Z</time>
      </trkpt>
      <trkpt lat="46.17716" lon="6.80394">
        <ele>2099.1760253906</ele>
        <time>2012-03-16T11:23:08Z</time>
      </trkpt>
      <trkpt lat="46.17718" lon="6.80395">
        <ele>2099.1760253906</ele>
        <time>2012-03-16T11:23:09Z</time>
      </trkpt>
      <trkpt lat="46.17724" lon="6.80401">
        <ele>2102.0598144531</ele>
        <time>2012-03-16T11:23:13Z</time>
      </trkpt>
      <trkpt lat="46.17728" lon="6.80405">
        <ele>2104.4631347656</ele>
        <time>2012-03-16T11:23:16Z</time>
      </trkpt>
      <trkpt lat="46.17735" lon="6.80411">
        <ele>2108.7893066406</ele>
        <time>2012-03-16T11:23:20Z</time>
      </trkpt>
      <trkpt lat="46.17739" lon="6.80415">
        <ele>2112.6345214844</ele>
        <time>2012-03-16T11:23:23Z</time>
      </trkpt>
      <trkpt lat="46.17742" lon="6.80418">
        <ele>2113.115234375</ele>
        <time>2012-03-16T11:23:25Z</time>
      </trkpt>
      <trkpt lat="46.17745" lon="6.80421">
        <ele>2117.4409179688</ele>
        <time>2012-03-16T11:23:27Z</time>
      </trkpt>
      <trkpt lat="46.17749" lon="6.80424">
        <ele>2119.3637695312</ele>
        <time>2012-03-16T11:23:30Z</time>
      </trkpt>
      <trkpt lat="46.17754" lon="6.80428">
        <ele>2122.7282714844</ele>
        <time>2012-03-16T11:23:33Z</time>
      </trkpt>
      <trkpt lat="46.17757" lon="6.80431">
        <ele>2126.0930175781</ele>
        <time>2012-03-16T11:23:35Z</time>
      </trkpt>
      <trkpt lat="46.1776" lon="6.80434">
        <ele>2126.5737304688</ele>
        <time>2012-03-16T11:23:37Z</time>
      </trkpt>
      <trkpt lat="46.17764" lon="6.80438">
        <ele>2129.9382324219</ele>
        <time>2012-03-16T11:23:40Z</time>
      </trkpt>
      <trkpt lat="46.17769" lon="6.80442">
        <ele>2134.2641601562</ele>
        <time>2012-03-16T11:23:43Z</time>
      </trkpt>
      <trkpt lat="46.17775" lon="6.80448">
        <ele>2138.109375</ele>
        <time>2012-03-16T11:23:47Z</time>
      </trkpt>
      <trkpt lat="46.17778" lon="6.80451">
        <ele>2139.5512695312</ele>
        <time>2012-03-16T11:23:49Z</time>
      </trkpt>
      <trkpt lat="46.17784" lon="6.80456">
        <ele>2145.8000488281</ele>
        <time>2012-03-16T11:23:53Z</time>
      </trkpt>
      <trkpt lat="46.17789" lon="6.8046">
        <ele>2149.6452636719</ele>
        <time>2012-03-16T11:23:56Z</time>
      </trkpt>
      <trkpt lat="46.17793" lon="6.80463">
        <ele>2153.4904785156</ele>
        <time>2012-03-16T11:23:59Z</time>
      </trkpt>
      <trkpt lat="46.17797" lon="6.80467">
        <ele>2156.8552246094</ele>
        <time>2012-03-16T11:24:02Z</time>
      </trkpt>
      <trkpt lat="46.17803" lon="6.80473">
        <ele>2160.2197265625</ele>
        <time>2012-03-16T11:24:06Z</time>
      </trkpt>
      <trkpt lat="46.17808" lon="6.80477">
        <ele>2164.0649414062</ele>
        <time>2012-03-16T11:24:09Z</time>
      </trkpt>
      <trkpt lat="46.17812" lon="6.80481">
        <ele>2169.8327636719</ele>
        <time>2012-03-16T11:24:12Z</time>
      </trkpt>
      <trkpt lat="46.17816" lon="6.80485">
        <ele>2172.7170410156</ele>
        <time>2012-03-16T11:24:15Z</time>
      </trkpt>
      <trkpt lat="46.17819" lon="6.80487">
        <ele>2178.0041503906</ele>
        <time>2012-03-16T11:24:17Z</time>
      </trkpt>
      <trkpt lat="46.17822" lon="6.8049">
        <ele>2179.4460449219</ele>
        <time>2012-03-16T11:24:19Z</time>
      </trkpt>
      <trkpt lat="46.17825" lon="6.80492">
        <ele>2183.2912597656</ele>
        <time>2012-03-16T11:24:21Z</time>
      </trkpt>
      <trkpt lat="46.17829" lon="6.80496">
        <ele>2186.6557617188</ele>
        <time>2012-03-16T11:24:24Z</time>
      </trkpt>
      <trkpt lat="46.17833" lon="6.805">
        <ele>2190.0207519531</ele>
        <time>2012-03-16T11:24:27Z</time>
      </trkpt>
      <trkpt lat="46.17837" lon="6.80504">
        <ele>2192.9045410156</ele>
        <time>2012-03-16T11:24:30Z</time>
      </trkpt>
      <trkpt lat="46.17841" lon="6.80507">
        <ele>2195.7885742188</ele>
        <time>2012-03-16T11:24:33Z</time>
      </trkpt>
      <trkpt lat="46.17848" lon="6.80512">
        <ele>2200.5949707031</ele>
        <time>2012-03-16T11:24:37Z</time>
      </trkpt>
      <trkpt lat="46.17854" lon="6.80519">
        <ele>2203.9597167969</ele>
        <time>2012-03-16T11:24:41Z</time>
      </trkpt>
      <trkpt lat="46.17876" lon="6.8053">
        <ele>2205.4018554688</ele>
        <time>2012-03-16T11:24:51Z</time>
      </trkpt>
      <trkpt lat="46.17886" lon="6.8052">
        <ele>2204.4404296875</ele>
        <time>2012-03-16T11:25:04Z</time>
      </trkpt>
      <trkpt lat="46.17886" lon="6.8052">
        <ele>2205.8823242188</ele>
        <time>2012-03-16T11:25:28Z</time>
      </trkpt>
      <trkpt lat="46.17888" lon="6.8052">
        <ele>2204.9211425781</ele>
        <time>2012-03-16T11:25:52Z</time>
      </trkpt>
      <trkpt lat="46.17887" lon="6.80519">
        <ele>2204.9211425781</ele>
        <time>2012-03-16T11:26:36Z</time>
      </trkpt>
      <trkpt lat="46.17887" lon="6.80519">
        <ele>2205.8823242188</ele>
        <time>2012-03-16T11:26:40Z</time>
      </trkpt>
      <trkpt lat="46.17888" lon="6.80518">
        <ele>2204.9211425781</ele>
        <time>2012-03-16T11:27:16Z</time>
      </trkpt>
      <trkpt lat="46.17888" lon="6.80518">
        <ele>2204.9211425781</ele>
        <time>2012-03-16T11:27:27Z</time>
      </trkpt>
      <trkpt lat="46.17888" lon="6.80518">
        <ele>2203.9597167969</ele>
        <time>2012-03-16T11:27:38Z</time>
      </trkpt>
      <trkpt lat="46.17888" lon="6.80522">
        <ele>2204.4404296875</ele>
        <time>2012-03-16T11:27:58Z</time>
      </trkpt>
      <trkpt lat="46.17887" lon="6.80521">
        <ele>2204.4404296875</ele>
        <time>2012-03-16T11:28:19Z</time>
      </trkpt>
      <trkpt lat="46.17887" lon="6.8052">
        <ele>2203.9597167969</ele>
        <time>2012-03-16T11:28:42Z</time>
      </trkpt>
      <trkpt lat="46.17888" lon="6.8052">
        <ele>2203.4790039062</ele>
        <time>2012-03-16T11:29:09Z</time>
      </trkpt>
      <trkpt lat="46.17888" lon="6.80521">
        <ele>2204.9211425781</ele>
        <time>2012-03-16T11:29:56Z</time>
      </trkpt>
      <trkpt lat="46.17888" lon="6.80522">
        <ele>2205.8823242188</ele>
        <time>2012-03-16T11:30:17Z</time>
      </trkpt>
      <trkpt lat="46.17889" lon="6.80523">
        <ele>2205.4018554688</ele>
        <time>2012-03-16T11:30:40Z</time>
      </trkpt>
      <trkpt lat="46.17888" lon="6.80522">
        <ele>2204.4404296875</ele>
        <time>2012-03-16T11:30:56Z</time>
      </trkpt>
      <trkpt lat="46.17889" lon="6.8052">
        <ele>2205.4018554688</ele>
        <time>2012-03-16T11:31:11Z</time>
      </trkpt>
      <trkpt lat="46.1789" lon="6.8052">
        <ele>2205.8823242188</ele>
        <time>2012-03-16T11:31:28Z</time>
      </trkpt>
      <trkpt lat="46.17909" lon="6.80516">
        <ele>2202.9982910156</ele>
        <time>2012-03-16T11:31:39Z</time>
      </trkpt>
      <trkpt lat="46.17912" lon="6.80524">
        <ele>2199.6337890625</ele>
        <time>2012-03-16T11:31:44Z</time>
      </trkpt>
      <trkpt lat="46.17911" lon="6.8054">
        <ele>2196.7497558594</ele>
        <time>2012-03-16T11:31:50Z</time>
      </trkpt>
      <trkpt lat="46.1792" lon="6.80543">
        <ele>2192.4240722656</ele>
        <time>2012-03-16T11:31:55Z</time>
      </trkpt>
      <trkpt lat="46.17923" lon="6.80548">
        <ele>2190.9819335938</ele>
        <time>2012-03-16T11:31:57Z</time>
      </trkpt>
      <trkpt lat="46.17932" lon="6.80558">
        <ele>2186.6557617188</ele>
        <time>2012-03-16T11:32:03Z</time>
      </trkpt>
      <trkpt lat="46.17934" lon="6.80558">
        <ele>2186.6557617188</ele>
        <time>2012-03-16T11:32:04Z</time>
      </trkpt>
      <trkpt lat="46.17941" lon="6.80569">
        <ele>2183.2912597656</ele>
        <time>2012-03-16T11:32:09Z</time>
      </trkpt>
      <trkpt lat="46.17945" lon="6.80569">
        <ele>2181.3686523438</ele>
        <time>2012-03-16T11:32:11Z</time>
      </trkpt>
      <trkpt lat="46.17951" lon="6.80567">
        <ele>2178.9653320312</ele>
        <time>2012-03-16T11:32:13Z</time>
      </trkpt>
      <trkpt lat="46.17956" lon="6.80561">
        <ele>2177.5234375</ele>
        <time>2012-03-16T11:32:20Z</time>
      </trkpt>
      <trkpt lat="46.17957" lon="6.80573">
        <ele>2172.7170410156</ele>
        <time>2012-03-16T11:32:24Z</time>
      </trkpt>
      <trkpt lat="46.1796" lon="6.8058">
        <ele>2168.3908691406</ele>
        <time>2012-03-16T11:32:27Z</time>
      </trkpt>
      <trkpt lat="46.17967" lon="6.8058">
        <ele>2165.0263671875</ele>
        <time>2012-03-16T11:32:30Z</time>
      </trkpt>
      <trkpt lat="46.17967" lon="6.80587">
        <ele>2161.6618652344</ele>
        <time>2012-03-16T11:32:32Z</time>
      </trkpt>
      <trkpt lat="46.17968" lon="6.80595">
        <ele>2160.7004394531</ele>
        <time>2012-03-16T11:32:34Z</time>
      </trkpt>
      <trkpt lat="46.17974" lon="6.80595">
        <ele>2157.3359375</ele>
        <time>2012-03-16T11:32:36Z</time>
      </trkpt>
      <trkpt lat="46.17976" lon="6.80595">
        <ele>2156.8552246094</ele>
        <time>2012-03-16T11:32:37Z</time>
      </trkpt>
      <trkpt lat="46.17982" lon="6.80601">
        <ele>2153.4904785156</ele>
        <time>2012-03-16T11:32:40Z</time>
      </trkpt>
      <trkpt lat="46.17984" lon="6.806">
        <ele>2150.6064453125</ele>
        <time>2012-03-16T11:32:41Z</time>
      </trkpt>
      <trkpt lat="46.17988" lon="6.80602">
        <ele>2147.2419433594</ele>
        <time>2012-03-16T11:32:43Z</time>
      </trkpt>
      <trkpt lat="46.17989" lon="6.80607">
        <ele>2144.3579101562</ele>
        <time>2012-03-16T11:32:45Z</time>
      </trkpt>
      <trkpt lat="46.17989" lon="6.80611">
        <ele>2142.916015625</ele>
        <time>2012-03-16T11:32:47Z</time>
      </trkpt>
      <trkpt lat="46.17991" lon="6.80631">
        <ele>2139.5512695312</ele>
        <time>2012-03-16T11:33:01Z</time>
      </trkpt>
      <trkpt lat="46.17996" lon="6.80641">
        <ele>2135.7060546875</ele>
        <time>2012-03-16T11:33:04Z</time>
      </trkpt>
      <trkpt lat="46.17997" lon="6.80645">
        <ele>2132.8220214844</ele>
        <time>2012-03-16T11:33:05Z</time>
      </trkpt>
      <trkpt lat="46.18" lon="6.8065">
        <ele>2130.4189453125</ele>
        <time>2012-03-16T11:33:07Z</time>
      </trkpt>
      <trkpt lat="46.18004" lon="6.80653">
        <ele>2127.5349121094</ele>
        <time>2012-03-16T11:33:09Z</time>
      </trkpt>
      <trkpt lat="46.18006" lon="6.80653">
        <ele>2126.5737304688</ele>
        <time>2012-03-16T11:33:10Z</time>
      </trkpt>
      <trkpt lat="46.1801" lon="6.80657">
        <ele>2122.2475585938</ele>
        <time>2012-03-16T11:33:12Z</time>
      </trkpt>
      <trkpt lat="46.18021" lon="6.80668">
        <ele>2117.9216308594</ele>
        <time>2012-03-16T11:33:15Z</time>
      </trkpt>
      <trkpt lat="46.18026" lon="6.80672">
        <ele>2114.5571289062</ele>
        <time>2012-03-16T11:33:16Z</time>
      </trkpt>
      <trkpt lat="46.18032" lon="6.80672">
        <ele>2114.0764160156</ele>
        <time>2012-03-16T11:33:17Z</time>
      </trkpt>
      <trkpt lat="46.1805" lon="6.80676">
        <ele>2107.8278808594</ele>
        <time>2012-03-16T11:33:21Z</time>
      </trkpt>
      <trkpt lat="46.18051" lon="6.80679">
        <ele>2107.8278808594</ele>
        <time>2012-03-16T11:33:22Z</time>
      </trkpt>
      <trkpt lat="46.18049" lon="6.80687">
        <ele>2107.3471679688</ele>
        <time>2012-03-16T11:33:33Z</time>
      </trkpt>
      <trkpt lat="46.18056" lon="6.80693">
        <ele>2105.4245605469</ele>
        <time>2012-03-16T11:33:45Z</time>
      </trkpt>
      <trkpt lat="46.18078" lon="6.80711">
        <ele>2097.2534179688</ele>
        <time>2012-03-16T11:33:48Z</time>
      </trkpt>
      <trkpt lat="46.18088" lon="6.8072">
        <ele>2094.3693847656</ele>
        <time>2012-03-16T11:33:49Z</time>
      </trkpt>
      <trkpt lat="46.18112" lon="6.80748">
        <ele>2088.1208496094</ele>
        <time>2012-03-16T11:33:52Z</time>
      </trkpt>
      <trkpt lat="46.1812" lon="6.80748">
        <ele>2088.1208496094</ele>
        <time>2012-03-16T11:33:53Z</time>
      </trkpt>
      <trkpt lat="46.1815" lon="6.80765">
        <ele>2079.9497070312</ele>
        <time>2012-03-16T11:33:57Z</time>
      </trkpt>
      <trkpt lat="46.18197" lon="6.80876">
        <ele>2073.2204589844</ele>
        <time>2012-03-16T11:34:00Z</time>
      </trkpt>
      <trkpt lat="46.18211" lon="6.80869">
        <ele>2066.0104980469</ele>
        <time>2012-03-16T11:34:02Z</time>
      </trkpt>
      <trkpt lat="46.18226" lon="6.8086">
        <ele>2060.7233886719</ele>
        <time>2012-03-16T11:34:03Z</time>
      </trkpt>
      <trkpt lat="46.18243" lon="6.80845">
        <ele>2050.6293945312</ele>
        <time>2012-03-16T11:34:06Z</time>
      </trkpt>
      <trkpt lat="46.18255" lon="6.80841">
        <ele>2047.2648925781</ele>
        <time>2012-03-16T11:34:08Z</time>
      </trkpt>
      <trkpt lat="46.18257" lon="6.80844">
        <ele>2045.8229980469</ele>
        <time>2012-03-16T11:34:09Z</time>
      </trkpt>
      <trkpt lat="46.18276" lon="6.80872">
        <ele>2040.0549316406</ele>
        <time>2012-03-16T11:34:12Z</time>
      </trkpt>
      <trkpt lat="46.18325" lon="6.80877">
        <ele>2037.1708984375</ele>
        <time>2012-03-16T11:34:13Z</time>
      </trkpt>
      <trkpt lat="46.18349" lon="6.80857">
        <ele>2027.0771484375</ele>
        <time>2012-03-16T11:34:16Z</time>
      </trkpt>
      <trkpt lat="46.18355" lon="6.80851">
        <ele>2022.2705078125</ele>
        <time>2012-03-16T11:34:17Z</time>
      </trkpt>
      <trkpt lat="46.18371" lon="6.80839">
        <ele>2017.4638671875</ele>
        <time>2012-03-16T11:34:19Z</time>
      </trkpt>
      <trkpt lat="46.18378" lon="6.80827">
        <ele>2012.6574707031</ele>
        <time>2012-03-16T11:34:22Z</time>
      </trkpt>
      <trkpt lat="46.18448" lon="6.80809">
        <ele>2008.3312988281</ele>
        <time>2012-03-16T11:34:24Z</time>
      </trkpt>
      <trkpt lat="46.18452" lon="6.80812">
        <ele>2004.966796875</ele>
        <time>2012-03-16T11:34:25Z</time>
      </trkpt>
      <trkpt lat="46.18467" lon="6.80824">
        <ele>1996.7956542969</ele>
        <time>2012-03-16T11:34:27Z</time>
      </trkpt>
      <trkpt lat="46.18494" lon="6.80816">
        <ele>1984.2985839844</ele>
        <time>2012-03-16T11:34:30Z</time>
      </trkpt>
      <trkpt lat="46.18521" lon="6.80792">
        <ele>1979.9724121094</ele>
        <time>2012-03-16T11:34:32Z</time>
      </trkpt>
      <trkpt lat="46.1854" lon="6.80782">
        <ele>1976.1271972656</ele>
        <time>2012-03-16T11:34:33Z</time>
      </trkpt>
      <trkpt lat="46.18568" lon="6.80767">
        <ele>1972.2819824219</ele>
        <time>2012-03-16T11:34:35Z</time>
      </trkpt>
      <trkpt lat="46.18592" lon="6.80743">
        <ele>1970.359375</ele>
        <time>2012-03-16T11:34:37Z</time>
      </trkpt>
      <trkpt lat="46.18615" lon="6.80716">
        <ele>1966.5141601562</ele>
        <time>2012-03-16T11:34:39Z</time>
      </trkpt>
      <trkpt lat="46.18638" lon="6.80693">
        <ele>1970.359375</ele>
        <time>2012-03-16T11:34:41Z</time>
      </trkpt>
      <trkpt lat="46.18664" lon="6.80691">
        <ele>1974.2045898438</ele>
        <time>2012-03-16T11:34:43Z</time>
      </trkpt>
      <trkpt lat="46.1867" lon="6.80686">
        <ele>1974.2045898438</ele>
        <time>2012-03-16T11:34:44Z</time>
      </trkpt>
      <trkpt lat="46.18688" lon="6.80669">
        <ele>1971.8012695312</ele>
        <time>2012-03-16T11:34:47Z</time>
      </trkpt>
      <trkpt lat="46.18724" lon="6.80635">
        <ele>1968.9174804688</ele>
        <time>2012-03-16T11:34:54Z</time>
      </trkpt>
      <trkpt lat="46.18753" lon="6.80614">
        <ele>1963.1494140625</ele>
        <time>2012-03-16T11:34:58Z</time>
      </trkpt>
      <trkpt lat="46.1876" lon="6.80613">
        <ele>1963.1494140625</ele>
        <time>2012-03-16T11:34:59Z</time>
      </trkpt>
      <trkpt lat="46.18777" lon="6.80608">
        <ele>1959.3041992188</ele>
        <time>2012-03-16T11:35:02Z</time>
      </trkpt>
      <trkpt lat="46.18781" lon="6.80606">
        <ele>1959.7846679688</ele>
        <time>2012-03-16T11:35:03Z</time>
      </trkpt>
      <trkpt lat="46.18783" lon="6.80605">
        <ele>1958.8234863281</ele>
        <time>2012-03-16T11:35:09Z</time>
      </trkpt>
      <trkpt lat="46.18783" lon="6.80605">
        <ele>1959.3041992188</ele>
        <time>2012-03-16T11:35:17Z</time>
      </trkpt>
      <trkpt lat="46.18811" lon="6.80567">
        <ele>1953.0556640625</ele>
        <time>2012-03-16T11:35:20Z</time>
      </trkpt>
      <trkpt lat="46.18811" lon="6.80567">
        <ele>1951.1330566406</ele>
        <time>2012-03-16T11:35:21Z</time>
      </trkpt>
      <trkpt lat="46.18791" lon="6.80663">
        <ele>1940.5583496094</ele>
        <time>2012-03-16T11:35:23Z</time>
      </trkpt>
      <trkpt lat="46.18799" lon="6.80676">
        <ele>1933.8293457031</ele>
        <time>2012-03-16T11:35:24Z</time>
      </trkpt>
      <trkpt lat="46.18808" lon="6.80592">
        <ele>1930.4645996094</ele>
        <time>2012-03-16T11:35:26Z</time>
      </trkpt>
      <trkpt lat="46.18854" lon="6.80569">
        <ele>1928.0612792969</ele>
        <time>2012-03-16T11:35:32Z</time>
      </trkpt>
      <trkpt lat="46.1886" lon="6.80556">
        <ele>1929.0224609375</ele>
        <time>2012-03-16T11:35:37Z</time>
      </trkpt>
      <trkpt lat="46.18914" lon="6.80527">
        <ele>1928.5419921875</ele>
        <time>2012-03-16T11:35:41Z</time>
      </trkpt>
      <trkpt lat="46.18926" lon="6.80522">
        <ele>1924.2160644531</ele>
        <time>2012-03-16T11:35:46Z</time>
      </trkpt>
      <trkpt lat="46.18933" lon="6.80519">
        <ele>1923.7353515625</ele>
        <time>2012-03-16T11:35:49Z</time>
      </trkpt>
      <trkpt lat="46.18944" lon="6.80515">
        <ele>1922.2934570312</ele>
        <time>2012-03-16T11:35:52Z</time>
      </trkpt>
      <trkpt lat="46.18961" lon="6.80511">
        <ele>1918.9289550781</ele>
        <time>2012-03-16T11:35:55Z</time>
      </trkpt>
      <trkpt lat="46.18968" lon="6.80509">
        <ele>1917.4868164062</ele>
        <time>2012-03-16T11:35:56Z</time>
      </trkpt>
      <trkpt lat="46.18993" lon="6.80509">
        <ele>1909.7961425781</ele>
        <time>2012-03-16T11:35:59Z</time>
      </trkpt>
      <trkpt lat="46.19025" lon="6.80509">
        <ele>1906.431640625</ele>
        <time>2012-03-16T11:36:02Z</time>
      </trkpt>
      <trkpt lat="46.19053" lon="6.80503">
        <ele>1902.5864257812</ele>
        <time>2012-03-16T11:36:05Z</time>
      </trkpt>
      <trkpt lat="46.19077" lon="6.80494">
        <ele>1899.2216796875</ele>
        <time>2012-03-16T11:36:08Z</time>
      </trkpt>
      <trkpt lat="46.19086" lon="6.80489">
        <ele>1899.2216796875</ele>
        <time>2012-03-16T11:36:09Z</time>
      </trkpt>
      <trkpt lat="46.19135" lon="6.8043">
        <ele>1899.2216796875</ele>
        <time>2012-03-16T11:36:20Z</time>
      </trkpt>
      <trkpt lat="46.19181" lon="6.80407">
        <ele>1899.2216796875</ele>
        <time>2012-03-16T11:36:34Z</time>
      </trkpt>
      <trkpt lat="46.19213" lon="6.80397">
        <ele>1898.2602539062</ele>
        <time>2012-03-16T11:36:45Z</time>
      </trkpt>
      <trkpt lat="46.19234" lon="6.80396">
        <ele>1894.4150390625</ele>
        <time>2012-03-16T11:36:51Z</time>
      </trkpt>
      <trkpt lat="46.19253" lon="6.80395">
        <ele>1892.0119628906</ele>
        <time>2012-03-16T11:36:54Z</time>
      </trkpt>
      <trkpt lat="46.1928" lon="6.80395">
        <ele>1887.2053222656</ele>
        <time>2012-03-16T11:36:57Z</time>
      </trkpt>
      <trkpt lat="46.1929" lon="6.80395">
        <ele>1884.8022460938</ele>
        <time>2012-03-16T11:36:58Z</time>
      </trkpt>
      <trkpt lat="46.19322" lon="6.80393">
        <ele>1877.5920410156</ele>
        <time>2012-03-16T11:37:01Z</time>
      </trkpt>
      <trkpt lat="46.19332" lon="6.80393">
        <ele>1876.1501464844</ele>
        <time>2012-03-16T11:37:02Z</time>
      </trkpt>
      <trkpt lat="46.19349" lon="6.80381">
        <ele>1873.2663574219</ele>
        <time>2012-03-16T11:37:04Z</time>
      </trkpt>
      <trkpt lat="46.19366" lon="6.80367">
        <ele>1867.9787597656</ele>
        <time>2012-03-16T11:37:06Z</time>
      </trkpt>
      <trkpt lat="46.19377" lon="6.80341">
        <ele>1862.2109375</ele>
        <time>2012-03-16T11:37:08Z</time>
      </trkpt>
      <trkpt lat="46.19402" lon="6.80308">
        <ele>1855.4819335938</ele>
        <time>2012-03-16T11:37:11Z</time>
      </trkpt>
      <trkpt lat="46.19419" lon="6.80288">
        <ele>1849.7138671875</ele>
        <time>2012-03-16T11:37:13Z</time>
      </trkpt>
      <trkpt lat="46.19434" lon="6.80264">
        <ele>1845.3879394531</ele>
        <time>2012-03-16T11:37:15Z</time>
      </trkpt>
      <trkpt lat="46.19442" lon="6.80237">
        <ele>1838.6589355469</ele>
        <time>2012-03-16T11:37:17Z</time>
      </trkpt>
      <trkpt lat="46.19448" lon="6.80207">
        <ele>1833.8520507812</ele>
        <time>2012-03-16T11:37:19Z</time>
      </trkpt>
      <trkpt lat="46.19451" lon="6.80202">
        <ele>1826.1616210938</ele>
        <time>2012-03-16T11:37:20Z</time>
      </trkpt>
      <trkpt lat="46.19456" lon="6.80196">
        <ele>1822.7971191406</ele>
        <time>2012-03-16T11:37:21Z</time>
      </trkpt>
      <trkpt lat="46.19478" lon="6.80139">
        <ele>1814.6257324219</ele>
        <time>2012-03-16T11:37:24Z</time>
      </trkpt>
      <trkpt lat="46.19484" lon="6.80121">
        <ele>1809.8190917969</ele>
        <time>2012-03-16T11:37:25Z</time>
      </trkpt>
      <trkpt lat="46.19423" lon="6.80007">
        <ele>1803.5705566406</ele>
        <time>2012-03-16T11:37:28Z</time>
      </trkpt>
      <trkpt lat="46.19423" lon="6.79961">
        <ele>1799.7253417969</ele>
        <time>2012-03-16T11:37:30Z</time>
      </trkpt>
      <trkpt lat="46.19422" lon="6.79918">
        <ele>1793.9575195312</ele>
        <time>2012-03-16T11:37:32Z</time>
      </trkpt>
      <trkpt lat="46.19424" lon="6.79857">
        <ele>1788.1896972656</ele>
        <time>2012-03-16T11:37:35Z</time>
      </trkpt>
      <trkpt lat="46.19428" lon="6.79819">
        <ele>1783.3828125</ele>
        <time>2012-03-16T11:37:37Z</time>
      </trkpt>
      <trkpt lat="46.19431" lon="6.798">
        <ele>1780.0183105469</ele>
        <time>2012-03-16T11:37:38Z</time>
      </trkpt>
      <trkpt lat="46.19444" lon="6.79728">
        <ele>1779.0568847656</ele>
        <time>2012-03-16T11:37:42Z</time>
      </trkpt>
      <trkpt lat="46.19456" lon="6.79689">
        <ele>1777.1345214844</ele>
        <time>2012-03-16T11:37:45Z</time>
      </trkpt>
      <trkpt lat="46.19476" lon="6.79672">
        <ele>1772.3278808594</ele>
        <time>2012-03-16T11:37:48Z</time>
      </trkpt>
      <trkpt lat="46.1955" lon="6.79662">
        <ele>1762.7145996094</ele>
        <time>2012-03-16T11:37:51Z</time>
      </trkpt>
      <trkpt lat="46.19554" lon="6.79632">
        <ele>1752.6206054688</ele>
        <time>2012-03-16T11:37:52Z</time>
      </trkpt>
      <trkpt lat="46.19555" lon="6.79614">
        <ele>1746.3723144531</ele>
        <time>2012-03-16T11:37:53Z</time>
      </trkpt>
      <trkpt lat="46.19555" lon="6.79595">
        <ele>1735.7976074219</ele>
        <time>2012-03-16T11:37:54Z</time>
      </trkpt>
      <trkpt lat="46.19556" lon="6.7955">
        <ele>1730.5104980469</ele>
        <time>2012-03-16T11:37:56Z</time>
      </trkpt>
      <trkpt lat="46.19594" lon="6.7947">
        <ele>1727.1459960938</ele>
        <time>2012-03-16T11:38:00Z</time>
      </trkpt>
      <trkpt lat="46.19622" lon="6.79433">
        <ele>1723.3005371094</ele>
        <time>2012-03-16T11:38:03Z</time>
      </trkpt>
      <trkpt lat="46.19638" lon="6.79414">
        <ele>1726.6652832031</ele>
        <time>2012-03-16T11:38:05Z</time>
      </trkpt>
      <trkpt lat="46.19656" lon="6.79362">
        <ele>1726.1845703125</ele>
        <time>2012-03-16T11:38:08Z</time>
      </trkpt>
      <trkpt lat="46.1966" lon="6.79323">
        <ele>1723.3005371094</ele>
        <time>2012-03-16T11:38:12Z</time>
      </trkpt>
      <trkpt lat="46.19663" lon="6.79309">
        <ele>1722.3391113281</ele>
        <time>2012-03-16T11:38:14Z</time>
      </trkpt>
      <trkpt lat="46.19653" lon="6.79273">
        <ele>1719.4553222656</ele>
        <time>2012-03-16T11:38:19Z</time>
      </trkpt>
      <trkpt lat="46.19657" lon="6.79273">
        <ele>1719.9357910156</ele>
        <time>2012-03-16T11:38:24Z</time>
      </trkpt>
      <trkpt lat="46.19679" lon="6.79268">
        <ele>1714.6486816406</ele>
        <time>2012-03-16T11:38:28Z</time>
      </trkpt>
      <trkpt lat="46.1968" lon="6.79258">
        <ele>1713.2067871094</ele>
        <time>2012-03-16T11:38:30Z</time>
      </trkpt>
      <trkpt lat="46.19678" lon="6.7923">
        <ele>1709.3615722656</ele>
        <time>2012-03-16T11:38:35Z</time>
      </trkpt>
      <trkpt lat="46.19678" lon="6.79224">
        <ele>1708.4001464844</ele>
        <time>2012-03-16T11:38:36Z</time>
      </trkpt>
      <trkpt lat="46.19683" lon="6.79187">
        <ele>1706.9580078125</ele>
        <time>2012-03-16T11:38:38Z</time>
      </trkpt>
      <trkpt lat="46.19692" lon="6.79176">
        <ele>1704.5546875</ele>
        <time>2012-03-16T11:38:40Z</time>
      </trkpt>
      <trkpt lat="46.19696" lon="6.79172">
        <ele>1704.5546875</ele>
        <time>2012-03-16T11:38:41Z</time>
      </trkpt>
      <trkpt lat="46.1971" lon="6.79157">
        <ele>1701.1901855469</ele>
        <time>2012-03-16T11:38:44Z</time>
      </trkpt>
      <trkpt lat="46.19717" lon="6.7915">
        <ele>1697.8256835938</ele>
        <time>2012-03-16T11:38:46Z</time>
      </trkpt>
      <trkpt lat="46.19726" lon="6.79133">
        <ele>1692.0578613281</ele>
        <time>2012-03-16T11:38:48Z</time>
      </trkpt>
      <trkpt lat="46.19734" lon="6.7912">
        <ele>1689.654296875</ele>
        <time>2012-03-16T11:38:50Z</time>
      </trkpt>
      <trkpt lat="46.19742" lon="6.79105">
        <ele>1691.0961914062</ele>
        <time>2012-03-16T11:38:53Z</time>
      </trkpt>
      <trkpt lat="46.19749" lon="6.7909">
        <ele>1687.2509765625</ele>
        <time>2012-03-16T11:38:55Z</time>
      </trkpt>
      <trkpt lat="46.19749" lon="6.7909">
        <ele>1680.5219726562</ele>
        <time>2012-03-16T11:38:57Z</time>
      </trkpt>
      <trkpt lat="46.19749" lon="6.7909">
        <ele>1676.6767578125</ele>
        <time>2012-03-16T11:38:59Z</time>
      </trkpt>
      <trkpt lat="46.19822" lon="6.79047">
        <ele>1668.5053710938</ele>
        <time>2012-03-16T11:39:03Z</time>
      </trkpt>
      <trkpt lat="46.19834" lon="6.79031">
        <ele>1664.66015625</ele>
        <time>2012-03-16T11:39:05Z</time>
      </trkpt>
      <trkpt lat="46.19841" lon="6.79027">
        <ele>1661.2956542969</ele>
        <time>2012-03-16T11:39:06Z</time>
      </trkpt>
      <trkpt lat="46.19866" lon="6.79016">
        <ele>1658.8920898438</ele>
        <time>2012-03-16T11:39:10Z</time>
      </trkpt>
      <trkpt lat="46.19886" lon="6.78994">
        <ele>1650.2404785156</ele>
        <time>2012-03-16T11:39:13Z</time>
      </trkpt>
      <trkpt lat="46.19913" lon="6.78979">
        <ele>1643.9916992188</ele>
        <time>2012-03-16T11:39:16Z</time>
      </trkpt>
      <trkpt lat="46.19923" lon="6.78974">
        <ele>1642.5498046875</ele>
        <time>2012-03-16T11:39:17Z</time>
      </trkpt>
      <trkpt lat="46.19941" lon="6.78961">
        <ele>1640.146484375</ele>
        <time>2012-03-16T11:39:19Z</time>
      </trkpt>
      <trkpt lat="46.19958" lon="6.78949">
        <ele>1637.7431640625</ele>
        <time>2012-03-16T11:39:22Z</time>
      </trkpt>
      <trkpt lat="46.19959" lon="6.78949">
        <ele>1637.2624511719</ele>
        <time>2012-03-16T11:39:33Z</time>
      </trkpt>
      <trkpt lat="46.1996" lon="6.78949">
        <ele>1637.2624511719</ele>
        <time>2012-03-16T11:39:43Z</time>
      </trkpt>
      <trkpt lat="46.19964" lon="6.78932">
        <ele>1633.8979492188</ele>
        <time>2012-03-16T11:39:46Z</time>
      </trkpt>
      <trkpt lat="46.19966" lon="6.78921">
        <ele>1631.4946289062</ele>
        <time>2012-03-16T11:39:47Z</time>
      </trkpt>
      <trkpt lat="46.19975" lon="6.78889">
        <ele>1622.8427734375</ele>
        <time>2012-03-16T11:39:49Z</time>
      </trkpt>
      <trkpt lat="46.19979" lon="6.78872">
        <ele>1619.4782714844</ele>
        <time>2012-03-16T11:39:50Z</time>
      </trkpt>
      <trkpt lat="46.19983" lon="6.78855">
        <ele>1616.1135253906</ele>
        <time>2012-03-16T11:39:51Z</time>
      </trkpt>
      <trkpt lat="46.19986" lon="6.78839">
        <ele>1612.7490234375</ele>
        <time>2012-03-16T11:39:52Z</time>
      </trkpt>
      <trkpt lat="46.19981" lon="6.78806">
        <ele>1606.01953125</ele>
        <time>2012-03-16T11:39:54Z</time>
      </trkpt>
      <trkpt lat="46.19966" lon="6.7878">
        <ele>1600.732421875</ele>
        <time>2012-03-16T11:39:56Z</time>
      </trkpt>
      <trkpt lat="46.19945" lon="6.78764">
        <ele>1594.9643554688</ele>
        <time>2012-03-16T11:39:58Z</time>
      </trkpt>
      <trkpt lat="46.19933" lon="6.78758">
        <ele>1594.4836425781</ele>
        <time>2012-03-16T11:39:59Z</time>
      </trkpt>
      <trkpt lat="46.19911" lon="6.78749">
        <ele>1592.0805664062</ele>
        <time>2012-03-16T11:40:01Z</time>
      </trkpt>
      <trkpt lat="46.19872" lon="6.78756">
        <ele>1592.5612792969</ele>
        <time>2012-03-16T11:40:07Z</time>
      </trkpt>
      <trkpt lat="46.19869" lon="6.78763">
        <ele>1592.5612792969</ele>
        <time>2012-03-16T11:40:16Z</time>
      </trkpt>
      <trkpt lat="46.19866" lon="6.78758">
        <ele>1592.5612792969</ele>
        <time>2012-03-16T11:40:33Z</time>
      </trkpt>
      <trkpt lat="46.19858" lon="6.78748">
        <ele>1592.5612792969</ele>
        <time>2012-03-16T11:40:50Z</time>
      </trkpt>
      <trkpt lat="46.19856" lon="6.78739">
        <ele>1592.5612792969</ele>
        <time>2012-03-16T11:41:11Z</time>
      </trkpt>
      <trkpt lat="46.19845" lon="6.78728">
        <ele>1594.0031738281</ele>
        <time>2012-03-16T11:41:18Z</time>
      </trkpt>
      <trkpt lat="46.1984" lon="6.78722">
        <ele>1597.3679199219</ele>
        <time>2012-03-16T11:41:22Z</time>
      </trkpt>
      <trkpt lat="46.19833" lon="6.78715">
        <ele>1598.8098144531</ele>
        <time>2012-03-16T11:41:26Z</time>
      </trkpt>
      <trkpt lat="46.19828" lon="6.78709">
        <ele>1601.6938476562</ele>
        <time>2012-03-16T11:41:30Z</time>
      </trkpt>
      <trkpt lat="46.19814" lon="6.78692">
        <ele>1605.0583496094</ele>
        <time>2012-03-16T11:41:40Z</time>
      </trkpt>
      <trkpt lat="46.19811" lon="6.78689">
        <ele>1606.5002441406</ele>
        <time>2012-03-16T11:41:42Z</time>
      </trkpt>
      <trkpt lat="46.19802" lon="6.78679">
        <ele>1608.9035644531</ele>
        <time>2012-03-16T11:41:48Z</time>
      </trkpt>
      <trkpt lat="46.19794" lon="6.7867">
        <ele>1611.3068847656</ele>
        <time>2012-03-16T11:41:54Z</time>
      </trkpt>
      <trkpt lat="46.19786" lon="6.7866">
        <ele>1614.6716308594</ele>
        <time>2012-03-16T11:42:00Z</time>
      </trkpt>
      <trkpt lat="46.19785" lon="6.78659">
        <ele>1615.15234375</ele>
        <time>2012-03-16T11:42:01Z</time>
      </trkpt>
      <trkpt lat="46.1978" lon="6.78652">
        <ele>1617.0749511719</ele>
        <time>2012-03-16T11:42:05Z</time>
      </trkpt>
      <trkpt lat="46.19763" lon="6.78632">
        <ele>1620.439453125</ele>
        <time>2012-03-16T11:42:17Z</time>
      </trkpt>
      <trkpt lat="46.19755" lon="6.78623">
        <ele>1623.8039550781</ele>
        <time>2012-03-16T11:42:23Z</time>
      </trkpt>
      <trkpt lat="46.1975" lon="6.78616">
        <ele>1624.7653808594</ele>
        <time>2012-03-16T11:42:27Z</time>
      </trkpt>
      <trkpt lat="46.19741" lon="6.78605">
        <ele>1627.1687011719</ele>
        <time>2012-03-16T11:42:34Z</time>
      </trkpt>
      <trkpt lat="46.19737" lon="6.78601">
        <ele>1628.6108398438</ele>
        <time>2012-03-16T11:42:37Z</time>
      </trkpt>
      <trkpt lat="46.19729" lon="6.78591">
        <ele>1631.9753417969</ele>
        <time>2012-03-16T11:42:43Z</time>
      </trkpt>
      <trkpt lat="46.19728" lon="6.7859">
        <ele>1631.9753417969</ele>
        <time>2012-03-16T11:42:44Z</time>
      </trkpt>
      <trkpt lat="46.19721" lon="6.78582">
        <ele>1634.3786621094</ele>
        <time>2012-03-16T11:42:49Z</time>
      </trkpt>
      <trkpt lat="46.19713" lon="6.78572">
        <ele>1637.7431640625</ele>
        <time>2012-03-16T11:42:55Z</time>
      </trkpt>
      <trkpt lat="46.19704" lon="6.78562">
        <ele>1641.5883789062</ele>
        <time>2012-03-16T11:43:02Z</time>
      </trkpt>
      <trkpt lat="46.19698" lon="6.78554">
        <ele>1645.4338378906</ele>
        <time>2012-03-16T11:43:07Z</time>
      </trkpt>
      <trkpt lat="46.19694" lon="6.78549">
        <ele>1647.3564453125</ele>
        <time>2012-03-16T11:43:10Z</time>
      </trkpt>
      <trkpt lat="46.19689" lon="6.78543">
        <ele>1650.7209472656</ele>
        <time>2012-03-16T11:43:14Z</time>
      </trkpt>
      <trkpt lat="46.19683" lon="6.78536">
        <ele>1654.0856933594</ele>
        <time>2012-03-16T11:43:19Z</time>
      </trkpt>
      <trkpt lat="46.19677" lon="6.7853">
        <ele>1657.4501953125</ele>
        <time>2012-03-16T11:43:23Z</time>
      </trkpt>
      <trkpt lat="46.19671" lon="6.78522">
        <ele>1660.8149414062</ele>
        <time>2012-03-16T11:43:28Z</time>
      </trkpt>
      <trkpt lat="46.19665" lon="6.78516">
        <ele>1664.66015625</ele>
        <time>2012-03-16T11:43:32Z</time>
      </trkpt>
      <trkpt lat="46.19663" lon="6.78514">
        <ele>1665.1408691406</ele>
        <time>2012-03-16T11:43:34Z</time>
      </trkpt>
      <trkpt lat="46.19655" lon="6.78504">
        <ele>1669.466796875</ele>
        <time>2012-03-16T11:43:40Z</time>
      </trkpt>
      <trkpt lat="46.19651" lon="6.785">
        <ele>1670.9086914062</ele>
        <time>2012-03-16T11:43:43Z</time>
      </trkpt>
      <trkpt lat="46.19645" lon="6.78492">
        <ele>1674.75390625</ele>
        <time>2012-03-16T11:43:48Z</time>
      </trkpt>
      <trkpt lat="46.19641" lon="6.78488">
        <ele>1678.1186523438</ele>
        <time>2012-03-16T11:43:51Z</time>
      </trkpt>
      <trkpt lat="46.19638" lon="6.78483">
        <ele>1681.4831542969</ele>
        <time>2012-03-16T11:43:54Z</time>
      </trkpt>
      <trkpt lat="46.19636" lon="6.78482">
        <ele>1681.4831542969</ele>
        <time>2012-03-16T11:43:55Z</time>
      </trkpt>
      <trkpt lat="46.19629" lon="6.78473">
        <ele>1684.8479003906</ele>
        <time>2012-03-16T11:44:01Z</time>
      </trkpt>
      <trkpt lat="46.19626" lon="6.78468">
        <ele>1688.2124023438</ele>
        <time>2012-03-16T11:44:04Z</time>
      </trkpt>
      <trkpt lat="46.19621" lon="6.78462">
        <ele>1692.0578613281</ele>
        <time>2012-03-16T11:44:08Z</time>
      </trkpt>
      <trkpt lat="46.19618" lon="6.78459">
        <ele>1693.4997558594</ele>
        <time>2012-03-16T11:44:10Z</time>
      </trkpt>
      <trkpt lat="46.19616" lon="6.78456">
        <ele>1694.9416503906</ele>
        <time>2012-03-16T11:44:12Z</time>
      </trkpt>
      <trkpt lat="46.19613" lon="6.78452">
        <ele>1697.8256835938</ele>
        <time>2012-03-16T11:44:15Z</time>
      </trkpt>
      <trkpt lat="46.19609" lon="6.78447">
        <ele>1701.1901855469</ele>
        <time>2012-03-16T11:44:18Z</time>
      </trkpt>
      <trkpt lat="46.19607" lon="6.78444">
        <ele>1704.5546875</ele>
        <time>2012-03-16T11:44:20Z</time>
      </trkpt>
      <trkpt lat="46.19601" lon="6.78437">
        <ele>1708.4001464844</ele>
        <time>2012-03-16T11:44:25Z</time>
      </trkpt>
      <trkpt lat="46.19596" lon="6.78431">
        <ele>1711.2841796875</ele>
        <time>2012-03-16T11:44:29Z</time>
      </trkpt>
      <trkpt lat="46.19595" lon="6.7843">
        <ele>1711.7648925781</ele>
        <time>2012-03-16T11:44:30Z</time>
      </trkpt>
      <trkpt lat="46.19593" lon="6.78427">
        <ele>1715.1293945312</ele>
        <time>2012-03-16T11:44:32Z</time>
      </trkpt>
      <trkpt lat="46.19588" lon="6.78421">
        <ele>1718.0131835938</ele>
        <time>2012-03-16T11:44:36Z</time>
      </trkpt>
      <trkpt lat="46.19586" lon="6.78419">
        <ele>1719.4553222656</ele>
        <time>2012-03-16T11:44:38Z</time>
      </trkpt>
      <trkpt lat="46.19583" lon="6.78414">
        <ele>1720.4165039062</ele>
        <time>2012-03-16T11:44:41Z</time>
      </trkpt>
      <trkpt lat="46.19581" lon="6.78413">
        <ele>1723.3005371094</ele>
        <time>2012-03-16T11:44:42Z</time>
      </trkpt>
      <trkpt lat="46.19579" lon="6.7841">
        <ele>1726.6652832031</ele>
        <time>2012-03-16T11:44:44Z</time>
      </trkpt>
      <trkpt lat="46.19576" lon="6.78406">
        <ele>1730.0297851562</ele>
        <time>2012-03-16T11:44:47Z</time>
      </trkpt>
      <trkpt lat="46.19575" lon="6.78405">
        <ele>1730.0297851562</ele>
        <time>2012-03-16T11:44:48Z</time>
      </trkpt>
      <trkpt lat="46.1957" lon="6.78399">
        <ele>1732.9135742188</ele>
        <time>2012-03-16T11:44:52Z</time>
      </trkpt>
      <trkpt lat="46.19568" lon="6.78396">
        <ele>1736.7587890625</ele>
        <time>2012-03-16T11:44:54Z</time>
      </trkpt>
      <trkpt lat="46.19565" lon="6.78392">
        <ele>1740.1237792969</ele>
        <time>2012-03-16T11:44:57Z</time>
      </trkpt>
      <trkpt lat="46.19561" lon="6.78388">
        <ele>1742.5270996094</ele>
        <time>2012-03-16T11:45:00Z</time>
      </trkpt>
      <trkpt lat="46.19555" lon="6.7838">
        <ele>1750.2175292969</ele>
        <time>2012-03-16T11:45:06Z</time>
      </trkpt>
      <trkpt lat="46.19551" lon="6.78376">
        <ele>1754.0627441406</ele>
        <time>2012-03-16T11:45:09Z</time>
      </trkpt>
      <trkpt lat="46.19548" lon="6.78372">
        <ele>1757.4274902344</ele>
        <time>2012-03-16T11:45:12Z</time>
      </trkpt>
      <trkpt lat="46.19543" lon="6.78367">
        <ele>1760.7919921875</ele>
        <time>2012-03-16T11:45:16Z</time>
      </trkpt>
      <trkpt lat="46.19538" lon="6.7836">
        <ele>1764.6372070312</ele>
        <time>2012-03-16T11:45:21Z</time>
      </trkpt>
      <trkpt lat="46.19536" lon="6.78357">
        <ele>1768.0017089844</ele>
        <time>2012-03-16T11:45:23Z</time>
      </trkpt>
      <trkpt lat="46.19534" lon="6.78355">
        <ele>1771.3662109375</ele>
        <time>2012-03-16T11:45:25Z</time>
      </trkpt>
      <trkpt lat="46.1953" lon="6.78351">
        <ele>1774.2504882812</ele>
        <time>2012-03-16T11:45:28Z</time>
      </trkpt>
      <trkpt lat="46.19526" lon="6.78346">
        <ele>1778.095703125</ele>
        <time>2012-03-16T11:45:31Z</time>
      </trkpt>
      <trkpt lat="46.19525" lon="6.78344">
        <ele>1778.095703125</ele>
        <time>2012-03-16T11:45:32Z</time>
      </trkpt>
      <trkpt lat="46.19521" lon="6.7834">
        <ele>1780.9797363281</ele>
        <time>2012-03-16T11:45:35Z</time>
      </trkpt>
      <trkpt lat="46.19517" lon="6.78334">
        <ele>1783.3828125</ele>
        <time>2012-03-16T11:45:39Z</time>
      </trkpt>
      <trkpt lat="46.1951" lon="6.78326">
        <ele>1786.2668457031</ele>
        <time>2012-03-16T11:45:44Z</time>
      </trkpt>
      <trkpt lat="46.19504" lon="6.78319">
        <ele>1790.5927734375</ele>
        <time>2012-03-16T11:45:49Z</time>
      </trkpt>
      <trkpt lat="46.19503" lon="6.78317">
        <ele>1790.5927734375</ele>
        <time>2012-03-16T11:45:50Z</time>
      </trkpt>
      <trkpt lat="46.19501" lon="6.78314">
        <ele>1793.9575195312</ele>
        <time>2012-03-16T11:45:52Z</time>
      </trkpt>
      <trkpt lat="46.19498" lon="6.78311">
        <ele>1796.8413085938</ele>
        <time>2012-03-16T11:45:54Z</time>
      </trkpt>
      <trkpt lat="46.19495" lon="6.78307">
        <ele>1800.2060546875</ele>
        <time>2012-03-16T11:45:57Z</time>
      </trkpt>
      <trkpt lat="46.1949" lon="6.78301">
        <ele>1804.0515136719</ele>
        <time>2012-03-16T11:46:01Z</time>
      </trkpt>
      <trkpt lat="46.19485" lon="6.78296">
        <ele>1807.8967285156</ele>
        <time>2012-03-16T11:46:05Z</time>
      </trkpt>
      <trkpt lat="46.19479" lon="6.78289">
        <ele>1810.7805175781</ele>
        <time>2012-03-16T11:46:10Z</time>
      </trkpt>
      <trkpt lat="46.19477" lon="6.78286">
        <ele>1812.2224121094</ele>
        <time>2012-03-16T11:46:12Z</time>
      </trkpt>
      <trkpt lat="46.19473" lon="6.78282">
        <ele>1817.0290527344</ele>
        <time>2012-03-16T11:46:15Z</time>
      </trkpt>
      <trkpt lat="46.19468" lon="6.78277">
        <ele>1820.8745117188</ele>
        <time>2012-03-16T11:46:19Z</time>
      </trkpt>
      <trkpt lat="46.1946" lon="6.78268">
        <ele>1823.7583007812</ele>
        <time>2012-03-16T11:46:25Z</time>
      </trkpt>
      <trkpt lat="46.19449" lon="6.78256">
        <ele>1826.6423339844</ele>
        <time>2012-03-16T11:46:33Z</time>
      </trkpt>
      <trkpt lat="46.19444" lon="6.7825">
        <ele>1829.0454101562</ele>
        <time>2012-03-16T11:46:37Z</time>
      </trkpt>
      <trkpt lat="46.19439" lon="6.78244">
        <ele>1832.41015625</ele>
        <time>2012-03-16T11:46:41Z</time>
      </trkpt>
      <trkpt lat="46.19434" lon="6.78237">
        <ele>1836.2556152344</ele>
        <time>2012-03-16T11:46:45Z</time>
      </trkpt>
      <trkpt lat="46.19428" lon="6.78229">
        <ele>1840.1008300781</ele>
        <time>2012-03-16T11:46:50Z</time>
      </trkpt>
      <trkpt lat="46.19426" lon="6.78226">
        <ele>1843.4653320312</ele>
        <time>2012-03-16T11:46:52Z</time>
      </trkpt>
      <trkpt lat="46.19424" lon="6.78225">
        <ele>1843.4653320312</ele>
        <time>2012-03-16T11:46:53Z</time>
      </trkpt>
      <trkpt lat="46.19418" lon="6.78218">
        <ele>1847.7912597656</ele>
        <time>2012-03-16T11:46:58Z</time>
      </trkpt>
      <trkpt lat="46.19417" lon="6.78216">
        <ele>1847.7912597656</ele>
        <time>2012-03-16T11:46:59Z</time>
      </trkpt>
      <trkpt lat="46.19412" lon="6.78211">
        <ele>1851.6364746094</ele>
        <time>2012-03-16T11:47:03Z</time>
      </trkpt>
      <trkpt lat="46.19409" lon="6.78208">
        <ele>1852.1171875</ele>
        <time>2012-03-16T11:47:05Z</time>
      </trkpt>
      <trkpt lat="46.19406" lon="6.78205">
        <ele>1853.5593261719</ele>
        <time>2012-03-16T11:47:07Z</time>
      </trkpt>
      <trkpt lat="46.19404" lon="6.78202">
        <ele>1856.923828125</ele>
        <time>2012-03-16T11:47:09Z</time>
      </trkpt>
      <trkpt lat="46.19401" lon="6.782">
        <ele>1858.3657226562</ele>
        <time>2012-03-16T11:47:11Z</time>
      </trkpt>
      <trkpt lat="46.19394" lon="6.78191">
        <ele>1861.73046875</ele>
        <time>2012-03-16T11:47:17Z</time>
      </trkpt>
      <trkpt lat="46.1939" lon="6.78186">
        <ele>1865.0949707031</ele>
        <time>2012-03-16T11:47:20Z</time>
      </trkpt>
      <trkpt lat="46.19386" lon="6.78182">
        <ele>1868.4597167969</ele>
        <time>2012-03-16T11:47:23Z</time>
      </trkpt>
      <trkpt lat="46.19384" lon="6.78179">
        <ele>1869.4211425781</ele>
        <time>2012-03-16T11:47:25Z</time>
      </trkpt>
      <trkpt lat="46.19379" lon="6.78173">
        <ele>1872.3049316406</ele>
        <time>2012-03-16T11:47:29Z</time>
      </trkpt>
      <trkpt lat="46.19375" lon="6.78168">
        <ele>1876.1501464844</ele>
        <time>2012-03-16T11:47:33Z</time>
      </trkpt>
      <trkpt lat="46.19371" lon="6.78163">
        <ele>1879.5146484375</ele>
        <time>2012-03-16T11:47:36Z</time>
      </trkpt>
      <trkpt lat="46.1937" lon="6.78162">
        <ele>1879.5146484375</ele>
        <time>2012-03-16T11:47:37Z</time>
      </trkpt>
      <trkpt lat="46.19366" lon="6.78158">
        <ele>1882.3986816406</ele>
        <time>2012-03-16T11:47:40Z</time>
      </trkpt>
      <trkpt lat="46.19363" lon="6.78154">
        <ele>1885.7634277344</ele>
        <time>2012-03-16T11:47:43Z</time>
      </trkpt>
      <trkpt lat="46.19359" lon="6.78149">
        <ele>1891.0505371094</ele>
        <time>2012-03-16T11:47:46Z</time>
      </trkpt>
      <trkpt lat="46.19357" lon="6.78146">
        <ele>1891.53125</ele>
        <time>2012-03-16T11:47:48Z</time>
      </trkpt>
      <trkpt lat="46.19354" lon="6.78142">
        <ele>1894.8957519531</ele>
        <time>2012-03-16T11:47:51Z</time>
      </trkpt>
      <trkpt lat="46.1935" lon="6.78138">
        <ele>1898.2602539062</ele>
        <time>2012-03-16T11:47:54Z</time>
      </trkpt>
      <trkpt lat="46.19348" lon="6.78135">
        <ele>1899.2216796875</ele>
        <time>2012-03-16T11:47:56Z</time>
      </trkpt>
      <trkpt lat="46.19345" lon="6.78131">
        <ele>1902.1057128906</ele>
        <time>2012-03-16T11:47:59Z</time>
      </trkpt>
      <trkpt lat="46.19342" lon="6.78126">
        <ele>1905.4704589844</ele>
        <time>2012-03-16T11:48:02Z</time>
      </trkpt>
      <trkpt lat="46.19338" lon="6.78122">
        <ele>1909.3156738281</ele>
        <time>2012-03-16T11:48:05Z</time>
      </trkpt>
      <trkpt lat="46.19336" lon="6.78119">
        <ele>1910.2768554688</ele>
        <time>2012-03-16T11:48:07Z</time>
      </trkpt>
      <trkpt lat="46.19333" lon="6.78115">
        <ele>1915.0834960938</ele>
        <time>2012-03-16T11:48:10Z</time>
      </trkpt>
      <trkpt lat="46.19331" lon="6.78112">
        <ele>1917.9675292969</ele>
        <time>2012-03-16T11:48:12Z</time>
      </trkpt>
      <trkpt lat="46.19326" lon="6.78107">
        <ele>1920.8515625</ele>
        <time>2012-03-16T11:48:16Z</time>
      </trkpt>
      <trkpt lat="46.19324" lon="6.78104">
        <ele>1924.2160644531</ele>
        <time>2012-03-16T11:48:18Z</time>
      </trkpt>
      <trkpt lat="46.19321" lon="6.781">
        <ele>1927.5805664062</ele>
        <time>2012-03-16T11:48:21Z</time>
      </trkpt>
      <trkpt lat="46.19318" lon="6.78096">
        <ele>1931.42578125</ele>
        <time>2012-03-16T11:48:24Z</time>
      </trkpt>
      <trkpt lat="46.19314" lon="6.78092">
        <ele>1935.2712402344</ele>
        <time>2012-03-16T11:48:27Z</time>
      </trkpt>
      <trkpt lat="46.19312" lon="6.78089">
        <ele>1938.6359863281</ele>
        <time>2012-03-16T11:48:29Z</time>
      </trkpt>
      <trkpt lat="46.19307" lon="6.78083">
        <ele>1941.5197753906</ele>
        <time>2012-03-16T11:48:33Z</time>
      </trkpt>
      <trkpt lat="46.19301" lon="6.78075">
        <ele>1944.8842773438</ele>
        <time>2012-03-16T11:48:38Z</time>
      </trkpt>
      <trkpt lat="46.19299" lon="6.78072">
        <ele>1948.2490234375</ele>
        <time>2012-03-16T11:48:40Z</time>
      </trkpt>
      <trkpt lat="46.19297" lon="6.78069">
        <ele>1951.6137695312</ele>
        <time>2012-03-16T11:48:42Z</time>
      </trkpt>
      <trkpt lat="46.19294" lon="6.78065">
        <ele>1954.4975585938</ele>
        <time>2012-03-16T11:48:45Z</time>
      </trkpt>
      <trkpt lat="46.1929" lon="6.7806">
        <ele>1958.8234863281</ele>
        <time>2012-03-16T11:48:49Z</time>
      </trkpt>
      <trkpt lat="46.19287" lon="6.78058">
        <ele>1962.1879882812</ele>
        <time>2012-03-16T11:48:51Z</time>
      </trkpt>
      <trkpt lat="46.19286" lon="6.78057">
        <ele>1962.6687011719</ele>
        <time>2012-03-16T11:48:52Z</time>
      </trkpt>
      <trkpt lat="46.1928" lon="6.78049">
        <ele>1966.0334472656</ele>
        <time>2012-03-16T11:48:57Z</time>
      </trkpt>
      <trkpt lat="46.19277" lon="6.78045">
        <ele>1970.8400878906</ele>
        <time>2012-03-16T11:49:00Z</time>
      </trkpt>
      <trkpt lat="46.19271" lon="6.78038">
        <ele>1973.7238769531</ele>
        <time>2012-03-16T11:49:05Z</time>
      </trkpt>
      <trkpt lat="46.19267" lon="6.78034">
        <ele>1975.646484375</ele>
        <time>2012-03-16T11:49:08Z</time>
      </trkpt>
      <trkpt lat="46.19247" lon="6.78008">
        <ele>1976.1271972656</ele>
        <time>2012-03-16T11:49:21Z</time>
      </trkpt>
      <trkpt lat="46.19247" lon="6.78004">
        <ele>1975.1657714844</ele>
        <time>2012-03-16T11:49:34Z</time>
      </trkpt>
      <trkpt lat="46.19248" lon="6.78003">
        <ele>1975.1657714844</ele>
        <time>2012-03-16T11:50:14Z</time>
      </trkpt>
      <trkpt lat="46.19248" lon="6.78003">
        <ele>1975.1657714844</ele>
        <time>2012-03-16T11:50:34Z</time>
      </trkpt>
      <trkpt lat="46.19247" lon="6.77999">
        <ele>1976.1271972656</ele>
        <time>2012-03-16T11:51:11Z</time>
      </trkpt>
      <trkpt lat="46.19247" lon="6.78">
        <ele>1975.1657714844</ele>
        <time>2012-03-16T11:51:25Z</time>
      </trkpt>
      <trkpt lat="46.19246" lon="6.77999">
        <ele>1975.1657714844</ele>
        <time>2012-03-16T11:51:46Z</time>
      </trkpt>
      <trkpt lat="46.19246" lon="6.78001">
        <ele>1975.1657714844</ele>
        <time>2012-03-16T11:52:17Z</time>
      </trkpt>
      <trkpt lat="46.19247" lon="6.78003">
        <ele>1977.0886230469</ele>
        <time>2012-03-16T11:52:35Z</time>
      </trkpt>
      <trkpt lat="46.19248" lon="6.78004">
        <ele>1975.646484375</ele>
        <time>2012-03-16T11:52:38Z</time>
      </trkpt>
      <trkpt lat="46.19248" lon="6.78004">
        <ele>1975.1657714844</ele>
        <time>2012-03-16T11:52:53Z</time>
      </trkpt>
      <trkpt lat="46.19249" lon="6.78006">
        <ele>1976.1271972656</ele>
        <time>2012-03-16T11:54:08Z</time>
      </trkpt>
      <trkpt lat="46.1925" lon="6.78006">
        <ele>1976.1271972656</ele>
        <time>2012-03-16T11:54:22Z</time>
      </trkpt>
      <trkpt lat="46.19262" lon="6.77995">
        <ele>1973.2434082031</ele>
        <time>2012-03-16T11:54:27Z</time>
      </trkpt>
      <trkpt lat="46.19272" lon="6.77987">
        <ele>1969.8786621094</ele>
        <time>2012-03-16T11:54:29Z</time>
      </trkpt>
      <trkpt lat="46.193" lon="6.7798">
        <ele>1959.3041992188</ele>
        <time>2012-03-16T11:54:32Z</time>
      </trkpt>
      <trkpt lat="46.19316" lon="6.7796">
        <ele>1955.939453125</ele>
        <time>2012-03-16T11:54:34Z</time>
      </trkpt>
      <trkpt lat="46.19322" lon="6.77948">
        <ele>1953.0556640625</ele>
        <time>2012-03-16T11:54:35Z</time>
      </trkpt>
      <trkpt lat="46.19328" lon="6.77936">
        <ele>1949.2104492188</ele>
        <time>2012-03-16T11:54:36Z</time>
      </trkpt>
      <trkpt lat="46.19342" lon="6.77897">
        <ele>1946.8068847656</ele>
        <time>2012-03-16T11:54:40Z</time>
      </trkpt>
      <trkpt lat="46.19359" lon="6.77874">
        <ele>1943.4423828125</ele>
        <time>2012-03-16T11:54:44Z</time>
      </trkpt>
      <trkpt lat="46.19374" lon="6.77849">
        <ele>1939.5971679688</ele>
        <time>2012-03-16T11:54:47Z</time>
      </trkpt>
      <trkpt lat="46.19404" lon="6.77806">
        <ele>1934.7907714844</ele>
        <time>2012-03-16T11:54:52Z</time>
      </trkpt>
      <trkpt lat="46.1941" lon="6.77798">
        <ele>1930.9453125</ele>
        <time>2012-03-16T11:54:53Z</time>
      </trkpt>
      <trkpt lat="46.1942" lon="6.7778">
        <ele>1929.0224609375</ele>
        <time>2012-03-16T11:54:55Z</time>
      </trkpt>
      <trkpt lat="46.19434" lon="6.77726">
        <ele>1923.7353515625</ele>
        <time>2012-03-16T11:55:00Z</time>
      </trkpt>
      <trkpt lat="46.19439" lon="6.77703">
        <ele>1920.3708496094</ele>
        <time>2012-03-16T11:55:02Z</time>
      </trkpt>
      <trkpt lat="46.19447" lon="6.77661">
        <ele>1917.4868164062</ele>
        <time>2012-03-16T11:55:06Z</time>
      </trkpt>
      <trkpt lat="46.19448" lon="6.77651">
        <ele>1916.5256347656</ele>
        <time>2012-03-16T11:55:07Z</time>
      </trkpt>
      <trkpt lat="46.19457" lon="6.77613">
        <ele>1910.7575683594</ele>
        <time>2012-03-16T11:55:11Z</time>
      </trkpt>
      <trkpt lat="46.19462" lon="6.77591">
        <ele>1906.9123535156</ele>
        <time>2012-03-16T11:55:13Z</time>
      </trkpt>
      <trkpt lat="46.19478" lon="6.77548">
        <ele>1899.2216796875</ele>
        <time>2012-03-16T11:55:18Z</time>
      </trkpt>
      <trkpt lat="46.19495" lon="6.77516">
        <ele>1896.337890625</ele>
        <time>2012-03-16T11:55:25Z</time>
      </trkpt>
      <trkpt lat="46.19502" lon="6.77505">
        <ele>1896.337890625</ele>
        <time>2012-03-16T11:55:27Z</time>
      </trkpt>
      <trkpt lat="46.19522" lon="6.77474">
        <ele>1893.4538574219</ele>
        <time>2012-03-16T11:55:33Z</time>
      </trkpt>
      <trkpt lat="46.19525" lon="6.77468">
        <ele>1893.4538574219</ele>
        <time>2012-03-16T11:55:34Z</time>
      </trkpt>
      <trkpt lat="46.19535" lon="6.77452">
        <ele>1892.4926757812</ele>
        <time>2012-03-16T11:55:37Z</time>
      </trkpt>
      <trkpt lat="46.1956" lon="6.7741">
        <ele>1889.1279296875</ele>
        <time>2012-03-16T11:55:45Z</time>
      </trkpt>
      <trkpt lat="46.19572" lon="6.77392">
        <ele>1887.6860351562</ele>
        <time>2012-03-16T11:55:48Z</time>
      </trkpt>
      <trkpt lat="46.19598" lon="6.77363">
        <ele>1883.8405761719</ele>
        <time>2012-03-16T11:55:53Z</time>
      </trkpt>
      <trkpt lat="46.1961" lon="6.77351">
        <ele>1879.9953613281</ele>
        <time>2012-03-16T11:55:55Z</time>
      </trkpt>
      <trkpt lat="46.1963" lon="6.77336">
        <ele>1876.630859375</ele>
        <time>2012-03-16T11:55:58Z</time>
      </trkpt>
      <trkpt lat="46.19636" lon="6.77331">
        <ele>1876.630859375</ele>
        <time>2012-03-16T11:55:59Z</time>
      </trkpt>
      <trkpt lat="46.19656" lon="6.77309">
        <ele>1878.0727539062</ele>
        <time>2012-03-16T11:56:05Z</time>
      </trkpt>
      <trkpt lat="46.19664" lon="6.77298">
        <ele>1876.630859375</ele>
        <time>2012-03-16T11:56:08Z</time>
      </trkpt>
      <trkpt lat="46.19671" lon="6.7729">
        <ele>1877.5920410156</ele>
        <time>2012-03-16T11:56:12Z</time>
      </trkpt>
      <trkpt lat="46.19677" lon="6.77287">
        <ele>1879.5146484375</ele>
        <time>2012-03-16T11:56:18Z</time>
      </trkpt>
      <trkpt lat="46.19679" lon="6.77281">
        <ele>1877.5920410156</ele>
        <time>2012-03-16T11:56:32Z</time>
      </trkpt>
      <trkpt lat="46.19679" lon="6.77282">
        <ele>1877.5920410156</ele>
        <time>2012-03-16T11:57:26Z</time>
      </trkpt>
      <trkpt lat="46.19688" lon="6.77287">
        <ele>1878.5534667969</ele>
        <time>2012-03-16T11:58:05Z</time>
      </trkpt>
      <trkpt lat="46.19697" lon="6.77287">
        <ele>1879.0339355469</ele>
        <time>2012-03-16T11:58:20Z</time>
      </trkpt>
      <trkpt lat="46.19698" lon="6.77281">
        <ele>1877.5920410156</ele>
        <time>2012-03-16T11:58:28Z</time>
      </trkpt>
      <trkpt lat="46.19693" lon="6.77275">
        <ele>1876.1501464844</ele>
        <time>2012-03-16T11:58:31Z</time>
      </trkpt>
      <trkpt lat="46.19682" lon="6.77271">
        <ele>1873.7468261719</ele>
        <time>2012-03-16T11:58:34Z</time>
      </trkpt>
      <trkpt lat="46.19678" lon="6.7727">
        <ele>1872.7856445312</ele>
        <time>2012-03-16T11:58:36Z</time>
      </trkpt>
      <trkpt lat="46.19673" lon="6.77268">
        <ele>1870.3823242188</ele>
        <time>2012-03-16T11:58:41Z</time>
      </trkpt>
      <trkpt lat="46.19664" lon="6.7726">
        <ele>1869.9016113281</ele>
        <time>2012-03-16T11:58:50Z</time>
      </trkpt>
      <trkpt lat="46.19663" lon="6.77259">
        <ele>1868.9404296875</ele>
        <time>2012-03-16T11:59:45Z</time>
      </trkpt>
      <trkpt lat="46.19664" lon="6.77256">
        <ele>1867.9787597656</ele>
        <time>2012-03-16T11:59:53Z</time>
      </trkpt>
      <trkpt lat="46.19664" lon="6.77248">
        <ele>1864.6142578125</ele>
        <time>2012-03-16T11:59:56Z</time>
      </trkpt>
      <trkpt lat="46.19663" lon="6.77239">
        <ele>1861.2497558594</ele>
        <time>2012-03-16T11:59:57Z</time>
      </trkpt>
      <trkpt lat="46.19658" lon="6.77211">
        <ele>1860.2883300781</ele>
        <time>2012-03-16T11:59:59Z</time>
      </trkpt>
      <trkpt lat="46.19653" lon="6.77183">
        <ele>1854.5205078125</ele>
        <time>2012-03-16T12:00:01Z</time>
      </trkpt>
      <trkpt lat="46.1965" lon="6.77169">
        <ele>1850.6750488281</ele>
        <time>2012-03-16T12:00:02Z</time>
      </trkpt>
      <trkpt lat="46.19645" lon="6.77142">
        <ele>1854.0400390625</ele>
        <time>2012-03-16T12:00:04Z</time>
      </trkpt>
      <trkpt lat="46.19641" lon="6.7712">
        <ele>1847.310546875</ele>
        <time>2012-03-16T12:00:06Z</time>
      </trkpt>
      <trkpt lat="46.19634" lon="6.77082">
        <ele>1844.4265136719</ele>
        <time>2012-03-16T12:00:09Z</time>
      </trkpt>
      <trkpt lat="46.1963" lon="6.77056">
        <ele>1838.1782226562</ele>
        <time>2012-03-16T12:00:11Z</time>
      </trkpt>
      <trkpt lat="46.1963" lon="6.7704">
        <ele>1832.41015625</ele>
        <time>2012-03-16T12:00:12Z</time>
      </trkpt>
      <trkpt lat="46.19629" lon="6.77021">
        <ele>1836.7360839844</ele>
        <time>2012-03-16T12:00:14Z</time>
      </trkpt>
      <trkpt lat="46.19627" lon="6.77011">
        <ele>1836.7360839844</ele>
        <time>2012-03-16T12:00:15Z</time>
      </trkpt>
      <trkpt lat="46.19621" lon="6.76991">
        <ele>1831.9294433594</ele>
        <time>2012-03-16T12:00:17Z</time>
      </trkpt>
      <trkpt lat="46.19617" lon="6.76981">
        <ele>1829.5261230469</ele>
        <time>2012-03-16T12:00:18Z</time>
      </trkpt>
      <trkpt lat="46.19611" lon="6.76967">
        <ele>1830.4875488281</ele>
        <time>2012-03-16T12:00:25Z</time>
      </trkpt>
      <trkpt lat="46.1961" lon="6.76943">
        <ele>1825.6809082031</ele>
        <time>2012-03-16T12:00:34Z</time>
      </trkpt>
      <trkpt lat="46.1961" lon="6.76937">
        <ele>1825.2001953125</ele>
        <time>2012-03-16T12:00:35Z</time>
      </trkpt>
      <trkpt lat="46.19611" lon="6.76883">
        <ele>1824.2390136719</ele>
        <time>2012-03-16T12:00:47Z</time>
      </trkpt>
      <trkpt lat="46.19616" lon="6.76875">
        <ele>1824.2390136719</ele>
        <time>2012-03-16T12:00:57Z</time>
      </trkpt>
      <trkpt lat="46.1962" lon="6.76881">
        <ele>1823.2778320312</ele>
        <time>2012-03-16T12:01:13Z</time>
      </trkpt>
      <trkpt lat="46.19621" lon="6.76886">
        <ele>1824.2390136719</ele>
        <time>2012-03-16T12:01:32Z</time>
      </trkpt>
      <trkpt lat="46.19622" lon="6.76888">
        <ele>1823.2778320312</ele>
        <time>2012-03-16T12:01:51Z</time>
      </trkpt>
      <trkpt lat="46.19623" lon="6.76891">
        <ele>1824.2390136719</ele>
        <time>2012-03-16T12:02:03Z</time>
      </trkpt>
      <trkpt lat="46.19628" lon="6.76932">
        <ele>1824.2390136719</ele>
        <time>2012-03-16T12:02:15Z</time>
      </trkpt>
      <trkpt lat="46.19634" lon="6.76988">
        <ele>1827.603515625</ele>
        <time>2012-03-16T12:02:32Z</time>
      </trkpt>
      <trkpt lat="46.1964" lon="6.77013">
        <ele>1830.0068359375</ele>
        <time>2012-03-16T12:02:40Z</time>
      </trkpt>
      <trkpt lat="46.19648" lon="6.77044">
        <ele>1833.3713378906</ele>
        <time>2012-03-16T12:02:50Z</time>
      </trkpt>
      <trkpt lat="46.19655" lon="6.77071">
        <ele>1836.2556152344</ele>
        <time>2012-03-16T12:02:59Z</time>
      </trkpt>
      <trkpt lat="46.19662" lon="6.77096">
        <ele>1839.6201171875</ele>
        <time>2012-03-16T12:03:07Z</time>
      </trkpt>
      <trkpt lat="46.19665" lon="6.77109">
        <ele>1842.0234375</ele>
        <time>2012-03-16T12:03:11Z</time>
      </trkpt>
      <trkpt lat="46.19672" lon="6.77132">
        <ele>1844.9072265625</ele>
        <time>2012-03-16T12:03:19Z</time>
      </trkpt>
      <trkpt lat="46.19674" lon="6.77141">
        <ele>1846.8298339844</ele>
        <time>2012-03-16T12:03:22Z</time>
      </trkpt>
      <trkpt lat="46.19679" lon="6.77163">
        <ele>1849.7138671875</ele>
        <time>2012-03-16T12:03:29Z</time>
      </trkpt>
      <trkpt lat="46.19687" lon="6.7719">
        <ele>1854.0400390625</ele>
        <time>2012-03-16T12:03:38Z</time>
      </trkpt>
      <trkpt lat="46.19689" lon="6.77199">
        <ele>1857.4045410156</ele>
        <time>2012-03-16T12:03:41Z</time>
      </trkpt>
      <trkpt lat="46.19694" lon="6.77217">
        <ele>1860.2883300781</ele>
        <time>2012-03-16T12:03:47Z</time>
      </trkpt>
      <trkpt lat="46.19696" lon="6.77225">
        <ele>1863.1723632812</ele>
        <time>2012-03-16T12:03:50Z</time>
      </trkpt>
      <trkpt lat="46.19699" lon="6.77234">
        <ele>1866.5368652344</ele>
        <time>2012-03-16T12:03:53Z</time>
      </trkpt>
      <trkpt lat="46.19701" lon="6.77243">
        <ele>1868.9404296875</ele>
        <time>2012-03-16T12:03:56Z</time>
      </trkpt>
      <trkpt lat="46.19704" lon="6.77254">
        <ele>1872.3049316406</ele>
        <time>2012-03-16T12:04:00Z</time>
      </trkpt>
      <trkpt lat="46.19707" lon="6.77265">
        <ele>1875.6694335938</ele>
        <time>2012-03-16T12:04:04Z</time>
      </trkpt>
      <trkpt lat="46.19709" lon="6.77271">
        <ele>1878.5534667969</ele>
        <time>2012-03-16T12:04:06Z</time>
      </trkpt>
      <trkpt lat="46.19709" lon="6.77273">
        <ele>1879.0339355469</ele>
        <time>2012-03-16T12:04:07Z</time>
      </trkpt>
      <trkpt lat="46.19711" lon="6.77279">
        <ele>1880.4760742188</ele>
        <time>2012-03-16T12:04:09Z</time>
      </trkpt>
      <trkpt lat="46.19712" lon="6.77284">
        <ele>1879.9953613281</ele>
        <time>2012-03-16T12:04:10Z</time>
      </trkpt>
      <trkpt lat="46.1971" lon="6.77292">
        <ele>1879.0339355469</ele>
        <time>2012-03-16T12:04:12Z</time>
      </trkpt>
      <trkpt lat="46.19703" lon="6.77286">
        <ele>1878.5534667969</ele>
        <time>2012-03-16T12:04:16Z</time>
      </trkpt>
      <trkpt lat="46.19697" lon="6.77276">
        <ele>1878.5534667969</ele>
        <time>2012-03-16T12:04:19Z</time>
      </trkpt>
      <trkpt lat="46.19689" lon="6.77268">
        <ele>1873.2663574219</ele>
        <time>2012-03-16T12:04:21Z</time>
      </trkpt>
      <trkpt lat="46.19674" lon="6.77261">
        <ele>1869.9016113281</ele>
        <time>2012-03-16T12:04:24Z</time>
      </trkpt>
      <trkpt lat="46.1967" lon="6.77262">
        <ele>1869.4211425781</ele>
        <time>2012-03-16T12:04:36Z</time>
      </trkpt>
      <trkpt lat="46.19668" lon="6.77262">
        <ele>1869.4211425781</ele>
        <time>2012-03-16T12:04:51Z</time>
      </trkpt>
      <trkpt lat="46.19665" lon="6.77258">
        <ele>1868.9404296875</ele>
        <time>2012-03-16T12:04:59Z</time>
      </trkpt>
      <trkpt lat="46.19664" lon="6.77243">
        <ele>1862.2109375</ele>
        <time>2012-03-16T12:05:03Z</time>
      </trkpt>
      <trkpt lat="46.19662" lon="6.77228">
        <ele>1858.8464355469</ele>
        <time>2012-03-16T12:05:04Z</time>
      </trkpt>
      <trkpt lat="46.1965" lon="6.77175">
        <ele>1851.6364746094</ele>
        <time>2012-03-16T12:05:07Z</time>
      </trkpt>
      <trkpt lat="46.19638" lon="6.77116">
        <ele>1845.3879394531</ele>
        <time>2012-03-16T12:05:11Z</time>
      </trkpt>
      <trkpt lat="46.19636" lon="6.77098">
        <ele>1842.5041503906</ele>
        <time>2012-03-16T12:05:12Z</time>
      </trkpt>
      <trkpt lat="46.19634" lon="6.77084">
        <ele>1843.4653320312</ele>
        <time>2012-03-16T12:05:13Z</time>
      </trkpt>
      <trkpt lat="46.19633" lon="6.77075">
        <ele>1846.3493652344</ele>
        <time>2012-03-16T12:05:14Z</time>
      </trkpt>
      <trkpt lat="46.19632" lon="6.77063">
        <ele>1837.216796875</ele>
        <time>2012-03-16T12:05:15Z</time>
      </trkpt>
      <trkpt lat="46.19631" lon="6.77047">
        <ele>1833.3713378906</ele>
        <time>2012-03-16T12:05:16Z</time>
      </trkpt>
      <trkpt lat="46.1963" lon="6.77032">
        <ele>1831.9294433594</ele>
        <time>2012-03-16T12:05:17Z</time>
      </trkpt>
      <trkpt lat="46.19628" lon="6.76998">
        <ele>1830.9682617188</ele>
        <time>2012-03-16T12:05:20Z</time>
      </trkpt>
      <trkpt lat="46.19624" lon="6.76973">
        <ele>1827.603515625</ele>
        <time>2012-03-16T12:05:22Z</time>
      </trkpt>
      <trkpt lat="46.19623" lon="6.76962">
        <ele>1828.5649414062</ele>
        <time>2012-03-16T12:05:23Z</time>
      </trkpt>
      <trkpt lat="46.19618" lon="6.76936">
        <ele>1827.123046875</ele>
        <time>2012-03-16T12:05:26Z</time>
      </trkpt>
      <trkpt lat="46.19611" lon="6.76874">
        <ele>1825.2001953125</ele>
        <time>2012-03-16T12:05:35Z</time>
      </trkpt>
      <trkpt lat="46.19616" lon="6.76871">
        <ele>1825.2001953125</ele>
        <time>2012-03-16T12:05:44Z</time>
      </trkpt>
      <trkpt lat="46.19616" lon="6.76873">
        <ele>1825.2001953125</ele>
        <time>2012-03-16T12:06:17Z</time>
      </trkpt>
      <trkpt lat="46.19618" lon="6.76877">
        <ele>1824.7197265625</ele>
        <time>2012-03-16T12:06:46Z</time>
      </trkpt>
      <trkpt lat="46.19619" lon="6.7688">
        <ele>1824.7197265625</ele>
        <time>2012-03-16T12:07:16Z</time>
      </trkpt>
      <trkpt lat="46.19621" lon="6.76883">
        <ele>1824.2390136719</ele>
        <time>2012-03-16T12:07:42Z</time>
      </trkpt>
      <trkpt lat="46.19621" lon="6.76885">
        <ele>1823.7583007812</ele>
        <time>2012-03-16T12:08:11Z</time>
      </trkpt>
      <trkpt lat="46.19622" lon="6.76888">
        <ele>1824.2390136719</ele>
        <time>2012-03-16T12:08:30Z</time>
      </trkpt>
      <trkpt lat="46.19623" lon="6.7689">
        <ele>1824.7197265625</ele>
        <time>2012-03-16T12:08:41Z</time>
      </trkpt>
      <trkpt lat="46.19627" lon="6.76928">
        <ele>1825.2001953125</ele>
        <time>2012-03-16T12:08:52Z</time>
      </trkpt>
      <trkpt lat="46.19633" lon="6.76981">
        <ele>1826.6423339844</ele>
        <time>2012-03-16T12:09:08Z</time>
      </trkpt>
      <trkpt lat="46.19638" lon="6.77008">
        <ele>1830.0068359375</ele>
        <time>2012-03-16T12:09:17Z</time>
      </trkpt>
      <trkpt lat="46.1965" lon="6.77049">
        <ele>1833.3713378906</ele>
        <time>2012-03-16T12:09:30Z</time>
      </trkpt>
      <trkpt lat="46.1965" lon="6.77052">
        <ele>1833.8520507812</ele>
        <time>2012-03-16T12:09:31Z</time>
      </trkpt>
      <trkpt lat="46.19658" lon="6.77079">
        <ele>1836.7360839844</ele>
        <time>2012-03-16T12:09:40Z</time>
      </trkpt>
      <trkpt lat="46.19659" lon="6.77083">
        <ele>1837.216796875</ele>
        <time>2012-03-16T12:09:41Z</time>
      </trkpt>
      <trkpt lat="46.19663" lon="6.77101">
        <ele>1839.6201171875</ele>
        <time>2012-03-16T12:09:47Z</time>
      </trkpt>
      <trkpt lat="46.19668" lon="6.77119">
        <ele>1842.9846191406</ele>
        <time>2012-03-16T12:09:53Z</time>
      </trkpt>
      <trkpt lat="46.19672" lon="6.77135">
        <ele>1845.3879394531</ele>
        <time>2012-03-16T12:09:58Z</time>
      </trkpt>
      <trkpt lat="46.19677" lon="6.77153">
        <ele>1847.7912597656</ele>
        <time>2012-03-16T12:10:04Z</time>
      </trkpt>
      <trkpt lat="46.19679" lon="6.77159">
        <ele>1849.2331542969</ele>
        <time>2012-03-16T12:10:06Z</time>
      </trkpt>
      <trkpt lat="46.19685" lon="6.77184">
        <ele>1852.5979003906</ele>
        <time>2012-03-16T12:10:14Z</time>
      </trkpt>
      <trkpt lat="46.19687" lon="6.77189">
        <ele>1853.5593261719</ele>
        <time>2012-03-16T12:10:16Z</time>
      </trkpt>
      <trkpt lat="46.19688" lon="6.77195">
        <ele>1855.9624023438</ele>
        <time>2012-03-16T12:10:18Z</time>
      </trkpt>
      <trkpt lat="46.19693" lon="6.77213">
        <ele>1859.3271484375</ele>
        <time>2012-03-16T12:10:24Z</time>
      </trkpt>
      <trkpt lat="46.19695" lon="6.77222">
        <ele>1862.2109375</ele>
        <time>2012-03-16T12:10:27Z</time>
      </trkpt>
      <trkpt lat="46.19697" lon="6.7723">
        <ele>1865.5756835938</ele>
        <time>2012-03-16T12:10:30Z</time>
      </trkpt>
      <trkpt lat="46.19701" lon="6.77245">
        <ele>1869.4211425781</ele>
        <time>2012-03-16T12:10:35Z</time>
      </trkpt>
      <trkpt lat="46.19705" lon="6.77256">
        <ele>1872.7856445312</ele>
        <time>2012-03-16T12:10:39Z</time>
      </trkpt>
      <trkpt lat="46.19705" lon="6.77259">
        <ele>1872.7856445312</ele>
        <time>2012-03-16T12:10:40Z</time>
      </trkpt>
      <trkpt lat="46.19708" lon="6.77268">
        <ele>1876.1501464844</ele>
        <time>2012-03-16T12:10:43Z</time>
      </trkpt>
      <trkpt lat="46.19711" lon="6.77278">
        <ele>1878.0727539062</ele>
        <time>2012-03-16T12:10:47Z</time>
      </trkpt>
      <trkpt lat="46.19712" lon="6.77283">
        <ele>1879.0339355469</ele>
        <time>2012-03-16T12:10:48Z</time>
      </trkpt>
      <trkpt lat="46.19703" lon="6.77288">
        <ele>1878.5534667969</ele>
        <time>2012-03-16T12:10:54Z</time>
      </trkpt>
      <trkpt lat="46.19695" lon="6.77272">
        <ele>1875.6694335938</ele>
        <time>2012-03-16T12:11:09Z</time>
      </trkpt>
      <trkpt lat="46.19694" lon="6.7727">
        <ele>1875.6694335938</ele>
        <time>2012-03-16T12:11:12Z</time>
      </trkpt>
      <trkpt lat="46.1968" lon="6.77265">
        <ele>1872.3049316406</ele>
        <time>2012-03-16T12:11:18Z</time>
      </trkpt>
      <trkpt lat="46.19678" lon="6.77264">
        <ele>1871.3435058594</ele>
        <time>2012-03-16T12:11:20Z</time>
      </trkpt>
      <trkpt lat="46.19672" lon="6.77263">
        <ele>1870.3823242188</ele>
        <time>2012-03-16T12:11:26Z</time>
      </trkpt>
      <trkpt lat="46.19664" lon="6.7726">
        <ele>1869.4211425781</ele>
        <time>2012-03-16T12:11:35Z</time>
      </trkpt>
      <trkpt lat="46.19665" lon="6.7726">
        <ele>1869.4211425781</ele>
        <time>2012-03-16T12:12:10Z</time>
      </trkpt>
      <trkpt lat="46.19656" lon="6.77255">
        <ele>1867.017578125</ele>
        <time>2012-03-16T12:12:19Z</time>
      </trkpt>
      <trkpt lat="46.19647" lon="6.77231">
        <ele>1861.2497558594</ele>
        <time>2012-03-16T12:12:22Z</time>
      </trkpt>
      <trkpt lat="46.19644" lon="6.77217">
        <ele>1856.923828125</ele>
        <time>2012-03-16T12:12:23Z</time>
      </trkpt>
      <trkpt lat="46.19635" lon="6.77174">
        <ele>1848.7524414062</ele>
        <time>2012-03-16T12:12:26Z</time>
      </trkpt>
      <trkpt lat="46.19635" lon="6.77153">
        <ele>1848.7524414062</ele>
        <time>2012-03-16T12:12:32Z</time>
      </trkpt>
      <trkpt lat="46.19636" lon="6.77151">
        <ele>1850.6750488281</ele>
        <time>2012-03-16T12:12:36Z</time>
      </trkpt>
      <trkpt lat="46.19636" lon="6.77149">
        <ele>1848.7524414062</ele>
        <time>2012-03-16T12:12:38Z</time>
      </trkpt>
      <trkpt lat="46.19636" lon="6.7715">
        <ele>1849.7138671875</ele>
        <time>2012-03-16T12:12:51Z</time>
      </trkpt>
      <trkpt lat="46.19636" lon="6.77148">
        <ele>1849.7138671875</ele>
        <time>2012-03-16T12:14:12Z</time>
      </trkpt>
      <trkpt lat="46.19634" lon="6.77131">
        <ele>1846.3493652344</ele>
        <time>2012-03-16T12:14:16Z</time>
      </trkpt>
      <trkpt lat="46.19631" lon="6.77112">
        <ele>1843.4653320312</ele>
        <time>2012-03-16T12:14:18Z</time>
      </trkpt>
      <trkpt lat="46.19622" lon="6.77066">
        <ele>1838.6589355469</ele>
        <time>2012-03-16T12:14:22Z</time>
      </trkpt>
      <trkpt lat="46.19619" lon="6.77039">
        <ele>1835.2939453125</ele>
        <time>2012-03-16T12:14:24Z</time>
      </trkpt>
      <trkpt lat="46.19618" lon="6.77025">
        <ele>1831.4487304688</ele>
        <time>2012-03-16T12:14:25Z</time>
      </trkpt>
      <trkpt lat="46.19614" lon="6.76986">
        <ele>1827.603515625</ele>
        <time>2012-03-16T12:14:28Z</time>
      </trkpt>
      <trkpt lat="46.1961" lon="6.76922">
        <ele>1825.2001953125</ele>
        <time>2012-03-16T12:14:34Z</time>
      </trkpt>
      <trkpt lat="46.1961" lon="6.76903">
        <ele>1822.7971191406</ele>
        <time>2012-03-16T12:14:36Z</time>
      </trkpt>
      <trkpt lat="46.19607" lon="6.76892">
        <ele>1823.7583007812</ele>
        <time>2012-03-16T12:14:43Z</time>
      </trkpt>
      <trkpt lat="46.19602" lon="6.76905">
        <ele>1824.7197265625</ele>
        <time>2012-03-16T12:15:02Z</time>
      </trkpt>
      <trkpt lat="46.19605" lon="6.7689">
        <ele>1824.2390136719</ele>
        <time>2012-03-16T12:15:08Z</time>
      </trkpt>
      <trkpt lat="46.1961" lon="6.76889">
        <ele>1823.7583007812</ele>
        <time>2012-03-16T12:15:19Z</time>
      </trkpt>
      <trkpt lat="46.19615" lon="6.76885">
        <ele>1823.7583007812</ele>
        <time>2012-03-16T12:15:41Z</time>
      </trkpt>
      <trkpt lat="46.19618" lon="6.76886">
        <ele>1823.2778320312</ele>
        <time>2012-03-16T12:16:02Z</time>
      </trkpt>
      <trkpt lat="46.19619" lon="6.76888">
        <ele>1822.7971191406</ele>
        <time>2012-03-16T12:16:25Z</time>
      </trkpt>
      <trkpt lat="46.19621" lon="6.7689">
        <ele>1824.7197265625</ele>
        <time>2012-03-16T12:16:43Z</time>
      </trkpt>
      <trkpt lat="46.19623" lon="6.76892">
        <ele>1823.7583007812</ele>
        <time>2012-03-16T12:17:09Z</time>
      </trkpt>
      <trkpt lat="46.19623" lon="6.76893">
        <ele>1824.7197265625</ele>
        <time>2012-03-16T12:17:13Z</time>
      </trkpt>
      <trkpt lat="46.19627" lon="6.76929">
        <ele>1825.2001953125</ele>
        <time>2012-03-16T12:17:24Z</time>
      </trkpt>
      <trkpt lat="46.19631" lon="6.76977">
        <ele>1827.603515625</ele>
        <time>2012-03-16T12:17:38Z</time>
      </trkpt>
      <trkpt lat="46.19633" lon="6.76996">
        <ele>1830.0068359375</ele>
        <time>2012-03-16T12:17:44Z</time>
      </trkpt>
      <trkpt lat="46.19635" lon="6.77005">
        <ele>1831.4487304688</ele>
        <time>2012-03-16T12:17:47Z</time>
      </trkpt>
      <trkpt lat="46.19647" lon="6.77045">
        <ele>1834.8134765625</ele>
        <time>2012-03-16T12:18:00Z</time>
      </trkpt>
      <trkpt lat="46.19656" lon="6.77075">
        <ele>1838.1782226562</ele>
        <time>2012-03-16T12:18:10Z</time>
      </trkpt>
      <trkpt lat="46.19668" lon="6.77117">
        <ele>1842.0234375</ele>
        <time>2012-03-16T12:18:24Z</time>
      </trkpt>
      <trkpt lat="46.19669" lon="6.7712">
        <ele>1842.0234375</ele>
        <time>2012-03-16T12:18:25Z</time>
      </trkpt>
      <trkpt lat="46.19671" lon="6.77129">
        <ele>1845.3879394531</ele>
        <time>2012-03-16T12:18:28Z</time>
      </trkpt>
      <trkpt lat="46.19679" lon="6.77159">
        <ele>1848.7524414062</ele>
        <time>2012-03-16T12:18:38Z</time>
      </trkpt>
      <trkpt lat="46.1968" lon="6.77162">
        <ele>1848.2717285156</ele>
        <time>2012-03-16T12:18:39Z</time>
      </trkpt>
      <trkpt lat="46.19683" lon="6.77175">
        <ele>1851.6364746094</ele>
        <time>2012-03-16T12:18:43Z</time>
      </trkpt>
      <trkpt lat="46.19684" lon="6.77178">
        <ele>1851.1557617188</ele>
        <time>2012-03-16T12:18:44Z</time>
      </trkpt>
      <trkpt lat="46.19688" lon="6.77193">
        <ele>1854.5205078125</ele>
        <time>2012-03-16T12:18:49Z</time>
      </trkpt>
      <trkpt lat="46.1969" lon="6.77201">
        <ele>1856.4431152344</ele>
        <time>2012-03-16T12:18:52Z</time>
      </trkpt>
      <trkpt lat="46.19695" lon="6.77219">
        <ele>1861.2497558594</ele>
        <time>2012-03-16T12:18:58Z</time>
      </trkpt>
      <trkpt lat="46.19698" lon="6.77231">
        <ele>1863.6528320312</ele>
        <time>2012-03-16T12:19:02Z</time>
      </trkpt>
      <trkpt lat="46.197" lon="6.77239">
        <ele>1867.498046875</ele>
        <time>2012-03-16T12:19:05Z</time>
      </trkpt>
      <trkpt lat="46.19705" lon="6.77257">
        <ele>1870.3823242188</ele>
        <time>2012-03-16T12:19:11Z</time>
      </trkpt>
      <trkpt lat="46.19707" lon="6.77265">
        <ele>1873.7468261719</ele>
        <time>2012-03-16T12:19:14Z</time>
      </trkpt>
      <trkpt lat="46.19709" lon="6.77271">
        <ele>1877.5920410156</ele>
        <time>2012-03-16T12:19:16Z</time>
      </trkpt>
      <trkpt lat="46.19711" lon="6.77279">
        <ele>1879.5146484375</ele>
        <time>2012-03-16T12:19:19Z</time>
      </trkpt>
      <trkpt lat="46.19712" lon="6.77283">
        <ele>1880.9567871094</ele>
        <time>2012-03-16T12:19:20Z</time>
      </trkpt>
      <trkpt lat="46.19706" lon="6.7729">
        <ele>1879.5146484375</ele>
        <time>2012-03-16T12:19:26Z</time>
      </trkpt>
      <trkpt lat="46.19696" lon="6.77275">
        <ele>1877.5920410156</ele>
        <time>2012-03-16T12:19:35Z</time>
      </trkpt>
      <trkpt lat="46.19678" lon="6.77266">
        <ele>1870.8630371094</ele>
        <time>2012-03-16T12:19:39Z</time>
      </trkpt>
      <trkpt lat="46.1967" lon="6.77261">
        <ele>1869.4211425781</ele>
        <time>2012-03-16T12:19:42Z</time>
      </trkpt>
      <trkpt lat="46.19668" lon="6.77263">
        <ele>1868.9404296875</ele>
        <time>2012-03-16T12:19:53Z</time>
      </trkpt>
      <trkpt lat="46.19668" lon="6.77263">
        <ele>1867.9787597656</ele>
        <time>2012-03-16T12:20:19Z</time>
      </trkpt>
      <trkpt lat="46.19669" lon="6.77261">
        <ele>1868.4597167969</ele>
        <time>2012-03-16T12:21:01Z</time>
      </trkpt>
      <trkpt lat="46.19669" lon="6.77257">
        <ele>1867.9787597656</ele>
        <time>2012-03-16T12:21:34Z</time>
      </trkpt>
      <trkpt lat="46.19669" lon="6.77257">
        <ele>1868.4597167969</ele>
        <time>2012-03-16T12:21:54Z</time>
      </trkpt>
      <trkpt lat="46.19669" lon="6.77254">
        <ele>1867.9787597656</ele>
        <time>2012-03-16T12:22:27Z</time>
      </trkpt>
      <trkpt lat="46.19667" lon="6.77241">
        <ele>1865.5756835938</ele>
        <time>2012-03-16T12:22:29Z</time>
      </trkpt>
      <trkpt lat="46.19661" lon="6.77216">
        <ele>1857.8852539062</ele>
        <time>2012-03-16T12:22:31Z</time>
      </trkpt>
      <trkpt lat="46.19658" lon="6.77201">
        <ele>1857.8852539062</ele>
        <time>2012-03-16T12:22:32Z</time>
      </trkpt>
      <trkpt lat="46.19651" lon="6.77173">
        <ele>1848.2717285156</ele>
        <time>2012-03-16T12:22:34Z</time>
      </trkpt>
      <trkpt lat="46.19644" lon="6.7714">
        <ele>1852.1171875</ele>
        <time>2012-03-16T12:22:36Z</time>
      </trkpt>
      <trkpt lat="46.1964" lon="6.77125">
        <ele>1846.8298339844</ele>
        <time>2012-03-16T12:22:37Z</time>
      </trkpt>
      <trkpt lat="46.19637" lon="6.7711">
        <ele>1842.5041503906</ele>
        <time>2012-03-16T12:22:38Z</time>
      </trkpt>
      <trkpt lat="46.19636" lon="6.77099">
        <ele>1838.1782226562</ele>
        <time>2012-03-16T12:22:39Z</time>
      </trkpt>
      <trkpt lat="46.19634" lon="6.77084">
        <ele>1841.5427246094</ele>
        <time>2012-03-16T12:22:40Z</time>
      </trkpt>
      <trkpt lat="46.19633" lon="6.7707">
        <ele>1844.9072265625</ele>
        <time>2012-03-16T12:22:41Z</time>
      </trkpt>
      <trkpt lat="46.19631" lon="6.77055">
        <ele>1839.1394042969</ele>
        <time>2012-03-16T12:22:42Z</time>
      </trkpt>
      <trkpt lat="46.19628" lon="6.77012">
        <ele>1836.2556152344</ele>
        <time>2012-03-16T12:22:46Z</time>
      </trkpt>
      <trkpt lat="46.19628" lon="6.77005">
        <ele>1832.890625</ele>
        <time>2012-03-16T12:22:47Z</time>
      </trkpt>
      <trkpt lat="46.19627" lon="6.76993">
        <ele>1829.5261230469</ele>
        <time>2012-03-16T12:22:48Z</time>
      </trkpt>
      <trkpt lat="46.19623" lon="6.7697">
        <ele>1829.0454101562</ele>
        <time>2012-03-16T12:22:50Z</time>
      </trkpt>
      <trkpt lat="46.19615" lon="6.76917">
        <ele>1826.1616210938</ele>
        <time>2012-03-16T12:22:56Z</time>
      </trkpt>
      <trkpt lat="46.19613" lon="6.76893">
        <ele>1826.6423339844</ele>
        <time>2012-03-16T12:23:00Z</time>
      </trkpt>
      <trkpt lat="46.1961" lon="6.76874">
        <ele>1826.1616210938</ele>
        <time>2012-03-16T12:23:04Z</time>
      </trkpt>
      <trkpt lat="46.19614" lon="6.76869">
        <ele>1828.5649414062</ele>
        <time>2012-03-16T12:23:09Z</time>
      </trkpt>
      <trkpt lat="46.19614" lon="6.76873">
        <ele>1826.6423339844</ele>
        <time>2012-03-16T12:23:46Z</time>
      </trkpt>
      <trkpt lat="46.19616" lon="6.76875">
        <ele>1827.603515625</ele>
        <time>2012-03-16T12:24:11Z</time>
      </trkpt>
      <trkpt lat="46.19619" lon="6.76882">
        <ele>1827.603515625</ele>
        <time>2012-03-16T12:24:49Z</time>
      </trkpt>
      <trkpt lat="46.19621" lon="6.76885">
        <ele>1826.1616210938</ele>
        <time>2012-03-16T12:25:07Z</time>
      </trkpt>
      <trkpt lat="46.19623" lon="6.7689">
        <ele>1827.123046875</ele>
        <time>2012-03-16T12:25:25Z</time>
      </trkpt>
      <trkpt lat="46.19623" lon="6.76892">
        <ele>1827.123046875</ele>
        <time>2012-03-16T12:25:31Z</time>
      </trkpt>
      <trkpt lat="46.19629" lon="6.76932">
        <ele>1826.6423339844</ele>
        <time>2012-03-16T12:25:43Z</time>
      </trkpt>
      <trkpt lat="46.19634" lon="6.76978">
        <ele>1830.0068359375</ele>
        <time>2012-03-16T12:25:57Z</time>
      </trkpt>
      <trkpt lat="46.19639" lon="6.77013">
        <ele>1832.41015625</ele>
        <time>2012-03-16T12:26:08Z</time>
      </trkpt>
      <trkpt lat="46.19642" lon="6.77023">
        <ele>1834.3327636719</ele>
        <time>2012-03-16T12:26:11Z</time>
      </trkpt>
      <trkpt lat="46.19656" lon="6.77072">
        <ele>1837.6975097656</ele>
        <time>2012-03-16T12:26:27Z</time>
      </trkpt>
      <trkpt lat="46.19659" lon="6.77084">
        <ele>1840.1008300781</ele>
        <time>2012-03-16T12:26:31Z</time>
      </trkpt>
      <trkpt lat="46.1967" lon="6.77124">
        <ele>1842.9846191406</ele>
        <time>2012-03-16T12:26:44Z</time>
      </trkpt>
      <trkpt lat="46.19674" lon="6.77139">
        <ele>1845.8686523438</ele>
        <time>2012-03-16T12:26:49Z</time>
      </trkpt>
      <trkpt lat="46.19675" lon="6.77145">
        <ele>1846.8298339844</ele>
        <time>2012-03-16T12:26:51Z</time>
      </trkpt>
      <trkpt lat="46.19677" lon="6.77154">
        <ele>1848.2717285156</ele>
        <time>2012-03-16T12:26:54Z</time>
      </trkpt>
      <trkpt lat="46.19682" lon="6.7717">
        <ele>1851.6364746094</ele>
        <time>2012-03-16T12:26:59Z</time>
      </trkpt>
      <trkpt lat="46.19688" lon="6.77193">
        <ele>1853.5593261719</ele>
        <time>2012-03-16T12:27:07Z</time>
      </trkpt>
      <trkpt lat="46.19691" lon="6.77205">
        <ele>1855.9624023438</ele>
        <time>2012-03-16T12:27:11Z</time>
      </trkpt>
      <trkpt lat="46.19694" lon="6.77214">
        <ele>1857.8852539062</ele>
        <time>2012-03-16T12:27:14Z</time>
      </trkpt>
      <trkpt lat="46.19696" lon="6.77222">
        <ele>1861.2497558594</ele>
        <time>2012-03-16T12:27:17Z</time>
      </trkpt>
      <trkpt lat="46.19698" lon="6.77228">
        <ele>1862.2109375</ele>
        <time>2012-03-16T12:27:19Z</time>
      </trkpt>
      <trkpt lat="46.19701" lon="6.77236">
        <ele>1866.5368652344</ele>
        <time>2012-03-16T12:27:22Z</time>
      </trkpt>
      <trkpt lat="46.19701" lon="6.77239">
        <ele>1866.5368652344</ele>
        <time>2012-03-16T12:27:23Z</time>
      </trkpt>
      <trkpt lat="46.19705" lon="6.77251">
        <ele>1870.3823242188</ele>
        <time>2012-03-16T12:27:27Z</time>
      </trkpt>
      <trkpt lat="46.19706" lon="6.77256">
        <ele>1873.7468261719</ele>
        <time>2012-03-16T12:27:29Z</time>
      </trkpt>
      <trkpt lat="46.19707" lon="6.77259">
        <ele>1874.2275390625</ele>
        <time>2012-03-16T12:27:30Z</time>
      </trkpt>
      <trkpt lat="46.19709" lon="6.77264">
        <ele>1875.6694335938</ele>
        <time>2012-03-16T12:27:32Z</time>
      </trkpt>
      <trkpt lat="46.19711" lon="6.77271">
        <ele>1878.0727539062</ele>
        <time>2012-03-16T12:27:35Z</time>
      </trkpt>
      <trkpt lat="46.19715" lon="6.77286">
        <ele>1879.0339355469</ele>
        <time>2012-03-16T12:27:39Z</time>
      </trkpt>
      <trkpt lat="46.19706" lon="6.77289">
        <ele>1878.5534667969</ele>
        <time>2012-03-16T12:27:44Z</time>
      </trkpt>
      <trkpt lat="46.19699" lon="6.77276">
        <ele>1877.1115722656</ele>
        <time>2012-03-16T12:27:48Z</time>
      </trkpt>
      <trkpt lat="46.19685" lon="6.77268">
        <ele>1873.7468261719</ele>
        <time>2012-03-16T12:27:51Z</time>
      </trkpt>
      <trkpt lat="46.19676" lon="6.77264">
        <ele>1870.8630371094</ele>
        <time>2012-03-16T12:27:55Z</time>
      </trkpt>
      <trkpt lat="46.19666" lon="6.77259">
        <ele>1867.9787597656</ele>
        <time>2012-03-16T12:28:02Z</time>
      </trkpt>
      <trkpt lat="46.19665" lon="6.77257">
        <ele>1868.4597167969</ele>
        <time>2012-03-16T12:28:21Z</time>
      </trkpt>
      <trkpt lat="46.19665" lon="6.77258">
        <ele>1868.4597167969</ele>
        <time>2012-03-16T12:28:45Z</time>
      </trkpt>
      <trkpt lat="46.19669" lon="6.77261">
        <ele>1869.9016113281</ele>
        <time>2012-03-16T12:29:01Z</time>
      </trkpt>
      <trkpt lat="46.19669" lon="6.77261">
        <ele>1870.8630371094</ele>
        <time>2012-03-16T12:29:08Z</time>
      </trkpt>
      <trkpt lat="46.1967" lon="6.7726">
        <ele>1870.8630371094</ele>
        <time>2012-03-16T12:29:34Z</time>
      </trkpt>
      <trkpt lat="46.1967" lon="6.77261">
        <ele>1870.8630371094</ele>
        <time>2012-03-16T12:29:43Z</time>
      </trkpt>
      <trkpt lat="46.1967" lon="6.77259">
        <ele>1871.82421875</ele>
        <time>2012-03-16T12:30:04Z</time>
      </trkpt>
      <trkpt lat="46.19668" lon="6.7725">
        <ele>1867.017578125</ele>
        <time>2012-03-16T12:30:07Z</time>
      </trkpt>
      <trkpt lat="46.19664" lon="6.77235">
        <ele>1863.6528320312</ele>
        <time>2012-03-16T12:30:08Z</time>
      </trkpt>
      <trkpt lat="46.1966" lon="6.77217">
        <ele>1859.3271484375</ele>
        <time>2012-03-16T12:30:09Z</time>
      </trkpt>
      <trkpt lat="46.19656" lon="6.77192">
        <ele>1854.5205078125</ele>
        <time>2012-03-16T12:30:11Z</time>
      </trkpt>
      <trkpt lat="46.19653" lon="6.7718">
        <ele>1851.1557617188</ele>
        <time>2012-03-16T12:30:12Z</time>
      </trkpt>
      <trkpt lat="46.19645" lon="6.77146">
        <ele>1849.7138671875</ele>
        <time>2012-03-16T12:30:14Z</time>
      </trkpt>
      <trkpt lat="46.19641" lon="6.77119">
        <ele>1844.4265136719</ele>
        <time>2012-03-16T12:30:16Z</time>
      </trkpt>
      <trkpt lat="46.19637" lon="6.77102">
        <ele>1840.1008300781</ele>
        <time>2012-03-16T12:30:17Z</time>
      </trkpt>
      <trkpt lat="46.19634" lon="6.77086">
        <ele>1840.5812988281</ele>
        <time>2012-03-16T12:30:18Z</time>
      </trkpt>
      <trkpt lat="46.19633" lon="6.77075">
        <ele>1845.3879394531</ele>
        <time>2012-03-16T12:30:19Z</time>
      </trkpt>
      <trkpt lat="46.19631" lon="6.7705">
        <ele>1836.7360839844</ele>
        <time>2012-03-16T12:30:21Z</time>
      </trkpt>
      <trkpt lat="46.1963" lon="6.77034">
        <ele>1833.8520507812</ele>
        <time>2012-03-16T12:30:22Z</time>
      </trkpt>
      <trkpt lat="46.1963" lon="6.77024">
        <ele>1835.7746582031</ele>
        <time>2012-03-16T12:30:23Z</time>
      </trkpt>
      <trkpt lat="46.19625" lon="6.76976">
        <ele>1830.0068359375</ele>
        <time>2012-03-16T12:30:27Z</time>
      </trkpt>
      <trkpt lat="46.19617" lon="6.76927">
        <ele>1827.603515625</ele>
        <time>2012-03-16T12:30:32Z</time>
      </trkpt>
      <trkpt lat="46.19612" lon="6.76894">
        <ele>1826.1616210938</ele>
        <time>2012-03-16T12:30:36Z</time>
      </trkpt>
      <trkpt lat="46.1961" lon="6.76867">
        <ele>1827.123046875</ele>
        <time>2012-03-16T12:30:46Z</time>
      </trkpt>
      <trkpt lat="46.19612" lon="6.76871">
        <ele>1827.123046875</ele>
        <time>2012-03-16T12:31:06Z</time>
      </trkpt>
      <trkpt lat="46.19613" lon="6.76872">
        <ele>1826.6423339844</ele>
        <time>2012-03-16T12:31:23Z</time>
      </trkpt>
      <trkpt lat="46.19619" lon="6.76881">
        <ele>1826.1616210938</ele>
        <time>2012-03-16T12:31:39Z</time>
      </trkpt>
      <trkpt lat="46.19621" lon="6.76884">
        <ele>1826.6423339844</ele>
        <time>2012-03-16T12:31:59Z</time>
      </trkpt>
      <trkpt lat="46.19622" lon="6.76888">
        <ele>1825.6809082031</ele>
        <time>2012-03-16T12:32:19Z</time>
      </trkpt>
      <trkpt lat="46.19623" lon="6.76893">
        <ele>1823.7583007812</ele>
        <time>2012-03-16T12:32:42Z</time>
      </trkpt>
      <trkpt lat="46.19624" lon="6.76893">
        <ele>1825.6809082031</ele>
        <time>2012-03-16T12:32:47Z</time>
      </trkpt>
      <trkpt lat="46.19629" lon="6.76935">
        <ele>1827.123046875</ele>
        <time>2012-03-16T12:33:00Z</time>
      </trkpt>
      <trkpt lat="46.19634" lon="6.76971">
        <ele>1830.4875488281</ele>
        <time>2012-03-16T12:33:11Z</time>
      </trkpt>
      <trkpt lat="46.19634" lon="6.76974">
        <ele>1829.5261230469</ele>
        <time>2012-03-16T12:33:12Z</time>
      </trkpt>
      <trkpt lat="46.19639" lon="6.77009">
        <ele>1833.3713378906</ele>
        <time>2012-03-16T12:33:23Z</time>
      </trkpt>
      <trkpt lat="46.19639" lon="6.77012">
        <ele>1831.9294433594</ele>
        <time>2012-03-16T12:33:24Z</time>
      </trkpt>
      <trkpt lat="46.19645" lon="6.77031">
        <ele>1835.2939453125</ele>
        <time>2012-03-16T12:33:30Z</time>
      </trkpt>
      <trkpt lat="46.19658" lon="6.77081">
        <ele>1838.1782226562</ele>
        <time>2012-03-16T12:33:46Z</time>
      </trkpt>
      <trkpt lat="46.19665" lon="6.77105">
        <ele>1841.5427246094</ele>
        <time>2012-03-16T12:33:54Z</time>
      </trkpt>
      <trkpt lat="46.1967" lon="6.77123">
        <ele>1844.9072265625</ele>
        <time>2012-03-16T12:34:00Z</time>
      </trkpt>
      <trkpt lat="46.19679" lon="6.77156">
        <ele>1848.2717285156</ele>
        <time>2012-03-16T12:34:11Z</time>
      </trkpt>
      <trkpt lat="46.19685" lon="6.77178">
        <ele>1851.6364746094</ele>
        <time>2012-03-16T12:34:18Z</time>
      </trkpt>
      <trkpt lat="46.19688" lon="6.7719">
        <ele>1852.5979003906</ele>
        <time>2012-03-16T12:34:22Z</time>
      </trkpt>
      <trkpt lat="46.19691" lon="6.77201">
        <ele>1856.4431152344</ele>
        <time>2012-03-16T12:34:26Z</time>
      </trkpt>
      <trkpt lat="46.19692" lon="6.77204">
        <ele>1856.4431152344</ele>
        <time>2012-03-16T12:34:27Z</time>
      </trkpt>
      <trkpt lat="46.19695" lon="6.77216">
        <ele>1858.3657226562</ele>
        <time>2012-03-16T12:34:31Z</time>
      </trkpt>
      <trkpt lat="46.19697" lon="6.77221">
        <ele>1861.73046875</ele>
        <time>2012-03-16T12:34:33Z</time>
      </trkpt>
      <trkpt lat="46.19698" lon="6.77224">
        <ele>1860.7690429688</ele>
        <time>2012-03-16T12:34:34Z</time>
      </trkpt>
      <trkpt lat="46.197" lon="6.77233">
        <ele>1865.0949707031</ele>
        <time>2012-03-16T12:34:37Z</time>
      </trkpt>
      <trkpt lat="46.19702" lon="6.77239">
        <ele>1868.4597167969</ele>
        <time>2012-03-16T12:34:39Z</time>
      </trkpt>
      <trkpt lat="46.19704" lon="6.77248">
        <ele>1869.9016113281</ele>
        <time>2012-03-16T12:34:42Z</time>
      </trkpt>
      <trkpt lat="46.19706" lon="6.77256">
        <ele>1873.7468261719</ele>
        <time>2012-03-16T12:34:45Z</time>
      </trkpt>
      <trkpt lat="46.19708" lon="6.77262">
        <ele>1874.7082519531</ele>
        <time>2012-03-16T12:34:47Z</time>
      </trkpt>
      <trkpt lat="46.19711" lon="6.77272">
        <ele>1878.5534667969</ele>
        <time>2012-03-16T12:34:51Z</time>
      </trkpt>
      <trkpt lat="46.19713" lon="6.77277">
        <ele>1879.5146484375</ele>
        <time>2012-03-16T12:34:53Z</time>
      </trkpt>
      <trkpt lat="46.19715" lon="6.77286">
        <ele>1879.0339355469</ele>
        <time>2012-03-16T12:34:55Z</time>
      </trkpt>
      <trkpt lat="46.19697" lon="6.77295">
        <ele>1879.0339355469</ele>
        <time>2012-03-16T12:35:04Z</time>
      </trkpt>
      <trkpt lat="46.19692" lon="6.77294">
        <ele>1879.0339355469</ele>
        <time>2012-03-16T12:35:20Z</time>
      </trkpt>
      <trkpt lat="46.19674" lon="6.77291">
        <ele>1878.0727539062</ele>
        <time>2012-03-16T12:35:45Z</time>
      </trkpt>
      <trkpt lat="46.19649" lon="6.77288">
        <ele>1874.7082519531</ele>
        <time>2012-03-16T12:35:52Z</time>
      </trkpt>
      <trkpt lat="46.19644" lon="6.77288">
        <ele>1874.7082519531</ele>
        <time>2012-03-16T12:35:53Z</time>
      </trkpt>
      <trkpt lat="46.19628" lon="6.7729">
        <ele>1872.7856445312</ele>
        <time>2012-03-16T12:35:56Z</time>
      </trkpt>
      <trkpt lat="46.19617" lon="6.77292">
        <ele>1871.3435058594</ele>
        <time>2012-03-16T12:35:58Z</time>
      </trkpt>
      <trkpt lat="46.19598" lon="6.77294">
        <ele>1868.9404296875</ele>
        <time>2012-03-16T12:36:02Z</time>
      </trkpt>
      <trkpt lat="46.19573" lon="6.77294">
        <ele>1865.5756835938</ele>
        <time>2012-03-16T12:36:07Z</time>
      </trkpt>
      <trkpt lat="46.19563" lon="6.77295">
        <ele>1862.6916503906</ele>
        <time>2012-03-16T12:36:09Z</time>
      </trkpt>
      <trkpt lat="46.19536" lon="6.77296">
        <ele>1857.8852539062</ele>
        <time>2012-03-16T12:36:14Z</time>
      </trkpt>
      <trkpt lat="46.19512" lon="6.77296">
        <ele>1853.5593261719</ele>
        <time>2012-03-16T12:36:17Z</time>
      </trkpt>
      <trkpt lat="46.19494" lon="6.77294">
        <ele>1850.1945800781</ele>
        <time>2012-03-16T12:36:19Z</time>
      </trkpt>
      <trkpt lat="46.19475" lon="6.77293">
        <ele>1845.3879394531</ele>
        <time>2012-03-16T12:36:21Z</time>
      </trkpt>
      <trkpt lat="46.19464" lon="6.77293">
        <ele>1844.9072265625</ele>
        <time>2012-03-16T12:36:22Z</time>
      </trkpt>
      <trkpt lat="46.19425" lon="6.77297">
        <ele>1839.6201171875</ele>
        <time>2012-03-16T12:36:26Z</time>
      </trkpt>
      <trkpt lat="46.19404" lon="6.77296">
        <ele>1836.2556152344</ele>
        <time>2012-03-16T12:36:28Z</time>
      </trkpt>
      <trkpt lat="46.19395" lon="6.77295">
        <ele>1836.7360839844</ele>
        <time>2012-03-16T12:36:29Z</time>
      </trkpt>
      <trkpt lat="46.19386" lon="6.77293">
        <ele>1835.7746582031</ele>
        <time>2012-03-16T12:36:30Z</time>
      </trkpt>
      <trkpt lat="46.1937" lon="6.77288">
        <ele>1834.3327636719</ele>
        <time>2012-03-16T12:36:32Z</time>
      </trkpt>
      <trkpt lat="46.19358" lon="6.77298">
        <ele>1835.7746582031</ele>
        <time>2012-03-16T12:36:35Z</time>
      </trkpt>
      <trkpt lat="46.1935" lon="6.77313">
        <ele>1835.2939453125</ele>
        <time>2012-03-16T12:36:39Z</time>
      </trkpt>
      <trkpt lat="46.19335" lon="6.77323">
        <ele>1834.8134765625</ele>
        <time>2012-03-16T12:36:51Z</time>
      </trkpt>
      <trkpt lat="46.19317" lon="6.77331">
        <ele>1834.3327636719</ele>
        <time>2012-03-16T12:36:58Z</time>
      </trkpt>
      <trkpt lat="46.19307" lon="6.77335">
        <ele>1833.3713378906</ele>
        <time>2012-03-16T12:37:00Z</time>
      </trkpt>
      <trkpt lat="46.19285" lon="6.77351">
        <ele>1829.0454101562</ele>
        <time>2012-03-16T12:37:04Z</time>
      </trkpt>
      <trkpt lat="46.1928" lon="6.77357">
        <ele>1830.9682617188</ele>
        <time>2012-03-16T12:37:05Z</time>
      </trkpt>
      <trkpt lat="46.19275" lon="6.77364">
        <ele>1828.5649414062</ele>
        <time>2012-03-16T12:37:06Z</time>
      </trkpt>
      <trkpt lat="46.19241" lon="6.77409">
        <ele>1822.7971191406</ele>
        <time>2012-03-16T12:37:12Z</time>
      </trkpt>
      <trkpt lat="46.19235" lon="6.77416">
        <ele>1822.7971191406</ele>
        <time>2012-03-16T12:37:13Z</time>
      </trkpt>
      <trkpt lat="46.1923" lon="6.77424">
        <ele>1822.31640625</ele>
        <time>2012-03-16T12:37:14Z</time>
      </trkpt>
      <trkpt lat="46.19221" lon="6.77436">
        <ele>1821.3549804688</ele>
        <time>2012-03-16T12:37:16Z</time>
      </trkpt>
      <trkpt lat="46.19213" lon="6.77452">
        <ele>1819.9128417969</ele>
        <time>2012-03-16T12:37:18Z</time>
      </trkpt>
      <trkpt lat="46.19198" lon="6.77478">
        <ele>1819.9128417969</ele>
        <time>2012-03-16T12:37:22Z</time>
      </trkpt>
      <trkpt lat="46.19166" lon="6.77525">
        <ele>1817.990234375</ele>
        <time>2012-03-16T12:37:34Z</time>
      </trkpt>
      <trkpt lat="46.19145" lon="6.77557">
        <ele>1816.5483398438</ele>
        <time>2012-03-16T12:37:46Z</time>
      </trkpt>
      <trkpt lat="46.19136" lon="6.77572">
        <ele>1812.703125</ele>
        <time>2012-03-16T12:37:52Z</time>
      </trkpt>
      <trkpt lat="46.19134" lon="6.77575">
        <ele>1813.6643066406</ele>
        <time>2012-03-16T12:37:53Z</time>
      </trkpt>
      <trkpt lat="46.19127" lon="6.77585">
        <ele>1817.5095214844</ele>
        <time>2012-03-16T12:37:56Z</time>
      </trkpt>
      <trkpt lat="46.19123" lon="6.77591">
        <ele>1814.1450195312</ele>
        <time>2012-03-16T12:37:58Z</time>
      </trkpt>
      <trkpt lat="46.19118" lon="6.77599">
        <ele>1812.703125</ele>
        <time>2012-03-16T12:38:00Z</time>
      </trkpt>
      <trkpt lat="46.19102" lon="6.77619">
        <ele>1810.7805175781</ele>
        <time>2012-03-16T12:38:06Z</time>
      </trkpt>
      <trkpt lat="46.19091" lon="6.77635">
        <ele>1809.8190917969</ele>
        <time>2012-03-16T12:38:10Z</time>
      </trkpt>
      <trkpt lat="46.19085" lon="6.77643">
        <ele>1808.3771972656</ele>
        <time>2012-03-16T12:38:12Z</time>
      </trkpt>
      <trkpt lat="46.19073" lon="6.77665">
        <ele>1807.416015625</ele>
        <time>2012-03-16T12:38:17Z</time>
      </trkpt>
      <trkpt lat="46.19067" lon="6.77681">
        <ele>1805.9738769531</ele>
        <time>2012-03-16T12:38:20Z</time>
      </trkpt>
      <trkpt lat="46.19061" lon="6.77692">
        <ele>1806.9353027344</ele>
        <time>2012-03-16T12:38:23Z</time>
      </trkpt>
      <trkpt lat="46.1904" lon="6.7773">
        <ele>1806.9353027344</ele>
        <time>2012-03-16T12:38:38Z</time>
      </trkpt>
      <trkpt lat="46.19039" lon="6.77741">
        <ele>1805.4934082031</ele>
        <time>2012-03-16T12:38:44Z</time>
      </trkpt>
      <trkpt lat="46.19032" lon="6.77772">
        <ele>1805.9738769531</ele>
        <time>2012-03-16T12:38:55Z</time>
      </trkpt>
      <trkpt lat="46.19023" lon="6.77808">
        <ele>1806.9353027344</ele>
        <time>2012-03-16T12:39:04Z</time>
      </trkpt>
      <trkpt lat="46.19019" lon="6.77849">
        <ele>1805.9738769531</ele>
        <time>2012-03-16T12:39:14Z</time>
      </trkpt>
      <trkpt lat="46.19016" lon="6.77887">
        <ele>1803.08984375</ele>
        <time>2012-03-16T12:39:22Z</time>
      </trkpt>
      <trkpt lat="46.19014" lon="6.77906">
        <ele>1800.2060546875</ele>
        <time>2012-03-16T12:39:25Z</time>
      </trkpt>
      <trkpt lat="46.19012" lon="6.77913">
        <ele>1799.7253417969</ele>
        <time>2012-03-16T12:39:26Z</time>
      </trkpt>
      <trkpt lat="46.19009" lon="6.77918">
        <ele>1799.7253417969</ele>
        <time>2012-03-16T12:39:27Z</time>
      </trkpt>
      <trkpt lat="46.18994" lon="6.77948">
        <ele>1795.3994140625</ele>
        <time>2012-03-16T12:39:31Z</time>
      </trkpt>
      <trkpt lat="46.18983" lon="6.77965">
        <ele>1792.0349121094</ele>
        <time>2012-03-16T12:39:33Z</time>
      </trkpt>
      <trkpt lat="46.18968" lon="6.77979">
        <ele>1787.7087402344</ele>
        <time>2012-03-16T12:39:35Z</time>
      </trkpt>
      <trkpt lat="46.18955" lon="6.77997">
        <ele>1784.8249511719</ele>
        <time>2012-03-16T12:39:37Z</time>
      </trkpt>
      <trkpt lat="46.18911" lon="6.78031">
        <ele>1776.6538085938</ele>
        <time>2012-03-16T12:39:43Z</time>
      </trkpt>
      <trkpt lat="46.18876" lon="6.78021">
        <ele>1770.8857421875</ele>
        <time>2012-03-16T12:39:47Z</time>
      </trkpt>
      <trkpt lat="46.18869" lon="6.78014">
        <ele>1765.5986328125</ele>
        <time>2012-03-16T12:39:48Z</time>
      </trkpt>
      <trkpt lat="46.18862" lon="6.78005">
        <ele>1761.7534179688</ele>
        <time>2012-03-16T12:39:49Z</time>
      </trkpt>
      <trkpt lat="46.18847" lon="6.77986">
        <ele>1758.388671875</ele>
        <time>2012-03-16T12:39:51Z</time>
      </trkpt>
      <trkpt lat="46.18828" lon="6.77958">
        <ele>1754.5432128906</ele>
        <time>2012-03-16T12:39:54Z</time>
      </trkpt>
      <trkpt lat="46.18822" lon="6.7795">
        <ele>1753.1013183594</ele>
        <time>2012-03-16T12:39:55Z</time>
      </trkpt>
      <trkpt lat="46.18795" lon="6.77917">
        <ele>1746.8527832031</ele>
        <time>2012-03-16T12:39:59Z</time>
      </trkpt>
      <trkpt lat="46.18782" lon="6.7792">
        <ele>1745.8916015625</ele>
        <time>2012-03-16T12:40:01Z</time>
      </trkpt>
      <trkpt lat="46.18773" lon="6.77924">
        <ele>1745.4108886719</ele>
        <time>2012-03-16T12:40:03Z</time>
      </trkpt>
      <trkpt lat="46.18763" lon="6.779">
        <ele>1745.4108886719</ele>
        <time>2012-03-16T12:40:12Z</time>
      </trkpt>
      <trkpt lat="46.1876" lon="6.77898">
        <ele>1745.8916015625</ele>
        <time>2012-03-16T12:40:14Z</time>
      </trkpt>
      <trkpt lat="46.18749" lon="6.77897">
        <ele>1745.4108886719</ele>
        <time>2012-03-16T12:40:28Z</time>
      </trkpt>
      <trkpt lat="46.18746" lon="6.77898">
        <ele>1745.8916015625</ele>
        <time>2012-03-16T12:40:33Z</time>
      </trkpt>
      <trkpt lat="46.18736" lon="6.77901">
        <ele>1745.4108886719</ele>
        <time>2012-03-16T12:40:50Z</time>
      </trkpt>
      <trkpt lat="46.18733" lon="6.77904">
        <ele>1745.4108886719</ele>
        <time>2012-03-16T12:40:57Z</time>
      </trkpt>
      <trkpt lat="46.18701" lon="6.77908">
        <ele>1750.2175292969</ele>
        <time>2012-03-16T12:41:07Z</time>
      </trkpt>
      <trkpt lat="46.18688" lon="6.77911">
        <ele>1754.0627441406</ele>
        <time>2012-03-16T12:41:10Z</time>
      </trkpt>
      <trkpt lat="46.18676" lon="6.77912">
        <ele>1757.908203125</ele>
        <time>2012-03-16T12:41:13Z</time>
      </trkpt>
      <trkpt lat="46.18668" lon="6.77913">
        <ele>1762.7145996094</ele>
        <time>2012-03-16T12:41:15Z</time>
      </trkpt>
      <trkpt lat="46.18664" lon="6.77914">
        <ele>1766.0791015625</ele>
        <time>2012-03-16T12:41:16Z</time>
      </trkpt>
      <trkpt lat="46.18657" lon="6.77914">
        <ele>1769.9243164062</ele>
        <time>2012-03-16T12:41:18Z</time>
      </trkpt>
      <trkpt lat="46.1865" lon="6.77915">
        <ele>1773.2893066406</ele>
        <time>2012-03-16T12:41:20Z</time>
      </trkpt>
      <trkpt lat="46.18646" lon="6.77915">
        <ele>1776.1730957031</ele>
        <time>2012-03-16T12:41:21Z</time>
      </trkpt>
      <trkpt lat="46.18639" lon="6.77916">
        <ele>1780.0183105469</ele>
        <time>2012-03-16T12:41:23Z</time>
      </trkpt>
      <trkpt lat="46.18627" lon="6.77916">
        <ele>1782.9020996094</ele>
        <time>2012-03-16T12:41:26Z</time>
      </trkpt>
      <trkpt lat="46.18623" lon="6.77917">
        <ele>1783.3828125</ele>
        <time>2012-03-16T12:41:27Z</time>
      </trkpt>
      <trkpt lat="46.18615" lon="6.77918">
        <ele>1786.2668457031</ele>
        <time>2012-03-16T12:41:29Z</time>
      </trkpt>
      <trkpt lat="46.18603" lon="6.77919">
        <ele>1789.1508789062</ele>
        <time>2012-03-16T12:41:32Z</time>
      </trkpt>
      <trkpt lat="46.18591" lon="6.77921">
        <ele>1793.4768066406</ele>
        <time>2012-03-16T12:41:35Z</time>
      </trkpt>
      <trkpt lat="46.18576" lon="6.77923">
        <ele>1796.8413085938</ele>
        <time>2012-03-16T12:41:39Z</time>
      </trkpt>
      <trkpt lat="46.18564" lon="6.77924">
        <ele>1800.2060546875</ele>
        <time>2012-03-16T12:41:42Z</time>
      </trkpt>
      <trkpt lat="46.18553" lon="6.77926">
        <ele>1804.5319824219</ele>
        <time>2012-03-16T12:41:45Z</time>
      </trkpt>
      <trkpt lat="46.18546" lon="6.77927">
        <ele>1807.416015625</ele>
        <time>2012-03-16T12:41:47Z</time>
      </trkpt>
      <trkpt lat="46.18542" lon="6.77927">
        <ele>1811.2612304688</ele>
        <time>2012-03-16T12:41:48Z</time>
      </trkpt>
      <trkpt lat="46.18538" lon="6.77928">
        <ele>1814.6257324219</ele>
        <time>2012-03-16T12:41:49Z</time>
      </trkpt>
      <trkpt lat="46.18527" lon="6.77929">
        <ele>1818.9516601562</ele>
        <time>2012-03-16T12:41:52Z</time>
      </trkpt>
      <trkpt lat="46.1852" lon="6.7793">
        <ele>1823.2778320312</ele>
        <time>2012-03-16T12:41:54Z</time>
      </trkpt>
      <trkpt lat="46.18509" lon="6.77932">
        <ele>1828.5649414062</ele>
        <time>2012-03-16T12:41:57Z</time>
      </trkpt>
      <trkpt lat="46.18498" lon="6.77933">
        <ele>1832.890625</ele>
        <time>2012-03-16T12:42:00Z</time>
      </trkpt>
      <trkpt lat="46.18491" lon="6.77934">
        <ele>1838.1782226562</ele>
        <time>2012-03-16T12:42:02Z</time>
      </trkpt>
      <trkpt lat="46.1848" lon="6.77935">
        <ele>1842.0234375</ele>
        <time>2012-03-16T12:42:05Z</time>
      </trkpt>
      <trkpt lat="46.18473" lon="6.77936">
        <ele>1846.3493652344</ele>
        <time>2012-03-16T12:42:07Z</time>
      </trkpt>
      <trkpt lat="46.18466" lon="6.77937">
        <ele>1850.6750488281</ele>
        <time>2012-03-16T12:42:09Z</time>
      </trkpt>
      <trkpt lat="46.18459" lon="6.77938">
        <ele>1854.5205078125</ele>
        <time>2012-03-16T12:42:11Z</time>
      </trkpt>
      <trkpt lat="46.18455" lon="6.77939">
        <ele>1858.8464355469</ele>
        <time>2012-03-16T12:42:12Z</time>
      </trkpt>
      <trkpt lat="46.18449" lon="6.7794">
        <ele>1863.6528320312</ele>
        <time>2012-03-16T12:42:14Z</time>
      </trkpt>
      <trkpt lat="46.18441" lon="6.7794">
        <ele>1867.017578125</ele>
        <time>2012-03-16T12:42:16Z</time>
      </trkpt>
      <trkpt lat="46.18434" lon="6.77941">
        <ele>1870.3823242188</ele>
        <time>2012-03-16T12:42:18Z</time>
      </trkpt>
      <trkpt lat="46.18427" lon="6.77942">
        <ele>1873.7468261719</ele>
        <time>2012-03-16T12:42:20Z</time>
      </trkpt>
      <trkpt lat="46.1842" lon="6.77943">
        <ele>1878.0727539062</ele>
        <time>2012-03-16T12:42:22Z</time>
      </trkpt>
      <trkpt lat="46.18413" lon="6.77944">
        <ele>1881.4372558594</ele>
        <time>2012-03-16T12:42:24Z</time>
      </trkpt>
      <trkpt lat="46.1841" lon="6.77945">
        <ele>1884.8022460938</ele>
        <time>2012-03-16T12:42:25Z</time>
      </trkpt>
      <trkpt lat="46.18403" lon="6.77945">
        <ele>1889.6086425781</ele>
        <time>2012-03-16T12:42:27Z</time>
      </trkpt>
      <trkpt lat="46.18396" lon="6.77946">
        <ele>1894.4150390625</ele>
        <time>2012-03-16T12:42:29Z</time>
      </trkpt>
      <trkpt lat="46.18388" lon="6.77947">
        <ele>1897.7797851562</ele>
        <time>2012-03-16T12:42:31Z</time>
      </trkpt>
      <trkpt lat="46.18376" lon="6.77949">
        <ele>1901.14453125</ele>
        <time>2012-03-16T12:42:34Z</time>
      </trkpt>
      <trkpt lat="46.18365" lon="6.7795">
        <ele>1904.9897460938</ele>
        <time>2012-03-16T12:42:37Z</time>
      </trkpt>
      <trkpt lat="46.18357" lon="6.77951">
        <ele>1910.7575683594</ele>
        <time>2012-03-16T12:42:39Z</time>
      </trkpt>
      <trkpt lat="46.18346" lon="6.77953">
        <ele>1914.1220703125</ele>
        <time>2012-03-16T12:42:42Z</time>
      </trkpt>
      <trkpt lat="46.18342" lon="6.77953">
        <ele>1914.1220703125</ele>
        <time>2012-03-16T12:42:43Z</time>
      </trkpt>
      <trkpt lat="46.18326" lon="6.77955">
        <ele>1918.4482421875</ele>
        <time>2012-03-16T12:42:47Z</time>
      </trkpt>
      <trkpt lat="46.18315" lon="6.77957">
        <ele>1922.7741699219</ele>
        <time>2012-03-16T12:42:50Z</time>
      </trkpt>
      <trkpt lat="46.18311" lon="6.77957">
        <ele>1922.7741699219</ele>
        <time>2012-03-16T12:42:51Z</time>
      </trkpt>
      <trkpt lat="46.18303" lon="6.77958">
        <ele>1926.6193847656</ele>
        <time>2012-03-16T12:42:53Z</time>
      </trkpt>
      <trkpt lat="46.18275" lon="6.77962">
        <ele>1929.5031738281</ele>
        <time>2012-03-16T12:43:00Z</time>
      </trkpt>
      <trkpt lat="46.18267" lon="6.77963">
        <ele>1930.9453125</ele>
        <time>2012-03-16T12:43:02Z</time>
      </trkpt>
      <trkpt lat="46.18251" lon="6.77965">
        <ele>1933.8293457031</ele>
        <time>2012-03-16T12:43:06Z</time>
      </trkpt>
      <trkpt lat="46.18247" lon="6.77965">
        <ele>1933.8293457031</ele>
        <time>2012-03-16T12:43:07Z</time>
      </trkpt>
      <trkpt lat="46.18235" lon="6.77967">
        <ele>1932.3874511719</ele>
        <time>2012-03-16T12:43:10Z</time>
      </trkpt>
      <trkpt lat="46.18194" lon="6.77972">
        <ele>1930.9453125</ele>
        <time>2012-03-16T12:43:20Z</time>
      </trkpt>
      <trkpt lat="46.18129" lon="6.77981">
        <ele>1932.3874511719</ele>
        <time>2012-03-16T12:43:36Z</time>
      </trkpt>
      <trkpt lat="46.18098" lon="6.77985">
        <ele>1936.2326660156</ele>
        <time>2012-03-16T12:43:44Z</time>
      </trkpt>
      <trkpt lat="46.1805" lon="6.77991">
        <ele>1936.7131347656</ele>
        <time>2012-03-16T12:43:57Z</time>
      </trkpt>
      <trkpt lat="46.18034" lon="6.77979">
        <ele>1936.7131347656</ele>
        <time>2012-03-16T12:44:10Z</time>
      </trkpt>
      <trkpt lat="46.18024" lon="6.77952">
        <ele>1937.6745605469</ele>
        <time>2012-03-16T12:44:27Z</time>
      </trkpt>
      <trkpt lat="46.18017" lon="6.77949">
        <ele>1937.6745605469</ele>
        <time>2012-03-16T12:44:40Z</time>
      </trkpt>
      <trkpt lat="46.17997" lon="6.77946">
        <ele>1937.6745605469</ele>
        <time>2012-03-16T12:44:53Z</time>
      </trkpt>
      <trkpt lat="46.17985" lon="6.77943">
        <ele>1941.0390625</ele>
        <time>2012-03-16T12:44:57Z</time>
      </trkpt>
      <trkpt lat="46.17975" lon="6.77941">
        <ele>1944.4035644531</ele>
        <time>2012-03-16T12:45:00Z</time>
      </trkpt>
      <trkpt lat="46.17969" lon="6.7794">
        <ele>1947.7683105469</ele>
        <time>2012-03-16T12:45:02Z</time>
      </trkpt>
      <trkpt lat="46.17957" lon="6.77937">
        <ele>1951.1330566406</ele>
        <time>2012-03-16T12:45:06Z</time>
      </trkpt>
      <trkpt lat="46.17947" lon="6.77935">
        <ele>1954.4975585938</ele>
        <time>2012-03-16T12:45:09Z</time>
      </trkpt>
      <trkpt lat="46.17941" lon="6.77934">
        <ele>1955.939453125</ele>
        <time>2012-03-16T12:45:11Z</time>
      </trkpt>
      <trkpt lat="46.17929" lon="6.77931">
        <ele>1959.7846679688</ele>
        <time>2012-03-16T12:45:15Z</time>
      </trkpt>
      <trkpt lat="46.17916" lon="6.77929">
        <ele>1964.1108398438</ele>
        <time>2012-03-16T12:45:19Z</time>
      </trkpt>
      <trkpt lat="46.1791" lon="6.77928">
        <ele>1968.9174804688</ele>
        <time>2012-03-16T12:45:21Z</time>
      </trkpt>
      <trkpt lat="46.17904" lon="6.77926">
        <ele>1971.8012695312</ele>
        <time>2012-03-16T12:45:23Z</time>
      </trkpt>
      <trkpt lat="46.17897" lon="6.77925">
        <ele>1973.2434082031</ele>
        <time>2012-03-16T12:45:25Z</time>
      </trkpt>
      <trkpt lat="46.17888" lon="6.77923">
        <ele>1975.1657714844</ele>
        <time>2012-03-16T12:45:28Z</time>
      </trkpt>
      <trkpt lat="46.17879" lon="6.77922">
        <ele>1979.0109863281</ele>
        <time>2012-03-16T12:45:31Z</time>
      </trkpt>
      <trkpt lat="46.17876" lon="6.77921">
        <ele>1979.4916992188</ele>
        <time>2012-03-16T12:45:32Z</time>
      </trkpt>
      <trkpt lat="46.17866" lon="6.7792">
        <ele>1983.8178710938</ele>
        <time>2012-03-16T12:45:35Z</time>
      </trkpt>
      <trkpt lat="46.17857" lon="6.77918">
        <ele>1987.1823730469</ele>
        <time>2012-03-16T12:45:38Z</time>
      </trkpt>
      <trkpt lat="46.17851" lon="6.77917">
        <ele>1990.546875</ele>
        <time>2012-03-16T12:45:40Z</time>
      </trkpt>
      <trkpt lat="46.17842" lon="6.77915">
        <ele>1992.4697265625</ele>
        <time>2012-03-16T12:45:43Z</time>
      </trkpt>
      <trkpt lat="46.17835" lon="6.77913">
        <ele>1993.9116210938</ele>
        <time>2012-03-16T12:45:45Z</time>
      </trkpt>
      <trkpt lat="46.17826" lon="6.77912">
        <ele>1998.2375488281</ele>
        <time>2012-03-16T12:45:48Z</time>
      </trkpt>
      <trkpt lat="46.17817" lon="6.7791">
        <ele>2001.1215820312</ele>
        <time>2012-03-16T12:45:51Z</time>
      </trkpt>
      <trkpt lat="46.1781" lon="6.77908">
        <ele>2002.5634765625</ele>
        <time>2012-03-16T12:45:53Z</time>
      </trkpt>
      <trkpt lat="46.17794" lon="6.77905">
        <ele>2007.3701171875</ele>
        <time>2012-03-16T12:45:58Z</time>
      </trkpt>
      <trkpt lat="46.17788" lon="6.77908">
        <ele>2007.8508300781</ele>
        <time>2012-03-16T12:46:00Z</time>
      </trkpt>
      <trkpt lat="46.1778" lon="6.77914">
        <ele>2011.2153320312</ele>
        <time>2012-03-16T12:46:03Z</time>
      </trkpt>
      <trkpt lat="46.17771" lon="6.77919">
        <ele>2014.580078125</ele>
        <time>2012-03-16T12:46:06Z</time>
      </trkpt>
      <trkpt lat="46.17763" lon="6.77924">
        <ele>2018.9060058594</ele>
        <time>2012-03-16T12:46:09Z</time>
      </trkpt>
      <trkpt lat="46.17754" lon="6.7793">
        <ele>2024.1931152344</ele>
        <time>2012-03-16T12:46:12Z</time>
      </trkpt>
      <trkpt lat="46.17743" lon="6.77936">
        <ele>2027.0771484375</ele>
        <time>2012-03-16T12:46:16Z</time>
      </trkpt>
      <trkpt lat="46.17734" lon="6.77941">
        <ele>2030.4418945312</ele>
        <time>2012-03-16T12:46:19Z</time>
      </trkpt>
      <trkpt lat="46.17726" lon="6.77946">
        <ele>2033.3256835938</ele>
        <time>2012-03-16T12:46:22Z</time>
      </trkpt>
      <trkpt lat="46.17717" lon="6.77951">
        <ele>2037.6516113281</ele>
        <time>2012-03-16T12:46:25Z</time>
      </trkpt>
      <trkpt lat="46.17712" lon="6.77955">
        <ele>2041.0161132812</ele>
        <time>2012-03-16T12:46:27Z</time>
      </trkpt>
      <trkpt lat="46.17704" lon="6.7796">
        <ele>2045.8229980469</ele>
        <time>2012-03-16T12:46:30Z</time>
      </trkpt>
      <trkpt lat="46.17698" lon="6.77963">
        <ele>2046.3037109375</ele>
        <time>2012-03-16T12:46:32Z</time>
      </trkpt>
      <trkpt lat="46.17687" lon="6.7797">
        <ele>2050.1489257812</ele>
        <time>2012-03-16T12:46:36Z</time>
      </trkpt>
      <trkpt lat="46.17678" lon="6.77975">
        <ele>2053.5134277344</ele>
        <time>2012-03-16T12:46:39Z</time>
      </trkpt>
      <trkpt lat="46.17666" lon="6.77982">
        <ele>2058.8005371094</ele>
        <time>2012-03-16T12:46:43Z</time>
      </trkpt>
      <trkpt lat="46.17658" lon="6.77987">
        <ele>2062.6459960938</ele>
        <time>2012-03-16T12:46:46Z</time>
      </trkpt>
      <trkpt lat="46.17646" lon="6.77994">
        <ele>2066.9719238281</ele>
        <time>2012-03-16T12:46:50Z</time>
      </trkpt>
      <trkpt lat="46.17643" lon="6.77996">
        <ele>2066.9719238281</ele>
        <time>2012-03-16T12:46:51Z</time>
      </trkpt>
      <trkpt lat="46.17632" lon="6.78003">
        <ele>2071.2976074219</ele>
        <time>2012-03-16T12:46:55Z</time>
      </trkpt>
      <trkpt lat="46.17624" lon="6.78007">
        <ele>2073.7009277344</ele>
        <time>2012-03-16T12:46:58Z</time>
      </trkpt>
      <trkpt lat="46.17618" lon="6.78011">
        <ele>2079.4689941406</ele>
        <time>2012-03-16T12:47:00Z</time>
      </trkpt>
      <trkpt lat="46.1761" lon="6.78015">
        <ele>2083.794921875</ele>
        <time>2012-03-16T12:47:03Z</time>
      </trkpt>
      <trkpt lat="46.17598" lon="6.78022">
        <ele>2087.1594238281</ele>
        <time>2012-03-16T12:47:07Z</time>
      </trkpt>
      <trkpt lat="46.17592" lon="6.78024">
        <ele>2088.1208496094</ele>
        <time>2012-03-16T12:47:09Z</time>
      </trkpt>
      <trkpt lat="46.17582" lon="6.78027">
        <ele>2089.5627441406</ele>
        <time>2012-03-16T12:47:12Z</time>
      </trkpt>
      <trkpt lat="46.1757" lon="6.78032">
        <ele>2092.9274902344</ele>
        <time>2012-03-16T12:47:16Z</time>
      </trkpt>
      <trkpt lat="46.17567" lon="6.78033">
        <ele>2092.9274902344</ele>
        <time>2012-03-16T12:47:17Z</time>
      </trkpt>
      <trkpt lat="46.17552" lon="6.78038">
        <ele>2096.2922363281</ele>
        <time>2012-03-16T12:47:22Z</time>
      </trkpt>
      <trkpt lat="46.17543" lon="6.78042">
        <ele>2100.6179199219</ele>
        <time>2012-03-16T12:47:25Z</time>
      </trkpt>
      <trkpt lat="46.17539" lon="6.78043">
        <ele>2100.6179199219</ele>
        <time>2012-03-16T12:47:26Z</time>
      </trkpt>
      <trkpt lat="46.17533" lon="6.78045">
        <ele>2102.0598144531</ele>
        <time>2012-03-16T12:47:28Z</time>
      </trkpt>
      <trkpt lat="46.17523" lon="6.78049">
        <ele>2105.4245605469</ele>
        <time>2012-03-16T12:47:31Z</time>
      </trkpt>
      <trkpt lat="46.17467" lon="6.78069">
        <ele>2108.7893066406</ele>
        <time>2012-03-16T12:47:49Z</time>
      </trkpt>
      <trkpt lat="46.17457" lon="6.78073">
        <ele>2113.115234375</ele>
        <time>2012-03-16T12:47:52Z</time>
      </trkpt>
      <trkpt lat="46.17451" lon="6.78075">
        <ele>2114.5571289062</ele>
        <time>2012-03-16T12:47:54Z</time>
      </trkpt>
      <trkpt lat="46.17439" lon="6.7808">
        <ele>2119.3637695312</ele>
        <time>2012-03-16T12:47:58Z</time>
      </trkpt>
      <trkpt lat="46.17431" lon="6.78082">
        <ele>2122.7282714844</ele>
        <time>2012-03-16T12:48:01Z</time>
      </trkpt>
      <trkpt lat="46.17425" lon="6.78085">
        <ele>2126.0930175781</ele>
        <time>2012-03-16T12:48:03Z</time>
      </trkpt>
      <trkpt lat="46.17416" lon="6.78088">
        <ele>2128.015625</ele>
        <time>2012-03-16T12:48:06Z</time>
      </trkpt>
      <trkpt lat="46.17408" lon="6.7809">
        <ele>2132.3415527344</ele>
        <time>2012-03-16T12:48:09Z</time>
      </trkpt>
      <trkpt lat="46.17402" lon="6.78092">
        <ele>2135.2253417969</ele>
        <time>2012-03-16T12:48:11Z</time>
      </trkpt>
      <trkpt lat="46.17396" lon="6.78094">
        <ele>2140.5126953125</ele>
        <time>2012-03-16T12:48:13Z</time>
      </trkpt>
      <trkpt lat="46.17384" lon="6.78098">
        <ele>2143.8774414062</ele>
        <time>2012-03-16T12:48:17Z</time>
      </trkpt>
      <trkpt lat="46.17375" lon="6.78101">
        <ele>2147.2419433594</ele>
        <time>2012-03-16T12:48:20Z</time>
      </trkpt>
      <trkpt lat="46.17372" lon="6.78102">
        <ele>2147.72265625</ele>
        <time>2012-03-16T12:48:21Z</time>
      </trkpt>
      <trkpt lat="46.17363" lon="6.78105">
        <ele>2152.0483398438</ele>
        <time>2012-03-16T12:48:24Z</time>
      </trkpt>
      <trkpt lat="46.17354" lon="6.78108">
        <ele>2155.4130859375</ele>
        <time>2012-03-16T12:48:27Z</time>
      </trkpt>
      <trkpt lat="46.17348" lon="6.7811">
        <ele>2159.7390136719</ele>
        <time>2012-03-16T12:48:29Z</time>
      </trkpt>
      <trkpt lat="46.17309" lon="6.78122">
        <ele>2160.2197265625</ele>
        <time>2012-03-16T12:48:40Z</time>
      </trkpt>
      <trkpt lat="46.17304" lon="6.78143">
        <ele>2160.2197265625</ele>
        <time>2012-03-16T12:48:47Z</time>
      </trkpt>
      <trkpt lat="46.17309" lon="6.78147">
        <ele>2160.7004394531</ele>
        <time>2012-03-16T12:48:50Z</time>
      </trkpt>
      <trkpt lat="46.17321" lon="6.7816">
        <ele>2159.7390136719</ele>
        <time>2012-03-16T12:48:59Z</time>
      </trkpt>
      <trkpt lat="46.17333" lon="6.78162">
        <ele>2155.4130859375</ele>
        <time>2012-03-16T12:49:04Z</time>
      </trkpt>
      <trkpt lat="46.17348" lon="6.78163">
        <ele>2152.0483398438</ele>
        <time>2012-03-16T12:49:07Z</time>
      </trkpt>
      <trkpt lat="46.17359" lon="6.78163">
        <ele>2147.72265625</ele>
        <time>2012-03-16T12:49:09Z</time>
      </trkpt>
      <trkpt lat="46.17391" lon="6.78167">
        <ele>2141.4741210938</ele>
        <time>2012-03-16T12:49:14Z</time>
      </trkpt>
      <trkpt lat="46.17393" lon="6.78179">
        <ele>2140.0322265625</ele>
        <time>2012-03-16T12:49:17Z</time>
      </trkpt>
      <trkpt lat="46.17392" lon="6.78197">
        <ele>2138.109375</ele>
        <time>2012-03-16T12:49:23Z</time>
      </trkpt>
      <trkpt lat="46.17406" lon="6.78202">
        <ele>2132.3415527344</ele>
        <time>2012-03-16T12:49:27Z</time>
      </trkpt>
      <trkpt lat="46.17417" lon="6.78181">
        <ele>2129.4575195312</ele>
        <time>2012-03-16T12:49:31Z</time>
      </trkpt>
      <trkpt lat="46.17426" lon="6.78153">
        <ele>2127.5349121094</ele>
        <time>2012-03-16T12:49:35Z</time>
      </trkpt>
      <trkpt lat="46.17449" lon="6.78133">
        <ele>2119.8442382812</ele>
        <time>2012-03-16T12:49:38Z</time>
      </trkpt>
      <trkpt lat="46.17462" lon="6.78133">
        <ele>2115.0378417969</ele>
        <time>2012-03-16T12:49:39Z</time>
      </trkpt>
      <trkpt lat="46.17475" lon="6.78135">
        <ele>2112.1538085938</ele>
        <time>2012-03-16T12:49:40Z</time>
      </trkpt>
      <trkpt lat="46.17488" lon="6.78136">
        <ele>2107.3471679688</ele>
        <time>2012-03-16T12:49:41Z</time>
      </trkpt>
      <trkpt lat="46.17513" lon="6.7813">
        <ele>2113.115234375</ele>
        <time>2012-03-16T12:49:44Z</time>
      </trkpt>
      <trkpt lat="46.17518" lon="6.78129">
        <ele>2113.115234375</ele>
        <time>2012-03-16T12:49:45Z</time>
      </trkpt>
      <trkpt lat="46.17525" lon="6.78129">
        <ele>2112.6345214844</ele>
        <time>2012-03-16T12:49:49Z</time>
      </trkpt>
      <trkpt lat="46.17526" lon="6.78137">
        <ele>2106.3857421875</ele>
        <time>2012-03-16T12:49:51Z</time>
      </trkpt>
      <trkpt lat="46.17519" lon="6.78155">
        <ele>2104.4631347656</ele>
        <time>2012-03-16T12:49:53Z</time>
      </trkpt>
      <trkpt lat="46.17519" lon="6.7817">
        <ele>2100.6179199219</ele>
        <time>2012-03-16T12:49:55Z</time>
      </trkpt>
      <trkpt lat="46.17522" lon="6.78178">
        <ele>2099.1760253906</ele>
        <time>2012-03-16T12:49:57Z</time>
      </trkpt>
      <trkpt lat="46.17522" lon="6.78183">
        <ele>2096.2922363281</ele>
        <time>2012-03-16T12:50:00Z</time>
      </trkpt>
      <trkpt lat="46.17503" lon="6.78213">
        <ele>2090.0434570312</ele>
        <time>2012-03-16T12:50:08Z</time>
      </trkpt>
      <trkpt lat="46.1751" lon="6.7822">
        <ele>2087.6401367188</ele>
        <time>2012-03-16T12:50:11Z</time>
      </trkpt>
      <trkpt lat="46.17517" lon="6.78216">
        <ele>2087.6401367188</ele>
        <time>2012-03-16T12:50:14Z</time>
      </trkpt>
      <trkpt lat="46.17523" lon="6.78223">
        <ele>2082.8334960938</ele>
        <time>2012-03-16T12:50:17Z</time>
      </trkpt>
      <trkpt lat="46.17534" lon="6.78246">
        <ele>2076.1044921875</ele>
        <time>2012-03-16T12:50:20Z</time>
      </trkpt>
      <trkpt lat="46.17542" lon="6.78253">
        <ele>2073.2204589844</ele>
        <time>2012-03-16T12:50:21Z</time>
      </trkpt>
      <trkpt lat="46.17551" lon="6.78257">
        <ele>2077.0659179688</ele>
        <time>2012-03-16T12:50:22Z</time>
      </trkpt>
      <trkpt lat="46.17558" lon="6.78259">
        <ele>2077.5463867188</ele>
        <time>2012-03-16T12:50:23Z</time>
      </trkpt>
      <trkpt lat="46.17555" lon="6.78258">
        <ele>2078.5078125</ele>
        <time>2012-03-16T12:50:25Z</time>
      </trkpt>
      <trkpt lat="46.17551" lon="6.78256">
        <ele>2078.5078125</ele>
        <time>2012-03-16T12:50:52Z</time>
      </trkpt>
      <trkpt lat="46.17551" lon="6.78256">
        <ele>2077.0659179688</ele>
        <time>2012-03-16T12:51:03Z</time>
      </trkpt>
      <trkpt lat="46.17559" lon="6.78262">
        <ele>2076.5852050781</ele>
        <time>2012-03-16T12:51:28Z</time>
      </trkpt>
      <trkpt lat="46.17579" lon="6.78248">
        <ele>2069.8557128906</ele>
        <time>2012-03-16T12:51:32Z</time>
      </trkpt>
      <trkpt lat="46.17587" lon="6.78252">
        <ele>2066.0104980469</ele>
        <time>2012-03-16T12:51:34Z</time>
      </trkpt>
      <trkpt lat="46.17593" lon="6.78259">
        <ele>2066.0104980469</ele>
        <time>2012-03-16T12:51:35Z</time>
      </trkpt>
      <trkpt lat="46.17611" lon="6.78251">
        <ele>2061.6848144531</ele>
        <time>2012-03-16T12:51:38Z</time>
      </trkpt>
      <trkpt lat="46.1763" lon="6.78243">
        <ele>2056.8779296875</ele>
        <time>2012-03-16T12:51:42Z</time>
      </trkpt>
      <trkpt lat="46.17642" lon="6.78255">
        <ele>2053.0327148438</ele>
        <time>2012-03-16T12:51:44Z</time>
      </trkpt>
      <trkpt lat="46.17648" lon="6.78263">
        <ele>2051.1101074219</ele>
        <time>2012-03-16T12:51:45Z</time>
      </trkpt>
      <trkpt lat="46.17669" lon="6.78253">
        <ele>2043.9001464844</ele>
        <time>2012-03-16T12:51:49Z</time>
      </trkpt>
      <trkpt lat="46.17678" lon="6.78232">
        <ele>2039.0935058594</ele>
        <time>2012-03-16T12:51:51Z</time>
      </trkpt>
      <trkpt lat="46.17689" lon="6.78229">
        <ele>2034.287109375</ele>
        <time>2012-03-16T12:51:52Z</time>
      </trkpt>
      <trkpt lat="46.17702" lon="6.78235">
        <ele>2030.9226074219</ele>
        <time>2012-03-16T12:51:53Z</time>
      </trkpt>
      <trkpt lat="46.17712" lon="6.78247">
        <ele>2028.0385742188</ele>
        <time>2012-03-16T12:51:54Z</time>
      </trkpt>
      <trkpt lat="46.17718" lon="6.7826">
        <ele>2028.9997558594</ele>
        <time>2012-03-16T12:51:55Z</time>
      </trkpt>
      <trkpt lat="46.17727" lon="6.78286">
        <ele>2028.5192871094</ele>
        <time>2012-03-16T12:51:57Z</time>
      </trkpt>
      <trkpt lat="46.17732" lon="6.78245">
        <ele>2023.2319335938</ele>
        <time>2012-03-16T12:52:02Z</time>
      </trkpt>
      <trkpt lat="46.17747" lon="6.7823">
        <ele>2017.4638671875</ele>
        <time>2012-03-16T12:52:05Z</time>
      </trkpt>
      <trkpt lat="46.17765" lon="6.78246">
        <ele>2011.6960449219</ele>
        <time>2012-03-16T12:52:07Z</time>
      </trkpt>
      <trkpt lat="46.178" lon="6.78263">
        <ele>2004.4860839844</ele>
        <time>2012-03-16T12:52:10Z</time>
      </trkpt>
      <trkpt lat="46.17815" lon="6.78251">
        <ele>1999.6796875</ele>
        <time>2012-03-16T12:52:11Z</time>
      </trkpt>
      <trkpt lat="46.17819" lon="6.78234">
        <ele>1994.8728027344</ele>
        <time>2012-03-16T12:52:12Z</time>
      </trkpt>
      <trkpt lat="46.17819" lon="6.78218">
        <ele>1996.7956542969</ele>
        <time>2012-03-16T12:52:13Z</time>
      </trkpt>
      <trkpt lat="46.1782" lon="6.78207">
        <ele>1992.4697265625</ele>
        <time>2012-03-16T12:52:14Z</time>
      </trkpt>
      <trkpt lat="46.1784" lon="6.78214">
        <ele>1988.1437988281</ele>
        <time>2012-03-16T12:52:17Z</time>
      </trkpt>
      <trkpt lat="46.17849" lon="6.78189">
        <ele>1985.259765625</ele>
        <time>2012-03-16T12:52:21Z</time>
      </trkpt>
      <trkpt lat="46.17849" lon="6.78192">
        <ele>1985.259765625</ele>
        <time>2012-03-16T12:52:31Z</time>
      </trkpt>
      <trkpt lat="46.1785" lon="6.78192">
        <ele>1984.779296875</ele>
        <time>2012-03-16T12:53:08Z</time>
      </trkpt>
      <trkpt lat="46.17853" lon="6.78191">
        <ele>1985.259765625</ele>
        <time>2012-03-16T12:53:42Z</time>
      </trkpt>
      <trkpt lat="46.17853" lon="6.78192">
        <ele>1984.779296875</ele>
        <time>2012-03-16T12:54:09Z</time>
      </trkpt>
      <trkpt lat="46.17861" lon="6.78182">
        <ele>1979.4916992188</ele>
        <time>2012-03-16T12:54:12Z</time>
      </trkpt>
      <trkpt lat="46.17866" lon="6.78174">
        <ele>1978.0498046875</ele>
        <time>2012-03-16T12:54:13Z</time>
      </trkpt>
      <trkpt lat="46.17883" lon="6.7815">
        <ele>1975.646484375</ele>
        <time>2012-03-16T12:54:16Z</time>
      </trkpt>
      <trkpt lat="46.17907" lon="6.78144">
        <ele>1976.1271972656</ele>
        <time>2012-03-16T12:54:22Z</time>
      </trkpt>
      <trkpt lat="46.17914" lon="6.78128">
        <ele>1974.2045898438</ele>
        <time>2012-03-16T12:54:27Z</time>
      </trkpt>
      <trkpt lat="46.17916" lon="6.7811">
        <ele>1973.2434082031</ele>
        <time>2012-03-16T12:54:31Z</time>
      </trkpt>
      <trkpt lat="46.1792" lon="6.78098">
        <ele>1971.3205566406</ele>
        <time>2012-03-16T12:54:35Z</time>
      </trkpt>
      <trkpt lat="46.17919" lon="6.78096">
        <ele>1971.3205566406</ele>
        <time>2012-03-16T12:54:38Z</time>
      </trkpt>
      <trkpt lat="46.17919" lon="6.7808">
        <ele>1964.5915527344</ele>
        <time>2012-03-16T12:54:40Z</time>
      </trkpt>
      <trkpt lat="46.17924" lon="6.78069">
        <ele>1960.74609375</ele>
        <time>2012-03-16T12:54:41Z</time>
      </trkpt>
      <trkpt lat="46.1794" lon="6.78053">
        <ele>1957.8623046875</ele>
        <time>2012-03-16T12:54:43Z</time>
      </trkpt>
      <trkpt lat="46.17947" lon="6.78049">
        <ele>1961.2268066406</ele>
        <time>2012-03-16T12:54:44Z</time>
      </trkpt>
      <trkpt lat="46.17968" lon="6.78034">
        <ele>1954.4975585938</ele>
        <time>2012-03-16T12:54:47Z</time>
      </trkpt>
      <trkpt lat="46.17979" lon="6.78023">
        <ele>1948.7297363281</ele>
        <time>2012-03-16T12:54:48Z</time>
      </trkpt>
      <trkpt lat="46.1799" lon="6.78011">
        <ele>1942.9616699219</ele>
        <time>2012-03-16T12:54:49Z</time>
      </trkpt>
      <trkpt lat="46.18002" lon="6.77999">
        <ele>1938.6359863281</ele>
        <time>2012-03-16T12:54:50Z</time>
      </trkpt>
      <trkpt lat="46.18014" lon="6.77987">
        <ele>1936.7131347656</ele>
        <time>2012-03-16T12:54:51Z</time>
      </trkpt>
      <trkpt lat="46.18027" lon="6.77952">
        <ele>1937.6745605469</ele>
        <time>2012-03-16T12:54:56Z</time>
      </trkpt>
      <trkpt lat="46.1802" lon="6.7795">
        <ele>1938.1552734375</ele>
        <time>2012-03-16T12:55:11Z</time>
      </trkpt>
      <trkpt lat="46.18016" lon="6.77948">
        <ele>1937.6745605469</ele>
        <time>2012-03-16T12:55:19Z</time>
      </trkpt>
      <trkpt lat="46.17997" lon="6.77945">
        <ele>1937.1938476562</ele>
        <time>2012-03-16T12:55:30Z</time>
      </trkpt>
      <trkpt lat="46.17985" lon="6.77942">
        <ele>1940.0778808594</ele>
        <time>2012-03-16T12:55:34Z</time>
      </trkpt>
      <trkpt lat="46.17976" lon="6.7794">
        <ele>1943.9230957031</ele>
        <time>2012-03-16T12:55:37Z</time>
      </trkpt>
      <trkpt lat="46.17966" lon="6.77939">
        <ele>1947.2875976562</ele>
        <time>2012-03-16T12:55:40Z</time>
      </trkpt>
      <trkpt lat="46.17954" lon="6.77936">
        <ele>1950.65234375</ele>
        <time>2012-03-16T12:55:44Z</time>
      </trkpt>
      <trkpt lat="46.17945" lon="6.77934">
        <ele>1954.9782714844</ele>
        <time>2012-03-16T12:55:47Z</time>
      </trkpt>
      <trkpt lat="46.17942" lon="6.77934">
        <ele>1958.3427734375</ele>
        <time>2012-03-16T12:55:48Z</time>
      </trkpt>
      <trkpt lat="46.17926" lon="6.7793">
        <ele>1962.1879882812</ele>
        <time>2012-03-16T12:55:53Z</time>
      </trkpt>
      <trkpt lat="46.17917" lon="6.77929">
        <ele>1966.0334472656</ele>
        <time>2012-03-16T12:55:56Z</time>
      </trkpt>
      <trkpt lat="46.17907" lon="6.77927">
        <ele>1969.8786621094</ele>
        <time>2012-03-16T12:55:59Z</time>
      </trkpt>
      <trkpt lat="46.17898" lon="6.77925">
        <ele>1973.2434082031</ele>
        <time>2012-03-16T12:56:02Z</time>
      </trkpt>
      <trkpt lat="46.17886" lon="6.77922">
        <ele>1976.6079101562</ele>
        <time>2012-03-16T12:56:06Z</time>
      </trkpt>
      <trkpt lat="46.17877" lon="6.7792">
        <ele>1979.9724121094</ele>
        <time>2012-03-16T12:56:09Z</time>
      </trkpt>
      <trkpt lat="46.17868" lon="6.77918">
        <ele>1985.7404785156</ele>
        <time>2012-03-16T12:56:12Z</time>
      </trkpt>
      <trkpt lat="46.17855" lon="6.77916">
        <ele>1990.546875</ele>
        <time>2012-03-16T12:56:16Z</time>
      </trkpt>
      <trkpt lat="46.17843" lon="6.77912">
        <ele>1993.9116210938</ele>
        <time>2012-03-16T12:56:20Z</time>
      </trkpt>
      <trkpt lat="46.17837" lon="6.77911">
        <ele>1994.8728027344</ele>
        <time>2012-03-16T12:56:22Z</time>
      </trkpt>
      <trkpt lat="46.17824" lon="6.77909">
        <ele>1997.7570800781</ele>
        <time>2012-03-16T12:56:26Z</time>
      </trkpt>
      <trkpt lat="46.17821" lon="6.77909">
        <ele>1998.2375488281</ele>
        <time>2012-03-16T12:56:27Z</time>
      </trkpt>
      <trkpt lat="46.17808" lon="6.77906">
        <ele>2001.6022949219</ele>
        <time>2012-03-16T12:56:31Z</time>
      </trkpt>
      <trkpt lat="46.17798" lon="6.77904">
        <ele>2004.0056152344</ele>
        <time>2012-03-16T12:56:34Z</time>
      </trkpt>
      <trkpt lat="46.17786" lon="6.7791">
        <ele>2008.3312988281</ele>
        <time>2012-03-16T12:56:38Z</time>
      </trkpt>
      <trkpt lat="46.17777" lon="6.77916">
        <ele>2011.2153320312</ele>
        <time>2012-03-16T12:56:41Z</time>
      </trkpt>
      <trkpt lat="46.17774" lon="6.77918">
        <ele>2011.2153320312</ele>
        <time>2012-03-16T12:56:42Z</time>
      </trkpt>
      <trkpt lat="46.17766" lon="6.77923">
        <ele>2015.5415039062</ele>
        <time>2012-03-16T12:56:45Z</time>
      </trkpt>
      <trkpt lat="46.17758" lon="6.77928">
        <ele>2019.8671875</ele>
        <time>2012-03-16T12:56:48Z</time>
      </trkpt>
      <trkpt lat="46.17752" lon="6.77931">
        <ele>2023.2319335938</ele>
        <time>2012-03-16T12:56:50Z</time>
      </trkpt>
      <trkpt lat="46.17743" lon="6.77936">
        <ele>2027.0771484375</ele>
        <time>2012-03-16T12:56:53Z</time>
      </trkpt>
      <trkpt lat="46.17735" lon="6.77941">
        <ele>2028.9997558594</ele>
        <time>2012-03-16T12:56:56Z</time>
      </trkpt>
      <trkpt lat="46.17726" lon="6.77946">
        <ele>2033.3256835938</ele>
        <time>2012-03-16T12:56:59Z</time>
      </trkpt>
      <trkpt lat="46.1772" lon="6.77949">
        <ele>2036.6901855469</ele>
        <time>2012-03-16T12:57:01Z</time>
      </trkpt>
      <trkpt lat="46.17715" lon="6.77953">
        <ele>2038.6130371094</ele>
        <time>2012-03-16T12:57:03Z</time>
      </trkpt>
      <trkpt lat="46.17709" lon="6.77957">
        <ele>2041.9775390625</ele>
        <time>2012-03-16T12:57:05Z</time>
      </trkpt>
      <trkpt lat="46.17706" lon="6.77959">
        <ele>2041.9775390625</ele>
        <time>2012-03-16T12:57:06Z</time>
      </trkpt>
      <trkpt lat="46.177" lon="6.77962">
        <ele>2045.3422851562</ele>
        <time>2012-03-16T12:57:08Z</time>
      </trkpt>
      <trkpt lat="46.17695" lon="6.77965">
        <ele>2050.6293945312</ele>
        <time>2012-03-16T12:57:10Z</time>
      </trkpt>
      <trkpt lat="46.17692" lon="6.77967">
        <ele>2049.6682128906</ele>
        <time>2012-03-16T12:57:11Z</time>
      </trkpt>
      <trkpt lat="46.17677" lon="6.77976">
        <ele>2053.0327148438</ele>
        <time>2012-03-16T12:57:16Z</time>
      </trkpt>
      <trkpt lat="46.17674" lon="6.77978">
        <ele>2056.8779296875</ele>
        <time>2012-03-16T12:57:17Z</time>
      </trkpt>
      <trkpt lat="46.17669" lon="6.77981">
        <ele>2057.3586425781</ele>
        <time>2012-03-16T12:57:19Z</time>
      </trkpt>
      <trkpt lat="46.1766" lon="6.77986">
        <ele>2061.6848144531</ele>
        <time>2012-03-16T12:57:22Z</time>
      </trkpt>
      <trkpt lat="46.17654" lon="6.7799">
        <ele>2065.0493164062</ele>
        <time>2012-03-16T12:57:24Z</time>
      </trkpt>
      <trkpt lat="46.17648" lon="6.77993">
        <ele>2066.0104980469</ele>
        <time>2012-03-16T12:57:26Z</time>
      </trkpt>
      <trkpt lat="46.17637" lon="6.78">
        <ele>2069.3752441406</ele>
        <time>2012-03-16T12:57:30Z</time>
      </trkpt>
      <trkpt lat="46.17629" lon="6.78005">
        <ele>2074.181640625</ele>
        <time>2012-03-16T12:57:33Z</time>
      </trkpt>
      <trkpt lat="46.17618" lon="6.78012">
        <ele>2078.0270996094</ele>
        <time>2012-03-16T12:57:37Z</time>
      </trkpt>
      <trkpt lat="46.17615" lon="6.78014">
        <ele>2081.3916015625</ele>
        <time>2012-03-16T12:57:38Z</time>
      </trkpt>
      <trkpt lat="46.17603" lon="6.78021">
        <ele>2085.2368164062</ele>
        <time>2012-03-16T12:57:42Z</time>
      </trkpt>
      <trkpt lat="46.17594" lon="6.78025">
        <ele>2088.6015625</ele>
        <time>2012-03-16T12:57:45Z</time>
      </trkpt>
      <trkpt lat="46.17591" lon="6.78026">
        <ele>2088.1208496094</ele>
        <time>2012-03-16T12:57:46Z</time>
      </trkpt>
      <trkpt lat="46.17582" lon="6.7803">
        <ele>2091.4853515625</ele>
        <time>2012-03-16T12:57:49Z</time>
      </trkpt>
      <trkpt lat="46.17579" lon="6.78031">
        <ele>2091.4853515625</ele>
        <time>2012-03-16T12:57:50Z</time>
      </trkpt>
      <trkpt lat="46.17566" lon="6.78035">
        <ele>2093.408203125</ele>
        <time>2012-03-16T12:57:54Z</time>
      </trkpt>
      <trkpt lat="46.17551" lon="6.78041">
        <ele>2096.7727050781</ele>
        <time>2012-03-16T12:57:59Z</time>
      </trkpt>
      <trkpt lat="46.17541" lon="6.78044">
        <ele>2100.1374511719</ele>
        <time>2012-03-16T12:58:02Z</time>
      </trkpt>
      <trkpt lat="46.17528" lon="6.78049">
        <ele>2103.501953125</ele>
        <time>2012-03-16T12:58:06Z</time>
      </trkpt>
      <trkpt lat="46.17525" lon="6.7805">
        <ele>2103.501953125</ele>
        <time>2012-03-16T12:58:07Z</time>
      </trkpt>
      <trkpt lat="46.17518" lon="6.78052">
        <ele>2104.4631347656</ele>
        <time>2012-03-16T12:58:09Z</time>
      </trkpt>
      <trkpt lat="46.17492" lon="6.78061">
        <ele>2107.8278808594</ele>
        <time>2012-03-16T12:58:17Z</time>
      </trkpt>
      <trkpt lat="46.17461" lon="6.78072">
        <ele>2110.2312011719</ele>
        <time>2012-03-16T12:58:27Z</time>
      </trkpt>
      <trkpt lat="46.17449" lon="6.78077">
        <ele>2113.595703125</ele>
        <time>2012-03-16T12:58:31Z</time>
      </trkpt>
      <trkpt lat="46.17443" lon="6.78079">
        <ele>2117.9216308594</ele>
        <time>2012-03-16T12:58:33Z</time>
      </trkpt>
      <trkpt lat="46.1744" lon="6.7808">
        <ele>2117.9216308594</ele>
        <time>2012-03-16T12:58:34Z</time>
      </trkpt>
      <trkpt lat="46.17431" lon="6.78083">
        <ele>2122.7282714844</ele>
        <time>2012-03-16T12:58:37Z</time>
      </trkpt>
      <trkpt lat="46.17422" lon="6.78086">
        <ele>2126.5737304688</ele>
        <time>2012-03-16T12:58:40Z</time>
      </trkpt>
      <trkpt lat="46.1742" lon="6.78087">
        <ele>2127.0544433594</ele>
        <time>2012-03-16T12:58:41Z</time>
      </trkpt>
      <trkpt lat="46.17417" lon="6.78088">
        <ele>2130.4189453125</ele>
        <time>2012-03-16T12:58:42Z</time>
      </trkpt>
      <trkpt lat="46.17402" lon="6.78093">
        <ele>2133.7834472656</ele>
        <time>2012-03-16T12:58:47Z</time>
      </trkpt>
      <trkpt lat="46.17396" lon="6.78095">
        <ele>2137.6286621094</ele>
        <time>2012-03-16T12:58:49Z</time>
      </trkpt>
      <trkpt lat="46.17387" lon="6.78098">
        <ele>2141.9548339844</ele>
        <time>2012-03-16T12:58:52Z</time>
      </trkpt>
      <trkpt lat="46.17381" lon="6.781">
        <ele>2145.3193359375</ele>
        <time>2012-03-16T12:58:54Z</time>
      </trkpt>
      <trkpt lat="46.17375" lon="6.78102">
        <ele>2146.7612304688</ele>
        <time>2012-03-16T12:58:56Z</time>
      </trkpt>
      <trkpt lat="46.17363" lon="6.78106">
        <ele>2150.6064453125</ele>
        <time>2012-03-16T12:59:00Z</time>
      </trkpt>
      <trkpt lat="46.17354" lon="6.78109">
        <ele>2155.8935546875</ele>
        <time>2012-03-16T12:59:03Z</time>
      </trkpt>
      <trkpt lat="46.17345" lon="6.78112">
        <ele>2157.8166503906</ele>
        <time>2012-03-16T12:59:06Z</time>
      </trkpt>
      <trkpt lat="46.17306" lon="6.78125">
        <ele>2164.5456542969</ele>
        <time>2012-03-16T12:59:17Z</time>
      </trkpt>
      <trkpt lat="46.17301" lon="6.78131">
        <ele>2158.2971191406</ele>
        <time>2012-03-16T12:59:19Z</time>
      </trkpt>
      <trkpt lat="46.173" lon="6.78135">
        <ele>2159.7390136719</ele>
        <time>2012-03-16T12:59:20Z</time>
      </trkpt>
      <trkpt lat="46.17301" lon="6.78141">
        <ele>2160.2197265625</ele>
        <time>2012-03-16T12:59:22Z</time>
      </trkpt>
      <trkpt lat="46.17302" lon="6.78154">
        <ele>2159.2585449219</ele>
        <time>2012-03-16T12:59:27Z</time>
      </trkpt>
      <trkpt lat="46.17301" lon="6.78166">
        <ele>2157.3359375</ele>
        <time>2012-03-16T12:59:30Z</time>
      </trkpt>
      <trkpt lat="46.17313" lon="6.78185">
        <ele>2156.3745117188</ele>
        <time>2012-03-16T12:59:35Z</time>
      </trkpt>
      <trkpt lat="46.17331" lon="6.78193">
        <ele>2151.0871582031</ele>
        <time>2012-03-16T12:59:38Z</time>
      </trkpt>
      <trkpt lat="46.1736" lon="6.78191">
        <ele>2144.8386230469</ele>
        <time>2012-03-16T12:59:41Z</time>
      </trkpt>
      <trkpt lat="46.17368" lon="6.78188">
        <ele>2143.3967285156</ele>
        <time>2012-03-16T12:59:42Z</time>
      </trkpt>
      <trkpt lat="46.17385" lon="6.78183">
        <ele>2140.0322265625</ele>
        <time>2012-03-16T12:59:44Z</time>
      </trkpt>
      <trkpt lat="46.17399" lon="6.7817">
        <ele>2138.5900878906</ele>
        <time>2012-03-16T12:59:47Z</time>
      </trkpt>
      <trkpt lat="46.17411" lon="6.78162">
        <ele>2131.8608398438</ele>
        <time>2012-03-16T12:59:49Z</time>
      </trkpt>
      <trkpt lat="46.1742" lon="6.78159">
        <ele>2128.4963378906</ele>
        <time>2012-03-16T12:59:50Z</time>
      </trkpt>
      <trkpt lat="46.1743" lon="6.78159">
        <ele>2124.1704101562</ele>
        <time>2012-03-16T12:59:51Z</time>
      </trkpt>
      <trkpt lat="46.1744" lon="6.78158">
        <ele>2120.8056640625</ele>
        <time>2012-03-16T12:59:52Z</time>
      </trkpt>
      <trkpt lat="46.1745" lon="6.78152">
        <ele>2116.4797363281</ele>
        <time>2012-03-16T12:59:53Z</time>
      </trkpt>
      <trkpt lat="46.17461" lon="6.78144">
        <ele>2112.6345214844</ele>
        <time>2012-03-16T12:59:54Z</time>
      </trkpt>
      <trkpt lat="46.17472" lon="6.78138">
        <ele>2111.1926269531</ele>
        <time>2012-03-16T12:59:55Z</time>
      </trkpt>
      <trkpt lat="46.17507" lon="6.78129">
        <ele>2111.6733398438</ele>
        <time>2012-03-16T12:59:58Z</time>
      </trkpt>
      <trkpt lat="46.17519" lon="6.78127">
        <ele>2112.6345214844</ele>
        <time>2012-03-16T13:00:00Z</time>
      </trkpt>
      <trkpt lat="46.1753" lon="6.78134">
        <ele>2109.2700195312</ele>
        <time>2012-03-16T13:00:03Z</time>
      </trkpt>
      <trkpt lat="46.17532" lon="6.78142">
        <ele>2103.0212402344</ele>
        <time>2012-03-16T13:00:04Z</time>
      </trkpt>
      <trkpt lat="46.17524" lon="6.78171">
        <ele>2098.6953125</ele>
        <time>2012-03-16T13:00:07Z</time>
      </trkpt>
      <trkpt lat="46.17529" lon="6.78175">
        <ele>2097.7341308594</ele>
        <time>2012-03-16T13:00:09Z</time>
      </trkpt>
      <trkpt lat="46.17533" lon="6.78172">
        <ele>2097.2534179688</ele>
        <time>2012-03-16T13:00:10Z</time>
      </trkpt>
      <trkpt lat="46.1754" lon="6.78169">
        <ele>2096.2922363281</ele>
        <time>2012-03-16T13:00:12Z</time>
      </trkpt>
      <trkpt lat="46.17544" lon="6.78167">
        <ele>2095.8115234375</ele>
        <time>2012-03-16T13:00:14Z</time>
      </trkpt>
      <trkpt lat="46.17551" lon="6.78169">
        <ele>2094.3693847656</ele>
        <time>2012-03-16T13:00:16Z</time>
      </trkpt>
      <trkpt lat="46.17547" lon="6.78188">
        <ele>2089.08203125</ele>
        <time>2012-03-16T13:00:19Z</time>
      </trkpt>
      <trkpt lat="46.17544" lon="6.78197">
        <ele>2085.7175292969</ele>
        <time>2012-03-16T13:00:20Z</time>
      </trkpt>
      <trkpt lat="46.1754" lon="6.78208">
        <ele>2082.8334960938</ele>
        <time>2012-03-16T13:00:21Z</time>
      </trkpt>
      <trkpt lat="46.17538" lon="6.78233">
        <ele>2078.0270996094</ele>
        <time>2012-03-16T13:00:23Z</time>
      </trkpt>
      <trkpt lat="46.17542" lon="6.78244">
        <ele>2074.181640625</ele>
        <time>2012-03-16T13:00:24Z</time>
      </trkpt>
      <trkpt lat="46.17552" lon="6.78258">
        <ele>2074.6623535156</ele>
        <time>2012-03-16T13:00:26Z</time>
      </trkpt>
      <trkpt lat="46.17553" lon="6.78259">
        <ele>2076.5852050781</ele>
        <time>2012-03-16T13:00:28Z</time>
      </trkpt>
      <trkpt lat="46.17557" lon="6.78257">
        <ele>2076.1044921875</ele>
        <time>2012-03-16T13:00:45Z</time>
      </trkpt>
      <trkpt lat="46.17558" lon="6.78258">
        <ele>2075.6235351562</ele>
        <time>2012-03-16T13:00:51Z</time>
      </trkpt>
      <trkpt lat="46.17572" lon="6.78258">
        <ele>2071.7783203125</ele>
        <time>2012-03-16T13:00:56Z</time>
      </trkpt>
      <trkpt lat="46.17599" lon="6.78259">
        <ele>2066.0104980469</ele>
        <time>2012-03-16T13:01:00Z</time>
      </trkpt>
      <trkpt lat="46.17607" lon="6.78254">
        <ele>2062.6459960938</ele>
        <time>2012-03-16T13:01:01Z</time>
      </trkpt>
      <trkpt lat="46.17628" lon="6.78249">
        <ele>2056.3972167969</ele>
        <time>2012-03-16T13:01:05Z</time>
      </trkpt>
      <trkpt lat="46.17646" lon="6.78248">
        <ele>2053.0327148438</ele>
        <time>2012-03-16T13:01:08Z</time>
      </trkpt>
      <trkpt lat="46.1765" lon="6.78257">
        <ele>2052.0712890625</ele>
        <time>2012-03-16T13:01:09Z</time>
      </trkpt>
      <trkpt lat="46.17665" lon="6.78269">
        <ele>2044.8615722656</ele>
        <time>2012-03-16T13:01:11Z</time>
      </trkpt>
      <trkpt lat="46.17677" lon="6.78242">
        <ele>2039.57421875</ele>
        <time>2012-03-16T13:01:14Z</time>
      </trkpt>
      <trkpt lat="46.17697" lon="6.78236">
        <ele>2034.287109375</ele>
        <time>2012-03-16T13:01:16Z</time>
      </trkpt>
      <trkpt lat="46.17716" lon="6.78254">
        <ele>2030.9226074219</ele>
        <time>2012-03-16T13:01:18Z</time>
      </trkpt>
      <trkpt lat="46.17722" lon="6.78265">
        <ele>2031.4030761719</ele>
        <time>2012-03-16T13:01:19Z</time>
      </trkpt>
      <trkpt lat="46.1774" lon="6.78276">
        <ele>2028.0385742188</ele>
        <time>2012-03-16T13:01:23Z</time>
      </trkpt>
      <trkpt lat="46.17738" lon="6.78259">
        <ele>2022.7512207031</ele>
        <time>2012-03-16T13:01:25Z</time>
      </trkpt>
      <trkpt lat="46.17737" lon="6.78231">
        <ele>2015.5415039062</ele>
        <time>2012-03-16T13:01:28Z</time>
      </trkpt>
      <trkpt lat="46.17751" lon="6.78238">
        <ele>2013.6186523438</ele>
        <time>2012-03-16T13:01:30Z</time>
      </trkpt>
      <trkpt lat="46.17761" lon="6.78246">
        <ele>2011.6960449219</ele>
        <time>2012-03-16T13:01:31Z</time>
      </trkpt>
      <trkpt lat="46.17801" lon="6.78262">
        <ele>2003.0441894531</ele>
        <time>2012-03-16T13:01:34Z</time>
      </trkpt>
      <trkpt lat="46.17812" lon="6.78251">
        <ele>1999.1989746094</ele>
        <time>2012-03-16T13:01:35Z</time>
      </trkpt>
      <trkpt lat="46.17827" lon="6.78211">
        <ele>1993.4309082031</ele>
        <time>2012-03-16T13:01:39Z</time>
      </trkpt>
      <trkpt lat="46.17848" lon="6.78209">
        <ele>1986.7016601562</ele>
        <time>2012-03-16T13:01:42Z</time>
      </trkpt>
      <trkpt lat="46.17862" lon="6.78196">
        <ele>1982.8564453125</ele>
        <time>2012-03-16T13:01:45Z</time>
      </trkpt>
      <trkpt lat="46.17873" lon="6.7819">
        <ele>1980.9340820312</ele>
        <time>2012-03-16T13:01:55Z</time>
      </trkpt>
      <trkpt lat="46.17886" lon="6.78187">
        <ele>1979.0109863281</ele>
        <time>2012-03-16T13:01:57Z</time>
      </trkpt>
      <trkpt lat="46.17909" lon="6.78189">
        <ele>1975.646484375</ele>
        <time>2012-03-16T13:02:00Z</time>
      </trkpt>
      <trkpt lat="46.17926" lon="6.7821">
        <ele>1975.1657714844</ele>
        <time>2012-03-16T13:02:06Z</time>
      </trkpt>
      <trkpt lat="46.17924" lon="6.78209">
        <ele>1974.2045898438</ele>
        <time>2012-03-16T13:02:32Z</time>
      </trkpt>
      <trkpt lat="46.17925" lon="6.78211">
        <ele>1973.7238769531</ele>
        <time>2012-03-16T13:03:04Z</time>
      </trkpt>
      <trkpt lat="46.17929" lon="6.78216">
        <ele>1969.8786621094</ele>
        <time>2012-03-16T13:03:06Z</time>
      </trkpt>
      <trkpt lat="46.17952" lon="6.78213">
        <ele>1962.6687011719</ele>
        <time>2012-03-16T13:03:09Z</time>
      </trkpt>
      <trkpt lat="46.17973" lon="6.78204">
        <ele>1957.8623046875</ele>
        <time>2012-03-16T13:03:11Z</time>
      </trkpt>
      <trkpt lat="46.17982" lon="6.78195">
        <ele>1955.939453125</ele>
        <time>2012-03-16T13:03:12Z</time>
      </trkpt>
      <trkpt lat="46.17998" lon="6.78176">
        <ele>1954.4975585938</ele>
        <time>2012-03-16T13:03:14Z</time>
      </trkpt>
      <trkpt lat="46.18022" lon="6.78131">
        <ele>1946.3264160156</ele>
        <time>2012-03-16T13:03:18Z</time>
      </trkpt>
      <trkpt lat="46.18028" lon="6.78119">
        <ele>1945.3649902344</ele>
        <time>2012-03-16T13:03:19Z</time>
      </trkpt>
      <trkpt lat="46.18048" lon="6.78087">
        <ele>1940.5583496094</ele>
        <time>2012-03-16T13:03:22Z</time>
      </trkpt>
      <trkpt lat="46.18055" lon="6.78078">
        <ele>1943.9230957031</ele>
        <time>2012-03-16T13:03:23Z</time>
      </trkpt>
      <trkpt lat="46.18067" lon="6.78045">
        <ele>1939.1164550781</ele>
        <time>2012-03-16T13:03:26Z</time>
      </trkpt>
      <trkpt lat="46.18073" lon="6.78027">
        <ele>1937.6745605469</ele>
        <time>2012-03-16T13:03:28Z</time>
      </trkpt>
      <trkpt lat="46.18094" lon="6.78018">
        <ele>1934.7907714844</ele>
        <time>2012-03-16T13:03:31Z</time>
      </trkpt>
      <trkpt lat="46.18117" lon="6.78017">
        <ele>1932.3874511719</ele>
        <time>2012-03-16T13:03:34Z</time>
      </trkpt>
      <trkpt lat="46.18149" lon="6.78021">
        <ele>1930.9453125</ele>
        <time>2012-03-16T13:03:38Z</time>
      </trkpt>
      <trkpt lat="46.18172" lon="6.78014">
        <ele>1926.138671875</ele>
        <time>2012-03-16T13:03:41Z</time>
      </trkpt>
      <trkpt lat="46.1818" lon="6.78008">
        <ele>1924.6967773438</ele>
        <time>2012-03-16T13:03:42Z</time>
      </trkpt>
      <trkpt lat="46.18195" lon="6.77994">
        <ele>1923.7353515625</ele>
        <time>2012-03-16T13:03:44Z</time>
      </trkpt>
      <trkpt lat="46.18235" lon="6.77956">
        <ele>1923.2548828125</ele>
        <time>2012-03-16T13:03:51Z</time>
      </trkpt>
      <trkpt lat="46.18253" lon="6.77944">
        <ele>1923.2548828125</ele>
        <time>2012-03-16T13:03:54Z</time>
      </trkpt>
      <trkpt lat="46.18283" lon="6.77934">
        <ele>1921.33203125</ele>
        <time>2012-03-16T13:03:59Z</time>
      </trkpt>
      <trkpt lat="46.1831" lon="6.77939">
        <ele>1916.044921875</ele>
        <time>2012-03-16T13:04:03Z</time>
      </trkpt>
      <trkpt lat="46.18317" lon="6.77945">
        <ele>1915.5642089844</ele>
        <time>2012-03-16T13:04:04Z</time>
      </trkpt>
      <trkpt lat="46.18331" lon="6.77959">
        <ele>1912.6801757812</ele>
        <time>2012-03-16T13:04:06Z</time>
      </trkpt>
      <trkpt lat="46.18337" lon="6.77969">
        <ele>1907.8737792969</ele>
        <time>2012-03-16T13:04:07Z</time>
      </trkpt>
      <trkpt lat="46.18343" lon="6.77979">
        <ele>1908.8349609375</ele>
        <time>2012-03-16T13:04:08Z</time>
      </trkpt>
      <trkpt lat="46.18356" lon="6.78021">
        <ele>1906.431640625</ele>
        <time>2012-03-16T13:04:11Z</time>
      </trkpt>
      <trkpt lat="46.18356" lon="6.78036">
        <ele>1903.0671386719</ele>
        <time>2012-03-16T13:04:12Z</time>
      </trkpt>
      <trkpt lat="46.18351" lon="6.78052">
        <ele>1892.0119628906</ele>
        <time>2012-03-16T13:04:13Z</time>
      </trkpt>
      <trkpt lat="46.18343" lon="6.78067">
        <ele>1892.0119628906</ele>
        <time>2012-03-16T13:04:14Z</time>
      </trkpt>
      <trkpt lat="46.18312" lon="6.7811">
        <ele>1886.244140625</ele>
        <time>2012-03-16T13:04:17Z</time>
      </trkpt>
      <trkpt lat="46.18288" lon="6.78133">
        <ele>1881.91796875</ele>
        <time>2012-03-16T13:04:19Z</time>
      </trkpt>
      <trkpt lat="46.18276" lon="6.78145">
        <ele>1878.5534667969</ele>
        <time>2012-03-16T13:04:20Z</time>
      </trkpt>
      <trkpt lat="46.18265" lon="6.78159">
        <ele>1877.1115722656</ele>
        <time>2012-03-16T13:04:21Z</time>
      </trkpt>
      <trkpt lat="46.18232" lon="6.78209">
        <ele>1868.9404296875</ele>
        <time>2012-03-16T13:04:24Z</time>
      </trkpt>
      <trkpt lat="46.1821" lon="6.78242">
        <ele>1862.6916503906</ele>
        <time>2012-03-16T13:04:26Z</time>
      </trkpt>
      <trkpt lat="46.18172" lon="6.78312">
        <ele>1857.8852539062</ele>
        <time>2012-03-16T13:04:30Z</time>
      </trkpt>
      <trkpt lat="46.1815" lon="6.78365">
        <ele>1852.1171875</ele>
        <time>2012-03-16T13:04:33Z</time>
      </trkpt>
      <trkpt lat="46.18143" lon="6.78381">
        <ele>1853.5593261719</ele>
        <time>2012-03-16T13:04:34Z</time>
      </trkpt>
      <trkpt lat="46.18135" lon="6.78397">
        <ele>1854.0400390625</ele>
        <time>2012-03-16T13:04:35Z</time>
      </trkpt>
      <trkpt lat="46.18107" lon="6.78435">
        <ele>1848.7524414062</ele>
        <time>2012-03-16T13:04:38Z</time>
      </trkpt>
      <trkpt lat="46.18086" lon="6.78458">
        <ele>1843.4653320312</ele>
        <time>2012-03-16T13:04:40Z</time>
      </trkpt>
      <trkpt lat="46.18055" lon="6.78491">
        <ele>1839.6201171875</ele>
        <time>2012-03-16T13:04:43Z</time>
      </trkpt>
      <trkpt lat="46.18022" lon="6.78521">
        <ele>1835.7746582031</ele>
        <time>2012-03-16T13:04:46Z</time>
      </trkpt>
      <trkpt lat="46.18001" lon="6.7854">
        <ele>1833.8520507812</ele>
        <time>2012-03-16T13:04:48Z</time>
      </trkpt>
      <trkpt lat="46.17965" lon="6.7858">
        <ele>1830.0068359375</ele>
        <time>2012-03-16T13:04:52Z</time>
      </trkpt>
      <trkpt lat="46.17957" lon="6.7859">
        <ele>1833.3713378906</ele>
        <time>2012-03-16T13:04:53Z</time>
      </trkpt>
      <trkpt lat="46.17949" lon="6.78601">
        <ele>1830.4875488281</ele>
        <time>2012-03-16T13:04:54Z</time>
      </trkpt>
      <trkpt lat="46.17924" lon="6.78645">
        <ele>1826.1616210938</ele>
        <time>2012-03-16T13:04:58Z</time>
      </trkpt>
      <trkpt lat="46.17881" lon="6.78727">
        <ele>1822.31640625</ele>
        <time>2012-03-16T13:05:05Z</time>
      </trkpt>
      <trkpt lat="46.17893" lon="6.7875">
        <ele>1819.4323730469</ele>
        <time>2012-03-16T13:05:09Z</time>
      </trkpt>
      <trkpt lat="46.17905" lon="6.78808">
        <ele>1816.0676269531</ele>
        <time>2012-03-16T13:05:16Z</time>
      </trkpt>
      <trkpt lat="46.17906" lon="6.78817">
        <ele>1816.0676269531</ele>
        <time>2012-03-16T13:05:17Z</time>
      </trkpt>
      <trkpt lat="46.1791" lon="6.78834">
        <ele>1814.6257324219</ele>
        <time>2012-03-16T13:05:19Z</time>
      </trkpt>
      <trkpt lat="46.17906" lon="6.78846">
        <ele>1815.5871582031</ele>
        <time>2012-03-16T13:05:25Z</time>
      </trkpt>
      <trkpt lat="46.17905" lon="6.78841">
        <ele>1815.5871582031</ele>
        <time>2012-03-16T13:05:29Z</time>
      </trkpt>
      <trkpt lat="46.17896" lon="6.78833">
        <ele>1815.1064453125</ele>
        <time>2012-03-16T13:05:45Z</time>
      </trkpt>
      <trkpt lat="46.1789" lon="6.78832">
        <ele>1814.6257324219</ele>
        <time>2012-03-16T13:05:59Z</time>
      </trkpt>
      <trkpt lat="46.17886" lon="6.78831">
        <ele>1813.6643066406</ele>
        <time>2012-03-16T13:06:07Z</time>
      </trkpt>
      <trkpt lat="46.17875" lon="6.78835">
        <ele>1812.2224121094</ele>
        <time>2012-03-16T13:06:11Z</time>
      </trkpt>
      <trkpt lat="46.17865" lon="6.78839">
        <ele>1811.7419433594</ele>
        <time>2012-03-16T13:06:13Z</time>
      </trkpt>
      <trkpt lat="46.17861" lon="6.78841">
        <ele>1815.1064453125</ele>
        <time>2012-03-16T13:06:14Z</time>
      </trkpt>
      <trkpt lat="46.17854" lon="6.78846">
        <ele>1819.9128417969</ele>
        <time>2012-03-16T13:06:16Z</time>
      </trkpt>
      <trkpt lat="46.17847" lon="6.7885">
        <ele>1826.1616210938</ele>
        <time>2012-03-16T13:06:18Z</time>
      </trkpt>
      <trkpt lat="46.1784" lon="6.78854">
        <ele>1830.4875488281</ele>
        <time>2012-03-16T13:06:20Z</time>
      </trkpt>
      <trkpt lat="46.17837" lon="6.78855">
        <ele>1834.3327636719</ele>
        <time>2012-03-16T13:06:21Z</time>
      </trkpt>
      <trkpt lat="46.1783" lon="6.78858">
        <ele>1838.1782226562</ele>
        <time>2012-03-16T13:06:23Z</time>
      </trkpt>
      <trkpt lat="46.17823" lon="6.78861">
        <ele>1842.9846191406</ele>
        <time>2012-03-16T13:06:25Z</time>
      </trkpt>
      <trkpt lat="46.17818" lon="6.78863">
        <ele>1847.7912597656</ele>
        <time>2012-03-16T13:06:26Z</time>
      </trkpt>
      <trkpt lat="46.17813" lon="6.78864">
        <ele>1846.8298339844</ele>
        <time>2012-03-16T13:06:27Z</time>
      </trkpt>
      <trkpt lat="46.17804" lon="6.78867">
        <ele>1851.1557617188</ele>
        <time>2012-03-16T13:06:29Z</time>
      </trkpt>
      <trkpt lat="46.17796" lon="6.78871">
        <ele>1852.1171875</ele>
        <time>2012-03-16T13:06:31Z</time>
      </trkpt>
      <trkpt lat="46.17783" lon="6.78875">
        <ele>1855.9624023438</ele>
        <time>2012-03-16T13:06:34Z</time>
      </trkpt>
      <trkpt lat="46.17771" lon="6.78881">
        <ele>1861.73046875</ele>
        <time>2012-03-16T13:06:37Z</time>
      </trkpt>
      <trkpt lat="46.17763" lon="6.78884">
        <ele>1865.0949707031</ele>
        <time>2012-03-16T13:06:39Z</time>
      </trkpt>
      <trkpt lat="46.1775" lon="6.78889">
        <ele>1869.9016113281</ele>
        <time>2012-03-16T13:06:42Z</time>
      </trkpt>
      <trkpt lat="46.17746" lon="6.78891">
        <ele>1869.4211425781</ele>
        <time>2012-03-16T13:06:43Z</time>
      </trkpt>
      <trkpt lat="46.17737" lon="6.78895">
        <ele>1873.2663574219</ele>
        <time>2012-03-16T13:06:45Z</time>
      </trkpt>
      <trkpt lat="46.17725" lon="6.789">
        <ele>1875.6694335938</ele>
        <time>2012-03-16T13:06:48Z</time>
      </trkpt>
      <trkpt lat="46.17712" lon="6.78906">
        <ele>1879.0339355469</ele>
        <time>2012-03-16T13:06:51Z</time>
      </trkpt>
      <trkpt lat="46.17699" lon="6.78911">
        <ele>1881.91796875</ele>
        <time>2012-03-16T13:06:54Z</time>
      </trkpt>
      <trkpt lat="46.17686" lon="6.78916">
        <ele>1885.2827148438</ele>
        <time>2012-03-16T13:06:57Z</time>
      </trkpt>
      <trkpt lat="46.17641" lon="6.78933">
        <ele>1888.6474609375</ele>
        <time>2012-03-16T13:07:07Z</time>
      </trkpt>
      <trkpt lat="46.17632" lon="6.78936">
        <ele>1892.0119628906</ele>
        <time>2012-03-16T13:07:09Z</time>
      </trkpt>
      <trkpt lat="46.17628" lon="6.78938">
        <ele>1892.4926757812</ele>
        <time>2012-03-16T13:07:10Z</time>
      </trkpt>
      <trkpt lat="46.17603" lon="6.78948">
        <ele>1896.818359375</ele>
        <time>2012-03-16T13:07:16Z</time>
      </trkpt>
      <trkpt lat="46.1759" lon="6.78954">
        <ele>1900.1833496094</ele>
        <time>2012-03-16T13:07:19Z</time>
      </trkpt>
      <trkpt lat="46.17577" lon="6.78958">
        <ele>1904.0285644531</ele>
        <time>2012-03-16T13:07:22Z</time>
      </trkpt>
      <trkpt lat="46.17573" lon="6.7896">
        <ele>1904.9897460938</ele>
        <time>2012-03-16T13:07:23Z</time>
      </trkpt>
      <trkpt lat="46.17564" lon="6.78963">
        <ele>1906.431640625</ele>
        <time>2012-03-16T13:07:25Z</time>
      </trkpt>
      <trkpt lat="46.17506" lon="6.78987">
        <ele>1908.8349609375</ele>
        <time>2012-03-16T13:07:38Z</time>
      </trkpt>
      <trkpt lat="46.17489" lon="6.78994">
        <ele>1911.23828125</ele>
        <time>2012-03-16T13:07:42Z</time>
      </trkpt>
      <trkpt lat="46.17472" lon="6.79001">
        <ele>1914.6027832031</ele>
        <time>2012-03-16T13:07:46Z</time>
      </trkpt>
      <trkpt lat="46.17454" lon="6.79008">
        <ele>1917.4868164062</ele>
        <time>2012-03-16T13:07:50Z</time>
      </trkpt>
      <trkpt lat="46.17436" lon="6.79014">
        <ele>1922.2934570312</ele>
        <time>2012-03-16T13:07:54Z</time>
      </trkpt>
      <trkpt lat="46.17422" lon="6.7902">
        <ele>1926.138671875</ele>
        <time>2012-03-16T13:07:57Z</time>
      </trkpt>
      <trkpt lat="46.17418" lon="6.79021">
        <ele>1926.138671875</ele>
        <time>2012-03-16T13:07:58Z</time>
      </trkpt>
      <trkpt lat="46.17409" lon="6.79025">
        <ele>1928.0612792969</ele>
        <time>2012-03-16T13:08:00Z</time>
      </trkpt>
      <trkpt lat="46.17396" lon="6.79031">
        <ele>1932.3874511719</ele>
        <time>2012-03-16T13:08:03Z</time>
      </trkpt>
      <trkpt lat="46.17383" lon="6.79036">
        <ele>1935.2712402344</ele>
        <time>2012-03-16T13:08:06Z</time>
      </trkpt>
      <trkpt lat="46.1737" lon="6.7904">
        <ele>1939.1164550781</ele>
        <time>2012-03-16T13:08:09Z</time>
      </trkpt>
      <trkpt lat="46.17359" lon="6.79045">
        <ele>1943.9230957031</ele>
        <time>2012-03-16T13:08:12Z</time>
      </trkpt>
      <trkpt lat="46.17355" lon="6.79047">
        <ele>1947.7683105469</ele>
        <time>2012-03-16T13:08:13Z</time>
      </trkpt>
      <trkpt lat="46.17339" lon="6.79054">
        <ele>1951.1330566406</ele>
        <time>2012-03-16T13:08:17Z</time>
      </trkpt>
      <trkpt lat="46.17331" lon="6.79057">
        <ele>1954.9782714844</ele>
        <time>2012-03-16T13:08:19Z</time>
      </trkpt>
      <trkpt lat="46.17319" lon="6.79062">
        <ele>1959.7846679688</ele>
        <time>2012-03-16T13:08:22Z</time>
      </trkpt>
      <trkpt lat="46.17307" lon="6.79067">
        <ele>1963.1494140625</ele>
        <time>2012-03-16T13:08:25Z</time>
      </trkpt>
      <trkpt lat="46.17299" lon="6.7907">
        <ele>1966.5141601562</ele>
        <time>2012-03-16T13:08:27Z</time>
      </trkpt>
      <trkpt lat="46.17286" lon="6.79075">
        <ele>1970.359375</ele>
        <time>2012-03-16T13:08:30Z</time>
      </trkpt>
      <trkpt lat="46.17228" lon="6.7912">
        <ele>1974.6853027344</ele>
        <time>2012-03-16T13:08:34Z</time>
      </trkpt>
      <trkpt lat="46.17228" lon="6.7912">
        <ele>1978.0498046875</ele>
        <time>2012-03-16T13:08:36Z</time>
      </trkpt>
      <trkpt lat="46.17228" lon="6.7912">
        <ele>1983.3371582031</ele>
        <time>2012-03-16T13:08:38Z</time>
      </trkpt>
      <trkpt lat="46.17228" lon="6.7912">
        <ele>1986.7016601562</ele>
        <time>2012-03-16T13:08:41Z</time>
      </trkpt>
      <trkpt lat="46.17228" lon="6.7912">
        <ele>1990.546875</ele>
        <time>2012-03-16T13:08:45Z</time>
      </trkpt>
      <trkpt lat="46.17228" lon="6.7912">
        <ele>1994.8728027344</ele>
        <time>2012-03-16T13:08:48Z</time>
      </trkpt>
      <trkpt lat="46.17226" lon="6.79124">
        <ele>1998.2375488281</ele>
        <time>2012-03-16T13:08:49Z</time>
      </trkpt>
      <trkpt lat="46.17186" lon="6.79128">
        <ele>2003.0441894531</ele>
        <time>2012-03-16T13:08:53Z</time>
      </trkpt>
      <trkpt lat="46.1718" lon="6.79125">
        <ele>2004.0056152344</ele>
        <time>2012-03-16T13:08:55Z</time>
      </trkpt>
      <trkpt lat="46.17167" lon="6.79127">
        <ele>2007.8508300781</ele>
        <time>2012-03-16T13:08:58Z</time>
      </trkpt>
      <trkpt lat="46.1716" lon="6.79138">
        <ele>2014.580078125</ele>
        <time>2012-03-16T13:09:01Z</time>
      </trkpt>
      <trkpt lat="46.17155" lon="6.79145">
        <ele>2015.5415039062</ele>
        <time>2012-03-16T13:09:03Z</time>
      </trkpt>
      <trkpt lat="46.17133" lon="6.79159">
        <ele>2020.8286132812</ele>
        <time>2012-03-16T13:09:06Z</time>
      </trkpt>
      <trkpt lat="46.1713" lon="6.79157">
        <ele>2020.8286132812</ele>
        <time>2012-03-16T13:09:07Z</time>
      </trkpt>
      <trkpt lat="46.17119" lon="6.79153">
        <ele>2024.673828125</ele>
        <time>2012-03-16T13:09:10Z</time>
      </trkpt>
      <trkpt lat="46.17106" lon="6.79144">
        <ele>2027.0771484375</ele>
        <time>2012-03-16T13:09:14Z</time>
      </trkpt>
      <trkpt lat="46.17099" lon="6.7914">
        <ele>2031.8837890625</ele>
        <time>2012-03-16T13:09:16Z</time>
      </trkpt>
      <trkpt lat="46.17089" lon="6.79133">
        <ele>2035.2482910156</ele>
        <time>2012-03-16T13:09:19Z</time>
      </trkpt>
      <trkpt lat="46.17071" lon="6.79128">
        <ele>2037.1708984375</ele>
        <time>2012-03-16T13:09:21Z</time>
      </trkpt>
      <trkpt lat="46.17058" lon="6.79129">
        <ele>2039.57421875</ele>
        <time>2012-03-16T13:09:24Z</time>
      </trkpt>
      <trkpt lat="46.17049" lon="6.7913">
        <ele>2043.9001464844</ele>
        <time>2012-03-16T13:09:26Z</time>
      </trkpt>
      <trkpt lat="46.17036" lon="6.79132">
        <ele>2047.7456054688</ele>
        <time>2012-03-16T13:09:29Z</time>
      </trkpt>
      <trkpt lat="46.17023" lon="6.79134">
        <ele>2052.0712890625</ele>
        <time>2012-03-16T13:09:32Z</time>
      </trkpt>
      <trkpt lat="46.17015" lon="6.79135">
        <ele>2056.3972167969</ele>
        <time>2012-03-16T13:09:34Z</time>
      </trkpt>
      <trkpt lat="46.17001" lon="6.79136">
        <ele>2059.28125</ele>
        <time>2012-03-16T13:09:37Z</time>
      </trkpt>
      <trkpt lat="46.16994" lon="6.79137">
        <ele>2061.2041015625</ele>
        <time>2012-03-16T13:09:39Z</time>
      </trkpt>
      <trkpt lat="46.16968" lon="6.79155">
        <ele>2064.5686035156</ele>
        <time>2012-03-16T13:09:42Z</time>
      </trkpt>
      <trkpt lat="46.16968" lon="6.79155">
        <ele>2067.4523925781</ele>
        <time>2012-03-16T13:09:44Z</time>
      </trkpt>
      <trkpt lat="46.16955" lon="6.79158">
        <ele>2071.7783203125</ele>
        <time>2012-03-16T13:09:47Z</time>
      </trkpt>
      <trkpt lat="46.16947" lon="6.79161">
        <ele>2076.5852050781</ele>
        <time>2012-03-16T13:09:49Z</time>
      </trkpt>
      <trkpt lat="46.16931" lon="6.79163">
        <ele>2079.9497070312</ele>
        <time>2012-03-16T13:09:53Z</time>
      </trkpt>
      <trkpt lat="46.16915" lon="6.79173">
        <ele>2081.3916015625</ele>
        <time>2012-03-16T13:09:55Z</time>
      </trkpt>
      <trkpt lat="46.16906" lon="6.79187">
        <ele>2085.2368164062</ele>
        <time>2012-03-16T13:09:58Z</time>
      </trkpt>
      <trkpt lat="46.16889" lon="6.79201">
        <ele>2088.6015625</ele>
        <time>2012-03-16T13:10:02Z</time>
      </trkpt>
      <trkpt lat="46.16885" lon="6.79202">
        <ele>2091.4853515625</ele>
        <time>2012-03-16T13:10:03Z</time>
      </trkpt>
      <trkpt lat="46.16873" lon="6.79206">
        <ele>2094.8500976562</ele>
        <time>2012-03-16T13:10:06Z</time>
      </trkpt>
      <trkpt lat="46.16864" lon="6.79208">
        <ele>2098.6953125</ele>
        <time>2012-03-16T13:10:08Z</time>
      </trkpt>
      <trkpt lat="46.16848" lon="6.79212">
        <ele>2102.0598144531</ele>
        <time>2012-03-16T13:10:12Z</time>
      </trkpt>
      <trkpt lat="46.1684" lon="6.79216">
        <ele>2105.9050292969</ele>
        <time>2012-03-16T13:10:14Z</time>
      </trkpt>
      <trkpt lat="46.16828" lon="6.79224">
        <ele>2110.2312011719</ele>
        <time>2012-03-16T13:10:17Z</time>
      </trkpt>
      <trkpt lat="46.16814" lon="6.79226">
        <ele>2114.0764160156</ele>
        <time>2012-03-16T13:10:20Z</time>
      </trkpt>
      <trkpt lat="46.16806" lon="6.79229">
        <ele>2117.4409179688</ele>
        <time>2012-03-16T13:10:22Z</time>
      </trkpt>
      <trkpt lat="46.16794" lon="6.79233">
        <ele>2120.3249511719</ele>
        <time>2012-03-16T13:10:25Z</time>
      </trkpt>
      <trkpt lat="46.16785" lon="6.79236">
        <ele>2123.689453125</ele>
        <time>2012-03-16T13:10:27Z</time>
      </trkpt>
      <trkpt lat="46.16779" lon="6.79231">
        <ele>2127.5349121094</ele>
        <time>2012-03-16T13:10:30Z</time>
      </trkpt>
      <trkpt lat="46.16771" lon="6.79279">
        <ele>2130.4189453125</ele>
        <time>2012-03-16T13:10:32Z</time>
      </trkpt>
      <trkpt lat="46.16763" lon="6.79282">
        <ele>2134.7448730469</ele>
        <time>2012-03-16T13:10:34Z</time>
      </trkpt>
      <trkpt lat="46.1675" lon="6.79287">
        <ele>2139.0705566406</ele>
        <time>2012-03-16T13:10:37Z</time>
      </trkpt>
      <trkpt lat="46.16733" lon="6.79204">
        <ele>2142.916015625</ele>
        <time>2012-03-16T13:10:40Z</time>
      </trkpt>
      <trkpt lat="46.16685" lon="6.79322">
        <ele>2147.72265625</ele>
        <time>2012-03-16T13:10:43Z</time>
      </trkpt>
      <trkpt lat="46.16685" lon="6.79322">
        <ele>2151.0871582031</ele>
        <time>2012-03-16T13:10:45Z</time>
      </trkpt>
      <trkpt lat="46.16685" lon="6.79322">
        <ele>2154.9323730469</ele>
        <time>2012-03-16T13:10:47Z</time>
      </trkpt>
      <trkpt lat="46.16677" lon="6.79314">
        <ele>2159.2585449219</ele>
        <time>2012-03-16T13:10:51Z</time>
      </trkpt>
      <trkpt lat="46.16672" lon="6.79309">
        <ele>2164.5456542969</ele>
        <time>2012-03-16T13:10:54Z</time>
      </trkpt>
      <trkpt lat="46.16667" lon="6.79303">
        <ele>2170.3134765625</ele>
        <time>2012-03-16T13:10:57Z</time>
      </trkpt>
      <trkpt lat="46.16665" lon="6.79301">
        <ele>2173.1977539062</ele>
        <time>2012-03-16T13:10:58Z</time>
      </trkpt>
      <trkpt lat="46.1666" lon="6.79295">
        <ele>2178.4848632812</ele>
        <time>2012-03-16T13:11:01Z</time>
      </trkpt>
      <trkpt lat="46.16658" lon="6.79293">
        <ele>2181.8493652344</ele>
        <time>2012-03-16T13:11:02Z</time>
      </trkpt>
      <trkpt lat="46.16599" lon="6.79301">
        <ele>2185.6945800781</ele>
        <time>2012-03-16T13:11:04Z</time>
      </trkpt>
      <trkpt lat="46.16599" lon="6.79301">
        <ele>2188.5788574219</ele>
        <time>2012-03-16T13:11:06Z</time>
      </trkpt>
      <trkpt lat="46.16599" lon="6.79301">
        <ele>2191.943359375</ele>
        <time>2012-03-16T13:11:08Z</time>
      </trkpt>
      <trkpt lat="46.16594" lon="6.79307">
        <ele>2195.3078613281</ele>
        <time>2012-03-16T13:11:11Z</time>
      </trkpt>
      <trkpt lat="46.16586" lon="6.79318">
        <ele>2198.6723632812</ele>
        <time>2012-03-16T13:11:14Z</time>
      </trkpt>
      <trkpt lat="46.16578" lon="6.79322">
        <ele>2202.0368652344</ele>
        <time>2012-03-16T13:11:16Z</time>
      </trkpt>
      <trkpt lat="46.1657" lon="6.79323">
        <ele>2205.4018554688</ele>
        <time>2012-03-16T13:11:19Z</time>
      </trkpt>
      <trkpt lat="46.1656" lon="6.79319">
        <ele>2210.2082519531</ele>
        <time>2012-03-16T13:11:22Z</time>
      </trkpt>
      <trkpt lat="46.16554" lon="6.79317">
        <ele>2214.5341796875</ele>
        <time>2012-03-16T13:11:24Z</time>
      </trkpt>
      <trkpt lat="46.16552" lon="6.79316">
        <ele>2217.8986816406</ele>
        <time>2012-03-16T13:11:26Z</time>
      </trkpt>
      <trkpt lat="46.16552" lon="6.79316">
        <ele>2220.7829589844</ele>
        <time>2012-03-16T13:11:27Z</time>
      </trkpt>
      <trkpt lat="46.16544" lon="6.79308">
        <ele>2222.2248535156</ele>
        <time>2012-03-16T13:11:30Z</time>
      </trkpt>
      <trkpt lat="46.16535" lon="6.79299">
        <ele>2222.7055664062</ele>
        <time>2012-03-16T13:11:40Z</time>
      </trkpt>
      <trkpt lat="46.16532" lon="6.79296">
        <ele>2221.2634277344</ele>
        <time>2012-03-16T13:11:45Z</time>
      </trkpt>
      <trkpt lat="46.16466" lon="6.79367">
        <ele>2218.8601074219</ele>
        <time>2012-03-16T13:11:57Z</time>
      </trkpt>
      <trkpt lat="46.16507" lon="6.79331">
        <ele>2216.4567871094</ele>
        <time>2012-03-16T13:12:00Z</time>
      </trkpt>
      <trkpt lat="46.16518" lon="6.79318">
        <ele>2211.1696777344</ele>
        <time>2012-03-16T13:12:04Z</time>
      </trkpt>
      <trkpt lat="46.16547" lon="6.79311">
        <ele>2200.5949707031</ele>
        <time>2012-03-16T13:12:08Z</time>
      </trkpt>
      <trkpt lat="46.16572" lon="6.79324">
        <ele>2195.3078613281</ele>
        <time>2012-03-16T13:12:11Z</time>
      </trkpt>
      <trkpt lat="46.16587" lon="6.79316">
        <ele>2191.943359375</ele>
        <time>2012-03-16T13:12:14Z</time>
      </trkpt>
      <trkpt lat="46.16608" lon="6.79299">
        <ele>2190.0207519531</ele>
        <time>2012-03-16T13:12:20Z</time>
      </trkpt>
      <trkpt lat="46.16616" lon="6.79293">
        <ele>2185.6945800781</ele>
        <time>2012-03-16T13:12:25Z</time>
      </trkpt>
      <trkpt lat="46.16617" lon="6.79285">
        <ele>2184.7333984375</ele>
        <time>2012-03-16T13:12:27Z</time>
      </trkpt>
      <trkpt lat="46.16622" lon="6.79277">
        <ele>2182.330078125</ele>
        <time>2012-03-16T13:12:29Z</time>
      </trkpt>
      <trkpt lat="46.16605" lon="6.79204">
        <ele>2176.0815429688</ele>
        <time>2012-03-16T13:12:32Z</time>
      </trkpt>
      <trkpt lat="46.16636" lon="6.79266">
        <ele>2172.7170410156</ele>
        <time>2012-03-16T13:12:33Z</time>
      </trkpt>
      <trkpt lat="46.16646" lon="6.79219">
        <ele>2166.9489746094</ele>
        <time>2012-03-16T13:12:36Z</time>
      </trkpt>
      <trkpt lat="46.16646" lon="6.79279">
        <ele>2162.623046875</ele>
        <time>2012-03-16T13:12:38Z</time>
      </trkpt>
      <trkpt lat="46.1666" lon="6.79215">
        <ele>2159.2585449219</ele>
        <time>2012-03-16T13:12:41Z</time>
      </trkpt>
      <trkpt lat="46.16661" lon="6.79214">
        <ele>2158.7778320312</ele>
        <time>2012-03-16T13:12:42Z</time>
      </trkpt>
      <trkpt lat="46.16666" lon="6.79213">
        <ele>2156.3745117188</ele>
        <time>2012-03-16T13:12:44Z</time>
      </trkpt>
      <trkpt lat="46.16658" lon="6.79294">
        <ele>2155.4130859375</ele>
        <time>2012-03-16T13:12:46Z</time>
      </trkpt>
      <trkpt lat="46.16673" lon="6.7921">
        <ele>2153.4904785156</ele>
        <time>2012-03-16T13:12:50Z</time>
      </trkpt>
      <trkpt lat="46.16698" lon="6.79206">
        <ele>2145.8000488281</ele>
        <time>2012-03-16T13:12:54Z</time>
      </trkpt>
      <trkpt lat="46.16713" lon="6.79205">
        <ele>2141.9548339844</ele>
        <time>2012-03-16T13:12:58Z</time>
      </trkpt>
      <trkpt lat="46.16715" lon="6.79205">
        <ele>2140.9934082031</ele>
        <time>2012-03-16T13:13:07Z</time>
      </trkpt>
      <trkpt lat="46.16719" lon="6.79205">
        <ele>2140.5126953125</ele>
        <time>2012-03-16T13:13:17Z</time>
      </trkpt>
      <trkpt lat="46.16732" lon="6.79204">
        <ele>2135.2253417969</ele>
        <time>2012-03-16T13:13:21Z</time>
      </trkpt>
      <trkpt lat="46.16739" lon="6.79204">
        <ele>2133.7834472656</ele>
        <time>2012-03-16T13:13:22Z</time>
      </trkpt>
      <trkpt lat="46.16771" lon="6.79256">
        <ele>2128.015625</ele>
        <time>2012-03-16T13:13:26Z</time>
      </trkpt>
      <trkpt lat="46.16785" lon="6.79247">
        <ele>2126.0930175781</ele>
        <time>2012-03-16T13:13:29Z</time>
      </trkpt>
      <trkpt lat="46.16791" lon="6.79259">
        <ele>2125.1315917969</ele>
        <time>2012-03-16T13:13:32Z</time>
      </trkpt>
      <trkpt lat="46.16819" lon="6.79225">
        <ele>2113.115234375</ele>
        <time>2012-03-16T13:13:38Z</time>
      </trkpt>
      <trkpt lat="46.16826" lon="6.79225">
        <ele>2109.2700195312</ele>
        <time>2012-03-16T13:13:42Z</time>
      </trkpt>
      <trkpt lat="46.1683" lon="6.79222">
        <ele>2107.3471679688</ele>
        <time>2012-03-16T13:13:44Z</time>
      </trkpt>
      <trkpt lat="46.16836" lon="6.79218">
        <ele>2103.9826660156</ele>
        <time>2012-03-16T13:13:46Z</time>
      </trkpt>
      <trkpt lat="46.16843" lon="6.79214">
        <ele>2100.6179199219</ele>
        <time>2012-03-16T13:13:50Z</time>
      </trkpt>
      <trkpt lat="46.16849" lon="6.79212">
        <ele>2100.6179199219</ele>
        <time>2012-03-16T13:13:51Z</time>
      </trkpt>
      <trkpt lat="46.16864" lon="6.79208">
        <ele>2096.7727050781</ele>
        <time>2012-03-16T13:13:55Z</time>
      </trkpt>
      <trkpt lat="46.16873" lon="6.79206">
        <ele>2095.3308105469</ele>
        <time>2012-03-16T13:13:57Z</time>
      </trkpt>
      <trkpt lat="46.16881" lon="6.79203">
        <ele>2093.8889160156</ele>
        <time>2012-03-16T13:13:59Z</time>
      </trkpt>
      <trkpt lat="46.16892" lon="6.792">
        <ele>2090.0434570312</ele>
        <time>2012-03-16T13:14:03Z</time>
      </trkpt>
      <trkpt lat="46.16894" lon="6.79199">
        <ele>2086.1982421875</ele>
        <time>2012-03-16T13:14:05Z</time>
      </trkpt>
      <trkpt lat="46.16907" lon="6.79185">
        <ele>2081.3916015625</ele>
        <time>2012-03-16T13:14:07Z</time>
      </trkpt>
      <trkpt lat="46.16908" lon="6.79184">
        <ele>2082.3530273438</ele>
        <time>2012-03-16T13:14:08Z</time>
      </trkpt>
      <trkpt lat="46.16938" lon="6.79163">
        <ele>2078.98828125</ele>
        <time>2012-03-16T13:14:11Z</time>
      </trkpt>
      <trkpt lat="46.16941" lon="6.79162">
        <ele>2078.98828125</ele>
        <time>2012-03-16T13:14:12Z</time>
      </trkpt>
      <trkpt lat="46.16968" lon="6.79283">
        <ele>2078.5078125</ele>
        <time>2012-03-16T13:14:19Z</time>
      </trkpt>
      <trkpt lat="46.16968" lon="6.79285">
        <ele>2077.0659179688</ele>
        <time>2012-03-16T13:14:31Z</time>
      </trkpt>
      <trkpt lat="46.1697" lon="6.79283">
        <ele>2077.0659179688</ele>
        <time>2012-03-16T13:14:37Z</time>
      </trkpt>
      <trkpt lat="46.16983" lon="6.79275">
        <ele>2075.1428222656</ele>
        <time>2012-03-16T13:14:47Z</time>
      </trkpt>
      <trkpt lat="46.16988" lon="6.79258">
        <ele>2074.181640625</ele>
        <time>2012-03-16T13:15:03Z</time>
      </trkpt>
      <trkpt lat="46.16986" lon="6.79244">
        <ele>2072.7397460938</ele>
        <time>2012-03-16T13:15:06Z</time>
      </trkpt>
      <trkpt lat="46.16985" lon="6.7924">
        <ele>2071.7783203125</ele>
        <time>2012-03-16T13:15:07Z</time>
      </trkpt>
      <trkpt lat="46.16991" lon="6.79236">
        <ele>2067.4523925781</ele>
        <time>2012-03-16T13:15:10Z</time>
      </trkpt>
      <trkpt lat="46.17" lon="6.79241">
        <ele>2064.087890625</ele>
        <time>2012-03-16T13:15:13Z</time>
      </trkpt>
      <trkpt lat="46.17005" lon="6.79233">
        <ele>2058.8005371094</ele>
        <time>2012-03-16T13:15:15Z</time>
      </trkpt>
      <trkpt lat="46.1701" lon="6.79135">
        <ele>2056.3972167969</ele>
        <time>2012-03-16T13:15:18Z</time>
      </trkpt>
      <trkpt lat="46.17023" lon="6.79134">
        <ele>2053.0327148438</ele>
        <time>2012-03-16T13:15:27Z</time>
      </trkpt>
      <trkpt lat="46.17031" lon="6.79233">
        <ele>2045.8229980469</ele>
        <time>2012-03-16T13:15:30Z</time>
      </trkpt>
      <trkpt lat="46.17039" lon="6.79234">
        <ele>2041.4968261719</ele>
        <time>2012-03-16T13:15:32Z</time>
      </trkpt>
      <trkpt lat="46.17048" lon="6.79213">
        <ele>2038.1323242188</ele>
        <time>2012-03-16T13:15:35Z</time>
      </trkpt>
      <trkpt lat="46.1705" lon="6.79207">
        <ele>2038.1323242188</ele>
        <time>2012-03-16T13:15:36Z</time>
      </trkpt>
      <trkpt lat="46.17051" lon="6.792">
        <ele>2038.1323242188</ele>
        <time>2012-03-16T13:15:45Z</time>
      </trkpt>
      <trkpt lat="46.17061" lon="6.79202">
        <ele>2034.287109375</ele>
        <time>2012-03-16T13:15:48Z</time>
      </trkpt>
      <trkpt lat="46.17066" lon="6.79128">
        <ele>2030.4418945312</ele>
        <time>2012-03-16T13:15:50Z</time>
      </trkpt>
      <trkpt lat="46.17103" lon="6.79142">
        <ele>2028.9997558594</ele>
        <time>2012-03-16T13:15:52Z</time>
      </trkpt>
      <trkpt lat="46.17116" lon="6.79152">
        <ele>2028.5192871094</ele>
        <time>2012-03-16T13:16:00Z</time>
      </trkpt>
      <trkpt lat="46.17116" lon="6.79152">
        <ele>2028.0385742188</ele>
        <time>2012-03-16T13:16:15Z</time>
      </trkpt>
      <trkpt lat="46.17116" lon="6.79152">
        <ele>2026.1157226562</ele>
        <time>2012-03-16T13:16:17Z</time>
      </trkpt>
      <trkpt lat="46.17119" lon="6.79154">
        <ele>2024.673828125</ele>
        <time>2012-03-16T13:16:20Z</time>
      </trkpt>
      <trkpt lat="46.17119" lon="6.79154">
        <ele>2024.1931152344</ele>
        <time>2012-03-16T13:16:30Z</time>
      </trkpt>
      <trkpt lat="46.17124" lon="6.79155">
        <ele>2021.3090820312</ele>
        <time>2012-03-16T13:16:33Z</time>
      </trkpt>
      <trkpt lat="46.1715" lon="6.79152">
        <ele>2017.4638671875</ele>
        <time>2012-03-16T13:16:37Z</time>
      </trkpt>
      <trkpt lat="46.17165" lon="6.79129">
        <ele>2013.6186523438</ele>
        <time>2012-03-16T13:16:41Z</time>
      </trkpt>
      <trkpt lat="46.17172" lon="6.79125">
        <ele>2012.6574707031</ele>
        <time>2012-03-16T13:16:43Z</time>
      </trkpt>
      <trkpt lat="46.17175" lon="6.79125">
        <ele>2010.7346191406</ele>
        <time>2012-03-16T13:16:46Z</time>
      </trkpt>
      <trkpt lat="46.17175" lon="6.79125">
        <ele>2010.7346191406</ele>
        <time>2012-03-16T13:16:50Z</time>
      </trkpt>
      <trkpt lat="46.17178" lon="6.79141">
        <ele>2008.3312988281</ele>
        <time>2012-03-16T13:16:58Z</time>
      </trkpt>
      <trkpt lat="46.17173" lon="6.79135">
        <ele>2006.4086914062</ele>
        <time>2012-03-16T13:17:02Z</time>
      </trkpt>
      <trkpt lat="46.17173" lon="6.79118">
        <ele>2002.5634765625</ele>
        <time>2012-03-16T13:17:05Z</time>
      </trkpt>
      <trkpt lat="46.17183" lon="6.79119">
        <ele>1997.2763671875</ele>
        <time>2012-03-16T13:17:07Z</time>
      </trkpt>
      <trkpt lat="46.17188" lon="6.7913">
        <ele>1996.7956542969</ele>
        <time>2012-03-16T13:17:09Z</time>
      </trkpt>
      <trkpt lat="46.17201" lon="6.7914">
        <ele>1993.4309082031</ele>
        <time>2012-03-16T13:17:14Z</time>
      </trkpt>
      <trkpt lat="46.17219" lon="6.79138">
        <ele>1989.5856933594</ele>
        <time>2012-03-16T13:17:20Z</time>
      </trkpt>
      <trkpt lat="46.17222" lon="6.79133">
        <ele>1988.6245117188</ele>
        <time>2012-03-16T13:17:22Z</time>
      </trkpt>
      <trkpt lat="46.17225" lon="6.79126">
        <ele>1986.2211914062</ele>
        <time>2012-03-16T13:17:28Z</time>
      </trkpt>
      <trkpt lat="46.17226" lon="6.79126">
        <ele>1985.7404785156</ele>
        <time>2012-03-16T13:17:30Z</time>
      </trkpt>
      <trkpt lat="46.17226" lon="6.79126">
        <ele>1984.779296875</ele>
        <time>2012-03-16T13:17:41Z</time>
      </trkpt>
      <trkpt lat="46.17224" lon="6.79129">
        <ele>1984.779296875</ele>
        <time>2012-03-16T13:18:09Z</time>
      </trkpt>
      <trkpt lat="46.1722" lon="6.79145">
        <ele>1981.8952636719</ele>
        <time>2012-03-16T13:18:13Z</time>
      </trkpt>
      <trkpt lat="46.17218" lon="6.79149">
        <ele>1980.9340820312</ele>
        <time>2012-03-16T13:18:16Z</time>
      </trkpt>
      <trkpt lat="46.1722" lon="6.79155">
        <ele>1977.5690917969</ele>
        <time>2012-03-16T13:18:19Z</time>
      </trkpt>
      <trkpt lat="46.17224" lon="6.79153">
        <ele>1972.7626953125</ele>
        <time>2012-03-16T13:18:22Z</time>
      </trkpt>
      <trkpt lat="46.17226" lon="6.79157">
        <ele>1967.9560546875</ele>
        <time>2012-03-16T13:18:24Z</time>
      </trkpt>
      <trkpt lat="46.17227" lon="6.79159">
        <ele>1968.4367675781</ele>
        <time>2012-03-16T13:18:25Z</time>
      </trkpt>
      <trkpt lat="46.17228" lon="6.79164">
        <ele>1965.5529785156</ele>
        <time>2012-03-16T13:18:27Z</time>
      </trkpt>
      <trkpt lat="46.17238" lon="6.79163">
        <ele>1960.2653808594</ele>
        <time>2012-03-16T13:18:30Z</time>
      </trkpt>
      <trkpt lat="46.17241" lon="6.79168">
        <ele>1956.4201660156</ele>
        <time>2012-03-16T13:18:33Z</time>
      </trkpt>
      <trkpt lat="46.17239" lon="6.79183">
        <ele>1952.5749511719</ele>
        <time>2012-03-16T13:18:39Z</time>
      </trkpt>
      <trkpt lat="46.17239" lon="6.79185">
        <ele>1950.65234375</ele>
        <time>2012-03-16T13:18:41Z</time>
      </trkpt>
      <trkpt lat="46.17239" lon="6.79191">
        <ele>1949.2104492188</ele>
        <time>2012-03-16T13:18:45Z</time>
      </trkpt>
      <trkpt lat="46.17245" lon="6.79198">
        <ele>1943.4423828125</ele>
        <time>2012-03-16T13:18:48Z</time>
      </trkpt>
      <trkpt lat="46.17258" lon="6.79205">
        <ele>1934.3100585938</ele>
        <time>2012-03-16T13:18:50Z</time>
      </trkpt>
      <trkpt lat="46.17268" lon="6.79212">
        <ele>1928.0612792969</ele>
        <time>2012-03-16T13:18:51Z</time>
      </trkpt>
      <trkpt lat="46.1728" lon="6.79223">
        <ele>1921.8127441406</ele>
        <time>2012-03-16T13:18:52Z</time>
      </trkpt>
      <trkpt lat="46.17296" lon="6.79236">
        <ele>1914.1220703125</ele>
        <time>2012-03-16T13:18:53Z</time>
      </trkpt>
      <trkpt lat="46.17324" lon="6.79259">
        <ele>1904.0285644531</ele>
        <time>2012-03-16T13:18:55Z</time>
      </trkpt>
      <trkpt lat="46.17416" lon="6.79279">
        <ele>1901.14453125</ele>
        <time>2012-03-16T13:19:02Z</time>
      </trkpt>
      <trkpt lat="46.17442" lon="6.79277">
        <ele>1895.3764648438</ele>
        <time>2012-03-16T13:19:04Z</time>
      </trkpt>
      <trkpt lat="46.17479" lon="6.7926">
        <ele>1889.1279296875</ele>
        <time>2012-03-16T13:19:07Z</time>
      </trkpt>
      <trkpt lat="46.1749" lon="6.79251">
        <ele>1890.0893554688</ele>
        <time>2012-03-16T13:19:08Z</time>
      </trkpt>
      <trkpt lat="46.17499" lon="6.79241">
        <ele>1888.1667480469</ele>
        <time>2012-03-16T13:19:09Z</time>
      </trkpt>
      <trkpt lat="46.17517" lon="6.7922">
        <ele>1885.7634277344</ele>
        <time>2012-03-16T13:19:11Z</time>
      </trkpt>
      <trkpt lat="46.17534" lon="6.79197">
        <ele>1881.91796875</ele>
        <time>2012-03-16T13:19:13Z</time>
      </trkpt>
      <trkpt lat="46.17542" lon="6.79185">
        <ele>1881.91796875</ele>
        <time>2012-03-16T13:19:14Z</time>
      </trkpt>
      <trkpt lat="46.17578" lon="6.79131">
        <ele>1879.9953613281</ele>
        <time>2012-03-16T13:19:19Z</time>
      </trkpt>
      <trkpt lat="46.17593" lon="6.79112">
        <ele>1876.1501464844</ele>
        <time>2012-03-16T13:19:21Z</time>
      </trkpt>
      <trkpt lat="46.17602" lon="6.79102">
        <ele>1871.82421875</ele>
        <time>2012-03-16T13:19:22Z</time>
      </trkpt>
      <trkpt lat="46.17612" lon="6.79092">
        <ele>1867.9787597656</ele>
        <time>2012-03-16T13:19:23Z</time>
      </trkpt>
      <trkpt lat="46.17623" lon="6.79082">
        <ele>1863.1723632812</ele>
        <time>2012-03-16T13:19:24Z</time>
      </trkpt>
      <trkpt lat="46.17647" lon="6.79063">
        <ele>1859.8076171875</ele>
        <time>2012-03-16T13:19:26Z</time>
      </trkpt>
      <trkpt lat="46.17659" lon="6.79055">
        <ele>1859.8076171875</ele>
        <time>2012-03-16T13:19:27Z</time>
      </trkpt>
      <trkpt lat="46.17693" lon="6.79032">
        <ele>1857.8852539062</ele>
        <time>2012-03-16T13:19:30Z</time>
      </trkpt>
      <trkpt lat="46.17749" lon="6.79041">
        <ele>1853.5593261719</ele>
        <time>2012-03-16T13:19:36Z</time>
      </trkpt>
      <trkpt lat="46.17798" lon="6.79114">
        <ele>1852.5979003906</ele>
        <time>2012-03-16T13:19:41Z</time>
      </trkpt>
      <trkpt lat="46.17798" lon="6.79114">
        <ele>1852.5979003906</ele>
        <time>2012-03-16T13:19:43Z</time>
      </trkpt>
      <trkpt lat="46.17818" lon="6.79013">
        <ele>1850.1945800781</ele>
        <time>2012-03-16T13:19:47Z</time>
      </trkpt>
      <trkpt lat="46.17833" lon="6.78989">
        <ele>1845.3879394531</ele>
        <time>2012-03-16T13:19:50Z</time>
      </trkpt>
      <trkpt lat="46.17843" lon="6.78971">
        <ele>1841.5427246094</ele>
        <time>2012-03-16T13:19:52Z</time>
      </trkpt>
      <trkpt lat="46.17848" lon="6.78962">
        <ele>1840.5812988281</ele>
        <time>2012-03-16T13:19:53Z</time>
      </trkpt>
      <trkpt lat="46.17867" lon="6.78941">
        <ele>1830.9682617188</ele>
        <time>2012-03-16T13:19:56Z</time>
      </trkpt>
      <trkpt lat="46.17876" lon="6.78936">
        <ele>1829.0454101562</ele>
        <time>2012-03-16T13:19:57Z</time>
      </trkpt>
      <trkpt lat="46.17896" lon="6.78916">
        <ele>1822.7971191406</ele>
        <time>2012-03-16T13:19:59Z</time>
      </trkpt>
      <trkpt lat="46.17903" lon="6.78903">
        <ele>1816.0676269531</ele>
        <time>2012-03-16T13:20:00Z</time>
      </trkpt>
      <trkpt lat="46.17911" lon="6.78893">
        <ele>1815.1064453125</ele>
        <time>2012-03-16T13:20:01Z</time>
      </trkpt>
      <trkpt lat="46.17928" lon="6.7888">
        <ele>1814.6257324219</ele>
        <time>2012-03-16T13:20:07Z</time>
      </trkpt>
      <trkpt lat="46.17927" lon="6.78882">
        <ele>1815.1064453125</ele>
        <time>2012-03-16T13:20:08Z</time>
      </trkpt>
      <trkpt lat="46.17935" lon="6.78895">
        <ele>1815.1064453125</ele>
        <time>2012-03-16T13:20:22Z</time>
      </trkpt>
      <trkpt lat="46.17935" lon="6.78906">
        <ele>1815.1064453125</ele>
        <time>2012-03-16T13:20:31Z</time>
      </trkpt>
      <trkpt lat="46.17925" lon="6.78914">
        <ele>1813.6643066406</ele>
        <time>2012-03-16T13:20:44Z</time>
      </trkpt>
      <trkpt lat="46.17922" lon="6.78918">
        <ele>1812.703125</ele>
        <time>2012-03-16T13:20:48Z</time>
      </trkpt>
      <trkpt lat="46.1792" lon="6.78922">
        <ele>1813.1838378906</ele>
        <time>2012-03-16T13:20:50Z</time>
      </trkpt>
      <trkpt lat="46.17912" lon="6.78939">
        <ele>1816.0676269531</ele>
        <time>2012-03-16T13:20:54Z</time>
      </trkpt>
      <trkpt lat="46.179" lon="6.7896">
        <ele>1822.31640625</ele>
        <time>2012-03-16T13:20:58Z</time>
      </trkpt>
      <trkpt lat="46.17895" lon="6.78969">
        <ele>1828.0842285156</ele>
        <time>2012-03-16T13:21:00Z</time>
      </trkpt>
      <trkpt lat="46.17888" lon="6.78982">
        <ele>1831.4487304688</ele>
        <time>2012-03-16T13:21:03Z</time>
      </trkpt>
      <trkpt lat="46.17883" lon="6.78991">
        <ele>1835.7746582031</ele>
        <time>2012-03-16T13:21:05Z</time>
      </trkpt>
      <trkpt lat="46.17875" lon="6.79004">
        <ele>1841.5427246094</ele>
        <time>2012-03-16T13:21:08Z</time>
      </trkpt>
      <trkpt lat="46.17868" lon="6.79017">
        <ele>1845.3879394531</ele>
        <time>2012-03-16T13:21:11Z</time>
      </trkpt>
      <trkpt lat="46.17864" lon="6.79025">
        <ele>1849.7138671875</ele>
        <time>2012-03-16T13:21:13Z</time>
      </trkpt>
      <trkpt lat="46.17857" lon="6.79039">
        <ele>1853.0786132812</ele>
        <time>2012-03-16T13:21:16Z</time>
      </trkpt>
      <trkpt lat="46.17854" lon="6.79043">
        <ele>1853.0786132812</ele>
        <time>2012-03-16T13:21:17Z</time>
      </trkpt>
      <trkpt lat="46.17844" lon="6.7906">
        <ele>1857.4045410156</ele>
        <time>2012-03-16T13:21:21Z</time>
      </trkpt>
      <trkpt lat="46.17837" lon="6.79073">
        <ele>1860.2883300781</ele>
        <time>2012-03-16T13:21:24Z</time>
      </trkpt>
      <trkpt lat="46.17798" lon="6.79114">
        <ele>1863.6528320312</ele>
        <time>2012-03-16T13:21:27Z</time>
      </trkpt>
      <trkpt lat="46.17798" lon="6.79114">
        <ele>1863.6528320312</ele>
        <time>2012-03-16T13:21:28Z</time>
      </trkpt>
      <trkpt lat="46.17798" lon="6.79114">
        <ele>1866.5368652344</ele>
        <time>2012-03-16T13:21:32Z</time>
      </trkpt>
      <trkpt lat="46.17798" lon="6.79114">
        <ele>1869.9016113281</ele>
        <time>2012-03-16T13:21:35Z</time>
      </trkpt>
      <trkpt lat="46.17793" lon="6.7912">
        <ele>1876.1501464844</ele>
        <time>2012-03-16T13:21:38Z</time>
      </trkpt>
      <trkpt lat="46.17778" lon="6.79138">
        <ele>1879.0339355469</ele>
        <time>2012-03-16T13:21:43Z</time>
      </trkpt>
      <trkpt lat="46.17766" lon="6.79152">
        <ele>1880.9567871094</ele>
        <time>2012-03-16T13:21:47Z</time>
      </trkpt>
      <trkpt lat="46.17749" lon="6.79171">
        <ele>1884.3215332031</ele>
        <time>2012-03-16T13:21:53Z</time>
      </trkpt>
      <trkpt lat="46.17733" lon="6.79183">
        <ele>1887.2053222656</ele>
        <time>2012-03-16T13:21:58Z</time>
      </trkpt>
      <trkpt lat="46.17721" lon="6.79192">
        <ele>1891.53125</ele>
        <time>2012-03-16T13:22:02Z</time>
      </trkpt>
      <trkpt lat="46.17716" lon="6.79195">
        <ele>1894.8957519531</ele>
        <time>2012-03-16T13:22:05Z</time>
      </trkpt>
      <trkpt lat="46.17721" lon="6.79274">
        <ele>1898.2602539062</ele>
        <time>2012-03-16T13:22:08Z</time>
      </trkpt>
      <trkpt lat="46.17712" lon="6.79279">
        <ele>1903.0671386719</ele>
        <time>2012-03-16T13:22:11Z</time>
      </trkpt>
      <trkpt lat="46.17703" lon="6.79284">
        <ele>1906.431640625</ele>
        <time>2012-03-16T13:22:14Z</time>
      </trkpt>
      <trkpt lat="46.17697" lon="6.79287">
        <ele>1909.7961425781</ele>
        <time>2012-03-16T13:22:16Z</time>
      </trkpt>
      <trkpt lat="46.17683" lon="6.79288">
        <ele>1913.6413574219</ele>
        <time>2012-03-16T13:22:23Z</time>
      </trkpt>
      <trkpt lat="46.17672" lon="6.79287">
        <ele>1917.0063476562</ele>
        <time>2012-03-16T13:22:28Z</time>
      </trkpt>
      <trkpt lat="46.17663" lon="6.79286">
        <ele>1921.33203125</ele>
        <time>2012-03-16T13:22:32Z</time>
      </trkpt>
      <trkpt lat="46.17654" lon="6.79386">
        <ele>1925.1772460938</ele>
        <time>2012-03-16T13:22:35Z</time>
      </trkpt>
      <trkpt lat="46.17646" lon="6.79399">
        <ele>1927.5805664062</ele>
        <time>2012-03-16T13:22:38Z</time>
      </trkpt>
      <trkpt lat="46.17633" lon="6.79421">
        <ele>1932.3874511719</ele>
        <time>2012-03-16T13:22:43Z</time>
      </trkpt>
      <trkpt lat="46.17628" lon="6.7943">
        <ele>1935.2712402344</ele>
        <time>2012-03-16T13:22:45Z</time>
      </trkpt>
      <trkpt lat="46.17626" lon="6.79434">
        <ele>1935.751953125</ele>
        <time>2012-03-16T13:22:46Z</time>
      </trkpt>
      <trkpt lat="46.17618" lon="6.79447">
        <ele>1938.6359863281</ele>
        <time>2012-03-16T13:22:49Z</time>
      </trkpt>
      <trkpt lat="46.17605" lon="6.79469">
        <ele>1941.5197753906</ele>
        <time>2012-03-16T13:22:54Z</time>
      </trkpt>
      <trkpt lat="46.17594" lon="6.79487">
        <ele>1944.8842773438</ele>
        <time>2012-03-16T13:22:58Z</time>
      </trkpt>
      <trkpt lat="46.17581" lon="6.79509">
        <ele>1948.7297363281</ele>
        <time>2012-03-16T13:23:03Z</time>
      </trkpt>
      <trkpt lat="46.17579" lon="6.79513">
        <ele>1948.7297363281</ele>
        <time>2012-03-16T13:23:04Z</time>
      </trkpt>
      <trkpt lat="46.17563" lon="6.7954">
        <ele>1952.0942382812</ele>
        <time>2012-03-16T13:23:10Z</time>
      </trkpt>
      <trkpt lat="46.17558" lon="6.79549">
        <ele>1955.939453125</ele>
        <time>2012-03-16T13:23:12Z</time>
      </trkpt>
      <trkpt lat="46.17547" lon="6.79566">
        <ele>1960.2653808594</ele>
        <time>2012-03-16T13:23:16Z</time>
      </trkpt>
      <trkpt lat="46.17545" lon="6.79571">
        <ele>1960.2653808594</ele>
        <time>2012-03-16T13:23:17Z</time>
      </trkpt>
      <trkpt lat="46.17534" lon="6.79588">
        <ele>1964.5915527344</ele>
        <time>2012-03-16T13:23:21Z</time>
      </trkpt>
      <trkpt lat="46.17527" lon="6.79601">
        <ele>1968.9174804688</ele>
        <time>2012-03-16T13:23:24Z</time>
      </trkpt>
      <trkpt lat="46.17517" lon="6.79619">
        <ele>1972.2819824219</ele>
        <time>2012-03-16T13:23:28Z</time>
      </trkpt>
      <trkpt lat="46.17509" lon="6.79632">
        <ele>1977.0886230469</ele>
        <time>2012-03-16T13:23:31Z</time>
      </trkpt>
      <trkpt lat="46.17501" lon="6.79644">
        <ele>1980.9340820312</ele>
        <time>2012-03-16T13:23:34Z</time>
      </trkpt>
      <trkpt lat="46.17496" lon="6.79653">
        <ele>1985.7404785156</ele>
        <time>2012-03-16T13:23:36Z</time>
      </trkpt>
      <trkpt lat="46.17486" lon="6.7967">
        <ele>1988.6245117188</ele>
        <time>2012-03-16T13:23:40Z</time>
      </trkpt>
      <trkpt lat="46.17479" lon="6.79682">
        <ele>1992.9501953125</ele>
        <time>2012-03-16T13:23:43Z</time>
      </trkpt>
      <trkpt lat="46.17474" lon="6.79691">
        <ele>1996.3151855469</ele>
        <time>2012-03-16T13:23:45Z</time>
      </trkpt>
      <trkpt lat="46.17469" lon="6.79699">
        <ele>2000.1604003906</ele>
        <time>2012-03-16T13:23:47Z</time>
      </trkpt>
      <trkpt lat="46.17464" lon="6.79708">
        <ele>2004.0056152344</ele>
        <time>2012-03-16T13:23:49Z</time>
      </trkpt>
      <trkpt lat="46.17454" lon="6.79725">
        <ele>2007.3701171875</ele>
        <time>2012-03-16T13:23:53Z</time>
      </trkpt>
      <trkpt lat="46.17447" lon="6.79738">
        <ele>2011.2153320312</ele>
        <time>2012-03-16T13:23:56Z</time>
      </trkpt>
      <trkpt lat="46.17442" lon="6.79746">
        <ele>2015.0607910156</ele>
        <time>2012-03-16T13:23:58Z</time>
      </trkpt>
      <trkpt lat="46.17437" lon="6.79755">
        <ele>2018.4252929688</ele>
        <time>2012-03-16T13:24:00Z</time>
      </trkpt>
      <trkpt lat="46.1743" lon="6.79767">
        <ele>2021.7897949219</ele>
        <time>2012-03-16T13:24:03Z</time>
      </trkpt>
      <trkpt lat="46.17427" lon="6.79771">
        <ele>2021.7897949219</ele>
        <time>2012-03-16T13:24:04Z</time>
      </trkpt>
      <trkpt lat="46.17425" lon="6.79775">
        <ele>2025.6350097656</ele>
        <time>2012-03-16T13:24:05Z</time>
      </trkpt>
      <trkpt lat="46.17417" lon="6.79788">
        <ele>2030.4418945312</ele>
        <time>2012-03-16T13:24:08Z</time>
      </trkpt>
      <trkpt lat="46.17412" lon="6.79796">
        <ele>2034.287109375</ele>
        <time>2012-03-16T13:24:10Z</time>
      </trkpt>
      <trkpt lat="46.17408" lon="6.79805">
        <ele>2037.6516113281</ele>
        <time>2012-03-16T13:24:12Z</time>
      </trkpt>
      <trkpt lat="46.174" lon="6.79817">
        <ele>2040.0549316406</ele>
        <time>2012-03-16T13:24:15Z</time>
      </trkpt>
      <trkpt lat="46.17393" lon="6.7983">
        <ele>2043.4194335938</ele>
        <time>2012-03-16T13:24:18Z</time>
      </trkpt>
      <trkpt lat="46.17385" lon="6.79843">
        <ele>2046.3037109375</ele>
        <time>2012-03-16T13:24:21Z</time>
      </trkpt>
      <trkpt lat="46.17378" lon="6.79856">
        <ele>2052.5520019531</ele>
        <time>2012-03-16T13:24:24Z</time>
      </trkpt>
      <trkpt lat="46.17373" lon="6.79864">
        <ele>2056.3972167969</ele>
        <time>2012-03-16T13:24:26Z</time>
      </trkpt>
      <trkpt lat="46.17369" lon="6.79872">
        <ele>2059.76171875</ele>
        <time>2012-03-16T13:24:28Z</time>
      </trkpt>
      <trkpt lat="46.17362" lon="6.79885">
        <ele>2062.1652832031</ele>
        <time>2012-03-16T13:24:31Z</time>
      </trkpt>
      <trkpt lat="46.17351" lon="6.79902">
        <ele>2065.0493164062</ele>
        <time>2012-03-16T13:24:35Z</time>
      </trkpt>
      <trkpt lat="46.17338" lon="6.79925">
        <ele>2068.4138183594</ele>
        <time>2012-03-16T13:24:40Z</time>
      </trkpt>
      <trkpt lat="46.17327" lon="6.79942">
        <ele>2071.7783203125</ele>
        <time>2012-03-16T13:24:44Z</time>
      </trkpt>
      <trkpt lat="46.17319" lon="6.79956">
        <ele>2075.1428222656</ele>
        <time>2012-03-16T13:24:47Z</time>
      </trkpt>
      <trkpt lat="46.17314" lon="6.79965">
        <ele>2077.0659179688</ele>
        <time>2012-03-16T13:24:49Z</time>
      </trkpt>
      <trkpt lat="46.17303" lon="6.79982">
        <ele>2080.4304199219</ele>
        <time>2012-03-16T13:24:53Z</time>
      </trkpt>
      <trkpt lat="46.17298" lon="6.79991">
        <ele>2081.3916015625</ele>
        <time>2012-03-16T13:24:55Z</time>
      </trkpt>
      <trkpt lat="46.1729" lon="6.80004">
        <ele>2085.2368164062</ele>
        <time>2012-03-16T13:24:58Z</time>
      </trkpt>
      <trkpt lat="46.1733" lon="6.79989">
        <ele>2089.08203125</ele>
        <time>2012-03-16T13:25:01Z</time>
      </trkpt>
      <trkpt lat="46.17277" lon="6.80026">
        <ele>2092.4470214844</ele>
        <time>2012-03-16T13:25:03Z</time>
      </trkpt>
      <trkpt lat="46.17272" lon="6.80034">
        <ele>2095.8115234375</ele>
        <time>2012-03-16T13:25:05Z</time>
      </trkpt>
      <trkpt lat="46.17267" lon="6.80043">
        <ele>2098.6953125</ele>
        <time>2012-03-16T13:25:07Z</time>
      </trkpt>
      <trkpt lat="46.17262" lon="6.80051">
        <ele>2102.0598144531</ele>
        <time>2012-03-16T13:25:09Z</time>
      </trkpt>
      <trkpt lat="46.17255" lon="6.80064">
        <ele>2106.3857421875</ele>
        <time>2012-03-16T13:25:12Z</time>
      </trkpt>
      <trkpt lat="46.17247" lon="6.80076">
        <ele>2111.1926269531</ele>
        <time>2012-03-16T13:25:15Z</time>
      </trkpt>
      <trkpt lat="46.17242" lon="6.80085">
        <ele>2114.0764160156</ele>
        <time>2012-03-16T13:25:17Z</time>
      </trkpt>
      <trkpt lat="46.17237" lon="6.80093">
        <ele>2119.3637695312</ele>
        <time>2012-03-16T13:25:19Z</time>
      </trkpt>
      <trkpt lat="46.1723" lon="6.80105">
        <ele>2123.208984375</ele>
        <time>2012-03-16T13:25:22Z</time>
      </trkpt>
      <trkpt lat="46.17227" lon="6.80109">
        <ele>2126.0930175781</ele>
        <time>2012-03-16T13:25:23Z</time>
      </trkpt>
      <trkpt lat="46.1722" lon="6.80122">
        <ele>2130.4189453125</ele>
        <time>2012-03-16T13:25:26Z</time>
      </trkpt>
      <trkpt lat="46.17215" lon="6.8013">
        <ele>2135.2253417969</ele>
        <time>2012-03-16T13:25:28Z</time>
      </trkpt>
      <trkpt lat="46.17211" lon="6.80138">
        <ele>2139.0705566406</ele>
        <time>2012-03-16T13:25:30Z</time>
      </trkpt>
      <trkpt lat="46.17203" lon="6.8015">
        <ele>2143.3967285156</ele>
        <time>2012-03-16T13:25:33Z</time>
      </trkpt>
      <trkpt lat="46.17199" lon="6.80158">
        <ele>2149.1645507812</ele>
        <time>2012-03-16T13:25:35Z</time>
      </trkpt>
      <trkpt lat="46.17196" lon="6.80162">
        <ele>2153.4904785156</ele>
        <time>2012-03-16T13:25:36Z</time>
      </trkpt>
      <trkpt lat="46.17189" lon="6.80174">
        <ele>2157.3359375</ele>
        <time>2012-03-16T13:25:39Z</time>
      </trkpt>
      <trkpt lat="46.17181" lon="6.80185">
        <ele>2159.2585449219</ele>
        <time>2012-03-16T13:25:42Z</time>
      </trkpt>
      <trkpt lat="46.17172" lon="6.80208">
        <ele>2159.7390136719</ele>
        <time>2012-03-16T13:25:50Z</time>
      </trkpt>
      <trkpt lat="46.17176" lon="6.80215">
        <ele>2159.2585449219</ele>
        <time>2012-03-16T13:25:54Z</time>
      </trkpt>
      <trkpt lat="46.17208" lon="6.80232">
        <ele>2157.8166503906</ele>
        <time>2012-03-16T13:26:14Z</time>
      </trkpt>
      <trkpt lat="46.1723" lon="6.80264">
        <ele>2155.8935546875</ele>
        <time>2012-03-16T13:26:25Z</time>
      </trkpt>
      <trkpt lat="46.17236" lon="6.8027">
        <ele>2151.5678710938</ele>
        <time>2012-03-16T13:26:28Z</time>
      </trkpt>
      <trkpt lat="46.17254" lon="6.80238">
        <ele>2141.4741210938</ele>
        <time>2012-03-16T13:26:31Z</time>
      </trkpt>
      <trkpt lat="46.17257" lon="6.80224">
        <ele>2138.109375</ele>
        <time>2012-03-16T13:26:33Z</time>
      </trkpt>
      <trkpt lat="46.17262" lon="6.8022">
        <ele>2134.7448730469</ele>
        <time>2012-03-16T13:26:34Z</time>
      </trkpt>
      <trkpt lat="46.17266" lon="6.80215">
        <ele>2131.3801269531</ele>
        <time>2012-03-16T13:26:35Z</time>
      </trkpt>
      <trkpt lat="46.17268" lon="6.80208">
        <ele>2128.4963378906</ele>
        <time>2012-03-16T13:26:36Z</time>
      </trkpt>
      <trkpt lat="46.17275" lon="6.80191">
        <ele>2122.7282714844</ele>
        <time>2012-03-16T13:26:39Z</time>
      </trkpt>
      <trkpt lat="46.17279" lon="6.80187">
        <ele>2118.8830566406</ele>
        <time>2012-03-16T13:26:40Z</time>
      </trkpt>
      <trkpt lat="46.17291" lon="6.80191">
        <ele>2114.5571289062</ele>
        <time>2012-03-16T13:26:42Z</time>
      </trkpt>
      <trkpt lat="46.17299" lon="6.80197">
        <ele>2111.6733398438</ele>
        <time>2012-03-16T13:26:43Z</time>
      </trkpt>
      <trkpt lat="46.17338" lon="6.80226">
        <ele>2104.4631347656</ele>
        <time>2012-03-16T13:26:48Z</time>
      </trkpt>
      <trkpt lat="46.17355" lon="6.80225">
        <ele>2103.9826660156</ele>
        <time>2012-03-16T13:26:51Z</time>
      </trkpt>
      <trkpt lat="46.17374" lon="6.80206">
        <ele>2100.6179199219</ele>
        <time>2012-03-16T13:26:55Z</time>
      </trkpt>
      <trkpt lat="46.17391" lon="6.80209">
        <ele>2100.1374511719</ele>
        <time>2012-03-16T13:26:57Z</time>
      </trkpt>
      <trkpt lat="46.17406" lon="6.80223">
        <ele>2097.2534179688</ele>
        <time>2012-03-16T13:27:00Z</time>
      </trkpt>
      <trkpt lat="46.17432" lon="6.80231">
        <ele>2094.3693847656</ele>
        <time>2012-03-16T13:27:02Z</time>
      </trkpt>
      <trkpt lat="46.17439" lon="6.80215">
        <ele>2090.0434570312</ele>
        <time>2012-03-16T13:27:04Z</time>
      </trkpt>
      <trkpt lat="46.17445" lon="6.80201">
        <ele>2084.2756347656</ele>
        <time>2012-03-16T13:27:06Z</time>
      </trkpt>
      <trkpt lat="46.17487" lon="6.80223">
        <ele>2079.9497070312</ele>
        <time>2012-03-16T13:27:09Z</time>
      </trkpt>
      <trkpt lat="46.17489" lon="6.80232">
        <ele>2071.7783203125</ele>
        <time>2012-03-16T13:27:11Z</time>
      </trkpt>
      <trkpt lat="46.17528" lon="6.8026">
        <ele>2060.2426757812</ele>
        <time>2012-03-16T13:27:15Z</time>
      </trkpt>
      <trkpt lat="46.17545" lon="6.80281">
        <ele>2058.3198242188</ele>
        <time>2012-03-16T13:27:20Z</time>
      </trkpt>
      <trkpt lat="46.17546" lon="6.80284">
        <ele>2058.8005371094</ele>
        <time>2012-03-16T13:27:30Z</time>
      </trkpt>
      <trkpt lat="46.17546" lon="6.80284">
        <ele>2058.3198242188</ele>
        <time>2012-03-16T13:27:44Z</time>
      </trkpt>
      <trkpt lat="46.17546" lon="6.80284">
        <ele>2058.3198242188</ele>
        <time>2012-03-16T13:27:57Z</time>
      </trkpt>
      <trkpt lat="46.1756" lon="6.80323">
        <ele>2058.3198242188</ele>
        <time>2012-03-16T13:28:06Z</time>
      </trkpt>
      <trkpt lat="46.17629" lon="6.80352">
        <ele>2058.3198242188</ele>
        <time>2012-03-16T13:28:15Z</time>
      </trkpt>
      <trkpt lat="46.17636" lon="6.80349">
        <ele>2062.1652832031</ele>
        <time>2012-03-16T13:28:28Z</time>
      </trkpt>
      <trkpt lat="46.1765" lon="6.80343">
        <ele>2065.5300292969</ele>
        <time>2012-03-16T13:28:40Z</time>
      </trkpt>
      <trkpt lat="46.17664" lon="6.80348">
        <ele>2070.3364257812</ele>
        <time>2012-03-16T13:28:50Z</time>
      </trkpt>
      <trkpt lat="46.17666" lon="6.80349">
        <ele>2070.3364257812</ele>
        <time>2012-03-16T13:28:51Z</time>
      </trkpt>
      <trkpt lat="46.17671" lon="6.80355">
        <ele>2072.2590332031</ele>
        <time>2012-03-16T13:28:55Z</time>
      </trkpt>
      <trkpt lat="46.17679" lon="6.80361">
        <ele>2075.6235351562</ele>
        <time>2012-03-16T13:29:00Z</time>
      </trkpt>
      <trkpt lat="46.17682" lon="6.80364">
        <ele>2076.5852050781</ele>
        <time>2012-03-16T13:29:02Z</time>
      </trkpt>
      <trkpt lat="46.17691" lon="6.80372">
        <ele>2080.9111328125</ele>
        <time>2012-03-16T13:29:08Z</time>
      </trkpt>
      <trkpt lat="46.17696" lon="6.80376">
        <ele>2082.8334960938</ele>
        <time>2012-03-16T13:29:11Z</time>
      </trkpt>
      <trkpt lat="46.177" lon="6.8038">
        <ele>2086.6787109375</ele>
        <time>2012-03-16T13:29:14Z</time>
      </trkpt>
      <trkpt lat="46.17704" lon="6.80384">
        <ele>2090.0434570312</ele>
        <time>2012-03-16T13:29:17Z</time>
      </trkpt>
      <trkpt lat="46.1771" lon="6.80389">
        <ele>2093.8889160156</ele>
        <time>2012-03-16T13:29:21Z</time>
      </trkpt>
      <trkpt lat="46.17713" lon="6.80392">
        <ele>2095.3308105469</ele>
        <time>2012-03-16T13:29:23Z</time>
      </trkpt>
      <trkpt lat="46.1772" lon="6.80398">
        <ele>2098.6953125</ele>
        <time>2012-03-16T13:29:27Z</time>
      </trkpt>
      <trkpt lat="46.17721" lon="6.804">
        <ele>2099.1760253906</ele>
        <time>2012-03-16T13:29:28Z</time>
      </trkpt>
      <trkpt lat="46.17727" lon="6.80405">
        <ele>2101.5793457031</ele>
        <time>2012-03-16T13:29:32Z</time>
      </trkpt>
      <trkpt lat="46.17734" lon="6.80411">
        <ele>2104.9438476562</ele>
        <time>2012-03-16T13:29:36Z</time>
      </trkpt>
      <trkpt lat="46.17737" lon="6.80414">
        <ele>2109.2700195312</ele>
        <time>2012-03-16T13:29:38Z</time>
      </trkpt>
      <trkpt lat="46.17743" lon="6.80419">
        <ele>2113.595703125</ele>
        <time>2012-03-16T13:29:42Z</time>
      </trkpt>
      <trkpt lat="46.17748" lon="6.80424">
        <ele>2116.9604492188</ele>
        <time>2012-03-16T13:29:45Z</time>
      </trkpt>
      <trkpt lat="46.1775" lon="6.80425">
        <ele>2116.9604492188</ele>
        <time>2012-03-16T13:29:46Z</time>
      </trkpt>
      <trkpt lat="46.17754" lon="6.80429">
        <ele>2120.3249511719</ele>
        <time>2012-03-16T13:29:49Z</time>
      </trkpt>
      <trkpt lat="46.17759" lon="6.80434">
        <ele>2124.1704101562</ele>
        <time>2012-03-16T13:29:52Z</time>
      </trkpt>
      <trkpt lat="46.17761" lon="6.80435">
        <ele>2124.1704101562</ele>
        <time>2012-03-16T13:29:53Z</time>
      </trkpt>
      <trkpt lat="46.17765" lon="6.80439">
        <ele>2128.015625</ele>
        <time>2012-03-16T13:29:56Z</time>
      </trkpt>
      <trkpt lat="46.17768" lon="6.80442">
        <ele>2130.8996582031</ele>
        <time>2012-03-16T13:29:58Z</time>
      </trkpt>
      <trkpt lat="46.17773" lon="6.80446">
        <ele>2134.2641601562</ele>
        <time>2012-03-16T13:30:01Z</time>
      </trkpt>
      <trkpt lat="46.17776" lon="6.80449">
        <ele>2137.6286621094</ele>
        <time>2012-03-16T13:30:03Z</time>
      </trkpt>
      <trkpt lat="46.17777" lon="6.8045">
        <ele>2137.6286621094</ele>
        <time>2012-03-16T13:30:04Z</time>
      </trkpt>
      <trkpt lat="46.17783" lon="6.80456">
        <ele>2141.9548339844</ele>
        <time>2012-03-16T13:30:08Z</time>
      </trkpt>
      <trkpt lat="46.17788" lon="6.8046">
        <ele>2145.3193359375</ele>
        <time>2012-03-16T13:30:11Z</time>
      </trkpt>
      <trkpt lat="46.17791" lon="6.80462">
        <ele>2148.6838378906</ele>
        <time>2012-03-16T13:30:13Z</time>
      </trkpt>
      <trkpt lat="46.17795" lon="6.80466">
        <ele>2153.009765625</ele>
        <time>2012-03-16T13:30:16Z</time>
      </trkpt>
      <trkpt lat="46.17796" lon="6.80468">
        <ele>2153.009765625</ele>
        <time>2012-03-16T13:30:17Z</time>
      </trkpt>
      <trkpt lat="46.17802" lon="6.80473">
        <ele>2157.3359375</ele>
        <time>2012-03-16T13:30:21Z</time>
      </trkpt>
      <trkpt lat="46.17807" lon="6.80477">
        <ele>2160.7004394531</ele>
        <time>2012-03-16T13:30:24Z</time>
      </trkpt>
      <trkpt lat="46.17809" lon="6.8048">
        <ele>2164.0649414062</ele>
        <time>2012-03-16T13:30:26Z</time>
      </trkpt>
      <trkpt lat="46.17812" lon="6.80482">
        <ele>2169.3522949219</ele>
        <time>2012-03-16T13:30:28Z</time>
      </trkpt>
      <trkpt lat="46.17816" lon="6.80486">
        <ele>2172.236328125</ele>
        <time>2012-03-16T13:30:31Z</time>
      </trkpt>
      <trkpt lat="46.17821" lon="6.8049">
        <ele>2176.5622558594</ele>
        <time>2012-03-16T13:30:34Z</time>
      </trkpt>
      <trkpt lat="46.17825" lon="6.80494">
        <ele>2180.4074707031</ele>
        <time>2012-03-16T13:30:37Z</time>
      </trkpt>
      <trkpt lat="46.17829" lon="6.80498">
        <ele>2183.7719726562</ele>
        <time>2012-03-16T13:30:40Z</time>
      </trkpt>
      <trkpt lat="46.17833" lon="6.80502">
        <ele>2187.1364746094</ele>
        <time>2012-03-16T13:30:43Z</time>
      </trkpt>
      <trkpt lat="46.17839" lon="6.80507">
        <ele>2190.5012207031</ele>
        <time>2012-03-16T13:30:47Z</time>
      </trkpt>
      <trkpt lat="46.17842" lon="6.80509">
        <ele>2193.3852539062</ele>
        <time>2012-03-16T13:30:49Z</time>
      </trkpt>
      <trkpt lat="46.17846" lon="6.80514">
        <ele>2198.6723632812</ele>
        <time>2012-03-16T13:30:52Z</time>
      </trkpt>
      <trkpt lat="46.17847" lon="6.80515">
        <ele>2198.6723632812</ele>
        <time>2012-03-16T13:30:53Z</time>
      </trkpt>
      <trkpt lat="46.17849" lon="6.80517">
        <ele>2199.1530761719</ele>
        <time>2012-03-16T13:30:54Z</time>
      </trkpt>
      <trkpt lat="46.17853" lon="6.80519">
        <ele>2200.1145019531</ele>
        <time>2012-03-16T13:30:56Z</time>
      </trkpt>
      <trkpt lat="46.17856" lon="6.80522">
        <ele>2202.517578125</ele>
        <time>2012-03-16T13:30:58Z</time>
      </trkpt>
      <trkpt lat="46.17886" lon="6.80532">
        <ele>2202.0368652344</ele>
        <time>2012-03-16T13:31:11Z</time>
      </trkpt>
      <trkpt lat="46.17899" lon="6.80523">
        <ele>2202.0368652344</ele>
        <time>2012-03-16T13:31:21Z</time>
      </trkpt>
      <trkpt lat="46.17909" lon="6.8052">
        <ele>2198.6723632812</ele>
        <time>2012-03-16T13:31:25Z</time>
      </trkpt>
      <trkpt lat="46.17919" lon="6.80515">
        <ele>2195.7885742188</ele>
        <time>2012-03-16T13:31:28Z</time>
      </trkpt>
      <trkpt lat="46.17928" lon="6.80512">
        <ele>2192.4240722656</ele>
        <time>2012-03-16T13:31:31Z</time>
      </trkpt>
      <trkpt lat="46.17934" lon="6.80511">
        <ele>2191.4626464844</ele>
        <time>2012-03-16T13:31:33Z</time>
      </trkpt>
      <trkpt lat="46.17949" lon="6.80507">
        <ele>2188.5788574219</ele>
        <time>2012-03-16T13:31:37Z</time>
      </trkpt>
      <trkpt lat="46.17963" lon="6.80499">
        <ele>2187.1364746094</ele>
        <time>2012-03-16T13:31:47Z</time>
      </trkpt>
      <trkpt lat="46.17972" lon="6.80493">
        <ele>2185.6945800781</ele>
        <time>2012-03-16T13:31:58Z</time>
      </trkpt>
      <trkpt lat="46.17977" lon="6.80504">
        <ele>2181.8493652344</ele>
        <time>2012-03-16T13:32:01Z</time>
      </trkpt>
      <trkpt lat="46.17982" lon="6.80509">
        <ele>2177.04296875</ele>
        <time>2012-03-16T13:32:03Z</time>
      </trkpt>
      <trkpt lat="46.17988" lon="6.80512">
        <ele>2171.2746582031</ele>
        <time>2012-03-16T13:32:07Z</time>
      </trkpt>
      <trkpt lat="46.17993" lon="6.80522">
        <ele>2164.5456542969</ele>
        <time>2012-03-16T13:32:10Z</time>
      </trkpt>
      <trkpt lat="46.17999" lon="6.80524">
        <ele>2162.1423339844</ele>
        <time>2012-03-16T13:32:12Z</time>
      </trkpt>
      <trkpt lat="46.18017" lon="6.80539">
        <ele>2153.009765625</ele>
        <time>2012-03-16T13:32:17Z</time>
      </trkpt>
      <trkpt lat="46.1802" lon="6.80546">
        <ele>2148.6838378906</ele>
        <time>2012-03-16T13:32:19Z</time>
      </trkpt>
      <trkpt lat="46.18023" lon="6.80545">
        <ele>2146.2807617188</ele>
        <time>2012-03-16T13:32:20Z</time>
      </trkpt>
      <trkpt lat="46.18031" lon="6.80547">
        <ele>2140.0322265625</ele>
        <time>2012-03-16T13:32:23Z</time>
      </trkpt>
      <trkpt lat="46.18029" lon="6.80563">
        <ele>2135.7060546875</ele>
        <time>2012-03-16T13:32:27Z</time>
      </trkpt>
      <trkpt lat="46.18038" lon="6.80565">
        <ele>2130.4189453125</ele>
        <time>2012-03-16T13:32:30Z</time>
      </trkpt>
      <trkpt lat="46.18043" lon="6.8056">
        <ele>2128.9768066406</ele>
        <time>2012-03-16T13:32:31Z</time>
      </trkpt>
      <trkpt lat="46.1805" lon="6.80555">
        <ele>2127.5349121094</ele>
        <time>2012-03-16T13:32:33Z</time>
      </trkpt>
      <trkpt lat="46.18055" lon="6.80552">
        <ele>2126.5737304688</ele>
        <time>2012-03-16T13:32:35Z</time>
      </trkpt>
      <trkpt lat="46.18057" lon="6.80552">
        <ele>2125.6123046875</ele>
        <time>2012-03-16T13:32:37Z</time>
      </trkpt>
      <trkpt lat="46.18127" lon="6.80558">
        <ele>2118.8830566406</ele>
        <time>2012-03-16T13:32:41Z</time>
      </trkpt>
      <trkpt lat="46.18127" lon="6.80558">
        <ele>2116.4797363281</ele>
        <time>2012-03-16T13:32:43Z</time>
      </trkpt>
      <trkpt lat="46.18129" lon="6.80565">
        <ele>2110.7119140625</ele>
        <time>2012-03-16T13:32:46Z</time>
      </trkpt>
      <trkpt lat="46.18137" lon="6.80605">
        <ele>2106.8664550781</ele>
        <time>2012-03-16T13:32:47Z</time>
      </trkpt>
      <trkpt lat="46.18137" lon="6.80605">
        <ele>2103.501953125</ele>
        <time>2012-03-16T13:32:48Z</time>
      </trkpt>
      <trkpt lat="46.18137" lon="6.80605">
        <ele>2102.5405273438</ele>
        <time>2012-03-16T13:32:50Z</time>
      </trkpt>
      <trkpt lat="46.1807" lon="6.80707">
        <ele>2098.2145996094</ele>
        <time>2012-03-16T13:32:55Z</time>
      </trkpt>
      <trkpt lat="46.18095" lon="6.80736">
        <ele>2098.2145996094</ele>
        <time>2012-03-16T13:32:58Z</time>
      </trkpt>
      <trkpt lat="46.18108" lon="6.80742">
        <ele>2083.794921875</ele>
        <time>2012-03-16T13:32:59Z</time>
      </trkpt>
      <trkpt lat="46.18121" lon="6.80747">
        <ele>2084.2756347656</ele>
        <time>2012-03-16T13:33:00Z</time>
      </trkpt>
      <trkpt lat="46.18152" lon="6.80752">
        <ele>2080.4304199219</ele>
        <time>2012-03-16T13:33:03Z</time>
      </trkpt>
      <trkpt lat="46.18162" lon="6.80759">
        <ele>2077.5463867188</ele>
        <time>2012-03-16T13:33:04Z</time>
      </trkpt>
      <trkpt lat="46.18182" lon="6.80779">
        <ele>2071.2976074219</ele>
        <time>2012-03-16T13:33:06Z</time>
      </trkpt>
      <trkpt lat="46.18231" lon="6.80856">
        <ele>2066.4912109375</ele>
        <time>2012-03-16T13:33:07Z</time>
      </trkpt>
      <trkpt lat="46.18236" lon="6.80851">
        <ele>2057.8393554688</ele>
        <time>2012-03-16T13:33:08Z</time>
      </trkpt>
      <trkpt lat="46.18251" lon="6.80843">
        <ele>2046.7841796875</ele>
        <time>2012-03-16T13:33:10Z</time>
      </trkpt>
      <trkpt lat="46.18255" lon="6.80841">
        <ele>2047.7456054688</ele>
        <time>2012-03-16T13:33:11Z</time>
      </trkpt>
      <trkpt lat="46.18264" lon="6.80854">
        <ele>2038.6130371094</ele>
        <time>2012-03-16T13:33:12Z</time>
      </trkpt>
      <trkpt lat="46.18274" lon="6.80868">
        <ele>2034.7678222656</ele>
        <time>2012-03-16T13:33:13Z</time>
      </trkpt>
      <trkpt lat="46.18317" lon="6.80884">
        <ele>2033.3256835938</ele>
        <time>2012-03-16T13:33:14Z</time>
      </trkpt>
      <trkpt lat="46.18337" lon="6.80868">
        <ele>2022.7512207031</ele>
        <time>2012-03-16T13:33:16Z</time>
      </trkpt>
      <trkpt lat="46.18348" lon="6.80858">
        <ele>2017.9445800781</ele>
        <time>2012-03-16T13:33:17Z</time>
      </trkpt>
      <trkpt lat="46.18363" lon="6.80845">
        <ele>2014.580078125</ele>
        <time>2012-03-16T13:33:18Z</time>
      </trkpt>
      <trkpt lat="46.18371" lon="6.80839">
        <ele>2015.0607910156</ele>
        <time>2012-03-16T13:33:19Z</time>
      </trkpt>
      <trkpt lat="46.18392" lon="6.80806">
        <ele>2008.3312988281</ele>
        <time>2012-03-16T13:33:21Z</time>
      </trkpt>
      <trkpt lat="46.18448" lon="6.80809">
        <ele>2001.6022949219</ele>
        <time>2012-03-16T13:33:22Z</time>
      </trkpt>
      <trkpt lat="46.18456" lon="6.80815">
        <ele>1995.353515625</ele>
        <time>2012-03-16T13:33:23Z</time>
      </trkpt>
      <trkpt lat="46.18467" lon="6.80824">
        <ele>1989.5856933594</ele>
        <time>2012-03-16T13:33:24Z</time>
      </trkpt>
      <trkpt lat="46.18486" lon="6.80824">
        <ele>1986.2211914062</ele>
        <time>2012-03-16T13:33:25Z</time>
      </trkpt>
      <trkpt lat="46.18501" lon="6.80808">
        <ele>1983.3371582031</ele>
        <time>2012-03-16T13:33:26Z</time>
      </trkpt>
      <trkpt lat="46.18517" lon="6.80795">
        <ele>1979.0109863281</ele>
        <time>2012-03-16T13:33:27Z</time>
      </trkpt>
      <trkpt lat="46.18535" lon="6.80784">
        <ele>1975.1657714844</ele>
        <time>2012-03-16T13:33:28Z</time>
      </trkpt>
      <trkpt lat="46.18576" lon="6.80759">
        <ele>1970.8400878906</ele>
        <time>2012-03-16T13:33:30Z</time>
      </trkpt>
      <trkpt lat="46.18593" lon="6.80742">
        <ele>1966.9948730469</ele>
        <time>2012-03-16T13:33:31Z</time>
      </trkpt>
      <trkpt lat="46.18608" lon="6.80724">
        <ele>1968.4367675781</ele>
        <time>2012-03-16T13:33:32Z</time>
      </trkpt>
      <trkpt lat="46.18672" lon="6.80684">
        <ele>1968.9174804688</ele>
        <time>2012-03-16T13:33:36Z</time>
      </trkpt>
      <trkpt lat="46.18706" lon="6.80652">
        <ele>1967.4753417969</ele>
        <time>2012-03-16T13:33:40Z</time>
      </trkpt>
      <trkpt lat="46.18739" lon="6.80622">
        <ele>1962.1879882812</ele>
        <time>2012-03-16T13:33:44Z</time>
      </trkpt>
      <trkpt lat="46.18748" lon="6.80615">
        <ele>1959.3041992188</ele>
        <time>2012-03-16T13:33:45Z</time>
      </trkpt>
      <trkpt lat="46.18763" lon="6.80613">
        <ele>1958.3427734375</ele>
        <time>2012-03-16T13:33:47Z</time>
      </trkpt>
      <trkpt lat="46.1878" lon="6.80607">
        <ele>1962.1879882812</ele>
        <time>2012-03-16T13:33:50Z</time>
      </trkpt>
      <trkpt lat="46.18781" lon="6.80606">
        <ele>1962.6687011719</ele>
        <time>2012-03-16T13:33:57Z</time>
      </trkpt>
      <trkpt lat="46.18788" lon="6.80603">
        <ele>1959.7846679688</ele>
        <time>2012-03-16T13:34:12Z</time>
      </trkpt>
      <trkpt lat="46.18801" lon="6.80596">
        <ele>1954.4975585938</ele>
        <time>2012-03-16T13:34:15Z</time>
      </trkpt>
      <trkpt lat="46.18811" lon="6.80591">
        <ele>1951.1330566406</ele>
        <time>2012-03-16T13:34:16Z</time>
      </trkpt>
      <trkpt lat="46.18823" lon="6.80584">
        <ele>1944.8842773438</ele>
        <time>2012-03-16T13:34:17Z</time>
      </trkpt>
      <trkpt lat="46.18837" lon="6.80577">
        <ele>1936.7131347656</ele>
        <time>2012-03-16T13:34:18Z</time>
      </trkpt>
      <trkpt lat="46.1886" lon="6.80556">
        <ele>1928.5419921875</ele>
        <time>2012-03-16T13:34:20Z</time>
      </trkpt>
      <trkpt lat="46.18883" lon="6.80536">
        <ele>1925.1772460938</ele>
        <time>2012-03-16T13:34:21Z</time>
      </trkpt>
      <trkpt lat="46.18917" lon="6.80526">
        <ele>1921.8127441406</ele>
        <time>2012-03-16T13:34:23Z</time>
      </trkpt>
      <trkpt lat="46.18934" lon="6.80519">
        <ele>1917.4868164062</ele>
        <time>2012-03-16T13:34:24Z</time>
      </trkpt>
      <trkpt lat="46.18967" lon="6.80509">
        <ele>1907.8737792969</ele>
        <time>2012-03-16T13:34:26Z</time>
      </trkpt>
      <trkpt lat="46.19001" lon="6.80509">
        <ele>1901.6252441406</ele>
        <time>2012-03-16T13:34:28Z</time>
      </trkpt>
      <trkpt lat="46.19053" lon="6.80503">
        <ele>1897.7797851562</ele>
        <time>2012-03-16T13:34:31Z</time>
      </trkpt>
      <trkpt lat="46.19088" lon="6.80488">
        <ele>1896.818359375</ele>
        <time>2012-03-16T13:34:33Z</time>
      </trkpt>
      <trkpt lat="46.19136" lon="6.8043">
        <ele>1896.337890625</ele>
        <time>2012-03-16T13:34:37Z</time>
      </trkpt>
      <trkpt lat="46.1919" lon="6.80403">
        <ele>1899.7023925781</ele>
        <time>2012-03-16T13:34:42Z</time>
      </trkpt>
      <trkpt lat="46.19199" lon="6.80399">
        <ele>1898.2602539062</ele>
        <time>2012-03-16T13:34:43Z</time>
      </trkpt>
      <trkpt lat="46.19225" lon="6.80396">
        <ele>1895.8571777344</ele>
        <time>2012-03-16T13:34:46Z</time>
      </trkpt>
      <trkpt lat="46.1924" lon="6.80395">
        <ele>1894.4150390625</ele>
        <time>2012-03-16T13:34:48Z</time>
      </trkpt>
      <trkpt lat="46.19258" lon="6.80395">
        <ele>1892.9731445312</ele>
        <time>2012-03-16T13:34:50Z</time>
      </trkpt>
      <trkpt lat="46.19268" lon="6.80395">
        <ele>1885.7634277344</ele>
        <time>2012-03-16T13:34:51Z</time>
      </trkpt>
      <trkpt lat="46.19302" lon="6.80394">
        <ele>1881.4372558594</ele>
        <time>2012-03-16T13:34:54Z</time>
      </trkpt>
      <trkpt lat="46.19326" lon="6.80393">
        <ele>1878.5534667969</ele>
        <time>2012-03-16T13:34:56Z</time>
      </trkpt>
      <trkpt lat="46.19355" lon="6.80376">
        <ele>1872.7856445312</ele>
        <time>2012-03-16T13:34:59Z</time>
      </trkpt>
      <trkpt lat="46.19363" lon="6.8037">
        <ele>1868.9404296875</ele>
        <time>2012-03-16T13:35:00Z</time>
      </trkpt>
      <trkpt lat="46.19375" lon="6.80345">
        <ele>1863.6528320312</ele>
        <time>2012-03-16T13:35:02Z</time>
      </trkpt>
      <trkpt lat="46.19385" lon="6.80325">
        <ele>1860.2883300781</ele>
        <time>2012-03-16T13:35:04Z</time>
      </trkpt>
      <trkpt lat="46.19409" lon="6.80301">
        <ele>1853.5593261719</ele>
        <time>2012-03-16T13:35:08Z</time>
      </trkpt>
      <trkpt lat="46.19415" lon="6.80294">
        <ele>1852.5979003906</ele>
        <time>2012-03-16T13:35:10Z</time>
      </trkpt>
      <trkpt lat="46.19417" lon="6.80291">
        <ele>1852.5979003906</ele>
        <time>2012-03-16T13:35:11Z</time>
      </trkpt>
      <trkpt lat="46.19418" lon="6.8029">
        <ele>1852.5979003906</ele>
        <time>2012-03-16T13:35:21Z</time>
      </trkpt>
      <trkpt lat="46.19418" lon="6.8029">
        <ele>1853.0786132812</ele>
        <time>2012-03-16T13:35:26Z</time>
      </trkpt>
      <trkpt lat="46.19417" lon="6.8029">
        <ele>1853.5593261719</ele>
        <time>2012-03-16T13:35:39Z</time>
      </trkpt>
      <trkpt lat="46.19424" lon="6.80281">
        <ele>1849.7138671875</ele>
        <time>2012-03-16T13:35:41Z</time>
      </trkpt>
      <trkpt lat="46.19427" lon="6.80276">
        <ele>1845.8686523438</ele>
        <time>2012-03-16T13:35:42Z</time>
      </trkpt>
      <trkpt lat="46.19431" lon="6.80269">
        <ele>1842.9846191406</ele>
        <time>2012-03-16T13:35:43Z</time>
      </trkpt>
      <trkpt lat="46.19437" lon="6.80253">
        <ele>1841.0620117188</ele>
        <time>2012-03-16T13:35:44Z</time>
      </trkpt>
      <trkpt lat="46.19446" lon="6.80221">
        <ele>1828.5649414062</ele>
        <time>2012-03-16T13:35:46Z</time>
      </trkpt>
      <trkpt lat="46.19448" lon="6.80206">
        <ele>1824.7197265625</ele>
        <time>2012-03-16T13:35:47Z</time>
      </trkpt>
      <trkpt lat="46.19451" lon="6.80202">
        <ele>1819.4323730469</ele>
        <time>2012-03-16T13:35:48Z</time>
      </trkpt>
      <trkpt lat="46.19462" lon="6.80186">
        <ele>1813.1838378906</ele>
        <time>2012-03-16T13:35:49Z</time>
      </trkpt>
      <trkpt lat="46.19481" lon="6.80128">
        <ele>1809.8190917969</ele>
        <time>2012-03-16T13:35:51Z</time>
      </trkpt>
      <trkpt lat="46.19426" lon="6.80038">
        <ele>1804.5319824219</ele>
        <time>2012-03-16T13:35:53Z</time>
      </trkpt>
      <trkpt lat="46.19425" lon="6.79988">
        <ele>1799.7253417969</ele>
        <time>2012-03-16T13:35:55Z</time>
      </trkpt>
      <trkpt lat="46.19424" lon="6.79939">
        <ele>1795.3994140625</ele>
        <time>2012-03-16T13:35:57Z</time>
      </trkpt>
      <trkpt lat="46.19425" lon="6.79869">
        <ele>1788.6704101562</ele>
        <time>2012-03-16T13:36:00Z</time>
      </trkpt>
      <trkpt lat="46.19426" lon="6.79847">
        <ele>1785.3054199219</ele>
        <time>2012-03-16T13:36:01Z</time>
      </trkpt>
      <trkpt lat="46.19431" lon="6.79803">
        <ele>1780.9797363281</ele>
        <time>2012-03-16T13:36:03Z</time>
      </trkpt>
      <trkpt lat="46.19438" lon="6.79761">
        <ele>1780.0183105469</ele>
        <time>2012-03-16T13:36:05Z</time>
      </trkpt>
      <trkpt lat="46.19458" lon="6.79714">
        <ele>1776.6538085938</ele>
        <time>2012-03-16T13:36:08Z</time>
      </trkpt>
      <trkpt lat="46.19468" lon="6.79711">
        <ele>1776.1730957031</ele>
        <time>2012-03-16T13:36:09Z</time>
      </trkpt>
      <trkpt lat="46.19546" lon="6.79686">
        <ele>1767.0405273438</ele>
        <time>2012-03-16T13:36:14Z</time>
      </trkpt>
      <trkpt lat="46.19547" lon="6.79677">
        <ele>1763.67578125</ele>
        <time>2012-03-16T13:36:15Z</time>
      </trkpt>
      <trkpt lat="46.19549" lon="6.79668">
        <ele>1759.8305664062</ele>
        <time>2012-03-16T13:36:16Z</time>
      </trkpt>
      <trkpt lat="46.19554" lon="6.79634">
        <ele>1751.1787109375</ele>
        <time>2012-03-16T13:36:18Z</time>
      </trkpt>
      <trkpt lat="46.19554" lon="6.79619">
        <ele>1744.9301757812</ele>
        <time>2012-03-16T13:36:19Z</time>
      </trkpt>
      <trkpt lat="46.19555" lon="6.79598">
        <ele>1740.6042480469</ele>
        <time>2012-03-16T13:36:20Z</time>
      </trkpt>
      <trkpt lat="46.19556" lon="6.79576">
        <ele>1736.7587890625</ele>
        <time>2012-03-16T13:36:21Z</time>
      </trkpt>
      <trkpt lat="46.19557" lon="6.79548">
        <ele>1730.0297851562</ele>
        <time>2012-03-16T13:36:22Z</time>
      </trkpt>
      <trkpt lat="46.19576" lon="6.79501">
        <ele>1728.587890625</ele>
        <time>2012-03-16T13:36:24Z</time>
      </trkpt>
      <trkpt lat="46.19643" lon="6.79408">
        <ele>1726.6652832031</ele>
        <time>2012-03-16T13:36:31Z</time>
      </trkpt>
      <trkpt lat="46.19657" lon="6.79356">
        <ele>1726.6652832031</ele>
        <time>2012-03-16T13:36:35Z</time>
      </trkpt>
      <trkpt lat="46.19657" lon="6.79356">
        <ele>1727.1459960938</ele>
        <time>2012-03-16T13:36:45Z</time>
      </trkpt>
      <trkpt lat="46.19657" lon="6.79356">
        <ele>1726.6652832031</ele>
        <time>2012-03-16T13:36:58Z</time>
      </trkpt>
      <trkpt lat="46.19657" lon="6.79351">
        <ele>1726.6652832031</ele>
        <time>2012-03-16T13:37:01Z</time>
      </trkpt>
      <trkpt lat="46.19659" lon="6.7933">
        <ele>1724.7426757812</ele>
        <time>2012-03-16T13:37:06Z</time>
      </trkpt>
      <trkpt lat="46.19667" lon="6.793">
        <ele>1718.974609375</ele>
        <time>2012-03-16T13:37:10Z</time>
      </trkpt>
      <trkpt lat="46.19671" lon="6.79291">
        <ele>1718.974609375</ele>
        <time>2012-03-16T13:37:11Z</time>
      </trkpt>
      <trkpt lat="46.19674" lon="6.79282">
        <ele>1717.5324707031</ele>
        <time>2012-03-16T13:37:12Z</time>
      </trkpt>
      <trkpt lat="46.19679" lon="6.79235">
        <ele>1707.9194335938</ele>
        <time>2012-03-16T13:37:16Z</time>
      </trkpt>
      <trkpt lat="46.19677" lon="6.79222">
        <ele>1705.9965820312</ele>
        <time>2012-03-16T13:37:17Z</time>
      </trkpt>
      <trkpt lat="46.19701" lon="6.79166">
        <ele>1701.6708984375</ele>
        <time>2012-03-16T13:37:20Z</time>
      </trkpt>
      <trkpt lat="46.19718" lon="6.79148">
        <ele>1698.3061523438</ele>
        <time>2012-03-16T13:37:23Z</time>
      </trkpt>
      <trkpt lat="46.19729" lon="6.79127">
        <ele>1694.9416503906</ele>
        <time>2012-03-16T13:37:25Z</time>
      </trkpt>
      <trkpt lat="46.19744" lon="6.79101">
        <ele>1690.1350097656</ele>
        <time>2012-03-16T13:37:28Z</time>
      </trkpt>
      <trkpt lat="46.19749" lon="6.7909">
        <ele>1685.3283691406</ele>
        <time>2012-03-16T13:37:30Z</time>
      </trkpt>
      <trkpt lat="46.19749" lon="6.7909">
        <ele>1682.9250488281</ele>
        <time>2012-03-16T13:37:31Z</time>
      </trkpt>
      <trkpt lat="46.19793" lon="6.79058">
        <ele>1677.1574707031</ele>
        <time>2012-03-16T13:37:34Z</time>
      </trkpt>
      <trkpt lat="46.198" lon="6.79048">
        <ele>1675.7150878906</ele>
        <time>2012-03-16T13:37:35Z</time>
      </trkpt>
      <trkpt lat="46.19823" lon="6.79017">
        <ele>1668.9860839844</ele>
        <time>2012-03-16T13:37:38Z</time>
      </trkpt>
      <trkpt lat="46.19834" lon="6.79009">
        <ele>1664.66015625</ele>
        <time>2012-03-16T13:37:39Z</time>
      </trkpt>
      <trkpt lat="46.19856" lon="6.78996">
        <ele>1658.8920898438</ele>
        <time>2012-03-16T13:37:41Z</time>
      </trkpt>
      <trkpt lat="46.19877" lon="6.78989">
        <ele>1653.6049804688</ele>
        <time>2012-03-16T13:37:43Z</time>
      </trkpt>
      <trkpt lat="46.19897" lon="6.7898">
        <ele>1648.7983398438</ele>
        <time>2012-03-16T13:37:45Z</time>
      </trkpt>
      <trkpt lat="46.19929" lon="6.78971">
        <ele>1643.0302734375</ele>
        <time>2012-03-16T13:37:48Z</time>
      </trkpt>
      <trkpt lat="46.19958" lon="6.78964">
        <ele>1640.146484375</ele>
        <time>2012-03-16T13:37:51Z</time>
      </trkpt>
      <trkpt lat="46.19977" lon="6.78959">
        <ele>1638.2238769531</ele>
        <time>2012-03-16T13:37:54Z</time>
      </trkpt>
      <trkpt lat="46.19975" lon="6.7896">
        <ele>1638.2238769531</ele>
        <time>2012-03-16T13:38:00Z</time>
      </trkpt>
      <trkpt lat="46.19973" lon="6.78958">
        <ele>1638.7045898438</ele>
        <time>2012-03-16T13:38:11Z</time>
      </trkpt>
      <trkpt lat="46.19977" lon="6.7895">
        <ele>1637.7431640625</ele>
        <time>2012-03-16T13:38:15Z</time>
      </trkpt>
      <trkpt lat="46.19987" lon="6.78942">
        <ele>1636.3012695312</ele>
        <time>2012-03-16T13:38:18Z</time>
      </trkpt>
      <trkpt lat="46.2" lon="6.78926">
        <ele>1632.9365234375</ele>
        <time>2012-03-16T13:38:21Z</time>
      </trkpt>
      <trkpt lat="46.20014" lon="6.78913">
        <ele>1627.6491699219</ele>
        <time>2012-03-16T13:38:23Z</time>
      </trkpt>
      <trkpt lat="46.20032" lon="6.78896">
        <ele>1623.3234863281</ele>
        <time>2012-03-16T13:38:25Z</time>
      </trkpt>
      <trkpt lat="46.20042" lon="6.78886">
        <ele>1618.0361328125</ele>
        <time>2012-03-16T13:38:26Z</time>
      </trkpt>
      <trkpt lat="46.20052" lon="6.78877">
        <ele>1618.0361328125</ele>
        <time>2012-03-16T13:38:27Z</time>
      </trkpt>
      <trkpt lat="46.20062" lon="6.78864">
        <ele>1613.7102050781</ele>
        <time>2012-03-16T13:38:28Z</time>
      </trkpt>
      <trkpt lat="46.20092" lon="6.78827">
        <ele>1609.8647460938</ele>
        <time>2012-03-16T13:38:31Z</time>
      </trkpt>
      <trkpt lat="46.20114" lon="6.78803">
        <ele>1606.9809570312</ele>
        <time>2012-03-16T13:38:33Z</time>
      </trkpt>
      <trkpt lat="46.20135" lon="6.78783">
        <ele>1601.2131347656</ele>
        <time>2012-03-16T13:38:35Z</time>
      </trkpt>
      <trkpt lat="46.20145" lon="6.78772">
        <ele>1602.1743164062</ele>
        <time>2012-03-16T13:38:36Z</time>
      </trkpt>
      <trkpt lat="46.20196" lon="6.78716">
        <ele>1597.3679199219</ele>
        <time>2012-03-16T13:38:41Z</time>
      </trkpt>
      <trkpt lat="46.20214" lon="6.78697">
        <ele>1590.6384277344</ele>
        <time>2012-03-16T13:38:43Z</time>
      </trkpt>
      <trkpt lat="46.20231" lon="6.78678">
        <ele>1587.7546386719</ele>
        <time>2012-03-16T13:38:45Z</time>
      </trkpt>
      <trkpt lat="46.20249" lon="6.78659">
        <ele>1585.3513183594</ele>
        <time>2012-03-16T13:38:47Z</time>
      </trkpt>
      <trkpt lat="46.20267" lon="6.7864">
        <ele>1581.5061035156</ele>
        <time>2012-03-16T13:38:49Z</time>
      </trkpt>
      <trkpt lat="46.20296" lon="6.78607">
        <ele>1575.2573242188</ele>
        <time>2012-03-16T13:38:52Z</time>
      </trkpt>
      <trkpt lat="46.20306" lon="6.78596">
        <ele>1571.8928222656</ele>
        <time>2012-03-16T13:38:53Z</time>
      </trkpt>
      <trkpt lat="46.20316" lon="6.78587">
        <ele>1571.8928222656</ele>
        <time>2012-03-16T13:38:54Z</time>
      </trkpt>
      <trkpt lat="46.20332" lon="6.78569">
        <ele>1576.21875</ele>
        <time>2012-03-16T13:38:56Z</time>
      </trkpt>
      <trkpt lat="46.20339" lon="6.7856">
        <ele>1575.2573242188</ele>
        <time>2012-03-16T13:38:57Z</time>
      </trkpt>
      <trkpt lat="46.20364" lon="6.78528">
        <ele>1575.2573242188</ele>
        <time>2012-03-16T13:39:02Z</time>
      </trkpt>
      <trkpt lat="46.20389" lon="6.78497">
        <ele>1574.7768554688</ele>
        <time>2012-03-16T13:39:11Z</time>
      </trkpt>
      <trkpt lat="46.20397" lon="6.78483">
        <ele>1572.3735351562</ele>
        <time>2012-03-16T13:39:15Z</time>
      </trkpt>
      <trkpt lat="46.20424" lon="6.78445">
        <ele>1571.412109375</ele>
        <time>2012-03-16T13:39:28Z</time>
      </trkpt>
      <trkpt lat="46.20448" lon="6.7841">
        <ele>1570.931640625</ele>
        <time>2012-03-16T13:39:40Z</time>
      </trkpt>
      <trkpt lat="46.20483" lon="6.78363">
        <ele>1567.5668945312</ele>
        <time>2012-03-16T13:39:50Z</time>
      </trkpt>
      <trkpt lat="46.20515" lon="6.78318">
        <ele>1564.2023925781</ele>
        <time>2012-03-16T13:40:01Z</time>
      </trkpt>
      <trkpt lat="46.20552" lon="6.78272">
        <ele>1560.8376464844</ele>
        <time>2012-03-16T13:40:14Z</time>
      </trkpt>
      <trkpt lat="46.2057" lon="6.78249">
        <ele>1557.4731445312</ele>
        <time>2012-03-16T13:40:20Z</time>
      </trkpt>
      <trkpt lat="46.20584" lon="6.78231">
        <ele>1555.5505371094</ele>
        <time>2012-03-16T13:40:25Z</time>
      </trkpt>
      <trkpt lat="46.2059" lon="6.78222">
        <ele>1554.1086425781</ele>
        <time>2012-03-16T13:40:27Z</time>
      </trkpt>
      <trkpt lat="46.20621" lon="6.78177">
        <ele>1550.7438964844</ele>
        <time>2012-03-16T13:40:37Z</time>
      </trkpt>
      <trkpt lat="46.20647" lon="6.78148">
        <ele>1545.9372558594</ele>
        <time>2012-03-16T13:40:43Z</time>
      </trkpt>
      <trkpt lat="46.20678" lon="6.78096">
        <ele>1542.0920410156</ele>
        <time>2012-03-16T13:40:50Z</time>
      </trkpt>
      <trkpt lat="46.20689" lon="6.78082">
        <ele>1541.1306152344</ele>
        <time>2012-03-16T13:40:52Z</time>
      </trkpt>
      <trkpt lat="46.20699" lon="6.78069">
        <ele>1539.6887207031</ele>
        <time>2012-03-16T13:40:54Z</time>
      </trkpt>
      <trkpt lat="46.20711" lon="6.78046">
        <ele>1535.8435058594</ele>
        <time>2012-03-16T13:40:57Z</time>
      </trkpt>
      <trkpt lat="46.20723" lon="6.78029">
        <ele>1535.8435058594</ele>
        <time>2012-03-16T13:41:00Z</time>
      </trkpt>
      <trkpt lat="46.20733" lon="6.78013">
        <ele>1531.5173339844</ele>
        <time>2012-03-16T13:41:03Z</time>
      </trkpt>
      <trkpt lat="46.20742" lon="6.77986">
        <ele>1528.1528320312</ele>
        <time>2012-03-16T13:41:06Z</time>
      </trkpt>
      <trkpt lat="46.20749" lon="6.77965">
        <ele>1527.1916503906</ele>
        <time>2012-03-16T13:41:08Z</time>
      </trkpt>
      <trkpt lat="46.20758" lon="6.77914">
        <ele>1522.3850097656</ele>
        <time>2012-03-16T13:41:13Z</time>
      </trkpt>
      <trkpt lat="46.2076" lon="6.77888">
        <ele>1521.4235839844</ele>
        <time>2012-03-16T13:41:16Z</time>
      </trkpt>
      <trkpt lat="46.20758" lon="6.77856">
        <ele>1517.5783691406</ele>
        <time>2012-03-16T13:41:20Z</time>
      </trkpt>
      <trkpt lat="46.20755" lon="6.77832">
        <ele>1514.2136230469</ele>
        <time>2012-03-16T13:41:23Z</time>
      </trkpt>
      <trkpt lat="46.20755" lon="6.77824">
        <ele>1514.6943359375</ele>
        <time>2012-03-16T13:41:24Z</time>
      </trkpt>
      <trkpt lat="46.2075" lon="6.77771">
        <ele>1512.291015625</ele>
        <time>2012-03-16T13:41:32Z</time>
      </trkpt>
      <trkpt lat="46.2075" lon="6.77756">
        <ele>1510.8491210938</ele>
        <time>2012-03-16T13:41:34Z</time>
      </trkpt>
      <trkpt lat="46.2075" lon="6.77726">
        <ele>1508.9265136719</ele>
        <time>2012-03-16T13:41:39Z</time>
      </trkpt>
      <trkpt lat="46.20753" lon="6.7769">
        <ele>1507.4846191406</ele>
        <time>2012-03-16T13:41:47Z</time>
      </trkpt>
      <trkpt lat="46.20758" lon="6.77682">
        <ele>1507.9653320312</ele>
        <time>2012-03-16T13:41:59Z</time>
      </trkpt>
      <trkpt lat="46.20766" lon="6.77667">
        <ele>1507.00390625</ele>
        <time>2012-03-16T13:42:17Z</time>
      </trkpt>
      <trkpt lat="46.20771" lon="6.7766">
        <ele>1507.00390625</ele>
        <time>2012-03-16T13:42:34Z</time>
      </trkpt>
      <trkpt lat="46.20767" lon="6.77656">
        <ele>1507.00390625</ele>
        <time>2012-03-16T13:42:48Z</time>
      </trkpt>
      <trkpt lat="46.20762" lon="6.77656">
        <ele>1506.5231933594</ele>
        <time>2012-03-16T13:43:00Z</time>
      </trkpt>
      <trkpt lat="46.20762" lon="6.77656">
        <ele>1506.0424804688</ele>
        <time>2012-03-16T13:43:21Z</time>
      </trkpt>
      <trkpt lat="46.20757" lon="6.77659">
        <ele>1506.5231933594</ele>
        <time>2012-03-16T13:44:30Z</time>
      </trkpt>
      <trkpt lat="46.20762" lon="6.77658">
        <ele>1505.0812988281</ele>
        <time>2012-03-16T13:49:36Z</time>
      </trkpt>
      <trkpt lat="46.20768" lon="6.77665">
        <ele>1505.0812988281</ele>
        <time>2012-03-16T13:49:50Z</time>
      </trkpt>
      <trkpt lat="46.20772" lon="6.77661">
        <ele>1504.6005859375</ele>
        <time>2012-03-16T13:50:06Z</time>
      </trkpt>
      <trkpt lat="46.2078" lon="6.77645">
        <ele>1505.0812988281</ele>
        <time>2012-03-16T13:50:21Z</time>
      </trkpt>
      <trkpt lat="46.20783" lon="6.77634">
        <ele>1504.1201171875</ele>
        <time>2012-03-16T13:50:28Z</time>
      </trkpt>
      <trkpt lat="46.20796" lon="6.77617">
        <ele>1505.0812988281</ele>
        <time>2012-03-16T13:50:41Z</time>
      </trkpt>
      <trkpt lat="46.20816" lon="6.77607">
        <ele>1505.0812988281</ele>
        <time>2012-03-16T13:50:52Z</time>
      </trkpt>
      <trkpt lat="46.20826" lon="6.77604">
        <ele>1504.6005859375</ele>
        <time>2012-03-16T13:51:09Z</time>
      </trkpt>
      <trkpt lat="46.20838" lon="6.77592">
        <ele>1504.6005859375</ele>
        <time>2012-03-16T13:51:19Z</time>
      </trkpt>
      <trkpt lat="46.20844" lon="6.77588">
        <ele>1504.6005859375</ele>
        <time>2012-03-16T13:51:24Z</time>
      </trkpt>
      <trkpt lat="46.20854" lon="6.77581">
        <ele>1504.6005859375</ele>
        <time>2012-03-16T13:51:40Z</time>
      </trkpt>
      <trkpt lat="46.2086" lon="6.7758">
        <ele>1505.0812988281</ele>
        <time>2012-03-16T13:52:02Z</time>
      </trkpt>
      <trkpt lat="46.20863" lon="6.77579">
        <ele>1504.6005859375</ele>
        <time>2012-03-16T13:52:16Z</time>
      </trkpt>
      <trkpt lat="46.20861" lon="6.77579">
        <ele>1504.1201171875</ele>
        <time>2012-03-16T13:52:28Z</time>
      </trkpt>
      <trkpt lat="46.20861" lon="6.77579">
        <ele>1503.6394042969</ele>
        <time>2012-03-16T13:52:49Z</time>
      </trkpt>
      <trkpt lat="46.20856" lon="6.77568">
        <ele>1503.6394042969</ele>
        <time>2012-03-16T13:54:07Z</time>
      </trkpt>
      <trkpt lat="46.20857" lon="6.77577">
        <ele>1503.6394042969</ele>
        <time>2012-03-16T13:55:43Z</time>
      </trkpt>
      <trkpt lat="46.20859" lon="6.77576">
        <ele>1504.1201171875</ele>
        <time>2012-03-16T13:57:43Z</time>
      </trkpt>
      <trkpt lat="46.20858" lon="6.77578">
        <ele>1504.6005859375</ele>
        <time>2012-03-16T14:01:41Z</time>
      </trkpt>
      <trkpt lat="46.20859" lon="6.77576">
        <ele>1504.6005859375</ele>
        <time>2012-03-16T14:02:07Z</time>
      </trkpt>
      <trkpt lat="46.20859" lon="6.77577">
        <ele>1505.0812988281</ele>
        <time>2012-03-16T14:04:43Z</time>
      </trkpt>
      <trkpt lat="46.2086" lon="6.77578">
        <ele>1505.0812988281</ele>
        <time>2012-03-16T14:05:15Z</time>
      </trkpt>
      <trkpt lat="46.20856" lon="6.77579">
        <ele>1505.5620117188</ele>
        <time>2012-03-16T14:05:34Z</time>
      </trkpt>
      <trkpt lat="46.20855" lon="6.77582">
        <ele>1505.0812988281</ele>
        <time>2012-03-16T14:05:53Z</time>
      </trkpt>
      <trkpt lat="46.20856" lon="6.7758">
        <ele>1506.5231933594</ele>
        <time>2012-03-16T14:06:22Z</time>
      </trkpt>
      <trkpt lat="46.20859" lon="6.77571">
        <ele>1505.5620117188</ele>
        <time>2012-03-16T14:06:37Z</time>
      </trkpt>
      <trkpt lat="46.20869" lon="6.7756">
        <ele>1505.5620117188</ele>
        <time>2012-03-16T14:06:54Z</time>
      </trkpt>
      <trkpt lat="46.20876" lon="6.77555">
        <ele>1505.0812988281</ele>
        <time>2012-03-16T14:07:06Z</time>
      </trkpt>
      <trkpt lat="46.2088" lon="6.77554">
        <ele>1503.6394042969</ele>
        <time>2012-03-16T14:07:09Z</time>
      </trkpt>
      <trkpt lat="46.20906" lon="6.77529">
        <ele>1502.197265625</ele>
        <time>2012-03-16T14:07:19Z</time>
      </trkpt>
      <trkpt lat="46.20912" lon="6.77518">
        <ele>1501.716796875</ele>
        <time>2012-03-16T14:07:21Z</time>
      </trkpt>
      <trkpt lat="46.20914" lon="6.77507">
        <ele>1501.716796875</ele>
        <time>2012-03-16T14:07:23Z</time>
      </trkpt>
      <trkpt lat="46.20916" lon="6.77496">
        <ele>1500.7553710938</ele>
        <time>2012-03-16T14:07:25Z</time>
      </trkpt>
      <trkpt lat="46.20919" lon="6.77491">
        <ele>1499.7939453125</ele>
        <time>2012-03-16T14:07:26Z</time>
      </trkpt>
      <trkpt lat="46.20925" lon="6.77482">
        <ele>1498.3518066406</ele>
        <time>2012-03-16T14:07:28Z</time>
      </trkpt>
      <trkpt lat="46.20933" lon="6.77474">
        <ele>1496.4294433594</ele>
        <time>2012-03-16T14:07:30Z</time>
      </trkpt>
      <trkpt lat="46.20952" lon="6.77458">
        <ele>1493.0646972656</ele>
        <time>2012-03-16T14:07:34Z</time>
      </trkpt>
      <trkpt lat="46.20963" lon="6.77431">
        <ele>1491.1420898438</ele>
        <time>2012-03-16T14:07:39Z</time>
      </trkpt>
      <trkpt lat="46.20968" lon="6.77415">
        <ele>1487.7775878906</ele>
        <time>2012-03-16T14:07:43Z</time>
      </trkpt>
      <trkpt lat="46.20966" lon="6.77409">
        <ele>1487.7775878906</ele>
        <time>2012-03-16T14:07:44Z</time>
      </trkpt>
      <trkpt lat="46.20961" lon="6.77402">
        <ele>1483.9321289062</ele>
        <time>2012-03-16T14:07:46Z</time>
      </trkpt>
      <trkpt lat="46.20963" lon="6.77382">
        <ele>1477.68359375</ele>
        <time>2012-03-16T14:07:49Z</time>
      </trkpt>
      <trkpt lat="46.20972" lon="6.77333">
        <ele>1472.396484375</ele>
        <time>2012-03-16T14:07:53Z</time>
      </trkpt>
      <trkpt lat="46.20973" lon="6.773">
        <ele>1467.1091308594</ele>
        <time>2012-03-16T14:07:56Z</time>
      </trkpt>
      <trkpt lat="46.20973" lon="6.77289">
        <ele>1467.1091308594</ele>
        <time>2012-03-16T14:07:57Z</time>
      </trkpt>
      <trkpt lat="46.20973" lon="6.77258">
        <ele>1466.1477050781</ele>
        <time>2012-03-16T14:08:00Z</time>
      </trkpt>
      <trkpt lat="46.20978" lon="6.77242">
        <ele>1465.6672363281</ele>
        <time>2012-03-16T14:08:02Z</time>
      </trkpt>
      <trkpt lat="46.20998" lon="6.77235">
        <ele>1460.8605957031</ele>
        <time>2012-03-16T14:08:05Z</time>
      </trkpt>
      <trkpt lat="46.21007" lon="6.77227">
        <ele>1459.4187011719</ele>
        <time>2012-03-16T14:08:07Z</time>
      </trkpt>
      <trkpt lat="46.21025" lon="6.7721">
        <ele>1449.8054199219</ele>
        <time>2012-03-16T14:08:11Z</time>
      </trkpt>
      <trkpt lat="46.21034" lon="6.77197">
        <ele>1443.5568847656</ele>
        <time>2012-03-16T14:08:13Z</time>
      </trkpt>
      <trkpt lat="46.21051" lon="6.77175">
        <ele>1440.1923828125</ele>
        <time>2012-03-16T14:08:17Z</time>
      </trkpt>
      <trkpt lat="46.21059" lon="6.77167">
        <ele>1436.8276367188</ele>
        <time>2012-03-16T14:08:19Z</time>
      </trkpt>
      <trkpt lat="46.21069" lon="6.77152">
        <ele>1432.0209960938</ele>
        <time>2012-03-16T14:08:22Z</time>
      </trkpt>
      <trkpt lat="46.21074" lon="6.77142">
        <ele>1428.6564941406</ele>
        <time>2012-03-16T14:08:24Z</time>
      </trkpt>
      <trkpt lat="46.21079" lon="6.77131">
        <ele>1425.2917480469</ele>
        <time>2012-03-16T14:08:26Z</time>
      </trkpt>
      <trkpt lat="46.2108" lon="6.77126">
        <ele>1424.8112792969</ele>
        <time>2012-03-16T14:08:27Z</time>
      </trkpt>
      <trkpt lat="46.21095" lon="6.77103">
        <ele>1417.6010742188</ele>
        <time>2012-03-16T14:08:31Z</time>
      </trkpt>
      <trkpt lat="46.21105" lon="6.77091">
        <ele>1409.4301757812</ele>
        <time>2012-03-16T14:08:33Z</time>
      </trkpt>
      <trkpt lat="46.2112" lon="6.77071">
        <ele>1405.5849609375</ele>
        <time>2012-03-16T14:08:36Z</time>
      </trkpt>
      <trkpt lat="46.21125" lon="6.77064">
        <ele>1402.2199707031</ele>
        <time>2012-03-16T14:08:37Z</time>
      </trkpt>
      <trkpt lat="46.21138" lon="6.7705">
        <ele>1396.4523925781</ele>
        <time>2012-03-16T14:08:39Z</time>
      </trkpt>
      <trkpt lat="46.21151" lon="6.77037">
        <ele>1392.1264648438</ele>
        <time>2012-03-16T14:08:41Z</time>
      </trkpt>
      <trkpt lat="46.21169" lon="6.77031">
        <ele>1387.8002929688</ele>
        <time>2012-03-16T14:08:43Z</time>
      </trkpt>
      <trkpt lat="46.21197" lon="6.77006">
        <ele>1385.3969726562</ele>
        <time>2012-03-16T14:08:47Z</time>
      </trkpt>
      <trkpt lat="46.21202" lon="6.77">
        <ele>1384.9165039062</ele>
        <time>2012-03-16T14:08:48Z</time>
      </trkpt>
      <trkpt lat="46.21223" lon="6.76964">
        <ele>1379.6291503906</ele>
        <time>2012-03-16T14:08:53Z</time>
      </trkpt>
      <trkpt lat="46.21231" lon="6.76949">
        <ele>1376.2646484375</ele>
        <time>2012-03-16T14:08:55Z</time>
      </trkpt>
      <trkpt lat="46.21232" lon="6.7694">
        <ele>1372.9001464844</ele>
        <time>2012-03-16T14:08:56Z</time>
      </trkpt>
      <trkpt lat="46.2123" lon="6.76898">
        <ele>1367.1320800781</ele>
        <time>2012-03-16T14:09:01Z</time>
      </trkpt>
      <trkpt lat="46.21229" lon="6.76882">
        <ele>1362.3254394531</ele>
        <time>2012-03-16T14:09:03Z</time>
      </trkpt>
      <trkpt lat="46.21227" lon="6.76854">
        <ele>1357.5190429688</ele>
        <time>2012-03-16T14:09:07Z</time>
      </trkpt>
      <trkpt lat="46.21227" lon="6.76829">
        <ele>1354.154296875</ele>
        <time>2012-03-16T14:09:10Z</time>
      </trkpt>
      <trkpt lat="46.21225" lon="6.76804">
        <ele>1351.7509765625</ele>
        <time>2012-03-16T14:09:13Z</time>
      </trkpt>
      <trkpt lat="46.21222" lon="6.76784">
        <ele>1344.541015625</ele>
        <time>2012-03-16T14:09:15Z</time>
      </trkpt>
      <trkpt lat="46.21207" lon="6.76762">
        <ele>1337.3310546875</ele>
        <time>2012-03-16T14:09:19Z</time>
      </trkpt>
      <trkpt lat="46.21207" lon="6.76747">
        <ele>1333.9665527344</ele>
        <time>2012-03-16T14:09:21Z</time>
      </trkpt>
      <trkpt lat="46.21194" lon="6.76734">
        <ele>1330.1213378906</ele>
        <time>2012-03-16T14:09:24Z</time>
      </trkpt>
      <trkpt lat="46.21191" lon="6.76739">
        <ele>1328.6794433594</ele>
        <time>2012-03-16T14:09:25Z</time>
      </trkpt>
      <trkpt lat="46.21179" lon="6.7674">
        <ele>1324.8342285156</ele>
        <time>2012-03-16T14:09:28Z</time>
      </trkpt>
      <trkpt lat="46.21157" lon="6.76713">
        <ele>1318.5854492188</ele>
        <time>2012-03-16T14:09:33Z</time>
      </trkpt>
      <trkpt lat="46.21146" lon="6.76698">
        <ele>1314.2595214844</ele>
        <time>2012-03-16T14:09:35Z</time>
      </trkpt>
      <trkpt lat="46.2114" lon="6.76694">
        <ele>1313.7788085938</ele>
        <time>2012-03-16T14:09:36Z</time>
      </trkpt>
      <trkpt lat="46.2113" lon="6.76679">
        <ele>1313.7788085938</ele>
        <time>2012-03-16T14:09:39Z</time>
      </trkpt>
      <trkpt lat="46.21136" lon="6.76676">
        <ele>1310.8950195312</ele>
        <time>2012-03-16T14:09:42Z</time>
      </trkpt>
      <trkpt lat="46.2114" lon="6.76677">
        <ele>1310.8950195312</ele>
        <time>2012-03-16T14:09:43Z</time>
      </trkpt>
      <trkpt lat="46.21143" lon="6.76677">
        <ele>1308.9724121094</ele>
        <time>2012-03-16T14:09:44Z</time>
      </trkpt>
      <trkpt lat="46.2116" lon="6.76672">
        <ele>1307.0495605469</ele>
        <time>2012-03-16T14:09:50Z</time>
      </trkpt>
      <trkpt lat="46.21144" lon="6.76647">
        <ele>1303.2043457031</ele>
        <time>2012-03-16T14:09:56Z</time>
      </trkpt>
      <trkpt lat="46.2115" lon="6.76624">
        <ele>1298.3977050781</ele>
        <time>2012-03-16T14:10:03Z</time>
      </trkpt>
      <trkpt lat="46.21173" lon="6.76599">
        <ele>1291.1877441406</ele>
        <time>2012-03-16T14:10:07Z</time>
      </trkpt>
      <trkpt lat="46.21182" lon="6.76578">
        <ele>1283.0166015625</ele>
        <time>2012-03-16T14:10:09Z</time>
      </trkpt>
      <trkpt lat="46.21186" lon="6.76566">
        <ele>1279.6520996094</ele>
        <time>2012-03-16T14:10:10Z</time>
      </trkpt>
      <trkpt lat="46.21199" lon="6.76535">
        <ele>1272.4421386719</ele>
        <time>2012-03-16T14:10:12Z</time>
      </trkpt>
      <trkpt lat="46.21217" lon="6.76505">
        <ele>1268.5969238281</ele>
        <time>2012-03-16T14:10:14Z</time>
      </trkpt>
      <trkpt lat="46.21227" lon="6.7649">
        <ele>1263.7902832031</ele>
        <time>2012-03-16T14:10:15Z</time>
      </trkpt>
      <trkpt lat="46.21237" lon="6.76474">
        <ele>1259.9448242188</ele>
        <time>2012-03-16T14:10:16Z</time>
      </trkpt>
      <trkpt lat="46.21254" lon="6.76436">
        <ele>1251.2932128906</ele>
        <time>2012-03-16T14:10:18Z</time>
      </trkpt>
      <trkpt lat="46.21283" lon="6.76358">
        <ele>1246.9672851562</ele>
        <time>2012-03-16T14:10:22Z</time>
      </trkpt>
      <trkpt lat="46.21299" lon="6.76322">
        <ele>1242.1606445312</ele>
        <time>2012-03-16T14:10:24Z</time>
      </trkpt>
      <trkpt lat="46.21313" lon="6.76294">
        <ele>1237.3540039062</ele>
        <time>2012-03-16T14:10:27Z</time>
      </trkpt>
      <trkpt lat="46.21329" lon="6.76294">
        <ele>1233.9895019531</ele>
        <time>2012-03-16T14:10:30Z</time>
      </trkpt>
      <trkpt lat="46.21339" lon="6.76297">
        <ele>1232.5476074219</ele>
        <time>2012-03-16T14:10:32Z</time>
      </trkpt>
      <trkpt lat="46.21345" lon="6.76301">
        <ele>1231.1057128906</ele>
        <time>2012-03-16T14:10:40Z</time>
      </trkpt>
      <trkpt lat="46.21343" lon="6.76307">
        <ele>1230.625</ele>
        <time>2012-03-16T14:10:58Z</time>
      </trkpt>
      <trkpt lat="46.21344" lon="6.76306">
        <ele>1230.625</ele>
        <time>2012-03-16T14:11:05Z</time>
      </trkpt>
      <trkpt lat="46.21343" lon="6.76304">
        <ele>1230.625</ele>
        <time>2012-03-16T14:11:27Z</time>
      </trkpt>
      <trkpt lat="46.21346" lon="6.76309">
        <ele>1230.1442871094</ele>
        <time>2012-03-16T14:11:35Z</time>
      </trkpt>
      <trkpt lat="46.21346" lon="6.7631">
        <ele>1230.625</ele>
        <time>2012-03-16T14:11:36Z</time>
      </trkpt>
      <trkpt lat="46.21349" lon="6.7633">
        <ele>1231.5861816406</ele>
        <time>2012-03-16T14:11:51Z</time>
      </trkpt>
      <trkpt lat="46.21357" lon="6.76338">
        <ele>1231.5861816406</ele>
        <time>2012-03-16T14:12:02Z</time>
      </trkpt>
      <trkpt lat="46.21367" lon="6.76343">
        <ele>1232.0668945312</ele>
        <time>2012-03-16T14:12:13Z</time>
      </trkpt>
      <trkpt lat="46.21369" lon="6.76344">
        <ele>1231.5861816406</ele>
        <time>2012-03-16T14:12:15Z</time>
      </trkpt>
      <trkpt lat="46.21382" lon="6.76351">
        <ele>1230.625</ele>
        <time>2012-03-16T14:12:31Z</time>
      </trkpt>
      <trkpt lat="46.21388" lon="6.76347">
        <ele>1230.625</ele>
        <time>2012-03-16T14:13:14Z</time>
      </trkpt>
      <trkpt lat="46.21385" lon="6.76348">
        <ele>1230.625</ele>
        <time>2012-03-16T14:13:35Z</time>
      </trkpt>
    </trkseg>
  </trk>
</gpx>